<?xml version='1.0' encoding='UTF-8'?><gpx version="1.1" creator="JPX - https://github.com/jenetics/jpx" xmlns="http://www.topografix.com/GPX/1/1"><trk><trkseg><trkpt lat="45.5294349" lon="11.4504054"><ele>40.0</ele><time>2026-04-04T11:52:46.814Z</time></trkpt><trkpt lat="45.5293394" lon="11.4504756"><ele>40.0</ele><time>2026-04-04T11:52:47.816Z</time></trkpt><trkpt lat="45.5292594" lon="11.4505204"><ele>40.0</ele><time>2026-04-04T11:52:49.816Z</time></trkpt><trkpt lat="45.5292262" lon="11.4506079"><ele>40.0</ele><time>2026-04-04T11:52:51.813Z</time></trkpt><trkpt lat="45.5292351" lon="11.4506997"><ele>40.0</ele><time>2026-04-04T11:52:52.813Z</time></trkpt><trkpt lat="45.5292728" lon="11.4508111"><ele>40.0</ele><time>2026-04-04T11:52:53.815Z</time></trkpt><trkpt lat="45.5293401" lon="11.4509313"><ele>40.0</ele><time>2026-04-04T11:52:54.814Z</time></trkpt><trkpt lat="45.5294032" lon="11.4510817"><ele>40.0</ele><time>2026-04-04T11:52:55.813Z</time></trkpt><trkpt lat="45.5294316" lon="11.4512533"><ele>40.0</ele><time>2026-04-04T11:52:56.815Z</time></trkpt><trkpt lat="45.5294317" lon="11.4514263"><ele>40.0</ele><time>2026-04-04T11:52:57.813Z</time></trkpt><trkpt lat="45.5294302" lon="11.4516003"><ele>40.0</ele><time>2026-04-04T11:52:58.813Z</time></trkpt><trkpt lat="45.5294622" lon="11.4517611"><ele>40.0</ele><time>2026-04-04T11:52:59.815Z</time></trkpt><trkpt lat="45.529524" lon="11.4519058"><ele>40.0</ele><time>2026-04-04T11:53:00.813Z</time></trkpt><trkpt lat="45.5295942" lon="11.4520608"><ele>40.0</ele><time>2026-04-04T11:53:01.814Z</time></trkpt><trkpt lat="45.5296424" lon="11.4522412"><ele>40.0</ele><time>2026-04-04T11:53:02.813Z</time></trkpt><trkpt lat="45.5296856" lon="11.45243"><ele>40.0</ele><time>2026-04-04T11:53:03.814Z</time></trkpt><trkpt lat="45.5297372" lon="11.4526214"><ele>40.0</ele><time>2026-04-04T11:53:04.814Z</time></trkpt><trkpt lat="45.5297938" lon="11.4528169"><ele>40.0</ele><time>2026-04-04T11:53:05.814Z</time></trkpt><trkpt lat="45.5298476" lon="11.4530188"><ele>39.66666666666667</ele><time>2026-04-04T11:53:06.813Z</time></trkpt><trkpt lat="45.5298957" lon="11.4532325"><ele>39.333333333333336</ele><time>2026-04-04T11:53:07.814Z</time></trkpt><trkpt lat="45.5299269" lon="11.4534511"><ele>39.0</ele><time>2026-04-04T11:53:08.813Z</time></trkpt><trkpt lat="45.529934" lon="11.4536774"><ele>40.333333333333336</ele><time>2026-04-04T11:53:09.814Z</time></trkpt><trkpt lat="45.5299091" lon="11.4539139"><ele>41.66666666666667</ele><time>2026-04-04T11:53:10.814Z</time></trkpt><trkpt lat="45.5298725" lon="11.4541472"><ele>43.0</ele><time>2026-04-04T11:53:11.815Z</time></trkpt><trkpt lat="45.5298349" lon="11.4543754"><ele>43.0</ele><time>2026-04-04T11:53:12.814Z</time></trkpt><trkpt lat="45.5297977" lon="11.4545835"><ele>43.0</ele><time>2026-04-04T11:53:13.813Z</time></trkpt><trkpt lat="45.5297634" lon="11.4547766"><ele>43.0</ele><time>2026-04-04T11:53:14.813Z</time></trkpt><trkpt lat="45.5297305" lon="11.45495"><ele>43.0</ele><time>2026-04-04T11:53:15.813Z</time></trkpt><trkpt lat="45.5297016" lon="11.455103"><ele>43.0</ele><time>2026-04-04T11:53:16.814Z</time></trkpt><trkpt lat="45.5296777" lon="11.4552259"><ele>43.0</ele><time>2026-04-04T11:53:17.815Z</time></trkpt><trkpt lat="45.5296627" lon="11.455315"><ele>43.0</ele><time>2026-04-04T11:53:18.813Z</time></trkpt><trkpt lat="45.5296766" lon="11.4554384"><ele>43.0</ele><time>2026-04-04T11:53:20.813Z</time></trkpt><trkpt lat="45.5297267" lon="11.4555009"><ele>43.0</ele><time>2026-04-04T11:53:21.815Z</time></trkpt><trkpt lat="45.5298037" lon="11.4555538"><ele>43.0</ele><time>2026-04-04T11:53:22.814Z</time></trkpt><trkpt lat="45.5298688" lon="11.4556427"><ele>43.2</ele><time>2026-04-04T11:53:23.813Z</time></trkpt><trkpt lat="45.5299172" lon="11.4557479"><ele>43.4</ele><time>2026-04-04T11:53:24.813Z</time></trkpt><trkpt lat="45.5299487" lon="11.4558794"><ele>43.6</ele><time>2026-04-04T11:53:25.814Z</time></trkpt><trkpt lat="45.529993" lon="11.4560281"><ele>43.800000000000004</ele><time>2026-04-04T11:53:26.814Z</time></trkpt><trkpt lat="45.5300461" lon="11.4561899"><ele>44.0</ele><time>2026-04-04T11:53:27.814Z</time></trkpt><trkpt lat="45.5301057" lon="11.45636"><ele>43.5</ele><time>2026-04-04T11:53:28.814Z</time></trkpt><trkpt lat="45.5301761" lon="11.4565526"><ele>43.0</ele><time>2026-04-04T11:53:29.815Z</time></trkpt><trkpt lat="45.5302389" lon="11.4567428"><ele>42.5</ele><time>2026-04-04T11:53:30.814Z</time></trkpt><trkpt lat="45.5302884" lon="11.4569267"><ele>42.0</ele><time>2026-04-04T11:53:31.814Z</time></trkpt><trkpt lat="45.5303192" lon="11.4570856"><ele>41.8</ele><time>2026-04-04T11:53:32.814Z</time></trkpt><trkpt lat="45.5303438" lon="11.4572034"><ele>41.6</ele><time>2026-04-04T11:53:33.814Z</time></trkpt><trkpt lat="45.5303704" lon="11.4572859"><ele>41.4</ele><time>2026-04-04T11:53:34.814Z</time></trkpt><trkpt lat="45.5304879" lon="11.4573145"><ele>41.199999999999996</ele><time>2026-04-04T11:53:36.814Z</time></trkpt><trkpt lat="45.5305905" lon="11.4572726"><ele>41.0</ele><time>2026-04-04T11:53:37.814Z</time></trkpt><trkpt lat="45.5306895" lon="11.4572337"><ele>42.8</ele><time>2026-04-04T11:53:38.813Z</time></trkpt><trkpt lat="45.5307895" lon="11.4572044"><ele>44.599999999999994</ele><time>2026-04-04T11:53:39.814Z</time></trkpt><trkpt lat="45.5308897" lon="11.4571755"><ele>46.4</ele><time>2026-04-04T11:53:40.814Z</time></trkpt><trkpt lat="45.5309836" lon="11.4571495"><ele>48.2</ele><time>2026-04-04T11:53:41.814Z</time></trkpt><trkpt lat="45.5310636" lon="11.457125"><ele>50.0</ele><time>2026-04-04T11:53:42.813Z</time></trkpt><trkpt lat="45.5311489" lon="11.4570396"><ele>50.4</ele><time>2026-04-04T11:53:44.814Z</time></trkpt><trkpt lat="45.5311718" lon="11.4569419"><ele>50.8</ele><time>2026-04-04T11:53:45.815Z</time></trkpt><trkpt lat="45.53119" lon="11.4568188"><ele>51.2</ele><time>2026-04-04T11:53:46.815Z</time></trkpt><trkpt lat="45.5312108" lon="11.456675"><ele>51.6</ele><time>2026-04-04T11:53:47.814Z</time></trkpt><trkpt lat="45.5312471" lon="11.4565375"><ele>52.0</ele><time>2026-04-04T11:53:48.814Z</time></trkpt><trkpt lat="45.5312826" lon="11.4563897"><ele>56.5</ele><time>2026-04-04T11:53:49.813Z</time></trkpt><trkpt lat="45.5313244" lon="11.4562251"><ele>61.0</ele><time>2026-04-04T11:53:50.814Z</time></trkpt><trkpt lat="45.5313619" lon="11.4560666"><ele>65.5</ele><time>2026-04-04T11:53:51.815Z</time></trkpt><trkpt lat="45.531411" lon="11.455894"><ele>70.0</ele><time>2026-04-04T11:53:52.814Z</time></trkpt><trkpt lat="45.5314769" lon="11.4557477"><ele>70.0</ele><time>2026-04-04T11:53:53.814Z</time></trkpt><trkpt lat="45.5315746" lon="11.4556195"><ele>70.0</ele><time>2026-04-04T11:53:54.815Z</time></trkpt><trkpt lat="45.531681" lon="11.4555061"><ele>70.0</ele><time>2026-04-04T11:53:55.814Z</time></trkpt><trkpt lat="45.5317899" lon="11.4553868"><ele>70.0</ele><time>2026-04-04T11:53:56.815Z</time></trkpt><trkpt lat="45.5318997" lon="11.455269"><ele>69.75</ele><time>2026-04-04T11:53:57.814Z</time></trkpt><trkpt lat="45.5320018" lon="11.4551779"><ele>69.5</ele><time>2026-04-04T11:53:58.814Z</time></trkpt><trkpt lat="45.5321078" lon="11.4550985"><ele>69.25</ele><time>2026-04-04T11:53:59.814Z</time></trkpt><trkpt lat="45.5322187" lon="11.4550397"><ele>69.0</ele><time>2026-04-04T11:54:00.813Z</time></trkpt><trkpt lat="45.5323253" lon="11.4550123"><ele>71.5</ele><time>2026-04-04T11:54:01.815Z</time></trkpt><trkpt lat="45.532401" lon="11.455024"><ele>74.0</ele><time>2026-04-04T11:54:02.814Z</time></trkpt><trkpt lat="45.5325173" lon="11.4551275"><ele>76.5</ele><time>2026-04-04T11:54:04.813Z</time></trkpt><trkpt lat="45.5325793" lon="11.4551818"><ele>79.0</ele><time>2026-04-04T11:54:05.814Z</time></trkpt><trkpt lat="45.5326485" lon="11.4551891"><ele>81.5</ele><time>2026-04-04T11:54:06.815Z</time></trkpt><trkpt lat="45.5327282" lon="11.4551771"><ele>84.0</ele><time>2026-04-04T11:54:07.815Z</time></trkpt><trkpt lat="45.5328093" lon="11.4551535"><ele>86.0</ele><time>2026-04-04T11:54:08.814Z</time></trkpt><trkpt lat="45.5328992" lon="11.4551419"><ele>88.0</ele><time>2026-04-04T11:54:09.814Z</time></trkpt><trkpt lat="45.5330133" lon="11.4551127"><ele>90.0</ele><time>2026-04-04T11:54:10.814Z</time></trkpt><trkpt lat="45.5331258" lon="11.455052"><ele>92.0</ele><time>2026-04-04T11:54:11.814Z</time></trkpt><trkpt lat="45.5332182" lon="11.4549581"><ele>94.0</ele><time>2026-04-04T11:54:12.813Z</time></trkpt><trkpt lat="45.5332924" lon="11.4549067"><ele>94.0</ele><time>2026-04-04T11:54:13.815Z</time></trkpt><trkpt lat="45.5333626" lon="11.4549144"><ele>94.0</ele><time>2026-04-04T11:54:14.815Z</time></trkpt><trkpt lat="45.5334248" lon="11.4549665"><ele>94.0</ele><time>2026-04-04T11:54:15.814Z</time></trkpt><trkpt lat="45.5334965" lon="11.4550383"><ele>94.0</ele><time>2026-04-04T11:54:16.815Z</time></trkpt><trkpt lat="45.5335802" lon="11.4550836"><ele>94.0</ele><time>2026-04-04T11:54:17.815Z</time></trkpt><trkpt lat="45.5336647" lon="11.4550815"><ele>94.0</ele><time>2026-04-04T11:54:18.814Z</time></trkpt><trkpt lat="45.5337439" lon="11.4551044"><ele>94.66666666666666</ele><time>2026-04-04T11:54:19.814Z</time></trkpt><trkpt lat="45.5338013" lon="11.4551797"><ele>95.33333333333333</ele><time>2026-04-04T11:54:20.814Z</time></trkpt><trkpt lat="45.5338451" lon="11.4552878"><ele>96.0</ele><time>2026-04-04T11:54:21.814Z</time></trkpt><trkpt lat="45.5338687" lon="11.4554089"><ele>96.66666666666666</ele><time>2026-04-04T11:54:22.815Z</time></trkpt><trkpt lat="45.5338776" lon="11.4555437"><ele>97.33333333333333</ele><time>2026-04-04T11:54:23.815Z</time></trkpt><trkpt lat="45.5338715" lon="11.4556798"><ele>98.0</ele><time>2026-04-04T11:54:24.813Z</time></trkpt><trkpt lat="45.5338714" lon="11.4558103"><ele>99.83333333333333</ele><time>2026-04-04T11:54:25.814Z</time></trkpt><trkpt lat="45.5338911" lon="11.4558977"><ele>101.66666666666666</ele><time>2026-04-04T11:54:26.814Z</time></trkpt><trkpt lat="45.533981" lon="11.4559994"><ele>103.5</ele><time>2026-04-04T11:54:28.814Z</time></trkpt><trkpt lat="45.5340538" lon="11.4560136"><ele>105.33333333333334</ele><time>2026-04-04T11:54:30.813Z</time></trkpt><trkpt lat="45.5341261" lon="11.4560323"><ele>107.16666666666667</ele><time>2026-04-04T11:54:32.815Z</time></trkpt><trkpt lat="45.5341322" lon="11.456126"><ele>109.0</ele><time>2026-04-04T11:54:34.814Z</time></trkpt><trkpt lat="45.5341104" lon="11.4562752"><ele>110.80000000000001</ele><time>2026-04-04T11:54:36.813Z</time></trkpt><trkpt lat="45.5340922" lon="11.4563741"><ele>112.60000000000001</ele><time>2026-04-04T11:54:37.813Z</time></trkpt><trkpt lat="45.5340825" lon="11.4565403"><ele>114.4</ele><time>2026-04-04T11:54:38.814Z</time></trkpt><trkpt lat="45.5340715" lon="11.4566773"><ele>116.2</ele><time>2026-04-04T11:54:39.815Z</time></trkpt><trkpt lat="45.5340667" lon="11.4568251"><ele>118.0</ele><time>2026-04-04T11:54:40.814Z</time></trkpt><trkpt lat="45.5340558" lon="11.4569876"><ele>120.0</ele><time>2026-04-04T11:54:41.813Z</time></trkpt><trkpt lat="45.53406" lon="11.45717"><ele>122.00000000000001</ele><time>2026-04-04T11:54:42.814Z</time></trkpt><trkpt lat="45.5340641" lon="11.4573132"><ele>124.00000000000001</ele><time>2026-04-04T11:54:43.814Z</time></trkpt><trkpt lat="45.5340671" lon="11.4574581"><ele>126.0</ele><time>2026-04-04T11:54:44.814Z</time></trkpt><trkpt lat="45.5340871" lon="11.4575486"><ele>128.0</ele><time>2026-04-04T11:54:45.813Z</time></trkpt><trkpt lat="45.5341245" lon="11.457681"><ele>128.0</ele><time>2026-04-04T11:54:46.814Z</time></trkpt><trkpt lat="45.5341624" lon="11.4578292"><ele>128.0</ele><time>2026-04-04T11:54:47.814Z</time></trkpt><trkpt lat="45.5342027" lon="11.4579736"><ele>128.0</ele><time>2026-04-04T11:54:48.815Z</time></trkpt><trkpt lat="45.5342266" lon="11.4581258"><ele>128.0</ele><time>2026-04-04T11:54:49.813Z</time></trkpt><trkpt lat="45.5342425" lon="11.4582773"><ele>128.0</ele><time>2026-04-04T11:54:50.815Z</time></trkpt><trkpt lat="45.534275" lon="11.458439"><ele>127.99999999999999</ele><time>2026-04-04T11:54:51.815Z</time></trkpt><trkpt lat="45.5343174" lon="11.4585829"><ele>128.0</ele><time>2026-04-04T11:54:52.813Z</time></trkpt><trkpt lat="45.5343489" lon="11.4586848"><ele>128.0</ele><time>2026-04-04T11:54:53.815Z</time></trkpt><trkpt lat="45.5343796" lon="11.4587836"><ele>128.0</ele><time>2026-04-04T11:54:54.815Z</time></trkpt><trkpt lat="45.5344241" lon="11.4588718"><ele>127.99999999999999</ele><time>2026-04-04T11:54:55.813Z</time></trkpt><trkpt lat="45.534475" lon="11.4589629"><ele>128.0</ele><time>2026-04-04T11:54:56.814Z</time></trkpt><trkpt lat="45.5345736" lon="11.4590607"><ele>134.60000000000002</ele><time>2026-04-04T11:54:58.813Z</time></trkpt><trkpt lat="45.5346486" lon="11.458926"><ele>141.20000000000002</ele><time>2026-04-04T11:55:00.814Z</time></trkpt><trkpt lat="45.5346323" lon="11.4587943"><ele>147.8</ele><time>2026-04-04T11:55:01.813Z</time></trkpt><trkpt lat="45.5346489" lon="11.4586129"><ele>154.4</ele><time>2026-04-04T11:55:02.814Z</time></trkpt><trkpt lat="45.534665" lon="11.4584731"><ele>161.0</ele><time>2026-04-04T11:55:03.814Z</time></trkpt><trkpt lat="45.5346866" lon="11.4583316"><ele>161.4</ele><time>2026-04-04T11:55:04.813Z</time></trkpt><trkpt lat="45.534749" lon="11.4581612"><ele>161.8</ele><time>2026-04-04T11:55:05.813Z</time></trkpt><trkpt lat="45.5347991" lon="11.4580362"><ele>162.20000000000002</ele><time>2026-04-04T11:55:06.814Z</time></trkpt><trkpt lat="45.5348442" lon="11.4579195"><ele>162.60000000000002</ele><time>2026-04-04T11:55:07.814Z</time></trkpt><trkpt lat="45.5349182" lon="11.4578263"><ele>163.0</ele><time>2026-04-04T11:55:08.813Z</time></trkpt><trkpt lat="45.5350025" lon="11.4577152"><ele>163.0</ele><time>2026-04-04T11:55:09.813Z</time></trkpt><trkpt lat="45.5350917" lon="11.4576127"><ele>163.0</ele><time>2026-04-04T11:55:10.814Z</time></trkpt><trkpt lat="45.535157" lon="11.4575105"><ele>163.0</ele><time>2026-04-04T11:55:11.815Z</time></trkpt><trkpt lat="45.5352215" lon="11.4574203"><ele>163.0</ele><time>2026-04-04T11:55:12.814Z</time></trkpt><trkpt lat="45.5353318" lon="11.4573291"><ele>163.0</ele><time>2026-04-04T11:55:14.814Z</time></trkpt><trkpt lat="45.5354305" lon="11.4573242"><ele>163.0</ele><time>2026-04-04T11:55:16.813Z</time></trkpt><trkpt lat="45.5355052" lon="11.4573377"><ele>163.0</ele><time>2026-04-04T11:55:18.813Z</time></trkpt><trkpt lat="45.5355821" lon="11.4573191"><ele>163.0</ele><time>2026-04-04T11:55:38.815Z</time></trkpt><trkpt lat="45.5357137" lon="11.4573079"><ele>163.0</ele><time>2026-04-04T11:55:41.813Z</time></trkpt><trkpt lat="45.5355924" lon="11.4573031"><ele>163.0</ele><time>2026-04-04T11:55:51.815Z</time></trkpt><trkpt lat="45.5355214" lon="11.4573164"><ele>163.0</ele><time>2026-04-04T11:55:52.814Z</time></trkpt><trkpt lat="45.5354343" lon="11.4573171"><ele>163.0</ele><time>2026-04-04T11:55:54.814Z</time></trkpt><trkpt lat="45.53534" lon="11.4573332"><ele>163.0</ele><time>2026-04-04T11:55:56.814Z</time></trkpt><trkpt lat="45.5352637" lon="11.4573606"><ele>163.0</ele><time>2026-04-04T11:55:58.814Z</time></trkpt><trkpt lat="45.5351975" lon="11.4574438"><ele>163.0</ele><time>2026-04-04T11:56:00.814Z</time></trkpt><trkpt lat="45.5351615" lon="11.4575247"><ele>163.0</ele><time>2026-04-04T11:56:01.815Z</time></trkpt><trkpt lat="45.5351217" lon="11.4575948"><ele>163.0</ele><time>2026-04-04T11:56:02.815Z</time></trkpt><trkpt lat="45.5350243" lon="11.4577507"><ele>163.0</ele><time>2026-04-04T11:56:04.814Z</time></trkpt><trkpt lat="45.5349616" lon="11.45783"><ele>163.0</ele><time>2026-04-04T11:56:05.814Z</time></trkpt><trkpt lat="45.5349047" lon="11.4579079"><ele>163.0</ele><time>2026-04-04T11:56:06.814Z</time></trkpt><trkpt lat="45.5348528" lon="11.4579857"><ele>163.0</ele><time>2026-04-04T11:56:07.814Z</time></trkpt><trkpt lat="45.5348093" lon="11.4580746"><ele>163.0</ele><time>2026-04-04T11:56:08.813Z</time></trkpt><trkpt lat="45.5347679" lon="11.4581808"><ele>163.0</ele><time>2026-04-04T11:56:09.814Z</time></trkpt><trkpt lat="45.5347292" lon="11.4582854"><ele>163.0</ele><time>2026-04-04T11:56:10.813Z</time></trkpt><trkpt lat="45.5347057" lon="11.4583937"><ele>163.0</ele><time>2026-04-04T11:56:11.815Z</time></trkpt><trkpt lat="45.534682" lon="11.4585356"><ele>163.0</ele><time>2026-04-04T11:56:12.815Z</time></trkpt><trkpt lat="45.5346565" lon="11.4586627"><ele>163.0</ele><time>2026-04-04T11:56:13.815Z</time></trkpt><trkpt lat="45.5346542" lon="11.4587788"><ele>163.0</ele><time>2026-04-04T11:56:14.813Z</time></trkpt><trkpt lat="45.534639" lon="11.4588669"><ele>163.0</ele><time>2026-04-04T11:56:15.812Z</time></trkpt><trkpt lat="45.5346233" lon="11.4589634"><ele>163.0</ele><time>2026-04-04T11:56:16.812Z</time></trkpt><trkpt lat="45.534547" lon="11.4590312"><ele>163.0</ele><time>2026-04-04T11:56:18.814Z</time></trkpt><trkpt lat="45.5345875" lon="11.4589486"><ele>163.0</ele><time>2026-04-04T11:56:35.814Z</time></trkpt><trkpt lat="45.53463" lon="11.4588331"><ele>163.0</ele><time>2026-04-04T11:56:36.813Z</time></trkpt><trkpt lat="45.534653" lon="11.4586914"><ele>163.0</ele><time>2026-04-04T11:56:37.813Z</time></trkpt><trkpt lat="45.5346945" lon="11.4585111"><ele>163.0</ele><time>2026-04-04T11:56:38.813Z</time></trkpt><trkpt lat="45.5347126" lon="11.458338"><ele>163.0</ele><time>2026-04-04T11:56:39.812Z</time></trkpt><trkpt lat="45.5347613" lon="11.4581907"><ele>163.0</ele><time>2026-04-04T11:56:40.813Z</time></trkpt><trkpt lat="45.5348012" lon="11.4580463"><ele>161.4</ele><time>2026-04-04T11:56:41.812Z</time></trkpt><trkpt lat="45.5348547" lon="11.4579438"><ele>159.8</ele><time>2026-04-04T11:56:42.813Z</time></trkpt><trkpt lat="45.5349292" lon="11.4578279"><ele>158.2</ele><time>2026-04-04T11:56:43.812Z</time></trkpt><trkpt lat="45.5350266" lon="11.4577299"><ele>156.6</ele><time>2026-04-04T11:56:44.812Z</time></trkpt><trkpt lat="45.5351002" lon="11.457598"><ele>155.0</ele><time>2026-04-04T11:56:45.813Z</time></trkpt><trkpt lat="45.5351784" lon="11.4574829"><ele>155.0</ele><time>2026-04-04T11:56:46.813Z</time></trkpt><trkpt lat="45.5352364" lon="11.4573611"><ele>155.0</ele><time>2026-04-04T11:56:47.813Z</time></trkpt><trkpt lat="45.5353309" lon="11.4572779"><ele>155.0</ele><time>2026-04-04T11:56:48.813Z</time></trkpt><trkpt lat="45.5353909" lon="11.4573274"><ele>155.0</ele><time>2026-04-04T11:56:49.813Z</time></trkpt><trkpt lat="45.5354709" lon="11.4573101"><ele>155.0</ele><time>2026-04-04T11:56:50.813Z</time></trkpt><trkpt lat="45.535551" lon="11.4573303"><ele>155.0</ele><time>2026-04-04T11:56:51.812Z</time></trkpt><trkpt lat="45.5356371" lon="11.457305"><ele>156.6</ele><time>2026-04-04T11:56:52.813Z</time></trkpt><trkpt lat="45.5357296" lon="11.4572764"><ele>158.2</ele><time>2026-04-04T11:56:53.813Z</time></trkpt><trkpt lat="45.5358263" lon="11.4572688"><ele>159.8</ele><time>2026-04-04T11:56:54.812Z</time></trkpt><trkpt lat="45.5359222" lon="11.4573104"><ele>161.4</ele><time>2026-04-04T11:56:55.814Z</time></trkpt><trkpt lat="45.5360182" lon="11.4573814"><ele>163.0</ele><time>2026-04-04T11:56:56.813Z</time></trkpt><trkpt lat="45.5361259" lon="11.457422"><ele>162.60000000000002</ele><time>2026-04-04T11:56:57.813Z</time></trkpt><trkpt lat="45.5362356" lon="11.4574648"><ele>162.20000000000002</ele><time>2026-04-04T11:56:58.812Z</time></trkpt><trkpt lat="45.536344" lon="11.4575229"><ele>161.8</ele><time>2026-04-04T11:56:59.812Z</time></trkpt><trkpt lat="45.5364454" lon="11.4575945"><ele>161.4</ele><time>2026-04-04T11:57:00.813Z</time></trkpt><trkpt lat="45.536528" lon="11.4576707"><ele>161.0</ele><time>2026-04-04T11:57:01.813Z</time></trkpt><trkpt lat="45.5365906" lon="11.4577498"><ele>161.0</ele><time>2026-04-04T11:57:02.813Z</time></trkpt><trkpt lat="45.536626" lon="11.4578535"><ele>161.0</ele><time>2026-04-04T11:57:03.813Z</time></trkpt><trkpt lat="45.5366521" lon="11.4579931"><ele>161.0</ele><time>2026-04-04T11:57:04.813Z</time></trkpt><trkpt lat="45.5366678" lon="11.4581551"><ele>161.0</ele><time>2026-04-04T11:57:05.813Z</time></trkpt><trkpt lat="45.5366942" lon="11.4583329"><ele>161.0</ele><time>2026-04-04T11:57:06.813Z</time></trkpt><trkpt lat="45.5367383" lon="11.4585099"><ele>161.0</ele><time>2026-04-04T11:57:07.814Z</time></trkpt><trkpt lat="45.5367667" lon="11.4586711"><ele>161.0</ele><time>2026-04-04T11:57:08.814Z</time></trkpt><trkpt lat="45.5367927" lon="11.4588125"><ele>161.0</ele><time>2026-04-04T11:57:09.813Z</time></trkpt><trkpt lat="45.5368093" lon="11.4589499"><ele>161.0</ele><time>2026-04-04T11:57:10.814Z</time></trkpt><trkpt lat="45.5368088" lon="11.4590939"><ele>161.0</ele><time>2026-04-04T11:57:11.812Z</time></trkpt><trkpt lat="45.5367991" lon="11.4592202"><ele>161.0</ele><time>2026-04-04T11:57:12.813Z</time></trkpt><trkpt lat="45.5367882" lon="11.4593596"><ele>161.0</ele><time>2026-04-04T11:57:13.813Z</time></trkpt><trkpt lat="45.5367345" lon="11.4594986"><ele>161.0</ele><time>2026-04-04T11:57:14.813Z</time></trkpt><trkpt lat="45.5367074" lon="11.4596444"><ele>161.0</ele><time>2026-04-04T11:57:15.812Z</time></trkpt><trkpt lat="45.5366893" lon="11.4597869"><ele>161.0</ele><time>2026-04-04T11:57:16.812Z</time></trkpt><trkpt lat="45.5367083" lon="11.459925"><ele>159.20000000000002</ele><time>2026-04-04T11:57:17.812Z</time></trkpt><trkpt lat="45.5367305" lon="11.4600502"><ele>157.4</ele><time>2026-04-04T11:57:18.813Z</time></trkpt><trkpt lat="45.5367651" lon="11.4601728"><ele>155.6</ele><time>2026-04-04T11:57:19.814Z</time></trkpt><trkpt lat="45.5368017" lon="11.4602917"><ele>153.8</ele><time>2026-04-04T11:57:20.813Z</time></trkpt><trkpt lat="45.5368509" lon="11.4604055"><ele>152.0</ele><time>2026-04-04T11:57:21.813Z</time></trkpt><trkpt lat="45.5369072" lon="11.4605033"><ele>152.0</ele><time>2026-04-04T11:57:22.813Z</time></trkpt><trkpt lat="45.5369794" lon="11.460581"><ele>152.0</ele><time>2026-04-04T11:57:23.813Z</time></trkpt><trkpt lat="45.5370697" lon="11.4606461"><ele>152.0</ele><time>2026-04-04T11:57:24.814Z</time></trkpt><trkpt lat="45.5371689" lon="11.4607068"><ele>152.0</ele><time>2026-04-04T11:57:25.813Z</time></trkpt><trkpt lat="45.5372875" lon="11.4607576"><ele>152.0</ele><time>2026-04-04T11:57:26.812Z</time></trkpt><trkpt lat="45.5374083" lon="11.4608206"><ele>152.0</ele><time>2026-04-04T11:57:27.812Z</time></trkpt><trkpt lat="45.537522" lon="11.4608938"><ele>152.0</ele><time>2026-04-04T11:57:28.812Z</time></trkpt><trkpt lat="45.5376354" lon="11.4609723"><ele>152.0</ele><time>2026-04-04T11:57:29.812Z</time></trkpt><trkpt lat="45.537735" lon="11.4610313"><ele>152.0</ele><time>2026-04-04T11:57:30.813Z</time></trkpt><trkpt lat="45.5378267" lon="11.4610698"><ele>153.6</ele><time>2026-04-04T11:57:31.812Z</time></trkpt><trkpt lat="45.537918" lon="11.4610963"><ele>155.2</ele><time>2026-04-04T11:57:32.812Z</time></trkpt><trkpt lat="45.5380225" lon="11.4611132"><ele>156.8</ele><time>2026-04-04T11:57:33.812Z</time></trkpt><trkpt lat="45.5381261" lon="11.4611302"><ele>158.4</ele><time>2026-04-04T11:57:34.814Z</time></trkpt><trkpt lat="45.5382361" lon="11.4611493"><ele>160.0</ele><time>2026-04-04T11:57:35.813Z</time></trkpt><trkpt lat="45.5383449" lon="11.4611654"><ele>160.0</ele><time>2026-04-04T11:57:36.813Z</time></trkpt><trkpt lat="45.5384631" lon="11.4611475"><ele>160.0</ele><time>2026-04-04T11:57:37.812Z</time></trkpt><trkpt lat="45.5385826" lon="11.4611193"><ele>160.0</ele><time>2026-04-04T11:57:38.812Z</time></trkpt><trkpt lat="45.538705" lon="11.4610808"><ele>160.0</ele><time>2026-04-04T11:57:39.814Z</time></trkpt><trkpt lat="45.5388244" lon="11.461051"><ele>159.33333333333334</ele><time>2026-04-04T11:57:40.813Z</time></trkpt><trkpt lat="45.5389372" lon="11.4610283"><ele>158.66666666666669</ele><time>2026-04-04T11:57:41.812Z</time></trkpt><trkpt lat="45.5390281" lon="11.4610194"><ele>158.0</ele><time>2026-04-04T11:57:42.813Z</time></trkpt><trkpt lat="45.5391036" lon="11.4610292"><ele>157.33333333333334</ele><time>2026-04-04T11:57:43.812Z</time></trkpt><trkpt lat="45.5391867" lon="11.4610934"><ele>156.66666666666666</ele><time>2026-04-04T11:57:45.812Z</time></trkpt><trkpt lat="45.5392268" lon="11.4611818"><ele>156.0</ele><time>2026-04-04T11:57:47.813Z</time></trkpt><trkpt lat="45.5393438" lon="11.4612269"><ele>156.0</ele><time>2026-04-04T11:57:49.813Z</time></trkpt><trkpt lat="45.539419" lon="11.4612458"><ele>156.0</ele><time>2026-04-04T11:57:50.813Z</time></trkpt><trkpt lat="45.5395102" lon="11.4612637"><ele>156.0</ele><time>2026-04-04T11:57:51.812Z</time></trkpt><trkpt lat="45.539613" lon="11.4612704"><ele>156.0</ele><time>2026-04-04T11:57:52.812Z</time></trkpt><trkpt lat="45.539718" lon="11.4612575"><ele>156.0</ele><time>2026-04-04T11:57:53.813Z</time></trkpt><trkpt lat="45.5398207" lon="11.4612403"><ele>156.4</ele><time>2026-04-04T11:57:54.812Z</time></trkpt><trkpt lat="45.539925" lon="11.4612196"><ele>156.8</ele><time>2026-04-04T11:57:55.812Z</time></trkpt><trkpt lat="45.5400312" lon="11.4612039"><ele>157.20000000000002</ele><time>2026-04-04T11:57:56.812Z</time></trkpt><trkpt lat="45.5401354" lon="11.4611992"><ele>157.6</ele><time>2026-04-04T11:57:57.813Z</time></trkpt><trkpt lat="45.5402465" lon="11.4612026"><ele>158.0</ele><time>2026-04-04T11:57:58.813Z</time></trkpt><trkpt lat="45.5403609" lon="11.4612171"><ele>158.0</ele><time>2026-04-04T11:57:59.814Z</time></trkpt><trkpt lat="45.5404822" lon="11.4612269"><ele>158.0</ele><time>2026-04-04T11:58:00.814Z</time></trkpt><trkpt lat="45.5406015" lon="11.4612451"><ele>158.0</ele><time>2026-04-04T11:58:01.813Z</time></trkpt><trkpt lat="45.540722" lon="11.4612712"><ele>158.0</ele><time>2026-04-04T11:58:02.814Z</time></trkpt><trkpt lat="45.540845" lon="11.4613035"><ele>159.25</ele><time>2026-04-04T11:58:03.812Z</time></trkpt><trkpt lat="45.5409704" lon="11.4613636"><ele>160.5</ele><time>2026-04-04T11:58:04.812Z</time></trkpt><trkpt lat="45.5410842" lon="11.4614299"><ele>161.75</ele><time>2026-04-04T11:58:05.812Z</time></trkpt><trkpt lat="45.5411938" lon="11.4614874"><ele>163.0</ele><time>2026-04-04T11:58:06.812Z</time></trkpt><trkpt lat="45.541303" lon="11.4615131"><ele>163.0</ele><time>2026-04-04T11:58:07.813Z</time></trkpt><trkpt lat="45.5413968" lon="11.4615091"><ele>163.0</ele><time>2026-04-04T11:58:08.814Z</time></trkpt><trkpt lat="45.5414705" lon="11.4615039"><ele>163.0</ele><time>2026-04-04T11:58:09.813Z</time></trkpt><trkpt lat="45.5415909" lon="11.4614595"><ele>163.0</ele><time>2026-04-04T11:58:11.813Z</time></trkpt><trkpt lat="45.5416488" lon="11.4614218"><ele>163.0</ele><time>2026-04-04T11:58:12.813Z</time></trkpt><trkpt lat="45.5417088" lon="11.4613474"><ele>163.0</ele><time>2026-04-04T11:58:13.813Z</time></trkpt><trkpt lat="45.541767" lon="11.4612806"><ele>162.5</ele><time>2026-04-04T11:58:14.813Z</time></trkpt><trkpt lat="45.5418274" lon="11.4612173"><ele>162.0</ele><time>2026-04-04T11:58:15.814Z</time></trkpt><trkpt lat="45.5418848" lon="11.461155"><ele>161.5</ele><time>2026-04-04T11:58:16.814Z</time></trkpt><trkpt lat="45.5419243" lon="11.4610738"><ele>161.0</ele><time>2026-04-04T11:58:17.813Z</time></trkpt><trkpt lat="45.5419852" lon="11.4609215"><ele>160.5</ele><time>2026-04-04T11:58:19.813Z</time></trkpt><trkpt lat="45.5420227" lon="11.4608381"><ele>160.0</ele><time>2026-04-04T11:58:20.813Z</time></trkpt><trkpt lat="45.5420627" lon="11.4607521"><ele>160.0</ele><time>2026-04-04T11:58:21.814Z</time></trkpt><trkpt lat="45.542099" lon="11.4606624"><ele>160.0</ele><time>2026-04-04T11:58:22.813Z</time></trkpt><trkpt lat="45.5421441" lon="11.4605919"><ele>160.0</ele><time>2026-04-04T11:58:23.813Z</time></trkpt><trkpt lat="45.5421966" lon="11.4605408"><ele>160.0</ele><time>2026-04-04T11:58:24.813Z</time></trkpt><trkpt lat="45.5422647" lon="11.4604896"><ele>160.0</ele><time>2026-04-04T11:58:25.813Z</time></trkpt><trkpt lat="45.5423397" lon="11.4604385"><ele>160.0</ele><time>2026-04-04T11:58:26.813Z</time></trkpt><trkpt lat="45.5424346" lon="11.4603751"><ele>161.75</ele><time>2026-04-04T11:58:27.814Z</time></trkpt><trkpt lat="45.542531" lon="11.4603022"><ele>163.5</ele><time>2026-04-04T11:58:28.813Z</time></trkpt><trkpt lat="45.542632" lon="11.4602236"><ele>165.25</ele><time>2026-04-04T11:58:29.814Z</time></trkpt><trkpt lat="45.5427426" lon="11.4601272"><ele>167.0</ele><time>2026-04-04T11:58:30.814Z</time></trkpt><trkpt lat="45.5428502" lon="11.4600265"><ele>167.0</ele><time>2026-04-04T11:58:31.813Z</time></trkpt><trkpt lat="45.5429515" lon="11.4599232"><ele>167.0</ele><time>2026-04-04T11:58:32.812Z</time></trkpt><trkpt lat="45.5430601" lon="11.4598322"><ele>167.0</ele><time>2026-04-04T11:58:33.813Z</time></trkpt><trkpt lat="45.5431787" lon="11.459751"><ele>167.0</ele><time>2026-04-04T11:58:34.812Z</time></trkpt><trkpt lat="45.5432914" lon="11.4596718"><ele>167.0</ele><time>2026-04-04T11:58:35.813Z</time></trkpt><trkpt lat="45.5433846" lon="11.459617"><ele>167.0</ele><time>2026-04-04T11:58:36.813Z</time></trkpt><trkpt lat="45.5434864" lon="11.4595511"><ele>167.0</ele><time>2026-04-04T11:58:37.813Z</time></trkpt><trkpt lat="45.5435888" lon="11.4594798"><ele>167.0</ele><time>2026-04-04T11:58:38.813Z</time></trkpt><trkpt lat="45.5436834" lon="11.459436"><ele>167.0</ele><time>2026-04-04T11:58:39.812Z</time></trkpt><trkpt lat="45.5437802" lon="11.4594051"><ele>169.39999999999998</ele><time>2026-04-04T11:58:40.813Z</time></trkpt><trkpt lat="45.5438664" lon="11.4593984"><ele>171.79999999999998</ele><time>2026-04-04T11:58:41.812Z</time></trkpt><trkpt lat="45.5439578" lon="11.4593928"><ele>174.2</ele><time>2026-04-04T11:58:42.812Z</time></trkpt><trkpt lat="45.5440584" lon="11.4594184"><ele>176.6</ele><time>2026-04-04T11:58:43.812Z</time></trkpt><trkpt lat="45.5441622" lon="11.45944"><ele>179.0</ele><time>2026-04-04T11:58:44.814Z</time></trkpt><trkpt lat="45.5442628" lon="11.4594589"><ele>179.0</ele><time>2026-04-04T11:58:45.813Z</time></trkpt><trkpt lat="45.5443639" lon="11.4594835"><ele>179.0</ele><time>2026-04-04T11:58:46.812Z</time></trkpt><trkpt lat="45.5444765" lon="11.4595051"><ele>179.0</ele><time>2026-04-04T11:58:47.812Z</time></trkpt><trkpt lat="45.5445504" lon="11.4595472"><ele>179.0</ele><time>2026-04-04T11:58:48.814Z</time></trkpt><trkpt lat="45.5446363" lon="11.4595507"><ele>179.0</ele><time>2026-04-04T11:58:49.813Z</time></trkpt><trkpt lat="45.5447188" lon="11.4595479"><ele>181.2</ele><time>2026-04-04T11:58:50.814Z</time></trkpt><trkpt lat="45.5448115" lon="11.4594905"><ele>183.39999999999998</ele><time>2026-04-04T11:58:51.812Z</time></trkpt><trkpt lat="45.5449056" lon="11.4594528"><ele>185.6</ele><time>2026-04-04T11:58:52.813Z</time></trkpt><trkpt lat="45.5449972" lon="11.4594264"><ele>187.8</ele><time>2026-04-04T11:58:53.813Z</time></trkpt><trkpt lat="45.5451083" lon="11.4593982"><ele>190.0</ele><time>2026-04-04T11:58:54.813Z</time></trkpt><trkpt lat="45.5452002" lon="11.4593687"><ele>190.0</ele><time>2026-04-04T11:58:55.814Z</time></trkpt><trkpt lat="45.5452885" lon="11.4593195"><ele>190.0</ele><time>2026-04-04T11:58:56.812Z</time></trkpt><trkpt lat="45.5453639" lon="11.4592497"><ele>190.0</ele><time>2026-04-04T11:58:57.813Z</time></trkpt><trkpt lat="45.5454346" lon="11.4591513"><ele>190.0</ele><time>2026-04-04T11:58:58.813Z</time></trkpt><trkpt lat="45.5454935" lon="11.4590431"><ele>190.0</ele><time>2026-04-04T11:59:00.812Z</time></trkpt><trkpt lat="45.5455426" lon="11.4589583"><ele>190.5</ele><time>2026-04-04T11:59:02.812Z</time></trkpt><trkpt lat="45.5456221" lon="11.4588026"><ele>191.0</ele><time>2026-04-04T11:59:04.814Z</time></trkpt><trkpt lat="45.5456749" lon="11.4587232"><ele>191.5</ele><time>2026-04-04T11:59:05.813Z</time></trkpt><trkpt lat="45.5457292" lon="11.4586634"><ele>192.0</ele><time>2026-04-04T11:59:06.814Z</time></trkpt><trkpt lat="45.5457867" lon="11.45862"><ele>192.49999999999997</ele><time>2026-04-04T11:59:07.813Z</time></trkpt><trkpt lat="45.5458532" lon="11.4585846"><ele>193.0</ele><time>2026-04-04T11:59:08.814Z</time></trkpt><trkpt lat="45.5459283" lon="11.4585454"><ele>191.60000000000002</ele><time>2026-04-04T11:59:09.813Z</time></trkpt><trkpt lat="45.546016" lon="11.4584982"><ele>190.20000000000002</ele><time>2026-04-04T11:59:10.813Z</time></trkpt><trkpt lat="45.5461145" lon="11.4584522"><ele>188.8</ele><time>2026-04-04T11:59:11.813Z</time></trkpt><trkpt lat="45.5462238" lon="11.458408"><ele>187.4</ele><time>2026-04-04T11:59:12.812Z</time></trkpt><trkpt lat="45.5463414" lon="11.4583911"><ele>186.0</ele><time>2026-04-04T11:59:13.813Z</time></trkpt><trkpt lat="45.5464639" lon="11.4583975"><ele>185.0</ele><time>2026-04-04T11:59:14.814Z</time></trkpt><trkpt lat="45.5465869" lon="11.4584158"><ele>184.0</ele><time>2026-04-04T11:59:15.812Z</time></trkpt><trkpt lat="45.5466974" lon="11.4584529"><ele>183.0</ele><time>2026-04-04T11:59:16.814Z</time></trkpt><trkpt lat="45.546786" lon="11.4584848"><ele>182.0</ele><time>2026-04-04T11:59:17.814Z</time></trkpt><trkpt lat="45.5468767" lon="11.4585027"><ele>181.0</ele><time>2026-04-04T11:59:18.813Z</time></trkpt><trkpt lat="45.5469707" lon="11.4584889"><ele>180.5</ele><time>2026-04-04T11:59:19.813Z</time></trkpt><trkpt lat="45.5470727" lon="11.4584559"><ele>180.0</ele><time>2026-04-04T11:59:20.813Z</time></trkpt><trkpt lat="45.5471886" lon="11.4584166"><ele>179.5</ele><time>2026-04-04T11:59:21.814Z</time></trkpt><trkpt lat="45.5473166" lon="11.4583825"><ele>179.0</ele><time>2026-04-04T11:59:22.812Z</time></trkpt><trkpt lat="45.5474607" lon="11.4583415"><ele>179.0</ele><time>2026-04-04T11:59:23.812Z</time></trkpt><trkpt lat="45.5476139" lon="11.4582987"><ele>179.0</ele><time>2026-04-04T11:59:24.812Z</time></trkpt><trkpt lat="45.5477738" lon="11.4582479"><ele>179.0</ele><time>2026-04-04T11:59:25.813Z</time></trkpt><trkpt lat="45.5479415" lon="11.4581817"><ele>179.33333333333331</ele><time>2026-04-04T11:59:26.813Z</time></trkpt><trkpt lat="45.5481125" lon="11.4580986"><ele>179.66666666666666</ele><time>2026-04-04T11:59:27.813Z</time></trkpt><trkpt lat="45.548278" lon="11.4579966"><ele>180.0</ele><time>2026-04-04T11:59:28.812Z</time></trkpt><trkpt lat="45.5484392" lon="11.4578918"><ele>180.25</ele><time>2026-04-04T11:59:29.812Z</time></trkpt><trkpt lat="45.5485752" lon="11.4577826"><ele>180.5</ele><time>2026-04-04T11:59:30.812Z</time></trkpt><trkpt lat="45.5486957" lon="11.4576726"><ele>180.75</ele><time>2026-04-04T11:59:31.812Z</time></trkpt><trkpt lat="45.5488036" lon="11.457563"><ele>181.0</ele><time>2026-04-04T11:59:32.812Z</time></trkpt><trkpt lat="45.548897" lon="11.4574425"><ele>181.0</ele><time>2026-04-04T11:59:33.812Z</time></trkpt><trkpt lat="45.5489855" lon="11.4573189"><ele>181.0</ele><time>2026-04-04T11:59:34.811Z</time></trkpt><trkpt lat="45.5490731" lon="11.4571961"><ele>181.0</ele><time>2026-04-04T11:59:35.812Z</time></trkpt><trkpt lat="45.5491593" lon="11.4570725"><ele>181.0</ele><time>2026-04-04T11:59:36.813Z</time></trkpt><trkpt lat="45.5492486" lon="11.4569525"><ele>181.25</ele><time>2026-04-04T11:59:37.812Z</time></trkpt><trkpt lat="45.5493426" lon="11.4568386"><ele>181.5</ele><time>2026-04-04T11:59:38.812Z</time></trkpt><trkpt lat="45.5494358" lon="11.4567218"><ele>181.75</ele><time>2026-04-04T11:59:39.812Z</time></trkpt><trkpt lat="45.549523" lon="11.4565788"><ele>182.0</ele><time>2026-04-04T11:59:40.811Z</time></trkpt><trkpt lat="45.5496084" lon="11.4564228"><ele>175.5</ele><time>2026-04-04T11:59:41.812Z</time></trkpt><trkpt lat="45.5496941" lon="11.4562622"><ele>169.0</ele><time>2026-04-04T11:59:42.811Z</time></trkpt><trkpt lat="45.5497782" lon="11.4560963"><ele>162.5</ele><time>2026-04-04T11:59:43.812Z</time></trkpt><trkpt lat="45.549866" lon="11.4559359"><ele>156.0</ele><time>2026-04-04T11:59:44.811Z</time></trkpt><trkpt lat="45.5499531" lon="11.4557834"><ele>156.0</ele><time>2026-04-04T11:59:45.812Z</time></trkpt><trkpt lat="45.5500396" lon="11.4556391"><ele>156.0</ele><time>2026-04-04T11:59:46.813Z</time></trkpt><trkpt lat="45.5501272" lon="11.4555053"><ele>156.0</ele><time>2026-04-04T11:59:47.813Z</time></trkpt><trkpt lat="45.5502089" lon="11.4553668"><ele>156.0</ele><time>2026-04-04T11:59:48.812Z</time></trkpt><trkpt lat="45.5502848" lon="11.455237"><ele>154.83333333333334</ele><time>2026-04-04T11:59:49.812Z</time></trkpt><trkpt lat="45.5503536" lon="11.4551194"><ele>153.66666666666666</ele><time>2026-04-04T11:59:50.813Z</time></trkpt><trkpt lat="45.5504187" lon="11.4550174"><ele>152.5</ele><time>2026-04-04T11:59:51.813Z</time></trkpt><trkpt lat="45.5504831" lon="11.4549288"><ele>151.33333333333331</ele><time>2026-04-04T11:59:52.811Z</time></trkpt><trkpt lat="45.5505469" lon="11.4548614"><ele>150.16666666666666</ele><time>2026-04-04T11:59:53.811Z</time></trkpt><trkpt lat="45.5506095" lon="11.45481"><ele>149.0</ele><time>2026-04-04T11:59:54.813Z</time></trkpt><trkpt lat="45.5506881" lon="11.4547173"><ele>146.2</ele><time>2026-04-04T11:59:56.813Z</time></trkpt><trkpt lat="45.550693" lon="11.4545316"><ele>143.4</ele><time>2026-04-04T11:59:58.811Z</time></trkpt><trkpt lat="45.5507079" lon="11.4544059"><ele>140.6</ele><time>2026-04-04T11:59:59.811Z</time></trkpt><trkpt lat="45.5507419" lon="11.4542899"><ele>137.8</ele><time>2026-04-04T12:00:00.812Z</time></trkpt><trkpt lat="45.5507996" lon="11.454194"><ele>135.0</ele><time>2026-04-04T12:00:01.812Z</time></trkpt><trkpt lat="45.5508867" lon="11.4541168"><ele>135.0</ele><time>2026-04-04T12:00:02.812Z</time></trkpt><trkpt lat="45.5509851" lon="11.4540605"><ele>135.0</ele><time>2026-04-04T12:00:03.812Z</time></trkpt><trkpt lat="45.5510785" lon="11.454012"><ele>135.0</ele><time>2026-04-04T12:00:04.813Z</time></trkpt><trkpt lat="45.5511627" lon="11.4539507"><ele>135.0</ele><time>2026-04-04T12:00:05.813Z</time></trkpt><trkpt lat="45.5512288" lon="11.4538536"><ele>135.0</ele><time>2026-04-04T12:00:06.812Z</time></trkpt><trkpt lat="45.551282" lon="11.45372"><ele>132.6</ele><time>2026-04-04T12:00:07.811Z</time></trkpt><trkpt lat="45.5513428" lon="11.4535976"><ele>130.2</ele><time>2026-04-04T12:00:08.812Z</time></trkpt><trkpt lat="45.5514112" lon="11.4534832"><ele>127.80000000000001</ele><time>2026-04-04T12:00:09.811Z</time></trkpt><trkpt lat="45.5514829" lon="11.4533779"><ele>125.4</ele><time>2026-04-04T12:00:10.812Z</time></trkpt><trkpt lat="45.5515517" lon="11.4532803"><ele>123.0</ele><time>2026-04-04T12:00:11.813Z</time></trkpt><trkpt lat="45.5516195" lon="11.4531979"><ele>123.0</ele><time>2026-04-04T12:00:12.811Z</time></trkpt><trkpt lat="45.5516926" lon="11.4531278"><ele>123.0</ele><time>2026-04-04T12:00:13.811Z</time></trkpt><trkpt lat="45.5517709" lon="11.4530822"><ele>123.0</ele><time>2026-04-04T12:00:14.812Z</time></trkpt><trkpt lat="45.551838" lon="11.4530323"><ele>123.0</ele><time>2026-04-04T12:00:15.812Z</time></trkpt><trkpt lat="45.551889" lon="11.452946"><ele>123.0</ele><time>2026-04-04T12:00:16.811Z</time></trkpt><trkpt lat="45.5519168" lon="11.452833"><ele>123.0</ele><time>2026-04-04T12:00:17.811Z</time></trkpt><trkpt lat="45.5519241" lon="11.4527106"><ele>120.83333333333333</ele><time>2026-04-04T12:00:18.813Z</time></trkpt><trkpt lat="45.5519194" lon="11.4525808"><ele>118.66666666666666</ele><time>2026-04-04T12:00:19.811Z</time></trkpt><trkpt lat="45.5519091" lon="11.4524675"><ele>116.5</ele><time>2026-04-04T12:00:20.813Z</time></trkpt><trkpt lat="45.551901" lon="11.4523723"><ele>114.33333333333333</ele><time>2026-04-04T12:00:21.812Z</time></trkpt><trkpt lat="45.5518178" lon="11.4522589"><ele>112.16666666666666</ele><time>2026-04-04T12:00:23.812Z</time></trkpt><trkpt lat="45.5517411" lon="11.4522455"><ele>110.0</ele><time>2026-04-04T12:00:24.813Z</time></trkpt><trkpt lat="45.5516358" lon="11.4522255"><ele>110.0</ele><time>2026-04-04T12:00:25.811Z</time></trkpt><trkpt lat="45.5515233" lon="11.4522004"><ele>110.0</ele><time>2026-04-04T12:00:26.812Z</time></trkpt><trkpt lat="45.5514037" lon="11.4521723"><ele>110.0</ele><time>2026-04-04T12:00:27.811Z</time></trkpt><trkpt lat="45.5512735" lon="11.4521487"><ele>110.0</ele><time>2026-04-04T12:00:28.811Z</time></trkpt><trkpt lat="45.5511434" lon="11.4521331"><ele>107.0</ele><time>2026-04-04T12:00:29.812Z</time></trkpt><trkpt lat="45.5510244" lon="11.452119"><ele>104.0</ele><time>2026-04-04T12:00:30.811Z</time></trkpt><trkpt lat="45.5509267" lon="11.4521101"><ele>101.0</ele><time>2026-04-04T12:00:31.812Z</time></trkpt><trkpt lat="45.5508435" lon="11.452098"><ele>98.0</ele><time>2026-04-04T12:00:32.812Z</time></trkpt><trkpt lat="45.5507545" lon="11.4520343"><ele>95.0</ele><time>2026-04-04T12:00:34.812Z</time></trkpt><trkpt lat="45.5507787" lon="11.4518484"><ele>95.0</ele><time>2026-04-04T12:00:36.812Z</time></trkpt><trkpt lat="45.5507983" lon="11.4517298"><ele>95.0</ele><time>2026-04-04T12:00:37.812Z</time></trkpt><trkpt lat="45.5507987" lon="11.4515967"><ele>95.0</ele><time>2026-04-04T12:00:38.811Z</time></trkpt><trkpt lat="45.5507779" lon="11.4514668"><ele>95.0</ele><time>2026-04-04T12:00:39.812Z</time></trkpt><trkpt lat="45.5507335" lon="11.4513424"><ele>95.0</ele><time>2026-04-04T12:00:40.811Z</time></trkpt><trkpt lat="45.5506848" lon="11.4512372"><ele>90.75</ele><time>2026-04-04T12:00:41.813Z</time></trkpt><trkpt lat="45.5506456" lon="11.4511494"><ele>86.5</ele><time>2026-04-04T12:00:42.811Z</time></trkpt><trkpt lat="45.5506095" lon="11.4510637"><ele>82.25</ele><time>2026-04-04T12:00:43.811Z</time></trkpt><trkpt lat="45.5506942" lon="11.450953"><ele>78.0</ele><time>2026-04-04T12:00:45.812Z</time></trkpt><trkpt lat="45.5508804" lon="11.4508871"><ele>78.0</ele><time>2026-04-04T12:00:47.812Z</time></trkpt><trkpt lat="45.5509957" lon="11.4508395"><ele>78.0</ele><time>2026-04-04T12:00:48.813Z</time></trkpt><trkpt lat="45.5511412" lon="11.4507629"><ele>78.0</ele><time>2026-04-04T12:00:49.812Z</time></trkpt><trkpt lat="45.5512637" lon="11.450702"><ele>78.0</ele><time>2026-04-04T12:00:50.811Z</time></trkpt><trkpt lat="45.5513844" lon="11.4506147"><ele>78.0</ele><time>2026-04-04T12:00:51.813Z</time></trkpt><trkpt lat="45.551484" lon="11.4505274"><ele>78.0</ele><time>2026-04-04T12:00:52.811Z</time></trkpt><trkpt lat="45.5515805" lon="11.4504502"><ele>78.0</ele><time>2026-04-04T12:00:53.811Z</time></trkpt><trkpt lat="45.5516708" lon="11.4503795"><ele>78.0</ele><time>2026-04-04T12:00:54.811Z</time></trkpt><trkpt lat="45.5517705" lon="11.4503054"><ele>78.0</ele><time>2026-04-04T12:00:55.813Z</time></trkpt><trkpt lat="45.5518621" lon="11.4502482"><ele>74.5</ele><time>2026-04-04T12:00:56.812Z</time></trkpt><trkpt lat="45.5519421" lon="11.4501942"><ele>71.0</ele><time>2026-04-04T12:00:57.811Z</time></trkpt><trkpt lat="45.5520182" lon="11.4501587"><ele>67.5</ele><time>2026-04-04T12:00:58.812Z</time></trkpt><trkpt lat="45.5520929" lon="11.4501582"><ele>64.0</ele><time>2026-04-04T12:00:59.811Z</time></trkpt><trkpt lat="45.5521692" lon="11.450181"><ele>60.5</ele><time>2026-04-04T12:01:00.813Z</time></trkpt><trkpt lat="45.5522346" lon="11.4502483"><ele>57.0</ele><time>2026-04-04T12:01:01.812Z</time></trkpt><trkpt lat="45.5523051" lon="11.4503712"><ele>55.8</ele><time>2026-04-04T12:01:02.812Z</time></trkpt><trkpt lat="45.5524009" lon="11.450448"><ele>54.6</ele><time>2026-04-04T12:01:03.811Z</time></trkpt><trkpt lat="45.5525024" lon="11.4504915"><ele>53.4</ele><time>2026-04-04T12:01:04.811Z</time></trkpt><trkpt lat="45.5525915" lon="11.4505363"><ele>52.199999999999996</ele><time>2026-04-04T12:01:05.812Z</time></trkpt><trkpt lat="45.5526807" lon="11.4505798"><ele>51.0</ele><time>2026-04-04T12:01:06.812Z</time></trkpt><trkpt lat="45.5527958" lon="11.4506103"><ele>52.199999999999996</ele><time>2026-04-04T12:01:08.811Z</time></trkpt><trkpt lat="45.552882" lon="11.4505305"><ele>53.4</ele><time>2026-04-04T12:01:10.811Z</time></trkpt><trkpt lat="45.5529134" lon="11.4504175"><ele>54.6</ele><time>2026-04-04T12:01:11.813Z</time></trkpt><trkpt lat="45.5529387" lon="11.4502691"><ele>55.8</ele><time>2026-04-04T12:01:12.812Z</time></trkpt><trkpt lat="45.552951" lon="11.4500865"><ele>57.0</ele><time>2026-04-04T12:01:13.812Z</time></trkpt><trkpt lat="45.5529492" lon="11.4499573"><ele>54.0</ele><time>2026-04-04T12:01:14.813Z</time></trkpt><trkpt lat="45.5529313" lon="11.4498513"><ele>51.0</ele><time>2026-04-04T12:01:15.812Z</time></trkpt><trkpt lat="45.5529033" lon="11.4497142"><ele>48.0</ele><time>2026-04-04T12:01:17.812Z</time></trkpt><trkpt lat="45.553053" lon="11.4496824"><ele>45.0</ele><time>2026-04-04T12:01:20.812Z</time></trkpt><trkpt lat="45.5531921" lon="11.4496517"><ele>44.5</ele><time>2026-04-04T12:01:21.812Z</time></trkpt><trkpt lat="45.5533351" lon="11.4496206"><ele>44.0</ele><time>2026-04-04T12:01:22.812Z</time></trkpt><trkpt lat="45.5534504" lon="11.4495832"><ele>43.5</ele><time>2026-04-04T12:01:23.811Z</time></trkpt><trkpt lat="45.5535686" lon="11.4495524"><ele>43.0</ele><time>2026-04-04T12:01:24.812Z</time></trkpt><trkpt lat="45.553687" lon="11.4495152"><ele>43.0</ele><time>2026-04-04T12:01:25.812Z</time></trkpt><trkpt lat="45.553811" lon="11.4494948"><ele>43.0</ele><time>2026-04-04T12:01:26.811Z</time></trkpt><trkpt lat="45.5539137" lon="11.4494932"><ele>43.0</ele><time>2026-04-04T12:01:27.811Z</time></trkpt><trkpt lat="45.5539996" lon="11.4494951"><ele>43.0</ele><time>2026-04-04T12:01:28.812Z</time></trkpt><trkpt lat="45.5541002" lon="11.4495033"><ele>43.0</ele><time>2026-04-04T12:01:29.812Z</time></trkpt><trkpt lat="45.5542164" lon="11.4495065"><ele>43.0</ele><time>2026-04-04T12:01:30.812Z</time></trkpt><trkpt lat="45.5542991" lon="11.4495089"><ele>43.0</ele><time>2026-04-04T12:01:31.812Z</time></trkpt><trkpt lat="45.5543687" lon="11.449511"><ele>43.0</ele><time>2026-04-04T12:01:32.812Z</time></trkpt><trkpt lat="45.5544619" lon="11.4495069"><ele>43.0</ele><time>2026-04-04T12:01:34.812Z</time></trkpt><trkpt lat="45.5546052" lon="11.4495054"><ele>43.0</ele><time>2026-04-04T12:01:36.812Z</time></trkpt><trkpt lat="45.5547126" lon="11.4495036"><ele>44.0</ele><time>2026-04-04T12:01:37.813Z</time></trkpt><trkpt lat="45.5548352" lon="11.4494988"><ele>45.0</ele><time>2026-04-04T12:01:38.811Z</time></trkpt><trkpt lat="45.5549364" lon="11.449482"><ele>46.0</ele><time>2026-04-04T12:01:39.812Z</time></trkpt><trkpt lat="45.5550379" lon="11.4494401"><ele>47.0</ele><time>2026-04-04T12:01:40.812Z</time></trkpt><trkpt lat="45.5551387" lon="11.4493443"><ele>47.0</ele><time>2026-04-04T12:01:41.811Z</time></trkpt><trkpt lat="45.5552603" lon="11.4492697"><ele>47.0</ele><time>2026-04-04T12:01:42.811Z</time></trkpt><trkpt lat="45.5553992" lon="11.4491795"><ele>47.0</ele><time>2026-04-04T12:01:43.811Z</time></trkpt><trkpt lat="45.5555241" lon="11.4490879"><ele>47.0</ele><time>2026-04-04T12:01:44.811Z</time></trkpt><trkpt lat="45.5556387" lon="11.4490103"><ele>47.25</ele><time>2026-04-04T12:01:45.813Z</time></trkpt><trkpt lat="45.5557666" lon="11.4489366"><ele>47.5</ele><time>2026-04-04T12:01:46.812Z</time></trkpt><trkpt lat="45.5558841" lon="11.4488665"><ele>47.75</ele><time>2026-04-04T12:01:47.813Z</time></trkpt><trkpt lat="45.5560154" lon="11.4488136"><ele>48.0</ele><time>2026-04-04T12:01:48.812Z</time></trkpt><trkpt lat="45.5561526" lon="11.4487813"><ele>47.25</ele><time>2026-04-04T12:01:49.811Z</time></trkpt><trkpt lat="45.5562891" lon="11.448763"><ele>46.5</ele><time>2026-04-04T12:01:50.812Z</time></trkpt><trkpt lat="45.5564098" lon="11.448751"><ele>45.75</ele><time>2026-04-04T12:01:51.811Z</time></trkpt><trkpt lat="45.5565225" lon="11.4487184"><ele>45.0</ele><time>2026-04-04T12:01:52.811Z</time></trkpt><trkpt lat="45.5566186" lon="11.4486787"><ele>45.0</ele><time>2026-04-04T12:01:53.811Z</time></trkpt><trkpt lat="45.5566933" lon="11.4486309"><ele>45.0</ele><time>2026-04-04T12:01:54.811Z</time></trkpt><trkpt lat="45.5567627" lon="11.4485498"><ele>45.0</ele><time>2026-04-04T12:01:55.812Z</time></trkpt><trkpt lat="45.5568555" lon="11.448435"><ele>45.0</ele><time>2026-04-04T12:01:56.812Z</time></trkpt><trkpt lat="45.5569472" lon="11.4483035"><ele>45.0</ele><time>2026-04-04T12:01:57.812Z</time></trkpt><trkpt lat="45.5570511" lon="11.4481714"><ele>44.0</ele><time>2026-04-04T12:01:58.812Z</time></trkpt><trkpt lat="45.5571674" lon="11.4480431"><ele>43.0</ele><time>2026-04-04T12:01:59.812Z</time></trkpt><trkpt lat="45.5572922" lon="11.4479055"><ele>42.0</ele><time>2026-04-04T12:02:00.812Z</time></trkpt><trkpt lat="45.5574083" lon="11.4477775"><ele>42.0</ele><time>2026-04-04T12:02:01.813Z</time></trkpt><trkpt lat="45.5575182" lon="11.4476763"><ele>42.0</ele><time>2026-04-04T12:02:02.812Z</time></trkpt><trkpt lat="45.5576223" lon="11.4475916"><ele>42.0</ele><time>2026-04-04T12:02:03.813Z</time></trkpt><trkpt lat="45.5577135" lon="11.4475327"><ele>42.0</ele><time>2026-04-04T12:02:04.811Z</time></trkpt><trkpt lat="45.5578145" lon="11.4475073"><ele>43.0</ele><time>2026-04-04T12:02:05.813Z</time></trkpt><trkpt lat="45.5579456" lon="11.4475077"><ele>44.0</ele><time>2026-04-04T12:02:06.813Z</time></trkpt><trkpt lat="45.5580858" lon="11.4475391"><ele>45.0</ele><time>2026-04-04T12:02:07.812Z</time></trkpt><trkpt lat="45.5582326" lon="11.4475791"><ele>46.0</ele><time>2026-04-04T12:02:08.811Z</time></trkpt><trkpt lat="45.5583641" lon="11.4475944"><ele>46.0</ele><time>2026-04-04T12:02:09.813Z</time></trkpt><trkpt lat="45.5584779" lon="11.4475942"><ele>46.0</ele><time>2026-04-04T12:02:10.811Z</time></trkpt><trkpt lat="45.5585883" lon="11.447555"><ele>46.0</ele><time>2026-04-04T12:02:11.813Z</time></trkpt><trkpt lat="45.5587121" lon="11.4474853"><ele>46.0</ele><time>2026-04-04T12:02:12.812Z</time></trkpt><trkpt lat="45.5588275" lon="11.4473881"><ele>46.5</ele><time>2026-04-04T12:02:13.813Z</time></trkpt><trkpt lat="45.5589423" lon="11.4472557"><ele>47.0</ele><time>2026-04-04T12:02:14.812Z</time></trkpt><trkpt lat="45.5590585" lon="11.4471019"><ele>47.5</ele><time>2026-04-04T12:02:15.811Z</time></trkpt><trkpt lat="45.5591611" lon="11.4469607"><ele>48.0</ele><time>2026-04-04T12:02:16.811Z</time></trkpt><trkpt lat="45.5592449" lon="11.4468384"><ele>47.0</ele><time>2026-04-04T12:02:17.811Z</time></trkpt><trkpt lat="45.5593042" lon="11.446707"><ele>46.0</ele><time>2026-04-04T12:02:18.811Z</time></trkpt><trkpt lat="45.5593344" lon="11.4465745"><ele>45.0</ele><time>2026-04-04T12:02:19.812Z</time></trkpt><trkpt lat="45.5593376" lon="11.4464125"><ele>44.0</ele><time>2026-04-04T12:02:20.813Z</time></trkpt><trkpt lat="45.5593123" lon="11.4462264"><ele>44.0</ele><time>2026-04-04T12:02:21.813Z</time></trkpt><trkpt lat="45.5592745" lon="11.4460173"><ele>44.0</ele><time>2026-04-04T12:02:22.813Z</time></trkpt><trkpt lat="45.5592603" lon="11.4458504"><ele>44.0</ele><time>2026-04-04T12:02:23.812Z</time></trkpt><trkpt lat="45.5592699" lon="11.4457151"><ele>44.0</ele><time>2026-04-04T12:02:24.812Z</time></trkpt><trkpt lat="45.5593041" lon="11.4456122"><ele>44.0</ele><time>2026-04-04T12:02:25.812Z</time></trkpt><trkpt lat="45.5593712" lon="11.4455326"><ele>44.0</ele><time>2026-04-04T12:02:26.813Z</time></trkpt><trkpt lat="45.5594862" lon="11.4454955"><ele>44.0</ele><time>2026-04-04T12:02:27.812Z</time></trkpt><trkpt lat="45.5596255" lon="11.4454534"><ele>44.0</ele><time>2026-04-04T12:02:28.812Z</time></trkpt><trkpt lat="45.5597803" lon="11.4454106"><ele>44.0</ele><time>2026-04-04T12:02:29.811Z</time></trkpt><trkpt lat="45.559947" lon="11.4453817"><ele>44.0</ele><time>2026-04-04T12:02:30.811Z</time></trkpt><trkpt lat="45.5600986" lon="11.445381"><ele>44.0</ele><time>2026-04-04T12:02:31.811Z</time></trkpt><trkpt lat="45.5602308" lon="11.4453917"><ele>44.0</ele><time>2026-04-04T12:02:32.812Z</time></trkpt><trkpt lat="45.5603357" lon="11.4454038"><ele>44.0</ele><time>2026-04-04T12:02:33.811Z</time></trkpt><trkpt lat="45.5604115" lon="11.4454134"><ele>44.0</ele><time>2026-04-04T12:02:34.811Z</time></trkpt><trkpt lat="45.560479" lon="11.4454465"><ele>44.0</ele><time>2026-04-04T12:02:36.811Z</time></trkpt><trkpt lat="45.5604945" lon="11.4455649"><ele>44.0</ele><time>2026-04-04T12:02:38.812Z</time></trkpt><trkpt lat="45.5604799" lon="11.4457461"><ele>44.0</ele><time>2026-04-04T12:02:40.813Z</time></trkpt><trkpt lat="45.5604814" lon="11.445839"><ele>44.0</ele><time>2026-04-04T12:02:41.812Z</time></trkpt><trkpt lat="45.5604797" lon="11.4460182"><ele>44.142857142857146</ele><time>2026-04-04T12:02:43.812Z</time></trkpt><trkpt lat="45.5604767" lon="11.4461166"><ele>44.285714285714285</ele><time>2026-04-04T12:02:44.812Z</time></trkpt><trkpt lat="45.5604772" lon="11.4462161"><ele>44.42857142857143</ele><time>2026-04-04T12:02:45.812Z</time></trkpt><trkpt lat="45.5604787" lon="11.44631"><ele>44.57142857142857</ele><time>2026-04-04T12:02:46.811Z</time></trkpt><trkpt lat="45.5604841" lon="11.4464064"><ele>44.714285714285715</ele><time>2026-04-04T12:02:47.81Z</time></trkpt><trkpt lat="45.5604851" lon="11.4465028"><ele>44.857142857142854</ele><time>2026-04-04T12:02:48.811Z</time></trkpt><trkpt lat="45.5604931" lon="11.4466054"><ele>45.0</ele><time>2026-04-04T12:02:49.811Z</time></trkpt><trkpt lat="45.5605072" lon="11.4467197"><ele>45.6</ele><time>2026-04-04T12:02:50.811Z</time></trkpt><trkpt lat="45.5605312" lon="11.4468411"><ele>46.2</ele><time>2026-04-04T12:02:51.81Z</time></trkpt><trkpt lat="45.5605671" lon="11.446963"><ele>46.8</ele><time>2026-04-04T12:02:52.811Z</time></trkpt><trkpt lat="45.5606181" lon="11.447092"><ele>47.4</ele><time>2026-04-04T12:02:53.811Z</time></trkpt><trkpt lat="45.5606876" lon="11.4472162"><ele>48.0</ele><time>2026-04-04T12:02:54.811Z</time></trkpt><trkpt lat="45.5607642" lon="11.4473437"><ele>49.0</ele><time>2026-04-04T12:02:55.812Z</time></trkpt><trkpt lat="45.5608452" lon="11.4474686"><ele>50.0</ele><time>2026-04-04T12:02:56.81Z</time></trkpt><trkpt lat="45.5609274" lon="11.4475864"><ele>51.0</ele><time>2026-04-04T12:02:57.812Z</time></trkpt><trkpt lat="45.5609928" lon="11.4476917"><ele>52.0</ele><time>2026-04-04T12:02:58.811Z</time></trkpt><trkpt lat="45.5610491" lon="11.4477845"><ele>53.0</ele><time>2026-04-04T12:02:59.811Z</time></trkpt><trkpt lat="45.5611008" lon="11.4478671"><ele>53.0</ele><time>2026-04-04T12:03:00.811Z</time></trkpt><trkpt lat="45.5611548" lon="11.4479364"><ele>53.0</ele><time>2026-04-04T12:03:01.811Z</time></trkpt><trkpt lat="45.5612864" lon="11.4479319"><ele>53.0</ele><time>2026-04-04T12:03:03.811Z</time></trkpt><trkpt lat="45.5613624" lon="11.4478912"><ele>53.0</ele><time>2026-04-04T12:03:04.811Z</time></trkpt><trkpt lat="45.5614638" lon="11.4478127"><ele>53.0</ele><time>2026-04-04T12:03:05.811Z</time></trkpt><trkpt lat="45.5615388" lon="11.4477237"><ele>54.2</ele><time>2026-04-04T12:03:06.81Z</time></trkpt><trkpt lat="45.5615986" lon="11.4476109"><ele>55.4</ele><time>2026-04-04T12:03:07.812Z</time></trkpt><trkpt lat="45.5616617" lon="11.4474871"><ele>56.60000000000001</ele><time>2026-04-04T12:03:08.811Z</time></trkpt><trkpt lat="45.5617331" lon="11.4473788"><ele>57.800000000000004</ele><time>2026-04-04T12:03:09.812Z</time></trkpt><trkpt lat="45.5618034" lon="11.4472946"><ele>59.0</ele><time>2026-04-04T12:03:10.811Z</time></trkpt><trkpt lat="45.5618899" lon="11.4472417"><ele>59.0</ele><time>2026-04-04T12:03:11.812Z</time></trkpt><trkpt lat="45.5619898" lon="11.447198"><ele>59.0</ele><time>2026-04-04T12:03:12.811Z</time></trkpt><trkpt lat="45.5621197" lon="11.447171"><ele>59.0</ele><time>2026-04-04T12:03:13.811Z</time></trkpt><trkpt lat="45.5622681" lon="11.4471487"><ele>59.0</ele><time>2026-04-04T12:03:14.811Z</time></trkpt><trkpt lat="45.5624311" lon="11.4471128"><ele>57.333333333333336</ele><time>2026-04-04T12:03:15.811Z</time></trkpt><trkpt lat="45.5625956" lon="11.4470665"><ele>55.66666666666667</ele><time>2026-04-04T12:03:16.81Z</time></trkpt><trkpt lat="45.5627635" lon="11.4470212"><ele>54.0</ele><time>2026-04-04T12:03:17.812Z</time></trkpt><trkpt lat="45.5629318" lon="11.4469603"><ele>54.0</ele><time>2026-04-04T12:03:18.811Z</time></trkpt><trkpt lat="45.5630967" lon="11.4468813"><ele>54.0</ele><time>2026-04-04T12:03:19.81Z</time></trkpt><trkpt lat="45.5632494" lon="11.4467936"><ele>54.0</ele><time>2026-04-04T12:03:20.811Z</time></trkpt><trkpt lat="45.5633714" lon="11.4467221"><ele>54.0</ele><time>2026-04-04T12:03:21.811Z</time></trkpt><trkpt lat="45.5634813" lon="11.446669"><ele>54.0</ele><time>2026-04-04T12:03:22.81Z</time></trkpt><trkpt lat="45.5635678" lon="11.4466351"><ele>54.0</ele><time>2026-04-04T12:03:23.811Z</time></trkpt><trkpt lat="45.5636441" lon="11.4466217"><ele>54.0</ele><time>2026-04-04T12:03:24.811Z</time></trkpt><trkpt lat="45.5637195" lon="11.4466231"><ele>54.0</ele><time>2026-04-04T12:03:25.81Z</time></trkpt><trkpt lat="45.5638034" lon="11.4466409"><ele>54.0</ele><time>2026-04-04T12:03:26.81Z</time></trkpt><trkpt lat="45.5638974" lon="11.4466629"><ele>54.25</ele><time>2026-04-04T12:03:27.811Z</time></trkpt><trkpt lat="45.564007" lon="11.446678"><ele>54.5</ele><time>2026-04-04T12:03:28.81Z</time></trkpt><trkpt lat="45.5641266" lon="11.4466903"><ele>54.75</ele><time>2026-04-04T12:03:29.811Z</time></trkpt><trkpt lat="45.5642508" lon="11.4466912"><ele>55.0</ele><time>2026-04-04T12:03:30.81Z</time></trkpt><trkpt lat="45.5643772" lon="11.4466787"><ele>55.0</ele><time>2026-04-04T12:03:31.811Z</time></trkpt><trkpt lat="45.56451" lon="11.4466754"><ele>55.0</ele><time>2026-04-04T12:03:32.811Z</time></trkpt><trkpt lat="45.5646461" lon="11.446682"><ele>55.0</ele><time>2026-04-04T12:03:33.811Z</time></trkpt><trkpt lat="45.5647928" lon="11.4467077"><ele>55.0</ele><time>2026-04-04T12:03:34.812Z</time></trkpt><trkpt lat="45.5649419" lon="11.446757"><ele>54.666666666666664</ele><time>2026-04-04T12:03:35.811Z</time></trkpt><trkpt lat="45.5650968" lon="11.4468197"><ele>54.33333333333333</ele><time>2026-04-04T12:03:36.812Z</time></trkpt><trkpt lat="45.5652519" lon="11.446895"><ele>54.0</ele><time>2026-04-04T12:03:37.811Z</time></trkpt><trkpt lat="45.5653851" lon="11.4469445"><ele>53.25</ele><time>2026-04-04T12:03:38.812Z</time></trkpt><trkpt lat="45.5655213" lon="11.4469687"><ele>52.5</ele><time>2026-04-04T12:03:39.811Z</time></trkpt><trkpt lat="45.5656657" lon="11.4470076"><ele>51.75</ele><time>2026-04-04T12:03:40.81Z</time></trkpt><trkpt lat="45.5658078" lon="11.4470652"><ele>51.0</ele><time>2026-04-04T12:03:41.81Z</time></trkpt><trkpt lat="45.56596" lon="11.4471069"><ele>51.0</ele><time>2026-04-04T12:03:42.81Z</time></trkpt><trkpt lat="45.5661173" lon="11.4471245"><ele>51.0</ele><time>2026-04-04T12:03:43.81Z</time></trkpt><trkpt lat="45.566272" lon="11.4471432"><ele>51.0</ele><time>2026-04-04T12:03:44.811Z</time></trkpt><trkpt lat="45.5664166" lon="11.4471677"><ele>54.0</ele><time>2026-04-04T12:03:45.811Z</time></trkpt><trkpt lat="45.5665613" lon="11.4472024"><ele>57.0</ele><time>2026-04-04T12:03:46.81Z</time></trkpt><trkpt lat="45.566708" lon="11.4472598"><ele>60.0</ele><time>2026-04-04T12:03:47.811Z</time></trkpt><trkpt lat="45.566856" lon="11.4473376"><ele>60.0</ele><time>2026-04-04T12:03:48.812Z</time></trkpt><trkpt lat="45.5670083" lon="11.447408"><ele>60.0</ele><time>2026-04-04T12:03:49.81Z</time></trkpt><trkpt lat="45.5671591" lon="11.4474705"><ele>60.0</ele><time>2026-04-04T12:03:50.81Z</time></trkpt><trkpt lat="45.5673164" lon="11.4475166"><ele>59.25</ele><time>2026-04-04T12:03:51.811Z</time></trkpt><trkpt lat="45.5674768" lon="11.4475323"><ele>58.5</ele><time>2026-04-04T12:03:52.811Z</time></trkpt><trkpt lat="45.567621" lon="11.4475431"><ele>57.75</ele><time>2026-04-04T12:03:53.81Z</time></trkpt><trkpt lat="45.5677553" lon="11.4475653"><ele>57.0</ele><time>2026-04-04T12:03:54.811Z</time></trkpt><trkpt lat="45.5678887" lon="11.4475711"><ele>55.75</ele><time>2026-04-04T12:03:55.81Z</time></trkpt><trkpt lat="45.568017" lon="11.4475846"><ele>54.5</ele><time>2026-04-04T12:03:56.812Z</time></trkpt><trkpt lat="45.5681653" lon="11.4476201"><ele>53.25</ele><time>2026-04-04T12:03:57.811Z</time></trkpt><trkpt lat="45.5682973" lon="11.447664"><ele>52.0</ele><time>2026-04-04T12:03:58.81Z</time></trkpt><trkpt lat="45.568415" lon="11.4477198"><ele>52.0</ele><time>2026-04-04T12:03:59.81Z</time></trkpt><trkpt lat="45.5685186" lon="11.4477923"><ele>52.0</ele><time>2026-04-04T12:04:00.812Z</time></trkpt><trkpt lat="45.5685928" lon="11.4478662"><ele>52.0</ele><time>2026-04-04T12:04:01.811Z</time></trkpt><trkpt lat="45.5686714" lon="11.44798"><ele>52.0</ele><time>2026-04-04T12:04:02.811Z</time></trkpt><trkpt lat="45.5687531" lon="11.4481156"><ele>52.0</ele><time>2026-04-04T12:04:03.811Z</time></trkpt><trkpt lat="45.5688497" lon="11.4482651"><ele>52.0</ele><time>2026-04-04T12:04:04.811Z</time></trkpt><trkpt lat="45.568962" lon="11.448408"><ele>52.0</ele><time>2026-04-04T12:04:05.812Z</time></trkpt><trkpt lat="45.5690592" lon="11.4485276"><ele>52.0</ele><time>2026-04-04T12:04:06.811Z</time></trkpt><trkpt lat="45.569156" lon="11.4486301"><ele>52.0</ele><time>2026-04-04T12:04:07.812Z</time></trkpt><trkpt lat="45.5692492" lon="11.448705"><ele>51.99999999999999</ele><time>2026-04-04T12:04:08.811Z</time></trkpt><trkpt lat="45.5693158" lon="11.4487452"><ele>52.0</ele><time>2026-04-04T12:04:09.811Z</time></trkpt><trkpt lat="45.5693903" lon="11.448766"><ele>52.0</ele><time>2026-04-04T12:04:10.811Z</time></trkpt><trkpt lat="45.5694664" lon="11.448762"><ele>52.0</ele><time>2026-04-04T12:04:11.812Z</time></trkpt><trkpt lat="45.5695345" lon="11.4487296"><ele>51.99999999999999</ele><time>2026-04-04T12:04:12.81Z</time></trkpt><trkpt lat="45.5695994" lon="11.448665"><ele>52.0</ele><time>2026-04-04T12:04:13.81Z</time></trkpt><trkpt lat="45.5696483" lon="11.4485679"><ele>52.0</ele><time>2026-04-04T12:04:14.811Z</time></trkpt><trkpt lat="45.5697046" lon="11.4484392"><ele>52.0</ele><time>2026-04-04T12:04:15.811Z</time></trkpt><trkpt lat="45.5697507" lon="11.4483045"><ele>52.0</ele><time>2026-04-04T12:04:16.811Z</time></trkpt><trkpt lat="45.5698032" lon="11.4481732"><ele>52.0</ele><time>2026-04-04T12:04:17.811Z</time></trkpt><trkpt lat="45.5698617" lon="11.4480447"><ele>52.0</ele><time>2026-04-04T12:04:18.812Z</time></trkpt><trkpt lat="45.5699213" lon="11.4479223"><ele>51.99999999999999</ele><time>2026-04-04T12:04:19.811Z</time></trkpt><trkpt lat="45.5699805" lon="11.4478158"><ele>52.0</ele><time>2026-04-04T12:04:20.81Z</time></trkpt><trkpt lat="45.5700412" lon="11.4477338"><ele>52.0</ele><time>2026-04-04T12:04:21.81Z</time></trkpt><trkpt lat="45.5701057" lon="11.4476703"><ele>52.0</ele><time>2026-04-04T12:04:22.811Z</time></trkpt><trkpt lat="45.5701856" lon="11.4476084"><ele>51.99999999999999</ele><time>2026-04-04T12:04:23.812Z</time></trkpt><trkpt lat="45.5702688" lon="11.4475587"><ele>52.0</ele><time>2026-04-04T12:04:24.81Z</time></trkpt><trkpt lat="45.5703586" lon="11.4475124"><ele>54.6</ele><time>2026-04-04T12:04:25.811Z</time></trkpt><trkpt lat="45.570453" lon="11.4474812"><ele>57.2</ele><time>2026-04-04T12:04:26.811Z</time></trkpt><trkpt lat="45.5705441" lon="11.4474776"><ele>59.8</ele><time>2026-04-04T12:04:27.81Z</time></trkpt><trkpt lat="45.5706317" lon="11.4474817"><ele>62.4</ele><time>2026-04-04T12:04:28.81Z</time></trkpt><trkpt lat="45.5707316" lon="11.4474836"><ele>65.0</ele><time>2026-04-04T12:04:29.811Z</time></trkpt><trkpt lat="45.5708317" lon="11.4474861"><ele>65.0</ele><time>2026-04-04T12:04:30.812Z</time></trkpt><trkpt lat="45.5709152" lon="11.4474864"><ele>65.0</ele><time>2026-04-04T12:04:31.811Z</time></trkpt><trkpt lat="45.5709964" lon="11.4475035"><ele>65.0</ele><time>2026-04-04T12:04:32.811Z</time></trkpt><trkpt lat="45.5710937" lon="11.4475119"><ele>65.0</ele><time>2026-04-04T12:04:33.812Z</time></trkpt><trkpt lat="45.5711994" lon="11.4474972"><ele>65.0</ele><time>2026-04-04T12:04:34.81Z</time></trkpt><trkpt lat="45.5713145" lon="11.4474776"><ele>66.2</ele><time>2026-04-04T12:04:35.81Z</time></trkpt><trkpt lat="45.5714261" lon="11.4474633"><ele>67.4</ele><time>2026-04-04T12:04:36.811Z</time></trkpt><trkpt lat="45.5715353" lon="11.4474572"><ele>68.6</ele><time>2026-04-04T12:04:37.81Z</time></trkpt><trkpt lat="45.5716425" lon="11.4474554"><ele>69.8</ele><time>2026-04-04T12:04:38.812Z</time></trkpt><trkpt lat="45.5717472" lon="11.4474389"><ele>71.0</ele><time>2026-04-04T12:04:39.81Z</time></trkpt><trkpt lat="45.5718446" lon="11.4474047"><ele>71.0</ele><time>2026-04-04T12:04:40.81Z</time></trkpt><trkpt lat="45.5719383" lon="11.4473569"><ele>71.0</ele><time>2026-04-04T12:04:41.81Z</time></trkpt><trkpt lat="45.5720356" lon="11.4473291"><ele>71.0</ele><time>2026-04-04T12:04:42.81Z</time></trkpt><trkpt lat="45.5721454" lon="11.4473123"><ele>71.0</ele><time>2026-04-04T12:04:43.812Z</time></trkpt><trkpt lat="45.5722656" lon="11.4472964"><ele>71.0</ele><time>2026-04-04T12:04:44.811Z</time></trkpt><trkpt lat="45.5723865" lon="11.4472758"><ele>71.2</ele><time>2026-04-04T12:04:45.81Z</time></trkpt><trkpt lat="45.5724995" lon="11.4472565"><ele>71.39999999999999</ele><time>2026-04-04T12:04:46.811Z</time></trkpt><trkpt lat="45.5725984" lon="11.4472332"><ele>71.6</ele><time>2026-04-04T12:04:47.811Z</time></trkpt><trkpt lat="45.572698" lon="11.4472107"><ele>71.8</ele><time>2026-04-04T12:04:48.811Z</time></trkpt><trkpt lat="45.5728069" lon="11.4471893"><ele>72.0</ele><time>2026-04-04T12:04:49.81Z</time></trkpt><trkpt lat="45.5729246" lon="11.4471786"><ele>72.0</ele><time>2026-04-04T12:04:50.81Z</time></trkpt><trkpt lat="45.5730514" lon="11.4471887"><ele>72.0</ele><time>2026-04-04T12:04:51.81Z</time></trkpt><trkpt lat="45.5731815" lon="11.4472012"><ele>72.0</ele><time>2026-04-04T12:04:52.812Z</time></trkpt><trkpt lat="45.5733173" lon="11.4472225"><ele>72.0</ele><time>2026-04-04T12:04:53.811Z</time></trkpt><trkpt lat="45.5734628" lon="11.4472707"><ele>72.0</ele><time>2026-04-04T12:04:54.81Z</time></trkpt><trkpt lat="45.5736227" lon="11.4473145"><ele>72.0</ele><time>2026-04-04T12:04:55.812Z</time></trkpt><trkpt lat="45.5737939" lon="11.4473636"><ele>72.0</ele><time>2026-04-04T12:04:56.811Z</time></trkpt><trkpt lat="45.5739579" lon="11.4474114"><ele>69.25</ele><time>2026-04-04T12:04:57.811Z</time></trkpt><trkpt lat="45.5740994" lon="11.4474524"><ele>66.5</ele><time>2026-04-04T12:04:58.81Z</time></trkpt><trkpt lat="45.5742167" lon="11.4474665"><ele>63.75</ele><time>2026-04-04T12:04:59.811Z</time></trkpt><trkpt lat="45.5743356" lon="11.4474384"><ele>61.0</ele><time>2026-04-04T12:05:00.812Z</time></trkpt><trkpt lat="45.5744819" lon="11.4473934"><ele>58.666666666666664</ele><time>2026-04-04T12:05:01.811Z</time></trkpt><trkpt lat="45.5746318" lon="11.4473817"><ele>56.33333333333333</ele><time>2026-04-04T12:05:02.812Z</time></trkpt><trkpt lat="45.5747924" lon="11.4473863"><ele>54.0</ele><time>2026-04-04T12:05:03.81Z</time></trkpt><trkpt lat="45.5749568" lon="11.4473899"><ele>54.0</ele><time>2026-04-04T12:05:04.81Z</time></trkpt><trkpt lat="45.5751071" lon="11.4473836"><ele>54.0</ele><time>2026-04-04T12:05:05.81Z</time></trkpt><trkpt lat="45.5752411" lon="11.4473592"><ele>54.0</ele><time>2026-04-04T12:05:06.811Z</time></trkpt><trkpt lat="45.5753614" lon="11.4473086"><ele>54.0</ele><time>2026-04-04T12:05:07.812Z</time></trkpt><trkpt lat="45.5754827" lon="11.447234"><ele>53.5</ele><time>2026-04-04T12:05:08.81Z</time></trkpt><trkpt lat="45.5755994" lon="11.4471281"><ele>53.0</ele><time>2026-04-04T12:05:09.811Z</time></trkpt><trkpt lat="45.5757163" lon="11.4469943"><ele>52.5</ele><time>2026-04-04T12:05:10.812Z</time></trkpt><trkpt lat="45.5758331" lon="11.4468411"><ele>52.0</ele><time>2026-04-04T12:05:11.811Z</time></trkpt><trkpt lat="45.5759416" lon="11.4466832"><ele>52.0</ele><time>2026-04-04T12:05:12.811Z</time></trkpt><trkpt lat="45.5760556" lon="11.4465283"><ele>52.0</ele><time>2026-04-04T12:05:13.81Z</time></trkpt><trkpt lat="45.5761748" lon="11.4463564"><ele>52.0</ele><time>2026-04-04T12:05:14.811Z</time></trkpt><trkpt lat="45.5762686" lon="11.4462245"><ele>52.75</ele><time>2026-04-04T12:05:15.812Z</time></trkpt><trkpt lat="45.5763423" lon="11.4461229"><ele>53.5</ele><time>2026-04-04T12:05:16.811Z</time></trkpt><trkpt lat="45.5764169" lon="11.4459937"><ele>54.25</ele><time>2026-04-04T12:05:17.811Z</time></trkpt><trkpt lat="45.5764988" lon="11.4458727"><ele>55.0</ele><time>2026-04-04T12:05:18.81Z</time></trkpt><trkpt lat="45.5766024" lon="11.445761"><ele>55.0</ele><time>2026-04-04T12:05:19.811Z</time></trkpt><trkpt lat="45.5767083" lon="11.4456713"><ele>55.0</ele><time>2026-04-04T12:05:20.811Z</time></trkpt><trkpt lat="45.5767856" lon="11.4456003"><ele>55.0</ele><time>2026-04-04T12:05:21.81Z</time></trkpt><trkpt lat="45.5768406" lon="11.4455467"><ele>55.0</ele><time>2026-04-04T12:05:22.81Z</time></trkpt><trkpt lat="45.5769353" lon="11.4454978"><ele>55.0</ele><time>2026-04-04T12:05:24.811Z</time></trkpt><trkpt lat="45.5770212" lon="11.4455163"><ele>57.25</ele><time>2026-04-04T12:05:25.812Z</time></trkpt><trkpt lat="45.577124" lon="11.4455342"><ele>59.5</ele><time>2026-04-04T12:05:26.81Z</time></trkpt><trkpt lat="45.5772586" lon="11.4455521"><ele>61.75</ele><time>2026-04-04T12:05:27.81Z</time></trkpt><trkpt lat="45.5774096" lon="11.4455736"><ele>64.0</ele><time>2026-04-04T12:05:28.81Z</time></trkpt><trkpt lat="45.5775823" lon="11.4455998"><ele>64.0</ele><time>2026-04-04T12:05:29.81Z</time></trkpt><trkpt lat="45.5777635" lon="11.4456231"><ele>64.0</ele><time>2026-04-04T12:05:30.81Z</time></trkpt><trkpt lat="45.577961" lon="11.4456439"><ele>64.0</ele><time>2026-04-04T12:05:31.81Z</time></trkpt><trkpt lat="45.5781701" lon="11.4456596"><ele>63.33333333333333</ele><time>2026-04-04T12:05:32.812Z</time></trkpt><trkpt lat="45.5783875" lon="11.4456592"><ele>62.66666666666667</ele><time>2026-04-04T12:05:33.811Z</time></trkpt><trkpt lat="45.5786119" lon="11.4456413"><ele>62.0</ele><time>2026-04-04T12:05:34.811Z</time></trkpt><trkpt lat="45.5788426" lon="11.445594"><ele>61.0</ele><time>2026-04-04T12:05:35.812Z</time></trkpt><trkpt lat="45.5790619" lon="11.4455513"><ele>60.0</ele><time>2026-04-04T12:05:36.81Z</time></trkpt><trkpt lat="45.579275" lon="11.4455157"><ele>59.0</ele><time>2026-04-04T12:05:37.811Z</time></trkpt><trkpt lat="45.5794704" lon="11.4454804"><ele>59.66666666666667</ele><time>2026-04-04T12:05:38.811Z</time></trkpt><trkpt lat="45.5796597" lon="11.4454415"><ele>60.33333333333333</ele><time>2026-04-04T12:05:39.811Z</time></trkpt><trkpt lat="45.5798512" lon="11.4454003"><ele>61.0</ele><time>2026-04-04T12:05:40.811Z</time></trkpt><trkpt lat="45.5800414" lon="11.4453622"><ele>61.0</ele><time>2026-04-04T12:05:41.811Z</time></trkpt><trkpt lat="45.5802314" lon="11.4453252"><ele>61.0</ele><time>2026-04-04T12:05:42.81Z</time></trkpt><trkpt lat="45.5804193" lon="11.445287"><ele>61.0</ele><time>2026-04-04T12:05:43.811Z</time></trkpt><trkpt lat="45.5806069" lon="11.4452443"><ele>61.33333333333333</ele><time>2026-04-04T12:05:44.81Z</time></trkpt><trkpt lat="45.5807935" lon="11.4451995"><ele>61.66666666666667</ele><time>2026-04-04T12:05:45.811Z</time></trkpt><trkpt lat="45.5809792" lon="11.4451469"><ele>62.0</ele><time>2026-04-04T12:05:46.811Z</time></trkpt><trkpt lat="45.5811637" lon="11.4450855"><ele>62.66666666666667</ele><time>2026-04-04T12:05:47.812Z</time></trkpt><trkpt lat="45.5813488" lon="11.4450221"><ele>63.33333333333333</ele><time>2026-04-04T12:05:48.811Z</time></trkpt><trkpt lat="45.5815347" lon="11.444956"><ele>64.0</ele><time>2026-04-04T12:05:49.811Z</time></trkpt><trkpt lat="45.5817201" lon="11.4448855"><ele>64.0</ele><time>2026-04-04T12:05:50.81Z</time></trkpt><trkpt lat="45.5819026" lon="11.4448104"><ele>64.0</ele><time>2026-04-04T12:05:51.81Z</time></trkpt><trkpt lat="45.5820846" lon="11.4447326"><ele>64.0</ele><time>2026-04-04T12:05:52.812Z</time></trkpt><trkpt lat="45.5822645" lon="11.4446625"><ele>67.33333333333333</ele><time>2026-04-04T12:05:53.812Z</time></trkpt><trkpt lat="45.5824456" lon="11.4445978"><ele>70.66666666666667</ele><time>2026-04-04T12:05:54.812Z</time></trkpt><trkpt lat="45.5826248" lon="11.4445555"><ele>74.0</ele><time>2026-04-04T12:05:55.812Z</time></trkpt><trkpt lat="45.5828013" lon="11.4445164"><ele>71.5</ele><time>2026-04-04T12:05:56.811Z</time></trkpt><trkpt lat="45.5829618" lon="11.4445022"><ele>69.0</ele><time>2026-04-04T12:05:57.809Z</time></trkpt><trkpt lat="45.5831083" lon="11.4444983"><ele>66.5</ele><time>2026-04-04T12:05:58.81Z</time></trkpt><trkpt lat="45.5832305" lon="11.4444995"><ele>64.0</ele><time>2026-04-04T12:05:59.81Z</time></trkpt><trkpt lat="45.5833332" lon="11.4445063"><ele>64.0</ele><time>2026-04-04T12:06:00.81Z</time></trkpt><trkpt lat="45.5834119" lon="11.4445194"><ele>64.0</ele><time>2026-04-04T12:06:01.81Z</time></trkpt><trkpt lat="45.5834928" lon="11.4445808"><ele>64.0</ele><time>2026-04-04T12:06:03.811Z</time></trkpt><trkpt lat="45.5835004" lon="11.4447664"><ele>64.0</ele><time>2026-04-04T12:06:05.809Z</time></trkpt><trkpt lat="45.5834922" lon="11.4449132"><ele>64.0</ele><time>2026-04-04T12:06:06.81Z</time></trkpt><trkpt lat="45.5834894" lon="11.4450739"><ele>64.0</ele><time>2026-04-04T12:06:07.81Z</time></trkpt><trkpt lat="45.5834827" lon="11.4452563"><ele>64.0</ele><time>2026-04-04T12:06:08.809Z</time></trkpt><trkpt lat="45.5834716" lon="11.4454384"><ele>64.0</ele><time>2026-04-04T12:06:09.809Z</time></trkpt><trkpt lat="45.5834573" lon="11.445609"><ele>64.0</ele><time>2026-04-04T12:06:10.81Z</time></trkpt><trkpt lat="45.5834424" lon="11.4457584"><ele>63.800000000000004</ele><time>2026-04-04T12:06:11.809Z</time></trkpt><trkpt lat="45.5834082" lon="11.4458965"><ele>63.60000000000001</ele><time>2026-04-04T12:06:12.809Z</time></trkpt><trkpt lat="45.5833721" lon="11.4460371"><ele>63.4</ele><time>2026-04-04T12:06:13.809Z</time></trkpt><trkpt lat="45.5833518" lon="11.4461727"><ele>63.2</ele><time>2026-04-04T12:06:14.811Z</time></trkpt><trkpt lat="45.5833351" lon="11.4463195"><ele>63.0</ele><time>2026-04-04T12:06:15.81Z</time></trkpt><trkpt lat="45.583323" lon="11.4464555"><ele>62.599999999999994</ele><time>2026-04-04T12:06:16.809Z</time></trkpt><trkpt lat="45.5833257" lon="11.4465969"><ele>62.199999999999996</ele><time>2026-04-04T12:06:17.811Z</time></trkpt><trkpt lat="45.5833514" lon="11.4467418"><ele>61.8</ele><time>2026-04-04T12:06:18.81Z</time></trkpt><trkpt lat="45.5833923" lon="11.446882"><ele>61.4</ele><time>2026-04-04T12:06:19.81Z</time></trkpt><trkpt lat="45.5834249" lon="11.4470246"><ele>61.0</ele><time>2026-04-04T12:06:20.81Z</time></trkpt><trkpt lat="45.5834342" lon="11.44715"><ele>62.199999999999996</ele><time>2026-04-04T12:06:21.809Z</time></trkpt><trkpt lat="45.5834316" lon="11.4472749"><ele>63.39999999999999</ele><time>2026-04-04T12:06:22.809Z</time></trkpt><trkpt lat="45.5834114" lon="11.4473974"><ele>64.6</ele><time>2026-04-04T12:06:23.809Z</time></trkpt><trkpt lat="45.5833699" lon="11.4475128"><ele>65.8</ele><time>2026-04-04T12:06:24.811Z</time></trkpt><trkpt lat="45.5833096" lon="11.4476392"><ele>67.0</ele><time>2026-04-04T12:06:25.809Z</time></trkpt><trkpt lat="45.5832466" lon="11.4477709"><ele>67.0</ele><time>2026-04-04T12:06:26.81Z</time></trkpt><trkpt lat="45.5831864" lon="11.4478717"><ele>67.0</ele><time>2026-04-04T12:06:27.809Z</time></trkpt><trkpt lat="45.5831248" lon="11.4479454"><ele>67.0</ele><time>2026-04-04T12:06:28.81Z</time></trkpt><trkpt lat="45.5830477" lon="11.44803"><ele>67.0</ele><time>2026-04-04T12:06:30.809Z</time></trkpt><trkpt lat="45.5829862" lon="11.4480809"><ele>67.0</ele><time>2026-04-04T12:06:34.811Z</time></trkpt><trkpt lat="45.582857" lon="11.4480797"><ele>69.8</ele><time>2026-04-04T12:06:36.809Z</time></trkpt><trkpt lat="45.5828027" lon="11.448188"><ele>72.6</ele><time>2026-04-04T12:06:38.81Z</time></trkpt><trkpt lat="45.5828655" lon="11.4482642"><ele>75.39999999999999</ele><time>2026-04-04T12:06:40.81Z</time></trkpt><trkpt lat="45.5829576" lon="11.4483034"><ele>78.2</ele><time>2026-04-04T12:06:41.81Z</time></trkpt><trkpt lat="45.5830513" lon="11.4483396"><ele>81.0</ele><time>2026-04-04T12:06:42.809Z</time></trkpt><trkpt lat="45.5831858" lon="11.4483452"><ele>84.33333333333333</ele><time>2026-04-04T12:06:43.809Z</time></trkpt><trkpt lat="45.583303" lon="11.4483089"><ele>87.66666666666666</ele><time>2026-04-04T12:06:44.811Z</time></trkpt><trkpt lat="45.5834329" lon="11.448275"><ele>91.0</ele><time>2026-04-04T12:06:45.81Z</time></trkpt><trkpt lat="45.5836148" lon="11.4481357"><ele>91.19999999999999</ele><time>2026-04-04T12:06:46.811Z</time></trkpt><trkpt lat="45.5837378" lon="11.4480761"><ele>91.39999999999999</ele><time>2026-04-04T12:06:47.809Z</time></trkpt><trkpt lat="45.5838554" lon="11.4480152"><ele>91.6</ele><time>2026-04-04T12:06:48.809Z</time></trkpt><trkpt lat="45.5839403" lon="11.4479818"><ele>91.8</ele><time>2026-04-04T12:06:49.809Z</time></trkpt><trkpt lat="45.5840269" lon="11.447976"><ele>92.0</ele><time>2026-04-04T12:06:50.809Z</time></trkpt><trkpt lat="45.584126" lon="11.4480338"><ele>92.0</ele><time>2026-04-04T12:06:52.81Z</time></trkpt><trkpt lat="45.5840789" lon="11.4481923"><ele>92.0</ele><time>2026-04-04T12:06:54.811Z</time></trkpt><trkpt lat="45.5840358" lon="11.4482914"><ele>92.0</ele><time>2026-04-04T12:06:55.809Z</time></trkpt><trkpt lat="45.5839798" lon="11.4483869"><ele>92.0</ele><time>2026-04-04T12:06:56.81Z</time></trkpt><trkpt lat="45.5838945" lon="11.4484715"><ele>92.0</ele><time>2026-04-04T12:06:57.809Z</time></trkpt><trkpt lat="45.583778" lon="11.4485802"><ele>91.66666666666667</ele><time>2026-04-04T12:06:58.81Z</time></trkpt><trkpt lat="45.5836476" lon="11.4487075"><ele>91.33333333333333</ele><time>2026-04-04T12:06:59.81Z</time></trkpt><trkpt lat="45.5835214" lon="11.4488445"><ele>91.0</ele><time>2026-04-04T12:07:00.81Z</time></trkpt><trkpt lat="45.5834178" lon="11.4489829"><ele>96.5</ele><time>2026-04-04T12:07:01.81Z</time></trkpt><trkpt lat="45.5833259" lon="11.4491296"><ele>102.0</ele><time>2026-04-04T12:07:02.811Z</time></trkpt><trkpt lat="45.5832472" lon="11.4492716"><ele>107.5</ele><time>2026-04-04T12:07:03.81Z</time></trkpt><trkpt lat="45.5831676" lon="11.4493858"><ele>113.0</ele><time>2026-04-04T12:07:04.81Z</time></trkpt><trkpt lat="45.5830772" lon="11.4494715"><ele>113.0</ele><time>2026-04-04T12:07:05.81Z</time></trkpt><trkpt lat="45.5829906" lon="11.4495326"><ele>113.00000000000001</ele><time>2026-04-04T12:07:06.809Z</time></trkpt><trkpt lat="45.5828979" lon="11.4495017"><ele>113.00000000000001</ele><time>2026-04-04T12:07:07.81Z</time></trkpt><trkpt lat="45.5827923" lon="11.4494882"><ele>113.0</ele><time>2026-04-04T12:07:08.809Z</time></trkpt><trkpt lat="45.5826946" lon="11.4494679"><ele>113.0</ele><time>2026-04-04T12:07:09.809Z</time></trkpt><trkpt lat="45.5826081" lon="11.4494766"><ele>112.0</ele><time>2026-04-04T12:07:10.81Z</time></trkpt><trkpt lat="45.58251" lon="11.4495114"><ele>111.00000000000001</ele><time>2026-04-04T12:07:11.81Z</time></trkpt><trkpt lat="45.5824081" lon="11.449592"><ele>110.00000000000001</ele><time>2026-04-04T12:07:12.809Z</time></trkpt><trkpt lat="45.5823324" lon="11.4496809"><ele>109.0</ele><time>2026-04-04T12:07:13.809Z</time></trkpt><trkpt lat="45.5822877" lon="11.4497677"><ele>108.0</ele><time>2026-04-04T12:07:14.81Z</time></trkpt><trkpt lat="45.5822518" lon="11.4498847"><ele>112.0</ele><time>2026-04-04T12:07:15.81Z</time></trkpt><trkpt lat="45.5822339" lon="11.4500113"><ele>116.00000000000001</ele><time>2026-04-04T12:07:16.81Z</time></trkpt><trkpt lat="45.5822222" lon="11.4500998"><ele>120.00000000000001</ele><time>2026-04-04T12:07:17.809Z</time></trkpt><trkpt lat="45.5822175" lon="11.4502822"><ele>124.0</ele><time>2026-04-04T12:07:19.81Z</time></trkpt><trkpt lat="45.5822221" lon="11.4503988"><ele>128.0</ele><time>2026-04-04T12:07:20.81Z</time></trkpt><trkpt lat="45.5822271" lon="11.4505246"><ele>130.4</ele><time>2026-04-04T12:07:21.81Z</time></trkpt><trkpt lat="45.5822221" lon="11.4506456"><ele>132.8</ele><time>2026-04-04T12:07:22.81Z</time></trkpt><trkpt lat="45.5822479" lon="11.4507726"><ele>135.2</ele><time>2026-04-04T12:07:24.809Z</time></trkpt><trkpt lat="45.5823097" lon="11.4508521"><ele>137.6</ele><time>2026-04-04T12:07:26.811Z</time></trkpt><trkpt lat="45.5823823" lon="11.4507788"><ele>140.0</ele><time>2026-04-04T12:07:27.81Z</time></trkpt><trkpt lat="45.5825063" lon="11.4508082"><ele>140.0</ele><time>2026-04-04T12:07:30.81Z</time></trkpt><trkpt lat="45.5825162" lon="11.450961"><ele>140.0</ele><time>2026-04-04T12:07:32.809Z</time></trkpt><trkpt lat="45.5825093" lon="11.4510792"><ele>140.0</ele><time>2026-04-04T12:07:33.81Z</time></trkpt><trkpt lat="45.5825199" lon="11.4511813"><ele>140.0</ele><time>2026-04-04T12:07:34.81Z</time></trkpt><trkpt lat="45.5825844" lon="11.4512888"><ele>140.0</ele><time>2026-04-04T12:07:36.809Z</time></trkpt><trkpt lat="45.5827129" lon="11.4512825"><ele>140.0</ele><time>2026-04-04T12:07:38.809Z</time></trkpt><trkpt lat="45.582798" lon="11.451263"><ele>140.0</ele><time>2026-04-04T12:07:39.81Z</time></trkpt><trkpt lat="45.5828869" lon="11.4512493"><ele>140.0</ele><time>2026-04-04T12:07:40.809Z</time></trkpt><trkpt lat="45.5829897" lon="11.4512517"><ele>140.0</ele><time>2026-04-04T12:07:41.809Z</time></trkpt><trkpt lat="45.5830992" lon="11.4512501"><ele>140.0</ele><time>2026-04-04T12:07:42.809Z</time></trkpt><trkpt lat="45.5831898" lon="11.4512504"><ele>141.83333333333331</ele><time>2026-04-04T12:07:43.81Z</time></trkpt><trkpt lat="45.5832779" lon="11.4512451"><ele>143.66666666666666</ele><time>2026-04-04T12:07:44.81Z</time></trkpt><trkpt lat="45.583373" lon="11.451237"><ele>145.5</ele><time>2026-04-04T12:07:45.81Z</time></trkpt><trkpt lat="45.5834669" lon="11.4512392"><ele>147.33333333333334</ele><time>2026-04-04T12:07:46.81Z</time></trkpt><trkpt lat="45.5835495" lon="11.4512608"><ele>149.16666666666669</ele><time>2026-04-04T12:07:47.809Z</time></trkpt><trkpt lat="45.583611" lon="11.4512944"><ele>151.0</ele><time>2026-04-04T12:07:48.809Z</time></trkpt><trkpt lat="45.5837069" lon="11.4514131"><ele>151.2</ele><time>2026-04-04T12:07:50.81Z</time></trkpt><trkpt lat="45.5837143" lon="11.4515087"><ele>151.39999999999998</ele><time>2026-04-04T12:07:51.81Z</time></trkpt><trkpt lat="45.5837167" lon="11.451643"><ele>151.6</ele><time>2026-04-04T12:07:52.81Z</time></trkpt><trkpt lat="45.5837097" lon="11.4518041"><ele>151.79999999999998</ele><time>2026-04-04T12:07:53.81Z</time></trkpt><trkpt lat="45.5837007" lon="11.4520076"><ele>152.0</ele><time>2026-04-04T12:07:54.809Z</time></trkpt><trkpt lat="45.5836895" lon="11.4521966"><ele>152.79999999999998</ele><time>2026-04-04T12:07:55.81Z</time></trkpt><trkpt lat="45.5836887" lon="11.4523702"><ele>153.6</ele><time>2026-04-04T12:07:56.809Z</time></trkpt><trkpt lat="45.5837017" lon="11.4524986"><ele>154.39999999999998</ele><time>2026-04-04T12:07:57.81Z</time></trkpt><trkpt lat="45.5837157" lon="11.4526139"><ele>155.2</ele><time>2026-04-04T12:07:58.809Z</time></trkpt><trkpt lat="45.5837236" lon="11.4527233"><ele>156.0</ele><time>2026-04-04T12:07:59.81Z</time></trkpt><trkpt lat="45.5837173" lon="11.4528439"><ele>157.6</ele><time>2026-04-04T12:08:00.809Z</time></trkpt><trkpt lat="45.5837098" lon="11.4529933"><ele>159.2</ele><time>2026-04-04T12:08:01.81Z</time></trkpt><trkpt lat="45.5837021" lon="11.4531537"><ele>160.79999999999998</ele><time>2026-04-04T12:08:02.809Z</time></trkpt><trkpt lat="45.5837081" lon="11.4533102"><ele>162.39999999999998</ele><time>2026-04-04T12:08:03.81Z</time></trkpt><trkpt lat="45.5837413" lon="11.4534592"><ele>164.0</ele><time>2026-04-04T12:08:04.81Z</time></trkpt><trkpt lat="45.5837723" lon="11.453629"><ele>168.25</ele><time>2026-04-04T12:08:05.809Z</time></trkpt><trkpt lat="45.5837988" lon="11.4538105"><ele>172.5</ele><time>2026-04-04T12:08:06.81Z</time></trkpt><trkpt lat="45.5838146" lon="11.4540024"><ele>176.75</ele><time>2026-04-04T12:08:07.81Z</time></trkpt><trkpt lat="45.5838297" lon="11.454166"><ele>181.0</ele><time>2026-04-04T12:08:08.81Z</time></trkpt><trkpt lat="45.5838426" lon="11.4542858"><ele>181.0</ele><time>2026-04-04T12:08:09.809Z</time></trkpt><trkpt lat="45.5838362" lon="11.4544161"><ele>181.0</ele><time>2026-04-04T12:08:11.81Z</time></trkpt><trkpt lat="45.5837636" lon="11.4543066"><ele>181.0</ele><time>2026-04-04T12:08:14.81Z</time></trkpt><trkpt lat="45.5837387" lon="11.4542081"><ele>181.0</ele><time>2026-04-04T12:08:15.81Z</time></trkpt><trkpt lat="45.5836931" lon="11.4541175"><ele>181.0</ele><time>2026-04-04T12:08:16.81Z</time></trkpt><trkpt lat="45.5836231" lon="11.4540238"><ele>181.0</ele><time>2026-04-04T12:08:17.811Z</time></trkpt><trkpt lat="45.5835431" lon="11.4539131"><ele>183.33333333333334</ele><time>2026-04-04T12:08:18.809Z</time></trkpt><trkpt lat="45.5834692" lon="11.4538354"><ele>185.66666666666669</ele><time>2026-04-04T12:08:19.809Z</time></trkpt><trkpt lat="45.5833999" lon="11.4538056"><ele>188.0</ele><time>2026-04-04T12:08:20.809Z</time></trkpt><trkpt lat="45.5833317" lon="11.4538171"><ele>190.33333333333334</ele><time>2026-04-04T12:08:21.809Z</time></trkpt><trkpt lat="45.5832583" lon="11.4538683"><ele>192.66666666666666</ele><time>2026-04-04T12:08:22.809Z</time></trkpt><trkpt lat="45.5831951" lon="11.4539391"><ele>195.0</ele><time>2026-04-04T12:08:23.81Z</time></trkpt><trkpt lat="45.5831531" lon="11.454035"><ele>195.0</ele><time>2026-04-04T12:08:24.809Z</time></trkpt><trkpt lat="45.5831304" lon="11.454164"><ele>195.0</ele><time>2026-04-04T12:08:25.809Z</time></trkpt><trkpt lat="45.5831223" lon="11.4542955"><ele>195.0</ele><time>2026-04-04T12:08:26.81Z</time></trkpt><trkpt lat="45.5831362" lon="11.4544584"><ele>195.0</ele><time>2026-04-04T12:08:27.81Z</time></trkpt><trkpt lat="45.5831658" lon="11.4546084"><ele>195.0</ele><time>2026-04-04T12:08:28.81Z</time></trkpt><trkpt lat="45.5832165" lon="11.4547337"><ele>198.2</ele><time>2026-04-04T12:08:29.809Z</time></trkpt><trkpt lat="45.5832855" lon="11.4548427"><ele>201.4</ele><time>2026-04-04T12:08:30.81Z</time></trkpt><trkpt lat="45.5833602" lon="11.4549368"><ele>204.60000000000002</ele><time>2026-04-04T12:08:31.81Z</time></trkpt><trkpt lat="45.5834282" lon="11.455039"><ele>207.8</ele><time>2026-04-04T12:08:32.809Z</time></trkpt><trkpt lat="45.5834915" lon="11.4551514"><ele>211.0</ele><time>2026-04-04T12:08:33.81Z</time></trkpt><trkpt lat="45.5835588" lon="11.4552519"><ele>211.0</ele><time>2026-04-04T12:08:34.81Z</time></trkpt><trkpt lat="45.5836352" lon="11.4553304"><ele>211.0</ele><time>2026-04-04T12:08:35.809Z</time></trkpt><trkpt lat="45.5837246" lon="11.4553847"><ele>211.0</ele><time>2026-04-04T12:08:36.809Z</time></trkpt><trkpt lat="45.5838236" lon="11.4554234"><ele>211.0</ele><time>2026-04-04T12:08:37.81Z</time></trkpt><trkpt lat="45.583932" lon="11.4554482"><ele>211.0</ele><time>2026-04-04T12:08:38.811Z</time></trkpt><trkpt lat="45.5840599" lon="11.4554553"><ele>208.75</ele><time>2026-04-04T12:08:39.81Z</time></trkpt><trkpt lat="45.5841779" lon="11.4554424"><ele>206.5</ele><time>2026-04-04T12:08:40.81Z</time></trkpt><trkpt lat="45.5842932" lon="11.4554045"><ele>204.25</ele><time>2026-04-04T12:08:41.809Z</time></trkpt><trkpt lat="45.5843956" lon="11.4553432"><ele>202.0</ele><time>2026-04-04T12:08:42.81Z</time></trkpt><trkpt lat="45.5844913" lon="11.4552611"><ele>202.2</ele><time>2026-04-04T12:08:43.81Z</time></trkpt><trkpt lat="45.5845832" lon="11.4551772"><ele>202.39999999999998</ele><time>2026-04-04T12:08:44.811Z</time></trkpt><trkpt lat="45.5846618" lon="11.4551068"><ele>202.60000000000002</ele><time>2026-04-04T12:08:45.809Z</time></trkpt><trkpt lat="45.5847405" lon="11.4550791"><ele>202.8</ele><time>2026-04-04T12:08:47.811Z</time></trkpt><trkpt lat="45.5848344" lon="11.4550502"><ele>203.0</ele><time>2026-04-04T12:09:19.809Z</time></trkpt><trkpt lat="45.5849174" lon="11.4550149"><ele>203.0</ele><time>2026-04-04T12:09:20.808Z</time></trkpt><trkpt lat="45.5850254" lon="11.4550013"><ele>203.0</ele><time>2026-04-04T12:09:21.808Z</time></trkpt><trkpt lat="45.5851334" lon="11.455041"><ele>203.0</ele><time>2026-04-04T12:09:22.809Z</time></trkpt><trkpt lat="45.5852523" lon="11.4551119"><ele>203.0</ele><time>2026-04-04T12:09:23.81Z</time></trkpt><trkpt lat="45.5853846" lon="11.4551687"><ele>201.66666666666669</ele><time>2026-04-04T12:09:24.809Z</time></trkpt><trkpt lat="45.5855343" lon="11.4552001"><ele>200.33333333333331</ele><time>2026-04-04T12:09:25.81Z</time></trkpt><trkpt lat="45.5856856" lon="11.4552285"><ele>199.0</ele><time>2026-04-04T12:09:26.808Z</time></trkpt><trkpt lat="45.5858369" lon="11.4552595"><ele>199.0</ele><time>2026-04-04T12:09:27.81Z</time></trkpt><trkpt lat="45.5859861" lon="11.4552982"><ele>199.0</ele><time>2026-04-04T12:09:28.809Z</time></trkpt><trkpt lat="45.5861384" lon="11.4553518"><ele>199.0</ele><time>2026-04-04T12:09:29.809Z</time></trkpt><trkpt lat="45.5862838" lon="11.4554363"><ele>206.0</ele><time>2026-04-04T12:09:30.809Z</time></trkpt><trkpt lat="45.5864203" lon="11.4555462"><ele>213.0</ele><time>2026-04-04T12:09:31.808Z</time></trkpt><trkpt lat="45.5865536" lon="11.4556458"><ele>220.0</ele><time>2026-04-04T12:09:32.81Z</time></trkpt><trkpt lat="45.5866906" lon="11.4557084"><ele>220.0</ele><time>2026-04-04T12:09:33.808Z</time></trkpt><trkpt lat="45.5868253" lon="11.455722"><ele>220.0</ele><time>2026-04-04T12:09:34.809Z</time></trkpt><trkpt lat="45.5869566" lon="11.455687"><ele>220.0</ele><time>2026-04-04T12:09:35.809Z</time></trkpt><trkpt lat="45.5870724" lon="11.4556169"><ele>220.0</ele><time>2026-04-04T12:09:36.808Z</time></trkpt><trkpt lat="45.5871814" lon="11.4555205"><ele>217.75</ele><time>2026-04-04T12:09:37.808Z</time></trkpt><trkpt lat="45.5872884" lon="11.4554212"><ele>215.5</ele><time>2026-04-04T12:09:38.809Z</time></trkpt><trkpt lat="45.5874044" lon="11.4553497"><ele>213.25</ele><time>2026-04-04T12:09:39.808Z</time></trkpt><trkpt lat="45.5875289" lon="11.455297"><ele>211.0</ele><time>2026-04-04T12:09:40.809Z</time></trkpt><trkpt lat="45.5876623" lon="11.45526"><ele>211.0</ele><time>2026-04-04T12:09:41.809Z</time></trkpt><trkpt lat="45.5877981" lon="11.455231"><ele>211.0</ele><time>2026-04-04T12:09:42.809Z</time></trkpt><trkpt lat="45.5879336" lon="11.4551817"><ele>211.0</ele><time>2026-04-04T12:09:43.808Z</time></trkpt><trkpt lat="45.5880619" lon="11.4551114"><ele>211.0</ele><time>2026-04-04T12:09:44.809Z</time></trkpt><trkpt lat="45.5881734" lon="11.4550078"><ele>210.75</ele><time>2026-04-04T12:09:45.808Z</time></trkpt><trkpt lat="45.5882737" lon="11.454886"><ele>210.5</ele><time>2026-04-04T12:09:46.808Z</time></trkpt><trkpt lat="45.5883703" lon="11.4547488"><ele>210.25</ele><time>2026-04-04T12:09:47.809Z</time></trkpt><trkpt lat="45.5884691" lon="11.4546014"><ele>210.0</ele><time>2026-04-04T12:09:48.809Z</time></trkpt><trkpt lat="45.5885666" lon="11.4544426"><ele>210.0</ele><time>2026-04-04T12:09:49.809Z</time></trkpt><trkpt lat="45.5886513" lon="11.4542769"><ele>210.0</ele><time>2026-04-04T12:09:50.808Z</time></trkpt><trkpt lat="45.5887372" lon="11.4541206"><ele>210.0</ele><time>2026-04-04T12:09:51.808Z</time></trkpt><trkpt lat="45.58882" lon="11.453971"><ele>210.0</ele><time>2026-04-04T12:09:52.808Z</time></trkpt><trkpt lat="45.5888978" lon="11.4538175"><ele>213.25</ele><time>2026-04-04T12:09:53.81Z</time></trkpt><trkpt lat="45.5889665" lon="11.4536781"><ele>216.5</ele><time>2026-04-04T12:09:54.81Z</time></trkpt><trkpt lat="45.5890424" lon="11.4535507"><ele>219.75</ele><time>2026-04-04T12:09:55.81Z</time></trkpt><trkpt lat="45.5891295" lon="11.4534374"><ele>223.0</ele><time>2026-04-04T12:09:56.809Z</time></trkpt><trkpt lat="45.589225" lon="11.4533479"><ele>223.0</ele><time>2026-04-04T12:09:57.809Z</time></trkpt><trkpt lat="45.5893328" lon="11.4532714"><ele>223.0</ele><time>2026-04-04T12:09:58.809Z</time></trkpt><trkpt lat="45.5894413" lon="11.4531966"><ele>223.0</ele><time>2026-04-04T12:09:59.809Z</time></trkpt><trkpt lat="45.5895567" lon="11.4531322"><ele>223.0</ele><time>2026-04-04T12:10:00.809Z</time></trkpt><trkpt lat="45.5896763" lon="11.4530669"><ele>225.5</ele><time>2026-04-04T12:10:01.808Z</time></trkpt><trkpt lat="45.5898038" lon="11.4530244"><ele>228.0</ele><time>2026-04-04T12:10:02.81Z</time></trkpt><trkpt lat="45.58994" lon="11.4529964"><ele>230.5</ele><time>2026-04-04T12:10:03.81Z</time></trkpt><trkpt lat="45.5900773" lon="11.4529811"><ele>233.0</ele><time>2026-04-04T12:10:04.81Z</time></trkpt><trkpt lat="45.5902242" lon="11.4529789"><ele>234.5</ele><time>2026-04-04T12:10:05.81Z</time></trkpt><trkpt lat="45.590368" lon="11.4529879"><ele>236.0</ele><time>2026-04-04T12:10:06.808Z</time></trkpt><trkpt lat="45.5905149" lon="11.4530007"><ele>237.5</ele><time>2026-04-04T12:10:07.808Z</time></trkpt><trkpt lat="45.5906617" lon="11.453011"><ele>239.0</ele><time>2026-04-04T12:10:08.808Z</time></trkpt><trkpt lat="45.5908094" lon="11.4530252"><ele>239.0</ele><time>2026-04-04T12:10:09.808Z</time></trkpt><trkpt lat="45.5909612" lon="11.4530333"><ele>239.0</ele><time>2026-04-04T12:10:10.808Z</time></trkpt><trkpt lat="45.591115" lon="11.453039"><ele>239.0</ele><time>2026-04-04T12:10:11.809Z</time></trkpt><trkpt lat="45.5912697" lon="11.4530443"><ele>241.33333333333334</ele><time>2026-04-04T12:10:12.809Z</time></trkpt><trkpt lat="45.5914268" lon="11.4530467"><ele>243.66666666666669</ele><time>2026-04-04T12:10:13.809Z</time></trkpt><trkpt lat="45.5915845" lon="11.4530343"><ele>246.0</ele><time>2026-04-04T12:10:14.808Z</time></trkpt><trkpt lat="45.5917407" lon="11.4530137"><ele>246.0</ele><time>2026-04-04T12:10:15.808Z</time></trkpt><trkpt lat="45.5918946" lon="11.4529843"><ele>246.0</ele><time>2026-04-04T12:10:16.808Z</time></trkpt><trkpt lat="45.5920456" lon="11.4529511"><ele>246.0</ele><time>2026-04-04T12:10:17.808Z</time></trkpt><trkpt lat="45.5921942" lon="11.4529197"><ele>246.75</ele><time>2026-04-04T12:10:18.808Z</time></trkpt><trkpt lat="45.5923287" lon="11.4528928"><ele>247.5</ele><time>2026-04-04T12:10:19.808Z</time></trkpt><trkpt lat="45.5924426" lon="11.4528729"><ele>248.25</ele><time>2026-04-04T12:10:20.81Z</time></trkpt><trkpt lat="45.5925469" lon="11.452861"><ele>249.0</ele><time>2026-04-04T12:10:21.808Z</time></trkpt><trkpt lat="45.5926463" lon="11.4528759"><ele>249.0</ele><time>2026-04-04T12:10:22.809Z</time></trkpt><trkpt lat="45.5927517" lon="11.4528916"><ele>249.0</ele><time>2026-04-04T12:10:23.808Z</time></trkpt><trkpt lat="45.5928672" lon="11.4529179"><ele>249.0</ele><time>2026-04-04T12:10:24.809Z</time></trkpt><trkpt lat="45.592992" lon="11.4529647"><ele>249.0</ele><time>2026-04-04T12:10:25.81Z</time></trkpt><trkpt lat="45.5931248" lon="11.4530287"><ele>251.75</ele><time>2026-04-04T12:10:26.809Z</time></trkpt><trkpt lat="45.5932644" lon="11.4531056"><ele>254.5</ele><time>2026-04-04T12:10:27.809Z</time></trkpt><trkpt lat="45.5934045" lon="11.4531816"><ele>257.25</ele><time>2026-04-04T12:10:28.809Z</time></trkpt><trkpt lat="45.5935454" lon="11.4532542"><ele>260.0</ele><time>2026-04-04T12:10:29.81Z</time></trkpt><trkpt lat="45.59368" lon="11.4533262"><ele>261.75</ele><time>2026-04-04T12:10:30.808Z</time></trkpt><trkpt lat="45.5938091" lon="11.4533973"><ele>263.5</ele><time>2026-04-04T12:10:31.808Z</time></trkpt><trkpt lat="45.5939253" lon="11.4534651"><ele>265.25</ele><time>2026-04-04T12:10:32.81Z</time></trkpt><trkpt lat="45.5940265" lon="11.4535289"><ele>267.0</ele><time>2026-04-04T12:10:33.81Z</time></trkpt><trkpt lat="45.5941119" lon="11.4535843"><ele>267.0</ele><time>2026-04-04T12:10:34.809Z</time></trkpt><trkpt lat="45.5941788" lon="11.4536296"><ele>267.0</ele><time>2026-04-04T12:10:35.809Z</time></trkpt><trkpt lat="45.5943017" lon="11.4536568"><ele>267.0</ele><time>2026-04-04T12:10:37.809Z</time></trkpt><trkpt lat="45.59439" lon="11.4536249"><ele>267.0</ele><time>2026-04-04T12:10:38.808Z</time></trkpt><trkpt lat="45.5945031" lon="11.4535626"><ele>267.0</ele><time>2026-04-04T12:10:39.81Z</time></trkpt><trkpt lat="45.5946287" lon="11.4535003"><ele>267.3333333333333</ele><time>2026-04-04T12:10:40.808Z</time></trkpt><trkpt lat="45.5947717" lon="11.4534309"><ele>267.66666666666663</ele><time>2026-04-04T12:10:41.808Z</time></trkpt><trkpt lat="45.5949177" lon="11.4533571"><ele>268.0</ele><time>2026-04-04T12:10:42.808Z</time></trkpt><trkpt lat="45.5950751" lon="11.4532805"><ele>268.0</ele><time>2026-04-04T12:10:43.81Z</time></trkpt><trkpt lat="45.5952298" lon="11.4532108"><ele>268.0</ele><time>2026-04-04T12:10:44.809Z</time></trkpt><trkpt lat="45.5953881" lon="11.4531399"><ele>268.0</ele><time>2026-04-04T12:10:45.809Z</time></trkpt><trkpt lat="45.5955533" lon="11.4530966"><ele>269.66666666666663</ele><time>2026-04-04T12:10:46.81Z</time></trkpt><trkpt lat="45.5957209" lon="11.4530861"><ele>271.3333333333333</ele><time>2026-04-04T12:10:47.81Z</time></trkpt><trkpt lat="45.5958779" lon="11.4530925"><ele>273.0</ele><time>2026-04-04T12:10:48.81Z</time></trkpt><trkpt lat="45.5960358" lon="11.4531019"><ele>272.75</ele><time>2026-04-04T12:10:49.809Z</time></trkpt><trkpt lat="45.596183" lon="11.4530972"><ele>272.5</ele><time>2026-04-04T12:10:50.808Z</time></trkpt><trkpt lat="45.5963183" lon="11.4530595"><ele>272.25</ele><time>2026-04-04T12:10:51.81Z</time></trkpt><trkpt lat="45.5964328" lon="11.4529839"><ele>272.0</ele><time>2026-04-04T12:10:52.809Z</time></trkpt><trkpt lat="45.5965349" lon="11.4528678"><ele>276.0</ele><time>2026-04-04T12:10:53.809Z</time></trkpt><trkpt lat="45.5966214" lon="11.4527215"><ele>280.0</ele><time>2026-04-04T12:10:54.808Z</time></trkpt><trkpt lat="45.5966958" lon="11.4525534"><ele>284.0</ele><time>2026-04-04T12:10:55.809Z</time></trkpt><trkpt lat="45.5967737" lon="11.4523869"><ele>288.0</ele><time>2026-04-04T12:10:56.81Z</time></trkpt><trkpt lat="45.5968622" lon="11.4522414"><ele>288.0</ele><time>2026-04-04T12:10:57.809Z</time></trkpt><trkpt lat="45.5969615" lon="11.4521433"><ele>288.0</ele><time>2026-04-04T12:10:58.809Z</time></trkpt><trkpt lat="45.5970573" lon="11.4521023"><ele>288.0</ele><time>2026-04-04T12:10:59.808Z</time></trkpt><trkpt lat="45.597121" lon="11.4520524"><ele>288.0</ele><time>2026-04-04T12:11:00.808Z</time></trkpt><trkpt lat="45.5971139" lon="11.4519056"><ele>288.0</ele><time>2026-04-04T12:11:02.809Z</time></trkpt><trkpt lat="45.5970524" lon="11.4518738"><ele>288.8</ele><time>2026-04-04T12:11:03.809Z</time></trkpt><trkpt lat="45.5969546" lon="11.4518698"><ele>289.6</ele><time>2026-04-04T12:11:04.809Z</time></trkpt><trkpt lat="45.5968466" lon="11.4518657"><ele>290.4</ele><time>2026-04-04T12:11:05.809Z</time></trkpt><trkpt lat="45.5967459" lon="11.45185"><ele>291.2</ele><time>2026-04-04T12:11:06.81Z</time></trkpt><trkpt lat="45.5966597" lon="11.4517767"><ele>292.0</ele><time>2026-04-04T12:11:08.81Z</time></trkpt><trkpt lat="45.596688" lon="11.4516479"><ele>292.0</ele><time>2026-04-04T12:11:10.808Z</time></trkpt><trkpt lat="45.5967525" lon="11.4515732"><ele>292.0</ele><time>2026-04-04T12:11:11.809Z</time></trkpt><trkpt lat="45.5968064" lon="11.4514647"><ele>292.0</ele><time>2026-04-04T12:11:12.809Z</time></trkpt><trkpt lat="45.5968565" lon="11.4513171"><ele>292.0</ele><time>2026-04-04T12:11:13.81Z</time></trkpt><trkpt lat="45.5968992" lon="11.4511592"><ele>292.0</ele><time>2026-04-04T12:11:14.809Z</time></trkpt><trkpt lat="45.5969414" lon="11.4509804"><ele>291.25</ele><time>2026-04-04T12:11:15.809Z</time></trkpt><trkpt lat="45.5969865" lon="11.450789"><ele>290.5</ele><time>2026-04-04T12:11:16.808Z</time></trkpt><trkpt lat="45.5970331" lon="11.4505936"><ele>289.75</ele><time>2026-04-04T12:11:17.809Z</time></trkpt><trkpt lat="45.5970832" lon="11.4503974"><ele>289.0</ele><time>2026-04-04T12:11:18.808Z</time></trkpt><trkpt lat="45.5971303" lon="11.4502391"><ele>292.2</ele><time>2026-04-04T12:11:19.809Z</time></trkpt><trkpt lat="45.5971895" lon="11.4501045"><ele>295.4</ele><time>2026-04-04T12:11:20.808Z</time></trkpt><trkpt lat="45.5972601" lon="11.4500062"><ele>298.6</ele><time>2026-04-04T12:11:21.808Z</time></trkpt><trkpt lat="45.5973294" lon="11.4499186"><ele>301.8</ele><time>2026-04-04T12:11:22.808Z</time></trkpt><trkpt lat="45.5974007" lon="11.4498373"><ele>305.0</ele><time>2026-04-04T12:11:23.81Z</time></trkpt><trkpt lat="45.5974825" lon="11.4497705"><ele>305.0</ele><time>2026-04-04T12:11:24.808Z</time></trkpt><trkpt lat="45.5975858" lon="11.4497207"><ele>305.0</ele><time>2026-04-04T12:11:25.81Z</time></trkpt><trkpt lat="45.5976978" lon="11.4496833"><ele>305.0</ele><time>2026-04-04T12:11:26.808Z</time></trkpt><trkpt lat="45.5978289" lon="11.449657"><ele>305.0</ele><time>2026-04-04T12:11:27.808Z</time></trkpt><trkpt lat="45.5979623" lon="11.4496299"><ele>304.0</ele><time>2026-04-04T12:11:28.809Z</time></trkpt><trkpt lat="45.598091" lon="11.449603"><ele>303.0</ele><time>2026-04-04T12:11:29.809Z</time></trkpt><trkpt lat="45.5982115" lon="11.4495771"><ele>302.0</ele><time>2026-04-04T12:11:30.81Z</time></trkpt><trkpt lat="45.5983135" lon="11.4495588"><ele>301.0</ele><time>2026-04-04T12:11:31.808Z</time></trkpt><trkpt lat="45.5984033" lon="11.4495404"><ele>300.0</ele><time>2026-04-04T12:11:32.809Z</time></trkpt><trkpt lat="45.5984889" lon="11.449518"><ele>300.0</ele><time>2026-04-04T12:11:33.809Z</time></trkpt><trkpt lat="45.5985843" lon="11.4494824"><ele>300.0</ele><time>2026-04-04T12:11:34.809Z</time></trkpt><trkpt lat="45.5986877" lon="11.4494502"><ele>300.0</ele><time>2026-04-04T12:11:35.808Z</time></trkpt><trkpt lat="45.5988041" lon="11.449416"><ele>300.0</ele><time>2026-04-04T12:11:36.81Z</time></trkpt><trkpt lat="45.5989237" lon="11.4493589"><ele>300.0</ele><time>2026-04-04T12:11:37.809Z</time></trkpt><trkpt lat="45.5990405" lon="11.4492837"><ele>301.75</ele><time>2026-04-04T12:11:38.81Z</time></trkpt><trkpt lat="45.5991509" lon="11.4491829"><ele>303.5</ele><time>2026-04-04T12:11:39.809Z</time></trkpt><trkpt lat="45.5992468" lon="11.4490469"><ele>305.25</ele><time>2026-04-04T12:11:40.81Z</time></trkpt><trkpt lat="45.5993394" lon="11.4488987"><ele>307.0</ele><time>2026-04-04T12:11:41.81Z</time></trkpt><trkpt lat="45.5994298" lon="11.4487459"><ele>308.0</ele><time>2026-04-04T12:11:42.808Z</time></trkpt><trkpt lat="45.5995188" lon="11.448596"><ele>309.0</ele><time>2026-04-04T12:11:43.809Z</time></trkpt><trkpt lat="45.5996032" lon="11.4484576"><ele>310.0</ele><time>2026-04-04T12:11:44.809Z</time></trkpt><trkpt lat="45.5996841" lon="11.4483353"><ele>311.0</ele><time>2026-04-04T12:11:45.81Z</time></trkpt><trkpt lat="45.5997572" lon="11.4482313"><ele>311.0</ele><time>2026-04-04T12:11:46.809Z</time></trkpt><trkpt lat="45.599832" lon="11.4481229"><ele>311.0</ele><time>2026-04-04T12:11:47.809Z</time></trkpt><trkpt lat="45.5999046" lon="11.447998"><ele>311.0</ele><time>2026-04-04T12:11:48.809Z</time></trkpt><trkpt lat="45.5999651" lon="11.4478515"><ele>311.0</ele><time>2026-04-04T12:11:49.81Z</time></trkpt><trkpt lat="45.6000326" lon="11.4477016"><ele>312.5</ele><time>2026-04-04T12:11:50.809Z</time></trkpt><trkpt lat="45.6001106" lon="11.4475525"><ele>314.0</ele><time>2026-04-04T12:11:51.809Z</time></trkpt><trkpt lat="45.6001936" lon="11.4474081"><ele>315.5</ele><time>2026-04-04T12:11:52.809Z</time></trkpt><trkpt lat="45.6002862" lon="11.4472573"><ele>317.0</ele><time>2026-04-04T12:11:53.809Z</time></trkpt><trkpt lat="45.6003791" lon="11.4471027"><ele>319.5</ele><time>2026-04-04T12:11:54.809Z</time></trkpt><trkpt lat="45.6004688" lon="11.4469475"><ele>322.0</ele><time>2026-04-04T12:11:55.809Z</time></trkpt><trkpt lat="45.6005464" lon="11.4467856"><ele>324.5</ele><time>2026-04-04T12:11:56.808Z</time></trkpt><trkpt lat="45.6006079" lon="11.4466114"><ele>327.0</ele><time>2026-04-04T12:11:57.808Z</time></trkpt><trkpt lat="45.6006714" lon="11.4464285"><ele>326.0</ele><time>2026-04-04T12:11:58.807Z</time></trkpt><trkpt lat="45.600725" lon="11.4462396"><ele>325.0</ele><time>2026-04-04T12:11:59.809Z</time></trkpt><trkpt lat="45.6007723" lon="11.4460601"><ele>324.0</ele><time>2026-04-04T12:12:00.807Z</time></trkpt><trkpt lat="45.6008077" lon="11.4458804"><ele>323.0</ele><time>2026-04-04T12:12:01.808Z</time></trkpt><trkpt lat="45.6008183" lon="11.4456911"><ele>323.0</ele><time>2026-04-04T12:12:02.808Z</time></trkpt><trkpt lat="45.6007968" lon="11.4454989"><ele>323.0</ele><time>2026-04-04T12:12:03.808Z</time></trkpt><trkpt lat="45.6007576" lon="11.4453094"><ele>323.0</ele><time>2026-04-04T12:12:04.808Z</time></trkpt><trkpt lat="45.6007164" lon="11.4451409"><ele>323.0</ele><time>2026-04-04T12:12:05.807Z</time></trkpt><trkpt lat="45.6006908" lon="11.44499"><ele>323.0</ele><time>2026-04-04T12:12:06.809Z</time></trkpt><trkpt lat="45.600688" lon="11.4448428"><ele>323.0</ele><time>2026-04-04T12:12:07.808Z</time></trkpt><trkpt lat="45.6007132" lon="11.4446978"><ele>323.0</ele><time>2026-04-04T12:12:08.808Z</time></trkpt><trkpt lat="45.6007492" lon="11.4445338"><ele>323.0</ele><time>2026-04-04T12:12:09.809Z</time></trkpt><trkpt lat="45.6007901" lon="11.4443676"><ele>322.75</ele><time>2026-04-04T12:12:10.808Z</time></trkpt><trkpt lat="45.6008239" lon="11.4441945"><ele>322.5</ele><time>2026-04-04T12:12:11.808Z</time></trkpt><trkpt lat="45.6008301" lon="11.4440184"><ele>322.25</ele><time>2026-04-04T12:12:12.808Z</time></trkpt><trkpt lat="45.6008123" lon="11.4438301"><ele>322.0</ele><time>2026-04-04T12:12:13.808Z</time></trkpt><trkpt lat="45.6007781" lon="11.4436529"><ele>324.0</ele><time>2026-04-04T12:12:14.808Z</time></trkpt><trkpt lat="45.6007263" lon="11.443484"><ele>326.0</ele><time>2026-04-04T12:12:15.809Z</time></trkpt><trkpt lat="45.6006663" lon="11.4433269"><ele>328.0</ele><time>2026-04-04T12:12:16.808Z</time></trkpt><trkpt lat="45.6005989" lon="11.4431765"><ele>330.0</ele><time>2026-04-04T12:12:17.809Z</time></trkpt><trkpt lat="45.6005286" lon="11.4430284"><ele>334.5</ele><time>2026-04-04T12:12:18.807Z</time></trkpt><trkpt lat="45.6004348" lon="11.4429038"><ele>339.0</ele><time>2026-04-04T12:12:19.808Z</time></trkpt><trkpt lat="45.6003394" lon="11.4427695"><ele>343.5</ele><time>2026-04-04T12:12:20.809Z</time></trkpt><trkpt lat="45.6002436" lon="11.4426357"><ele>348.0</ele><time>2026-04-04T12:12:21.808Z</time></trkpt><trkpt lat="45.6001856" lon="11.4424618"><ele>341.75</ele><time>2026-04-04T12:12:22.807Z</time></trkpt><trkpt lat="45.6001338" lon="11.442277"><ele>335.5</ele><time>2026-04-04T12:12:23.808Z</time></trkpt><trkpt lat="45.6000982" lon="11.4420911"><ele>329.25</ele><time>2026-04-04T12:12:24.807Z</time></trkpt><trkpt lat="45.6000706" lon="11.441887"><ele>323.0</ele><time>2026-04-04T12:12:25.809Z</time></trkpt><trkpt lat="45.600047" lon="11.4416815"><ele>323.0</ele><time>2026-04-04T12:12:26.808Z</time></trkpt><trkpt lat="45.6000236" lon="11.4414723"><ele>323.0</ele><time>2026-04-04T12:12:27.808Z</time></trkpt><trkpt lat="45.5999978" lon="11.4412626"><ele>323.0</ele><time>2026-04-04T12:12:28.807Z</time></trkpt><trkpt lat="45.5999661" lon="11.4410582"><ele>323.0</ele><time>2026-04-04T12:12:29.808Z</time></trkpt><trkpt lat="45.5999318" lon="11.4408511"><ele>324.75</ele><time>2026-04-04T12:12:30.807Z</time></trkpt><trkpt lat="45.5998937" lon="11.4406446"><ele>326.5</ele><time>2026-04-04T12:12:31.807Z</time></trkpt><trkpt lat="45.5998496" lon="11.440443"><ele>328.25</ele><time>2026-04-04T12:12:32.808Z</time></trkpt><trkpt lat="45.5998104" lon="11.4402464"><ele>330.0</ele><time>2026-04-04T12:12:33.808Z</time></trkpt><trkpt lat="45.5997852" lon="11.440066"><ele>330.5</ele><time>2026-04-04T12:12:34.808Z</time></trkpt><trkpt lat="45.5997806" lon="11.4398788"><ele>331.0</ele><time>2026-04-04T12:12:35.807Z</time></trkpt><trkpt lat="45.5997951" lon="11.4396768"><ele>331.5</ele><time>2026-04-04T12:12:36.808Z</time></trkpt><trkpt lat="45.5998131" lon="11.4394718"><ele>332.0</ele><time>2026-04-04T12:12:37.808Z</time></trkpt><trkpt lat="45.59982" lon="11.4392658"><ele>332.0</ele><time>2026-04-04T12:12:38.808Z</time></trkpt><trkpt lat="45.5998179" lon="11.4390625"><ele>332.0</ele><time>2026-04-04T12:12:39.808Z</time></trkpt><trkpt lat="45.5998084" lon="11.438864"><ele>332.0</ele><time>2026-04-04T12:12:40.808Z</time></trkpt><trkpt lat="45.5998112" lon="11.4386735"><ele>332.0</ele><time>2026-04-04T12:12:41.808Z</time></trkpt><trkpt lat="45.5998271" lon="11.4384951"><ele>331.0</ele><time>2026-04-04T12:12:42.807Z</time></trkpt><trkpt lat="45.5998624" lon="11.4383505"><ele>330.0</ele><time>2026-04-04T12:12:43.808Z</time></trkpt><trkpt lat="45.599915" lon="11.4382349"><ele>329.0</ele><time>2026-04-04T12:12:44.807Z</time></trkpt><trkpt lat="45.5999931" lon="11.4381308"><ele>328.0</ele><time>2026-04-04T12:12:45.807Z</time></trkpt><trkpt lat="45.6000982" lon="11.4380366"><ele>327.0</ele><time>2026-04-04T12:12:46.808Z</time></trkpt><trkpt lat="45.6002129" lon="11.4379523"><ele>326.25</ele><time>2026-04-04T12:12:47.809Z</time></trkpt><trkpt lat="45.6003393" lon="11.4378733"><ele>325.5</ele><time>2026-04-04T12:12:48.808Z</time></trkpt><trkpt lat="45.6004752" lon="11.437807"><ele>324.75</ele><time>2026-04-04T12:12:49.807Z</time></trkpt><trkpt lat="45.6006131" lon="11.4377392"><ele>324.0</ele><time>2026-04-04T12:12:50.809Z</time></trkpt><trkpt lat="45.6007532" lon="11.4376643"><ele>324.0</ele><time>2026-04-04T12:12:51.807Z</time></trkpt><trkpt lat="45.6008882" lon="11.4375614"><ele>324.0</ele><time>2026-04-04T12:12:52.807Z</time></trkpt><trkpt lat="45.6010053" lon="11.4374367"><ele>324.0</ele><time>2026-04-04T12:12:53.808Z</time></trkpt><trkpt lat="45.6011156" lon="11.4373002"><ele>324.0</ele><time>2026-04-04T12:12:54.809Z</time></trkpt><trkpt lat="45.6012228" lon="11.4371632"><ele>323.6666666666667</ele><time>2026-04-04T12:12:55.808Z</time></trkpt><trkpt lat="45.6013408" lon="11.4370412"><ele>323.33333333333337</ele><time>2026-04-04T12:12:56.807Z</time></trkpt><trkpt lat="45.6014726" lon="11.4369314"><ele>323.0</ele><time>2026-04-04T12:12:57.807Z</time></trkpt><trkpt lat="45.6016194" lon="11.43684"><ele>323.0</ele><time>2026-04-04T12:12:58.807Z</time></trkpt><trkpt lat="45.6017757" lon="11.4367542"><ele>323.0</ele><time>2026-04-04T12:12:59.808Z</time></trkpt><trkpt lat="45.6019315" lon="11.4366665"><ele>323.0</ele><time>2026-04-04T12:13:00.807Z</time></trkpt><trkpt lat="45.6020849" lon="11.4365597"><ele>322.33333333333337</ele><time>2026-04-04T12:13:01.807Z</time></trkpt><trkpt lat="45.6022313" lon="11.4364391"><ele>321.6666666666667</ele><time>2026-04-04T12:13:02.807Z</time></trkpt><trkpt lat="45.60236" lon="11.4362912"><ele>321.0</ele><time>2026-04-04T12:13:03.808Z</time></trkpt><trkpt lat="45.6024894" lon="11.4361454"><ele>321.0</ele><time>2026-04-04T12:13:04.809Z</time></trkpt><trkpt lat="45.6026141" lon="11.4360106"><ele>321.0</ele><time>2026-04-04T12:13:05.808Z</time></trkpt><trkpt lat="45.602739" lon="11.435895"><ele>321.0</ele><time>2026-04-04T12:13:06.808Z</time></trkpt><trkpt lat="45.6028656" lon="11.4357966"><ele>321.0</ele><time>2026-04-04T12:13:07.809Z</time></trkpt><trkpt lat="45.6029877" lon="11.4357107"><ele>321.5</ele><time>2026-04-04T12:13:08.807Z</time></trkpt><trkpt lat="45.6030963" lon="11.4355922"><ele>322.0</ele><time>2026-04-04T12:13:09.807Z</time></trkpt><trkpt lat="45.6032106" lon="11.4354543"><ele>322.5</ele><time>2026-04-04T12:13:10.808Z</time></trkpt><trkpt lat="45.6033294" lon="11.4353084"><ele>323.0</ele><time>2026-04-04T12:13:11.808Z</time></trkpt><trkpt lat="45.6034562" lon="11.435159"><ele>323.0</ele><time>2026-04-04T12:13:12.808Z</time></trkpt><trkpt lat="45.6035811" lon="11.4349998"><ele>323.0</ele><time>2026-04-04T12:13:13.808Z</time></trkpt><trkpt lat="45.6036942" lon="11.4348223"><ele>323.0</ele><time>2026-04-04T12:13:14.808Z</time></trkpt><trkpt lat="45.6038041" lon="11.4346244"><ele>319.33333333333337</ele><time>2026-04-04T12:13:15.807Z</time></trkpt><trkpt lat="45.6039114" lon="11.434425"><ele>315.6666666666667</ele><time>2026-04-04T12:13:16.808Z</time></trkpt><trkpt lat="45.6040163" lon="11.4342215"><ele>312.0</ele><time>2026-04-04T12:13:17.808Z</time></trkpt><trkpt lat="45.6041175" lon="11.43402"><ele>312.0</ele><time>2026-04-04T12:13:18.807Z</time></trkpt><trkpt lat="45.6042184" lon="11.4338254"><ele>312.0</ele><time>2026-04-04T12:13:19.807Z</time></trkpt><trkpt lat="45.6043193" lon="11.4336364"><ele>312.0</ele><time>2026-04-04T12:13:20.807Z</time></trkpt><trkpt lat="45.6044263" lon="11.4334591"><ele>311.3333333333333</ele><time>2026-04-04T12:13:21.808Z</time></trkpt><trkpt lat="45.6045363" lon="11.4332869"><ele>310.66666666666663</ele><time>2026-04-04T12:13:22.808Z</time></trkpt><trkpt lat="45.6046467" lon="11.4331243"><ele>310.0</ele><time>2026-04-04T12:13:23.808Z</time></trkpt><trkpt lat="45.604752" lon="11.4329692"><ele>312.25</ele><time>2026-04-04T12:13:24.808Z</time></trkpt><trkpt lat="45.6048509" lon="11.4328176"><ele>314.5</ele><time>2026-04-04T12:13:25.807Z</time></trkpt><trkpt lat="45.6049477" lon="11.4326626"><ele>316.75</ele><time>2026-04-04T12:13:26.808Z</time></trkpt><trkpt lat="45.6050436" lon="11.4325007"><ele>319.0</ele><time>2026-04-04T12:13:27.809Z</time></trkpt><trkpt lat="45.6051455" lon="11.4323454"><ele>319.0</ele><time>2026-04-04T12:13:28.808Z</time></trkpt><trkpt lat="45.6052587" lon="11.4321882"><ele>319.0</ele><time>2026-04-04T12:13:29.808Z</time></trkpt><trkpt lat="45.6053835" lon="11.4320382"><ele>319.0</ele><time>2026-04-04T12:13:30.808Z</time></trkpt><trkpt lat="45.6055136" lon="11.4318901"><ele>319.3333333333333</ele><time>2026-04-04T12:13:31.809Z</time></trkpt><trkpt lat="45.6056422" lon="11.4317418"><ele>319.6666666666667</ele><time>2026-04-04T12:13:32.808Z</time></trkpt><trkpt lat="45.6057678" lon="11.4315914"><ele>320.0</ele><time>2026-04-04T12:13:33.808Z</time></trkpt><trkpt lat="45.6058896" lon="11.4314419"><ele>319.33333333333337</ele><time>2026-04-04T12:13:34.809Z</time></trkpt><trkpt lat="45.606009" lon="11.4312946"><ele>318.6666666666667</ele><time>2026-04-04T12:13:35.807Z</time></trkpt><trkpt lat="45.6061256" lon="11.4311555"><ele>318.0</ele><time>2026-04-04T12:13:36.807Z</time></trkpt><trkpt lat="45.6062411" lon="11.4310199"><ele>322.0</ele><time>2026-04-04T12:13:37.807Z</time></trkpt><trkpt lat="45.6063566" lon="11.4308919"><ele>326.0</ele><time>2026-04-04T12:13:38.808Z</time></trkpt><trkpt lat="45.6064728" lon="11.4307707"><ele>330.0</ele><time>2026-04-04T12:13:39.808Z</time></trkpt><trkpt lat="45.6065987" lon="11.4306666"><ele>334.0</ele><time>2026-04-04T12:13:40.807Z</time></trkpt><trkpt lat="45.6067292" lon="11.4305698"><ele>334.5</ele><time>2026-04-04T12:13:41.808Z</time></trkpt><trkpt lat="45.6068524" lon="11.4304637"><ele>335.0</ele><time>2026-04-04T12:13:42.809Z</time></trkpt><trkpt lat="45.6069631" lon="11.4303502"><ele>335.5</ele><time>2026-04-04T12:13:43.808Z</time></trkpt><trkpt lat="45.6070729" lon="11.4302371"><ele>336.0</ele><time>2026-04-04T12:13:44.808Z</time></trkpt><trkpt lat="45.6071845" lon="11.4301253"><ele>336.25</ele><time>2026-04-04T12:13:45.808Z</time></trkpt><trkpt lat="45.6073017" lon="11.430021"><ele>336.5</ele><time>2026-04-04T12:13:46.809Z</time></trkpt><trkpt lat="45.6074272" lon="11.4299367"><ele>336.75</ele><time>2026-04-04T12:13:47.809Z</time></trkpt><trkpt lat="45.6075631" lon="11.4298865"><ele>337.0</ele><time>2026-04-04T12:13:48.809Z</time></trkpt><trkpt lat="45.6076993" lon="11.4298297"><ele>338.0</ele><time>2026-04-04T12:13:49.807Z</time></trkpt><trkpt lat="45.6078312" lon="11.4297521"><ele>339.0</ele><time>2026-04-04T12:13:50.808Z</time></trkpt><trkpt lat="45.6079569" lon="11.4296602"><ele>340.0</ele><time>2026-04-04T12:13:51.809Z</time></trkpt><trkpt lat="45.6080769" lon="11.429568"><ele>341.0</ele><time>2026-04-04T12:13:52.808Z</time></trkpt><trkpt lat="45.6081962" lon="11.4294686"><ele>342.0</ele><time>2026-04-04T12:13:53.807Z</time></trkpt><trkpt lat="45.6083116" lon="11.4293589"><ele>343.0</ele><time>2026-04-04T12:13:54.808Z</time></trkpt><trkpt lat="45.6084209" lon="11.4292422"><ele>344.0</ele><time>2026-04-04T12:13:55.809Z</time></trkpt><trkpt lat="45.6085303" lon="11.4291165"><ele>345.0</ele><time>2026-04-04T12:13:56.808Z</time></trkpt><trkpt lat="45.6086364" lon="11.4289867"><ele>345.25</ele><time>2026-04-04T12:13:57.809Z</time></trkpt><trkpt lat="45.6087426" lon="11.4288539"><ele>345.5</ele><time>2026-04-04T12:13:58.808Z</time></trkpt><trkpt lat="45.6088484" lon="11.4287199"><ele>345.75</ele><time>2026-04-04T12:13:59.808Z</time></trkpt><trkpt lat="45.6089498" lon="11.4285835"><ele>346.0</ele><time>2026-04-04T12:14:00.807Z</time></trkpt><trkpt lat="45.6090481" lon="11.42844"><ele>346.5</ele><time>2026-04-04T12:14:01.808Z</time></trkpt><trkpt lat="45.6091436" lon="11.4282961"><ele>347.0</ele><time>2026-04-04T12:14:02.808Z</time></trkpt><trkpt lat="45.6092342" lon="11.4281587"><ele>347.5</ele><time>2026-04-04T12:14:03.808Z</time></trkpt><trkpt lat="45.6093163" lon="11.428033"><ele>348.0</ele><time>2026-04-04T12:14:04.808Z</time></trkpt><trkpt lat="45.6093851" lon="11.4279339"><ele>348.0</ele><time>2026-04-04T12:14:05.808Z</time></trkpt><trkpt lat="45.6094458" lon="11.4278256"><ele>348.0</ele><time>2026-04-04T12:14:06.808Z</time></trkpt><trkpt lat="45.6094871" lon="11.427704"><ele>348.0</ele><time>2026-04-04T12:14:07.808Z</time></trkpt><trkpt lat="45.6095185" lon="11.4275659"><ele>348.0</ele><time>2026-04-04T12:14:08.808Z</time></trkpt><trkpt lat="45.6095491" lon="11.4274269"><ele>348.0</ele><time>2026-04-04T12:14:09.807Z</time></trkpt><trkpt lat="45.6095969" lon="11.4272873"><ele>351.25</ele><time>2026-04-04T12:14:10.809Z</time></trkpt><trkpt lat="45.6096679" lon="11.427155"><ele>354.5</ele><time>2026-04-04T12:14:11.808Z</time></trkpt><trkpt lat="45.6097543" lon="11.4270182"><ele>357.75</ele><time>2026-04-04T12:14:12.809Z</time></trkpt><trkpt lat="45.6098346" lon="11.4268699"><ele>361.0</ele><time>2026-04-04T12:14:13.808Z</time></trkpt><trkpt lat="45.6099027" lon="11.4267088"><ele>361.0</ele><time>2026-04-04T12:14:14.807Z</time></trkpt><trkpt lat="45.6099578" lon="11.4265303"><ele>361.0</ele><time>2026-04-04T12:14:15.807Z</time></trkpt><trkpt lat="45.6100001" lon="11.4263469"><ele>361.0</ele><time>2026-04-04T12:14:16.809Z</time></trkpt><trkpt lat="45.6100401" lon="11.4261537"><ele>361.0</ele><time>2026-04-04T12:14:17.809Z</time></trkpt><trkpt lat="45.6100752" lon="11.4259535"><ele>358.25</ele><time>2026-04-04T12:14:18.808Z</time></trkpt><trkpt lat="45.6101134" lon="11.4257491"><ele>355.5</ele><time>2026-04-04T12:14:19.808Z</time></trkpt><trkpt lat="45.6101516" lon="11.4255411"><ele>352.75</ele><time>2026-04-04T12:14:20.809Z</time></trkpt><trkpt lat="45.6101915" lon="11.4253373"><ele>350.0</ele><time>2026-04-04T12:14:21.807Z</time></trkpt><trkpt lat="45.6102324" lon="11.4251403"><ele>348.75</ele><time>2026-04-04T12:14:22.808Z</time></trkpt><trkpt lat="45.6102697" lon="11.4249473"><ele>347.5</ele><time>2026-04-04T12:14:23.809Z</time></trkpt><trkpt lat="45.6103121" lon="11.4247639"><ele>346.25</ele><time>2026-04-04T12:14:24.809Z</time></trkpt><trkpt lat="45.6103571" lon="11.4245861"><ele>345.0</ele><time>2026-04-04T12:14:25.808Z</time></trkpt><trkpt lat="45.6103951" lon="11.4244252"><ele>347.8</ele><time>2026-04-04T12:14:26.808Z</time></trkpt><trkpt lat="45.6104158" lon="11.4242771"><ele>350.6</ele><time>2026-04-04T12:14:27.808Z</time></trkpt><trkpt lat="45.6104242" lon="11.4241289"><ele>353.4</ele><time>2026-04-04T12:14:28.808Z</time></trkpt><trkpt lat="45.6104261" lon="11.423975"><ele>356.2</ele><time>2026-04-04T12:14:29.807Z</time></trkpt><trkpt lat="45.6104211" lon="11.4238147"><ele>359.0</ele><time>2026-04-04T12:14:30.808Z</time></trkpt><trkpt lat="45.6104183" lon="11.4236462"><ele>359.0</ele><time>2026-04-04T12:14:31.807Z</time></trkpt><trkpt lat="45.6104273" lon="11.4234648"><ele>359.0</ele><time>2026-04-04T12:14:32.808Z</time></trkpt><trkpt lat="45.6104331" lon="11.4232712"><ele>359.0</ele><time>2026-04-04T12:14:33.808Z</time></trkpt><trkpt lat="45.6104246" lon="11.4230642"><ele>359.0</ele><time>2026-04-04T12:14:34.807Z</time></trkpt><trkpt lat="45.6104052" lon="11.4228622"><ele>359.5</ele><time>2026-04-04T12:14:35.808Z</time></trkpt><trkpt lat="45.610371" lon="11.4226794"><ele>360.0</ele><time>2026-04-04T12:14:36.809Z</time></trkpt><trkpt lat="45.6103293" lon="11.4225103"><ele>360.5</ele><time>2026-04-04T12:14:37.808Z</time></trkpt><trkpt lat="45.6102763" lon="11.4223323"><ele>361.0</ele><time>2026-04-04T12:14:38.808Z</time></trkpt><trkpt lat="45.6102206" lon="11.422155"><ele>357.5</ele><time>2026-04-04T12:14:39.807Z</time></trkpt><trkpt lat="45.6101662" lon="11.421971"><ele>354.0</ele><time>2026-04-04T12:14:40.809Z</time></trkpt><trkpt lat="45.6101086" lon="11.4217903"><ele>350.5</ele><time>2026-04-04T12:14:41.808Z</time></trkpt><trkpt lat="45.6100596" lon="11.4216323"><ele>347.0</ele><time>2026-04-04T12:14:42.808Z</time></trkpt><trkpt lat="45.6100138" lon="11.4215008"><ele>347.0</ele><time>2026-04-04T12:14:43.808Z</time></trkpt><trkpt lat="45.609976" lon="11.4213996"><ele>347.0</ele><time>2026-04-04T12:14:44.808Z</time></trkpt><trkpt lat="45.6099244" lon="11.4212747"><ele>347.0</ele><time>2026-04-04T12:14:46.807Z</time></trkpt><trkpt lat="45.6098821" lon="11.4211953"><ele>347.0</ele><time>2026-04-04T12:14:48.807Z</time></trkpt><trkpt lat="45.6097958" lon="11.4211371"><ele>347.0</ele><time>2026-04-04T12:14:49.807Z</time></trkpt><trkpt lat="45.609711" lon="11.4210855"><ele>347.0</ele><time>2026-04-04T12:14:50.808Z</time></trkpt><trkpt lat="45.6096051" lon="11.4210029"><ele>346.75</ele><time>2026-04-04T12:14:51.809Z</time></trkpt><trkpt lat="45.6095071" lon="11.4209242"><ele>346.5</ele><time>2026-04-04T12:14:52.808Z</time></trkpt><trkpt lat="45.6093805" lon="11.420863"><ele>346.25</ele><time>2026-04-04T12:14:53.809Z</time></trkpt><trkpt lat="45.6092564" lon="11.4208073"><ele>346.0</ele><time>2026-04-04T12:14:54.808Z</time></trkpt><trkpt lat="45.609122" lon="11.4207549"><ele>346.0</ele><time>2026-04-04T12:14:55.808Z</time></trkpt><trkpt lat="45.6089874" lon="11.4207038"><ele>346.0</ele><time>2026-04-04T12:14:56.808Z</time></trkpt><trkpt lat="45.608853" lon="11.4206678"><ele>346.0</ele><time>2026-04-04T12:14:57.807Z</time></trkpt><trkpt lat="45.608716" lon="11.4206444"><ele>346.0</ele><time>2026-04-04T12:14:58.808Z</time></trkpt><trkpt lat="45.6085731" lon="11.4206518"><ele>346.5</ele><time>2026-04-04T12:14:59.808Z</time></trkpt><trkpt lat="45.6084373" lon="11.42067"><ele>347.0</ele><time>2026-04-04T12:15:00.808Z</time></trkpt><trkpt lat="45.6083185" lon="11.4206814"><ele>347.5</ele><time>2026-04-04T12:15:01.808Z</time></trkpt><trkpt lat="45.6082146" lon="11.4206941"><ele>348.0</ele><time>2026-04-04T12:15:02.808Z</time></trkpt><trkpt lat="45.6081139" lon="11.4207002"><ele>348.0</ele><time>2026-04-04T12:15:03.807Z</time></trkpt><trkpt lat="45.608015" lon="11.4206965"><ele>348.0</ele><time>2026-04-04T12:15:04.807Z</time></trkpt><trkpt lat="45.607912" lon="11.4206635"><ele>348.0</ele><time>2026-04-04T12:15:05.807Z</time></trkpt><trkpt lat="45.6078023" lon="11.4206411"><ele>348.0</ele><time>2026-04-04T12:15:06.807Z</time></trkpt><trkpt lat="45.6076859" lon="11.4206338"><ele>348.0</ele><time>2026-04-04T12:15:07.807Z</time></trkpt><trkpt lat="45.6075686" lon="11.4206448"><ele>347.5</ele><time>2026-04-04T12:15:08.808Z</time></trkpt><trkpt lat="45.6074469" lon="11.4206589"><ele>347.0</ele><time>2026-04-04T12:15:09.808Z</time></trkpt><trkpt lat="45.6073285" lon="11.4206867"><ele>346.5</ele><time>2026-04-04T12:15:10.808Z</time></trkpt><trkpt lat="45.6072121" lon="11.4207225"><ele>346.0</ele><time>2026-04-04T12:15:11.808Z</time></trkpt><trkpt lat="45.6070917" lon="11.4207552"><ele>344.25</ele><time>2026-04-04T12:15:12.808Z</time></trkpt><trkpt lat="45.6069694" lon="11.4207821"><ele>342.5</ele><time>2026-04-04T12:15:13.807Z</time></trkpt><trkpt lat="45.6068439" lon="11.4208167"><ele>340.75</ele><time>2026-04-04T12:15:14.807Z</time></trkpt><trkpt lat="45.6067129" lon="11.4208559"><ele>339.0</ele><time>2026-04-04T12:15:15.806Z</time></trkpt><trkpt lat="45.6065821" lon="11.4209055"><ele>339.0</ele><time>2026-04-04T12:15:16.807Z</time></trkpt><trkpt lat="45.6064511" lon="11.4209584"><ele>339.0</ele><time>2026-04-04T12:15:17.807Z</time></trkpt><trkpt lat="45.6063237" lon="11.4210086"><ele>339.0</ele><time>2026-04-04T12:15:18.807Z</time></trkpt><trkpt lat="45.6061991" lon="11.4210626"><ele>339.0</ele><time>2026-04-04T12:15:19.806Z</time></trkpt><trkpt lat="45.6060781" lon="11.4211093"><ele>336.79999999999995</ele><time>2026-04-04T12:15:20.806Z</time></trkpt><trkpt lat="45.6059594" lon="11.4211567"><ele>334.59999999999997</ele><time>2026-04-04T12:15:21.807Z</time></trkpt><trkpt lat="45.6058517" lon="11.4212134"><ele>332.4</ele><time>2026-04-04T12:15:22.807Z</time></trkpt><trkpt lat="45.6057558" lon="11.421264"><ele>330.2</ele><time>2026-04-04T12:15:23.808Z</time></trkpt><trkpt lat="45.6056701" lon="11.4213011"><ele>328.0</ele><time>2026-04-04T12:15:24.806Z</time></trkpt><trkpt lat="45.6055784" lon="11.4213149"><ele>329.25</ele><time>2026-04-04T12:15:25.807Z</time></trkpt><trkpt lat="45.6054895" lon="11.4213414"><ele>330.5</ele><time>2026-04-04T12:15:26.806Z</time></trkpt><trkpt lat="45.6053803" lon="11.4213967"><ele>331.75</ele><time>2026-04-04T12:15:27.806Z</time></trkpt><trkpt lat="45.6052613" lon="11.4214499"><ele>333.0</ele><time>2026-04-04T12:15:28.806Z</time></trkpt><trkpt lat="45.6051264" lon="11.4215075"><ele>333.0</ele><time>2026-04-04T12:15:29.808Z</time></trkpt><trkpt lat="45.6049854" lon="11.4215558"><ele>333.0</ele><time>2026-04-04T12:15:30.806Z</time></trkpt><trkpt lat="45.6048361" lon="11.4215983"><ele>333.0</ele><time>2026-04-04T12:15:31.807Z</time></trkpt><trkpt lat="45.6046759" lon="11.4216301"><ele>333.0</ele><time>2026-04-04T12:15:32.806Z</time></trkpt><trkpt lat="45.6045205" lon="11.4216618"><ele>333.0</ele><time>2026-04-04T12:15:33.807Z</time></trkpt><trkpt lat="45.6043786" lon="11.4217025"><ele>333.0</ele><time>2026-04-04T12:15:34.807Z</time></trkpt><trkpt lat="45.6042329" lon="11.4217367"><ele>333.0</ele><time>2026-04-04T12:15:35.806Z</time></trkpt><trkpt lat="45.6040907" lon="11.4217708"><ele>331.75</ele><time>2026-04-04T12:15:36.807Z</time></trkpt><trkpt lat="45.6039656" lon="11.4217995"><ele>330.5</ele><time>2026-04-04T12:15:37.806Z</time></trkpt><trkpt lat="45.6038351" lon="11.4218392"><ele>329.25</ele><time>2026-04-04T12:15:38.807Z</time></trkpt><trkpt lat="45.6036904" lon="11.4218821"><ele>328.0</ele><time>2026-04-04T12:15:39.806Z</time></trkpt><trkpt lat="45.6035431" lon="11.4219235"><ele>325.0</ele><time>2026-04-04T12:15:40.808Z</time></trkpt><trkpt lat="45.603392" lon="11.4219717"><ele>322.0</ele><time>2026-04-04T12:15:41.807Z</time></trkpt><trkpt lat="45.6032417" lon="11.4220264"><ele>319.0</ele><time>2026-04-04T12:15:42.807Z</time></trkpt><trkpt lat="45.6030923" lon="11.4220674"><ele>319.0</ele><time>2026-04-04T12:15:43.808Z</time></trkpt><trkpt lat="45.6029371" lon="11.4220986"><ele>319.0</ele><time>2026-04-04T12:15:44.806Z</time></trkpt><trkpt lat="45.6027811" lon="11.4221182"><ele>319.0</ele><time>2026-04-04T12:15:45.807Z</time></trkpt><trkpt lat="45.6026303" lon="11.4221386"><ele>318.25</ele><time>2026-04-04T12:15:46.806Z</time></trkpt><trkpt lat="45.6024892" lon="11.4221493"><ele>317.5</ele><time>2026-04-04T12:15:47.808Z</time></trkpt><trkpt lat="45.6023457" lon="11.4221423"><ele>316.75</ele><time>2026-04-04T12:15:48.807Z</time></trkpt><trkpt lat="45.6022045" lon="11.4221284"><ele>316.0</ele><time>2026-04-04T12:15:49.807Z</time></trkpt><trkpt lat="45.6020641" lon="11.4221079"><ele>315.5</ele><time>2026-04-04T12:15:50.807Z</time></trkpt><trkpt lat="45.6019335" lon="11.4220957"><ele>315.0</ele><time>2026-04-04T12:15:51.806Z</time></trkpt><trkpt lat="45.6018034" lon="11.4220861"><ele>314.5</ele><time>2026-04-04T12:15:52.807Z</time></trkpt><trkpt lat="45.6016751" lon="11.4220712"><ele>314.0</ele><time>2026-04-04T12:15:53.807Z</time></trkpt><trkpt lat="45.6015569" lon="11.4220632"><ele>314.0</ele><time>2026-04-04T12:15:54.807Z</time></trkpt><trkpt lat="45.601448" lon="11.4220632"><ele>314.0</ele><time>2026-04-04T12:15:55.806Z</time></trkpt><trkpt lat="45.6013421" lon="11.4220762"><ele>314.0</ele><time>2026-04-04T12:15:56.807Z</time></trkpt><trkpt lat="45.601237" lon="11.4221188"><ele>314.0</ele><time>2026-04-04T12:15:57.807Z</time></trkpt><trkpt lat="45.6011213" lon="11.4221863"><ele>314.0</ele><time>2026-04-04T12:15:58.807Z</time></trkpt><trkpt lat="45.6010117" lon="11.4222637"><ele>315.0</ele><time>2026-04-04T12:15:59.806Z</time></trkpt><trkpt lat="45.6009118" lon="11.422318"><ele>316.0</ele><time>2026-04-04T12:16:00.807Z</time></trkpt><trkpt lat="45.6007979" lon="11.4223503"><ele>317.0</ele><time>2026-04-04T12:16:01.807Z</time></trkpt><trkpt lat="45.6006709" lon="11.4223612"><ele>318.0</ele><time>2026-04-04T12:16:02.807Z</time></trkpt><trkpt lat="45.6005498" lon="11.4223894"><ele>318.0</ele><time>2026-04-04T12:16:03.807Z</time></trkpt><trkpt lat="45.6004206" lon="11.4224263"><ele>318.0</ele><time>2026-04-04T12:16:04.806Z</time></trkpt><trkpt lat="45.6002953" lon="11.4224746"><ele>318.0</ele><time>2026-04-04T12:16:05.807Z</time></trkpt><trkpt lat="45.6001858" lon="11.4225302"><ele>318.0</ele><time>2026-04-04T12:16:06.807Z</time></trkpt><trkpt lat="45.6000719" lon="11.4225907"><ele>316.5</ele><time>2026-04-04T12:16:07.806Z</time></trkpt><trkpt lat="45.5999494" lon="11.4226747"><ele>315.0</ele><time>2026-04-04T12:16:08.807Z</time></trkpt><trkpt lat="45.5998249" lon="11.4227728"><ele>313.5</ele><time>2026-04-04T12:16:09.807Z</time></trkpt><trkpt lat="45.5996896" lon="11.4228707"><ele>312.0</ele><time>2026-04-04T12:16:10.807Z</time></trkpt><trkpt lat="45.5995408" lon="11.4229665"><ele>310.25</ele><time>2026-04-04T12:16:11.808Z</time></trkpt><trkpt lat="45.5994067" lon="11.4230596"><ele>308.5</ele><time>2026-04-04T12:16:12.807Z</time></trkpt><trkpt lat="45.599297" lon="11.4231477"><ele>306.75</ele><time>2026-04-04T12:16:13.807Z</time></trkpt><trkpt lat="45.5992058" lon="11.4232477"><ele>305.0</ele><time>2026-04-04T12:16:14.808Z</time></trkpt><trkpt lat="45.5991117" lon="11.4233876"><ele>305.0</ele><time>2026-04-04T12:16:15.808Z</time></trkpt><trkpt lat="45.5990098" lon="11.4235342"><ele>305.0</ele><time>2026-04-04T12:16:16.808Z</time></trkpt><trkpt lat="45.5988994" lon="11.4236728"><ele>305.0</ele><time>2026-04-04T12:16:17.807Z</time></trkpt><trkpt lat="45.5987901" lon="11.4238031"><ele>305.0</ele><time>2026-04-04T12:16:18.807Z</time></trkpt><trkpt lat="45.5986752" lon="11.423917"><ele>303.75</ele><time>2026-04-04T12:16:19.807Z</time></trkpt><trkpt lat="45.5985623" lon="11.4240148"><ele>302.5</ele><time>2026-04-04T12:16:20.807Z</time></trkpt><trkpt lat="45.59844" lon="11.4241068"><ele>301.25</ele><time>2026-04-04T12:16:21.807Z</time></trkpt><trkpt lat="45.5983123" lon="11.4242001"><ele>300.0</ele><time>2026-04-04T12:16:22.807Z</time></trkpt><trkpt lat="45.5981734" lon="11.4242841"><ele>300.0</ele><time>2026-04-04T12:16:23.808Z</time></trkpt><trkpt lat="45.598029" lon="11.4243651"><ele>300.0</ele><time>2026-04-04T12:16:24.807Z</time></trkpt><trkpt lat="45.5978993" lon="11.4244452"><ele>300.0</ele><time>2026-04-04T12:16:25.806Z</time></trkpt><trkpt lat="45.5977845" lon="11.4245188"><ele>300.0</ele><time>2026-04-04T12:16:26.807Z</time></trkpt><trkpt lat="45.5976877" lon="11.4245948"><ele>300.0</ele><time>2026-04-04T12:16:27.807Z</time></trkpt><trkpt lat="45.5976143" lon="11.4246594"><ele>300.0</ele><time>2026-04-04T12:16:28.807Z</time></trkpt><trkpt lat="45.5975601" lon="11.4247418"><ele>300.0</ele><time>2026-04-04T12:16:29.807Z</time></trkpt><trkpt lat="45.5975096" lon="11.4248579"><ele>300.0</ele><time>2026-04-04T12:16:30.806Z</time></trkpt><trkpt lat="45.5974507" lon="11.4249716"><ele>300.0</ele><time>2026-04-04T12:16:31.807Z</time></trkpt><trkpt lat="45.5973794" lon="11.4250786"><ele>300.0</ele><time>2026-04-04T12:16:32.806Z</time></trkpt><trkpt lat="45.5973002" lon="11.4251987"><ele>300.0</ele><time>2026-04-04T12:16:33.807Z</time></trkpt><trkpt lat="45.5972222" lon="11.4253259"><ele>300.0</ele><time>2026-04-04T12:16:34.808Z</time></trkpt><trkpt lat="45.5971372" lon="11.4254482"><ele>300.0</ele><time>2026-04-04T12:16:35.807Z</time></trkpt><trkpt lat="45.5970404" lon="11.4255587"><ele>302.0</ele><time>2026-04-04T12:16:36.806Z</time></trkpt><trkpt lat="45.596934" lon="11.4256518"><ele>304.0</ele><time>2026-04-04T12:16:37.806Z</time></trkpt><trkpt lat="45.596819" lon="11.4257285"><ele>306.0</ele><time>2026-04-04T12:16:38.806Z</time></trkpt><trkpt lat="45.5966951" lon="11.4258164"><ele>308.0</ele><time>2026-04-04T12:16:39.807Z</time></trkpt><trkpt lat="45.5965709" lon="11.4259132"><ele>308.0</ele><time>2026-04-04T12:16:40.808Z</time></trkpt><trkpt lat="45.596448" lon="11.426007"><ele>308.0</ele><time>2026-04-04T12:16:41.807Z</time></trkpt><trkpt lat="45.5963411" lon="11.4260807"><ele>308.0</ele><time>2026-04-04T12:16:42.806Z</time></trkpt><trkpt lat="45.5962543" lon="11.4261466"><ele>308.0</ele><time>2026-04-04T12:16:43.806Z</time></trkpt><trkpt lat="45.5961369" lon="11.4262419"><ele>308.0</ele><time>2026-04-04T12:16:44.807Z</time></trkpt><trkpt lat="45.5960005" lon="11.4263539"><ele>308.0</ele><time>2026-04-04T12:16:45.807Z</time></trkpt><trkpt lat="45.5958741" lon="11.4264657"><ele>308.0</ele><time>2026-04-04T12:16:46.807Z</time></trkpt><trkpt lat="45.5957544" lon="11.426553"><ele>308.0</ele><time>2026-04-04T12:16:47.807Z</time></trkpt><trkpt lat="45.595605" lon="11.4266258"><ele>308.0</ele><time>2026-04-04T12:16:48.807Z</time></trkpt><trkpt lat="45.5954494" lon="11.426692"><ele>308.0</ele><time>2026-04-04T12:16:49.807Z</time></trkpt><trkpt lat="45.5953046" lon="11.4267574"><ele>308.0</ele><time>2026-04-04T12:16:50.806Z</time></trkpt><trkpt lat="45.5951783" lon="11.4268433"><ele>305.0</ele><time>2026-04-04T12:16:51.807Z</time></trkpt><trkpt lat="45.5950523" lon="11.4269664"><ele>302.0</ele><time>2026-04-04T12:16:52.807Z</time></trkpt><trkpt lat="45.5949238" lon="11.4271098"><ele>299.0</ele><time>2026-04-04T12:16:53.808Z</time></trkpt><trkpt lat="45.5948057" lon="11.4272247"><ele>298.59999999999997</ele><time>2026-04-04T12:16:54.806Z</time></trkpt><trkpt lat="45.5946937" lon="11.4273384"><ele>298.2</ele><time>2026-04-04T12:16:55.807Z</time></trkpt><trkpt lat="45.5945973" lon="11.4274499"><ele>297.79999999999995</ele><time>2026-04-04T12:16:56.807Z</time></trkpt><trkpt lat="45.5945231" lon="11.4275341"><ele>297.4</ele><time>2026-04-04T12:16:57.808Z</time></trkpt><trkpt lat="45.5944616" lon="11.427599"><ele>297.0</ele><time>2026-04-04T12:16:58.807Z</time></trkpt><trkpt lat="45.594389" lon="11.4276829"><ele>297.6</ele><time>2026-04-04T12:16:59.806Z</time></trkpt><trkpt lat="45.5943054" lon="11.4277884"><ele>298.2</ele><time>2026-04-04T12:17:00.807Z</time></trkpt><trkpt lat="45.5942183" lon="11.4278918"><ele>298.8</ele><time>2026-04-04T12:17:01.807Z</time></trkpt><trkpt lat="45.5941382" lon="11.4279695"><ele>299.4</ele><time>2026-04-04T12:17:02.807Z</time></trkpt><trkpt lat="45.5940618" lon="11.4280191"><ele>300.0</ele><time>2026-04-04T12:17:03.806Z</time></trkpt><trkpt lat="45.5939806" lon="11.4280458"><ele>300.0</ele><time>2026-04-04T12:17:04.807Z</time></trkpt><trkpt lat="45.5939011" lon="11.4280683"><ele>300.0</ele><time>2026-04-04T12:17:05.808Z</time></trkpt><trkpt lat="45.5938141" lon="11.4280995"><ele>300.0</ele><time>2026-04-04T12:17:06.806Z</time></trkpt><trkpt lat="45.5937237" lon="11.4281418"><ele>300.0</ele><time>2026-04-04T12:17:07.808Z</time></trkpt><trkpt lat="45.5935923" lon="11.4281601"><ele>300.0</ele><time>2026-04-04T12:17:09.808Z</time></trkpt><trkpt lat="45.5935111" lon="11.4281508"><ele>301.8</ele><time>2026-04-04T12:17:10.807Z</time></trkpt><trkpt lat="45.5934087" lon="11.4281323"><ele>303.6</ele><time>2026-04-04T12:17:11.806Z</time></trkpt><trkpt lat="45.5933057" lon="11.428103"><ele>305.4</ele><time>2026-04-04T12:17:12.806Z</time></trkpt><trkpt lat="45.5932051" lon="11.4280565"><ele>307.2</ele><time>2026-04-04T12:17:13.807Z</time></trkpt><trkpt lat="45.5931076" lon="11.4280002"><ele>309.0</ele><time>2026-04-04T12:17:14.807Z</time></trkpt><trkpt lat="45.5930247" lon="11.4279768"><ele>308.4</ele><time>2026-04-04T12:17:15.807Z</time></trkpt><trkpt lat="45.5929186" lon="11.4279515"><ele>307.79999999999995</ele><time>2026-04-04T12:17:16.808Z</time></trkpt><trkpt lat="45.5928468" lon="11.4279185"><ele>307.20000000000005</ele><time>2026-04-04T12:17:17.807Z</time></trkpt><trkpt lat="45.592758" lon="11.4278618"><ele>306.6</ele><time>2026-04-04T12:17:18.807Z</time></trkpt><trkpt lat="45.5926646" lon="11.4278054"><ele>306.0</ele><time>2026-04-04T12:17:19.807Z</time></trkpt><trkpt lat="45.5925403" lon="11.427737"><ele>306.0</ele><time>2026-04-04T12:17:20.808Z</time></trkpt><trkpt lat="45.5924272" lon="11.427684"><ele>306.0</ele><time>2026-04-04T12:17:21.806Z</time></trkpt><trkpt lat="45.5923115" lon="11.42765"><ele>306.0</ele><time>2026-04-04T12:17:22.808Z</time></trkpt><trkpt lat="45.5922408" lon="11.4276531"><ele>306.0</ele><time>2026-04-04T12:17:23.806Z</time></trkpt><trkpt lat="45.5921472" lon="11.4275931"><ele>306.0</ele><time>2026-04-04T12:17:24.806Z</time></trkpt><trkpt lat="45.5920187" lon="11.4275107"><ele>306.6</ele><time>2026-04-04T12:17:25.806Z</time></trkpt><trkpt lat="45.5919171" lon="11.4274382"><ele>307.20000000000005</ele><time>2026-04-04T12:17:26.806Z</time></trkpt><trkpt lat="45.5918131" lon="11.4273682"><ele>307.79999999999995</ele><time>2026-04-04T12:17:27.808Z</time></trkpt><trkpt lat="45.5917263" lon="11.4273068"><ele>308.4</ele><time>2026-04-04T12:17:28.806Z</time></trkpt><trkpt lat="45.5916594" lon="11.4272662"><ele>309.0</ele><time>2026-04-04T12:17:29.806Z</time></trkpt><trkpt lat="45.5915894" lon="11.4272291"><ele>309.0</ele><time>2026-04-04T12:17:30.807Z</time></trkpt><trkpt lat="45.5915167" lon="11.4271928"><ele>309.0</ele><time>2026-04-04T12:17:31.807Z</time></trkpt><trkpt lat="45.5914012" lon="11.4271968"><ele>309.0</ele><time>2026-04-04T12:17:32.807Z</time></trkpt><trkpt lat="45.5913078" lon="11.4271989"><ele>309.0</ele><time>2026-04-04T12:17:33.807Z</time></trkpt><trkpt lat="45.591223" lon="11.4272375"><ele>309.0</ele><time>2026-04-04T12:17:34.807Z</time></trkpt><trkpt lat="45.5911501" lon="11.4272514"><ele>309.0</ele><time>2026-04-04T12:17:35.806Z</time></trkpt><trkpt lat="45.5910625" lon="11.4272056"><ele>308.59999999999997</ele><time>2026-04-04T12:17:36.807Z</time></trkpt><trkpt lat="45.5909909" lon="11.427157"><ele>308.2</ele><time>2026-04-04T12:17:37.807Z</time></trkpt><trkpt lat="45.5909261" lon="11.4270773"><ele>307.79999999999995</ele><time>2026-04-04T12:17:38.806Z</time></trkpt><trkpt lat="45.5908607" lon="11.4269627"><ele>307.4</ele><time>2026-04-04T12:17:39.808Z</time></trkpt><trkpt lat="45.5907741" lon="11.4267613"><ele>307.0</ele><time>2026-04-04T12:17:40.806Z</time></trkpt><trkpt lat="45.5907099" lon="11.4266402"><ele>307.66666666666663</ele><time>2026-04-04T12:17:41.807Z</time></trkpt><trkpt lat="45.5906522" lon="11.4265577"><ele>308.3333333333333</ele><time>2026-04-04T12:17:42.808Z</time></trkpt><trkpt lat="45.590606" lon="11.4264685"><ele>309.0</ele><time>2026-04-04T12:17:43.807Z</time></trkpt><trkpt lat="45.5905762" lon="11.4263384"><ele>309.6666666666667</ele><time>2026-04-04T12:17:44.807Z</time></trkpt><trkpt lat="45.5905556" lon="11.4262288"><ele>310.33333333333337</ele><time>2026-04-04T12:17:45.806Z</time></trkpt><trkpt lat="45.5905102" lon="11.4261209"><ele>311.0</ele><time>2026-04-04T12:17:46.807Z</time></trkpt><trkpt lat="45.5904609" lon="11.4259948"><ele>311.0</ele><time>2026-04-04T12:17:47.806Z</time></trkpt><trkpt lat="45.5904191" lon="11.4258697"><ele>311.0</ele><time>2026-04-04T12:17:48.806Z</time></trkpt><trkpt lat="45.5903683" lon="11.4257822"><ele>311.0</ele><time>2026-04-04T12:17:49.807Z</time></trkpt><trkpt lat="45.5903548" lon="11.4256756"><ele>311.0</ele><time>2026-04-04T12:17:50.807Z</time></trkpt><trkpt lat="45.5903389" lon="11.4255682"><ele>311.0</ele><time>2026-04-04T12:17:51.806Z</time></trkpt><trkpt lat="45.590342" lon="11.4254604"><ele>311.0</ele><time>2026-04-04T12:17:52.807Z</time></trkpt><trkpt lat="45.5903391" lon="11.4253382"><ele>311.1666666666667</ele><time>2026-04-04T12:17:53.806Z</time></trkpt><trkpt lat="45.5903538" lon="11.425237"><ele>311.33333333333337</ele><time>2026-04-04T12:17:54.806Z</time></trkpt><trkpt lat="45.5903669" lon="11.4251488"><ele>311.5</ele><time>2026-04-04T12:17:55.806Z</time></trkpt><trkpt lat="45.5903468" lon="11.4249995"><ele>311.6666666666667</ele><time>2026-04-04T12:17:57.807Z</time></trkpt><trkpt lat="45.5902577" lon="11.4249316"><ele>311.8333333333333</ele><time>2026-04-04T12:17:59.806Z</time></trkpt><trkpt lat="45.5901864" lon="11.4249041"><ele>312.0</ele><time>2026-04-04T12:18:00.807Z</time></trkpt><trkpt lat="45.5901192" lon="11.4248679"><ele>312.0</ele><time>2026-04-04T12:18:01.807Z</time></trkpt><trkpt lat="45.5900536" lon="11.4248452"><ele>312.0</ele><time>2026-04-04T12:18:02.807Z</time></trkpt><trkpt lat="45.589985" lon="11.4248292"><ele>312.0</ele><time>2026-04-04T12:18:03.807Z</time></trkpt><trkpt lat="45.5899251" lon="11.424791"><ele>312.0</ele><time>2026-04-04T12:18:04.806Z</time></trkpt><trkpt lat="45.5898481" lon="11.4247507"><ele>312.0</ele><time>2026-04-04T12:18:05.806Z</time></trkpt><trkpt lat="45.5897748" lon="11.4247196"><ele>312.0</ele><time>2026-04-04T12:18:06.807Z</time></trkpt><trkpt lat="45.5896995" lon="11.4246696"><ele>312.0</ele><time>2026-04-04T12:18:08.807Z</time></trkpt><trkpt lat="45.5896183" lon="11.4246672"><ele>312.0</ele><time>2026-04-04T12:18:10.807Z</time></trkpt><trkpt lat="45.5895604" lon="11.4247052"><ele>312.0</ele><time>2026-04-04T12:18:11.807Z</time></trkpt><trkpt lat="45.5894682" lon="11.4247449"><ele>312.0</ele><time>2026-04-04T12:18:12.806Z</time></trkpt><trkpt lat="45.5893746" lon="11.4247897"><ele>312.0</ele><time>2026-04-04T12:18:13.807Z</time></trkpt><trkpt lat="45.5892747" lon="11.4248328"><ele>312.0</ele><time>2026-04-04T12:18:14.808Z</time></trkpt><trkpt lat="45.5891722" lon="11.4248538"><ele>308.8</ele><time>2026-04-04T12:18:15.806Z</time></trkpt><trkpt lat="45.589079" lon="11.4248612"><ele>305.6</ele><time>2026-04-04T12:18:16.806Z</time></trkpt><trkpt lat="45.5889933" lon="11.4248477"><ele>302.40000000000003</ele><time>2026-04-04T12:18:17.808Z</time></trkpt><trkpt lat="45.5889426" lon="11.4247577"><ele>299.2</ele><time>2026-04-04T12:18:18.808Z</time></trkpt><trkpt lat="45.588882" lon="11.4246743"><ele>296.0</ele><time>2026-04-04T12:18:19.806Z</time></trkpt><trkpt lat="45.5888208" lon="11.4245325"><ele>296.0</ele><time>2026-04-04T12:18:20.806Z</time></trkpt><trkpt lat="45.5887622" lon="11.4244021"><ele>296.0</ele><time>2026-04-04T12:18:21.808Z</time></trkpt><trkpt lat="45.5887292" lon="11.4242774"><ele>296.0</ele><time>2026-04-04T12:18:22.807Z</time></trkpt><trkpt lat="45.5887064" lon="11.4241481"><ele>296.0</ele><time>2026-04-04T12:18:23.807Z</time></trkpt><trkpt lat="45.5886936" lon="11.4240596"><ele>296.0</ele><time>2026-04-04T12:18:24.807Z</time></trkpt><trkpt lat="45.5886564" lon="11.4238878"><ele>293.6666666666667</ele><time>2026-04-04T12:18:26.806Z</time></trkpt><trkpt lat="45.5886354" lon="11.4237511"><ele>291.33333333333337</ele><time>2026-04-04T12:18:27.807Z</time></trkpt><trkpt lat="45.5886318" lon="11.4236404"><ele>289.0</ele><time>2026-04-04T12:18:28.807Z</time></trkpt><trkpt lat="45.5886152" lon="11.4235357"><ele>286.6666666666667</ele><time>2026-04-04T12:18:29.806Z</time></trkpt><trkpt lat="45.5885658" lon="11.4234432"><ele>284.3333333333333</ele><time>2026-04-04T12:18:30.807Z</time></trkpt><trkpt lat="45.5885171" lon="11.423362"><ele>282.0</ele><time>2026-04-04T12:18:31.807Z</time></trkpt><trkpt lat="45.588441" lon="11.4232947"><ele>282.0</ele><time>2026-04-04T12:18:32.808Z</time></trkpt><trkpt lat="45.5883482" lon="11.4232026"><ele>282.0</ele><time>2026-04-04T12:18:34.808Z</time></trkpt><trkpt lat="45.5882564" lon="11.423198"><ele>282.0</ele><time>2026-04-04T12:18:36.807Z</time></trkpt><trkpt lat="45.5881896" lon="11.423289"><ele>282.0</ele><time>2026-04-04T12:18:37.807Z</time></trkpt><trkpt lat="45.5881171" lon="11.4233874"><ele>282.0</ele><time>2026-04-04T12:18:39.806Z</time></trkpt><trkpt lat="45.5880745" lon="11.4234831"><ele>282.0</ele><time>2026-04-04T12:18:40.808Z</time></trkpt><trkpt lat="45.588033" lon="11.4235838"><ele>282.0</ele><time>2026-04-04T12:18:41.807Z</time></trkpt><trkpt lat="45.5879614" lon="11.4237095"><ele>282.0</ele><time>2026-04-04T12:18:42.806Z</time></trkpt><trkpt lat="45.5879137" lon="11.4238067"><ele>282.0</ele><time>2026-04-04T12:18:43.806Z</time></trkpt><trkpt lat="45.5878726" lon="11.4239245"><ele>282.0</ele><time>2026-04-04T12:18:44.806Z</time></trkpt><trkpt lat="45.5878332" lon="11.4240418"><ele>278.6666666666667</ele><time>2026-04-04T12:18:45.807Z</time></trkpt><trkpt lat="45.5878009" lon="11.4241454"><ele>275.3333333333333</ele><time>2026-04-04T12:18:46.807Z</time></trkpt><trkpt lat="45.5877725" lon="11.4242399"><ele>272.0</ele><time>2026-04-04T12:18:47.806Z</time></trkpt><trkpt lat="45.5877493" lon="11.4243421"><ele>268.66666666666663</ele><time>2026-04-04T12:18:48.807Z</time></trkpt><trkpt lat="45.5877427" lon="11.4244334"><ele>265.3333333333333</ele><time>2026-04-04T12:18:49.808Z</time></trkpt><trkpt lat="45.5877306" lon="11.4245387"><ele>262.0</ele><time>2026-04-04T12:18:50.807Z</time></trkpt><trkpt lat="45.5877253" lon="11.4246659"><ele>262.0</ele><time>2026-04-04T12:18:51.807Z</time></trkpt><trkpt lat="45.5877186" lon="11.4247683"><ele>262.0</ele><time>2026-04-04T12:18:52.806Z</time></trkpt><trkpt lat="45.5877002" lon="11.4248648"><ele>262.0</ele><time>2026-04-04T12:18:53.806Z</time></trkpt><trkpt lat="45.5876339" lon="11.4250194"><ele>262.0</ele><time>2026-04-04T12:18:55.807Z</time></trkpt><trkpt lat="45.5875579" lon="11.4251295"><ele>262.0</ele><time>2026-04-04T12:18:57.807Z</time></trkpt><trkpt lat="45.587475" lon="11.4252316"><ele>262.0</ele><time>2026-04-04T12:18:59.807Z</time></trkpt><trkpt lat="45.5873947" lon="11.4252608"><ele>262.0</ele><time>2026-04-04T12:19:01.807Z</time></trkpt><trkpt lat="45.5873019" lon="11.4251501"><ele>262.0</ele><time>2026-04-04T12:19:03.808Z</time></trkpt><trkpt lat="45.5872191" lon="11.4251596"><ele>262.0</ele><time>2026-04-04T12:19:05.806Z</time></trkpt><trkpt lat="45.5871229" lon="11.4251922"><ele>262.0</ele><time>2026-04-04T12:19:07.807Z</time></trkpt><trkpt lat="45.5870429" lon="11.4252327"><ele>259.6</ele><time>2026-04-04T12:19:08.808Z</time></trkpt><trkpt lat="45.5869519" lon="11.4252872"><ele>257.2</ele><time>2026-04-04T12:19:09.806Z</time></trkpt><trkpt lat="45.5868524" lon="11.4253365"><ele>254.8</ele><time>2026-04-04T12:19:10.808Z</time></trkpt><trkpt lat="45.5867569" lon="11.4253771"><ele>252.4</ele><time>2026-04-04T12:19:11.808Z</time></trkpt><trkpt lat="45.5866693" lon="11.4254235"><ele>250.0</ele><time>2026-04-04T12:19:12.808Z</time></trkpt><trkpt lat="45.5866162" lon="11.4254871"><ele>250.0</ele><time>2026-04-04T12:19:13.808Z</time></trkpt><trkpt lat="45.586563" lon="11.4255572"><ele>250.0</ele><time>2026-04-04T12:19:14.807Z</time></trkpt><trkpt lat="45.5865214" lon="11.4256541"><ele>250.0</ele><time>2026-04-04T12:19:15.806Z</time></trkpt><trkpt lat="45.5864806" lon="11.4258105"><ele>250.0</ele><time>2026-04-04T12:19:16.806Z</time></trkpt><trkpt lat="45.5864542" lon="11.4259652"><ele>250.0</ele><time>2026-04-04T12:19:17.808Z</time></trkpt><trkpt lat="45.5864253" lon="11.4261169"><ele>249.99999999999997</ele><time>2026-04-04T12:19:18.808Z</time></trkpt><trkpt lat="45.5864011" lon="11.4262467"><ele>250.0</ele><time>2026-04-04T12:19:19.806Z</time></trkpt><trkpt lat="45.5863839" lon="11.4263535"><ele>250.0</ele><time>2026-04-04T12:19:20.807Z</time></trkpt><trkpt lat="45.5863587" lon="11.4264997"><ele>250.0</ele><time>2026-04-04T12:19:22.807Z</time></trkpt><trkpt lat="45.5863362" lon="11.4265904"><ele>249.99999999999997</ele><time>2026-04-04T12:19:26.806Z</time></trkpt><trkpt lat="45.5862695" lon="11.4266328"><ele>250.0</ele><time>2026-04-04T12:20:00.806Z</time></trkpt><trkpt lat="45.5861971" lon="11.4266442"><ele>249.8</ele><time>2026-04-04T12:20:02.806Z</time></trkpt><trkpt lat="45.5861203" lon="11.4266652"><ele>249.6</ele><time>2026-04-04T12:20:05.806Z</time></trkpt><trkpt lat="45.5861799" lon="11.4267403"><ele>249.39999999999998</ele><time>2026-04-04T12:20:08.806Z</time></trkpt><trkpt lat="45.5862705" lon="11.4267934"><ele>249.2</ele><time>2026-04-04T12:20:10.807Z</time></trkpt><trkpt lat="45.5863475" lon="11.4269142"><ele>249.0</ele><time>2026-04-04T12:20:12.805Z</time></trkpt><trkpt lat="45.5863927" lon="11.4270108"><ele>249.0</ele><time>2026-04-04T12:20:13.807Z</time></trkpt><trkpt lat="45.58644" lon="11.4270847"><ele>249.0</ele><time>2026-04-04T12:20:14.806Z</time></trkpt><trkpt lat="45.5864843" lon="11.4271546"><ele>249.0</ele><time>2026-04-04T12:20:15.807Z</time></trkpt><trkpt lat="45.5865457" lon="11.4272906"><ele>249.0</ele><time>2026-04-04T12:20:17.806Z</time></trkpt><trkpt lat="45.5865721" lon="11.427423"><ele>249.0</ele><time>2026-04-04T12:20:19.807Z</time></trkpt><trkpt lat="45.5865478" lon="11.4275581"><ele>249.0</ele><time>2026-04-04T12:20:21.805Z</time></trkpt><trkpt lat="45.5864868" lon="11.4277113"><ele>247.83333333333334</ele><time>2026-04-04T12:20:23.806Z</time></trkpt><trkpt lat="45.5864487" lon="11.4277901"><ele>246.66666666666669</ele><time>2026-04-04T12:20:24.806Z</time></trkpt><trkpt lat="45.5863836" lon="11.4279373"><ele>245.5</ele><time>2026-04-04T12:20:26.806Z</time></trkpt><trkpt lat="45.5863335" lon="11.4280648"><ele>244.33333333333334</ele><time>2026-04-04T12:20:28.805Z</time></trkpt><trkpt lat="45.5862962" lon="11.4281623"><ele>243.16666666666669</ele><time>2026-04-04T12:20:30.806Z</time></trkpt><trkpt lat="45.5862434" lon="11.4282324"><ele>242.0</ele><time>2026-04-04T12:20:33.806Z</time></trkpt><trkpt lat="45.5863193" lon="11.4281392"><ele>242.0</ele><time>2026-04-04T12:20:39.805Z</time></trkpt><trkpt lat="45.5863463" lon="11.4280417"><ele>242.0</ele><time>2026-04-04T12:20:40.807Z</time></trkpt><trkpt lat="45.5863903" lon="11.4279353"><ele>242.0</ele><time>2026-04-04T12:20:41.807Z</time></trkpt><trkpt lat="45.5864434" lon="11.4278165"><ele>242.0</ele><time>2026-04-04T12:20:42.807Z</time></trkpt><trkpt lat="45.5864998" lon="11.4276882"><ele>242.0</ele><time>2026-04-04T12:20:43.806Z</time></trkpt><trkpt lat="45.5865506" lon="11.4275766"><ele>242.00000000000003</ele><time>2026-04-04T12:20:44.806Z</time></trkpt><trkpt lat="45.5865716" lon="11.4274827"><ele>242.0</ele><time>2026-04-04T12:20:45.805Z</time></trkpt><trkpt lat="45.5865667" lon="11.4273783"><ele>242.0</ele><time>2026-04-04T12:20:46.806Z</time></trkpt><trkpt lat="45.5865351" lon="11.4272695"><ele>242.0</ele><time>2026-04-04T12:20:47.805Z</time></trkpt><trkpt lat="45.5864806" lon="11.4271577"><ele>242.00000000000003</ele><time>2026-04-04T12:20:48.806Z</time></trkpt><trkpt lat="45.5864127" lon="11.4270466"><ele>242.0</ele><time>2026-04-04T12:20:49.806Z</time></trkpt><trkpt lat="45.5863523" lon="11.4269187"><ele>241.83333333333334</ele><time>2026-04-04T12:20:50.807Z</time></trkpt><trkpt lat="45.5863017" lon="11.4268211"><ele>241.66666666666669</ele><time>2026-04-04T12:20:51.806Z</time></trkpt><trkpt lat="45.5862393" lon="11.4267563"><ele>241.5</ele><time>2026-04-04T12:20:52.805Z</time></trkpt><trkpt lat="45.5861716" lon="11.4267273"><ele>241.33333333333331</ele><time>2026-04-04T12:20:53.806Z</time></trkpt><trkpt lat="45.586092" lon="11.426685"><ele>241.16666666666666</ele><time>2026-04-04T12:20:55.805Z</time></trkpt><trkpt lat="45.5859816" lon="11.4266982"><ele>241.0</ele><time>2026-04-04T12:20:57.805Z</time></trkpt><trkpt lat="45.5859143" lon="11.4267219"><ele>240.99999999999997</ele><time>2026-04-04T12:20:58.805Z</time></trkpt><trkpt lat="45.5858404" lon="11.4267339"><ele>241.0</ele><time>2026-04-04T12:20:59.806Z</time></trkpt><trkpt lat="45.5857624" lon="11.4267378"><ele>241.0</ele><time>2026-04-04T12:21:00.804Z</time></trkpt><trkpt lat="45.5856789" lon="11.4267346"><ele>241.0</ele><time>2026-04-04T12:21:01.806Z</time></trkpt><trkpt lat="45.5855962" lon="11.4267253"><ele>240.99999999999997</ele><time>2026-04-04T12:21:02.806Z</time></trkpt><trkpt lat="45.5855119" lon="11.4267073"><ele>241.0</ele><time>2026-04-04T12:21:03.807Z</time></trkpt><trkpt lat="45.585431" lon="11.4266906"><ele>240.99999999999997</ele><time>2026-04-04T12:21:04.806Z</time></trkpt><trkpt lat="45.5853548" lon="11.4266732"><ele>241.0</ele><time>2026-04-04T12:21:05.806Z</time></trkpt><trkpt lat="45.5852806" lon="11.4266522"><ele>241.0</ele><time>2026-04-04T12:21:06.806Z</time></trkpt><trkpt lat="45.5852141" lon="11.4266307"><ele>241.0</ele><time>2026-04-04T12:21:07.805Z</time></trkpt><trkpt lat="45.5851506" lon="11.4266118"><ele>240.99999999999997</ele><time>2026-04-04T12:21:08.806Z</time></trkpt><trkpt lat="45.5850698" lon="11.4265942"><ele>241.0</ele><time>2026-04-04T12:21:09.807Z</time></trkpt><trkpt lat="45.5849881" lon="11.426575"><ele>241.20000000000002</ele><time>2026-04-04T12:21:10.806Z</time></trkpt><trkpt lat="45.5848945" lon="11.4265488"><ele>241.40000000000003</ele><time>2026-04-04T12:21:11.806Z</time></trkpt><trkpt lat="45.5847981" lon="11.4265122"><ele>241.6</ele><time>2026-04-04T12:21:12.806Z</time></trkpt><trkpt lat="45.5846906" lon="11.4264663"><ele>241.8</ele><time>2026-04-04T12:21:13.806Z</time></trkpt><trkpt lat="45.584577" lon="11.4264196"><ele>242.0</ele><time>2026-04-04T12:21:14.805Z</time></trkpt><trkpt lat="45.5844523" lon="11.4263818"><ele>242.0</ele><time>2026-04-04T12:21:15.805Z</time></trkpt><trkpt lat="45.5843101" lon="11.4263746"><ele>242.0</ele><time>2026-04-04T12:21:16.806Z</time></trkpt><trkpt lat="45.584169" lon="11.4263885"><ele>242.0</ele><time>2026-04-04T12:21:17.807Z</time></trkpt><trkpt lat="45.5840291" lon="11.4264204"><ele>242.0</ele><time>2026-04-04T12:21:18.807Z</time></trkpt><trkpt lat="45.5838886" lon="11.4264605"><ele>242.0</ele><time>2026-04-04T12:21:19.807Z</time></trkpt><trkpt lat="45.5837509" lon="11.4265034"><ele>242.0</ele><time>2026-04-04T12:21:20.805Z</time></trkpt><trkpt lat="45.5836271" lon="11.4265421"><ele>242.0</ele><time>2026-04-04T12:21:21.806Z</time></trkpt><trkpt lat="45.5835102" lon="11.426577"><ele>242.0</ele><time>2026-04-04T12:21:22.806Z</time></trkpt><trkpt lat="45.5833983" lon="11.4266142"><ele>241.25</ele><time>2026-04-04T12:21:23.806Z</time></trkpt><trkpt lat="45.583285" lon="11.4266588"><ele>240.5</ele><time>2026-04-04T12:21:24.806Z</time></trkpt><trkpt lat="45.5831802" lon="11.4267254"><ele>239.75</ele><time>2026-04-04T12:21:25.806Z</time></trkpt><trkpt lat="45.5830679" lon="11.4268323"><ele>239.0</ele><time>2026-04-04T12:21:26.805Z</time></trkpt><trkpt lat="45.5829589" lon="11.4269401"><ele>239.0</ele><time>2026-04-04T12:21:27.807Z</time></trkpt><trkpt lat="45.5828502" lon="11.4270649"><ele>239.0</ele><time>2026-04-04T12:21:28.807Z</time></trkpt><trkpt lat="45.5827445" lon="11.4271971"><ele>239.0</ele><time>2026-04-04T12:21:29.805Z</time></trkpt><trkpt lat="45.5826429" lon="11.4273371"><ele>239.0</ele><time>2026-04-04T12:21:30.805Z</time></trkpt><trkpt lat="45.582535" lon="11.4274591"><ele>236.25</ele><time>2026-04-04T12:21:31.807Z</time></trkpt><trkpt lat="45.5824171" lon="11.4275445"><ele>233.5</ele><time>2026-04-04T12:21:32.806Z</time></trkpt><trkpt lat="45.58229" lon="11.4276065"><ele>230.75</ele><time>2026-04-04T12:21:33.806Z</time></trkpt><trkpt lat="45.5821601" lon="11.4276453"><ele>228.0</ele><time>2026-04-04T12:21:34.807Z</time></trkpt><trkpt lat="45.5820571" lon="11.4276801"><ele>229.0</ele><time>2026-04-04T12:21:35.806Z</time></trkpt><trkpt lat="45.5819723" lon="11.4277054"><ele>230.0</ele><time>2026-04-04T12:21:36.806Z</time></trkpt><trkpt lat="45.5818719" lon="11.4276952"><ele>231.0</ele><time>2026-04-04T12:21:38.807Z</time></trkpt><trkpt lat="45.5818427" lon="11.4275632"><ele>232.0</ele><time>2026-04-04T12:21:40.805Z</time></trkpt><trkpt lat="45.5818642" lon="11.4274318"><ele>233.0</ele><time>2026-04-04T12:21:41.805Z</time></trkpt><trkpt lat="45.5818885" lon="11.4273101"><ele>233.0</ele><time>2026-04-04T12:21:42.806Z</time></trkpt><trkpt lat="45.5819171" lon="11.4271772"><ele>233.0</ele><time>2026-04-04T12:21:43.805Z</time></trkpt><trkpt lat="45.5819561" lon="11.4270632"><ele>233.0</ele><time>2026-04-04T12:21:44.806Z</time></trkpt><trkpt lat="45.5820071" lon="11.4269598"><ele>233.0</ele><time>2026-04-04T12:21:45.805Z</time></trkpt><trkpt lat="45.5820758" lon="11.4268692"><ele>233.0</ele><time>2026-04-04T12:21:46.806Z</time></trkpt><trkpt lat="45.5821613" lon="11.4267786"><ele>232.75</ele><time>2026-04-04T12:21:47.805Z</time></trkpt><trkpt lat="45.5822549" lon="11.4266797"><ele>232.5</ele><time>2026-04-04T12:21:48.805Z</time></trkpt><trkpt lat="45.582358" lon="11.4265662"><ele>232.25</ele><time>2026-04-04T12:21:49.806Z</time></trkpt><trkpt lat="45.5824709" lon="11.4264439"><ele>232.0</ele><time>2026-04-04T12:21:50.806Z</time></trkpt><trkpt lat="45.5825859" lon="11.4263143"><ele>231.25</ele><time>2026-04-04T12:21:51.806Z</time></trkpt><trkpt lat="45.5826984" lon="11.4261825"><ele>230.5</ele><time>2026-04-04T12:21:52.806Z</time></trkpt><trkpt lat="45.5828072" lon="11.4260491"><ele>229.75</ele><time>2026-04-04T12:21:53.807Z</time></trkpt><trkpt lat="45.5829176" lon="11.4259194"><ele>229.0</ele><time>2026-04-04T12:21:54.807Z</time></trkpt><trkpt lat="45.5830328" lon="11.4257923"><ele>229.0</ele><time>2026-04-04T12:21:55.806Z</time></trkpt><trkpt lat="45.583143" lon="11.4256532"><ele>229.0</ele><time>2026-04-04T12:21:56.807Z</time></trkpt><trkpt lat="45.5832398" lon="11.4255046"><ele>229.0</ele><time>2026-04-04T12:21:57.805Z</time></trkpt><trkpt lat="45.5833205" lon="11.4253535"><ele>229.0</ele><time>2026-04-04T12:21:58.807Z</time></trkpt><trkpt lat="45.5833824" lon="11.4251872"><ele>227.0</ele><time>2026-04-04T12:21:59.806Z</time></trkpt><trkpt lat="45.5834201" lon="11.4250037"><ele>225.0</ele><time>2026-04-04T12:22:00.805Z</time></trkpt><trkpt lat="45.583439" lon="11.4248214"><ele>223.0</ele><time>2026-04-04T12:22:01.806Z</time></trkpt><trkpt lat="45.5834569" lon="11.4246651"><ele>221.0</ele><time>2026-04-04T12:22:02.806Z</time></trkpt><trkpt lat="45.5834938" lon="11.4245359"><ele>217.8</ele><time>2026-04-04T12:22:03.805Z</time></trkpt><trkpt lat="45.5835585" lon="11.4244534"><ele>214.60000000000002</ele><time>2026-04-04T12:22:04.805Z</time></trkpt><trkpt lat="45.5836546" lon="11.4244011"><ele>211.4</ele><time>2026-04-04T12:22:05.806Z</time></trkpt><trkpt lat="45.5837697" lon="11.4243397"><ele>208.2</ele><time>2026-04-04T12:22:06.807Z</time></trkpt><trkpt lat="45.5838918" lon="11.4242703"><ele>205.0</ele><time>2026-04-04T12:22:07.806Z</time></trkpt><trkpt lat="45.5840138" lon="11.4242353"><ele>205.0</ele><time>2026-04-04T12:22:08.805Z</time></trkpt><trkpt lat="45.5841469" lon="11.4242393"><ele>205.0</ele><time>2026-04-04T12:22:09.805Z</time></trkpt><trkpt lat="45.5842835" lon="11.4242613"><ele>205.0</ele><time>2026-04-04T12:22:10.805Z</time></trkpt><trkpt lat="45.5844286" lon="11.4242937"><ele>205.0</ele><time>2026-04-04T12:22:11.806Z</time></trkpt><trkpt lat="45.5845734" lon="11.4243219"><ele>203.75</ele><time>2026-04-04T12:22:12.807Z</time></trkpt><trkpt lat="45.5847162" lon="11.4243533"><ele>202.5</ele><time>2026-04-04T12:22:13.806Z</time></trkpt><trkpt lat="45.5848566" lon="11.4243863"><ele>201.25</ele><time>2026-04-04T12:22:14.806Z</time></trkpt><trkpt lat="45.5849929" lon="11.4244206"><ele>200.0</ele><time>2026-04-04T12:22:15.805Z</time></trkpt><trkpt lat="45.5851196" lon="11.424445"><ele>200.00000000000003</ele><time>2026-04-04T12:22:16.807Z</time></trkpt><trkpt lat="45.5852304" lon="11.4244603"><ele>200.0</ele><time>2026-04-04T12:22:17.805Z</time></trkpt><trkpt lat="45.5853199" lon="11.424458"><ele>200.0</ele><time>2026-04-04T12:22:18.805Z</time></trkpt><trkpt lat="45.5853991" lon="11.4244402"><ele>200.0</ele><time>2026-04-04T12:22:19.807Z</time></trkpt><trkpt lat="45.5854633" lon="11.4243762"><ele>200.00000000000003</ele><time>2026-04-04T12:22:20.806Z</time></trkpt><trkpt lat="45.5855001" lon="11.4242643"><ele>200.0</ele><time>2026-04-04T12:22:21.807Z</time></trkpt><trkpt lat="45.585522" lon="11.4241357"><ele>199.33333333333334</ele><time>2026-04-04T12:22:22.806Z</time></trkpt><trkpt lat="45.5855424" lon="11.4240128"><ele>198.66666666666669</ele><time>2026-04-04T12:22:23.807Z</time></trkpt><trkpt lat="45.5855701" lon="11.4238896"><ele>198.0</ele><time>2026-04-04T12:22:24.806Z</time></trkpt><trkpt lat="45.5856123" lon="11.423784"><ele>197.33333333333331</ele><time>2026-04-04T12:22:25.805Z</time></trkpt><trkpt lat="45.5856705" lon="11.4236999"><ele>196.66666666666666</ele><time>2026-04-04T12:22:26.805Z</time></trkpt><trkpt lat="45.5857337" lon="11.423639"><ele>196.0</ele><time>2026-04-04T12:22:27.806Z</time></trkpt><trkpt lat="45.5857905" lon="11.4235889"><ele>196.0</ele><time>2026-04-04T12:22:28.805Z</time></trkpt><trkpt lat="45.5858336" lon="11.4234499"><ele>196.0</ele><time>2026-04-04T12:22:30.805Z</time></trkpt><trkpt lat="45.5857354" lon="11.4233681"><ele>196.0</ele><time>2026-04-04T12:22:32.806Z</time></trkpt><trkpt lat="45.5856369" lon="11.4233842"><ele>196.0</ele><time>2026-04-04T12:22:33.806Z</time></trkpt><trkpt lat="45.585525" lon="11.4234187"><ele>196.0</ele><time>2026-04-04T12:22:34.807Z</time></trkpt><trkpt lat="45.5854401" lon="11.4234152"><ele>196.0</ele><time>2026-04-04T12:22:35.807Z</time></trkpt><trkpt lat="45.5853676" lon="11.4233996"><ele>196.0</ele><time>2026-04-04T12:22:36.806Z</time></trkpt><trkpt lat="45.5853922" lon="11.4232604"><ele>196.0</ele><time>2026-04-04T12:22:38.807Z</time></trkpt><trkpt lat="45.5854516" lon="11.4232159"><ele>196.0</ele><time>2026-04-04T12:22:39.805Z</time></trkpt><trkpt lat="45.5855554" lon="11.4231906"><ele>196.0</ele><time>2026-04-04T12:22:40.805Z</time></trkpt><trkpt lat="45.5856631" lon="11.4231914"><ele>196.0</ele><time>2026-04-04T12:22:41.806Z</time></trkpt><trkpt lat="45.5857575" lon="11.4231605"><ele>196.0</ele><time>2026-04-04T12:22:42.806Z</time></trkpt><trkpt lat="45.585828" lon="11.4230789"><ele>196.0</ele><time>2026-04-04T12:22:43.806Z</time></trkpt><trkpt lat="45.5859009" lon="11.4230065"><ele>196.0</ele><time>2026-04-04T12:22:44.805Z</time></trkpt><trkpt lat="45.5859055" lon="11.4227937"><ele>196.0</ele><time>2026-04-04T12:22:45.806Z</time></trkpt><trkpt lat="45.5859563" lon="11.4226546"><ele>201.33333333333331</ele><time>2026-04-04T12:22:46.805Z</time></trkpt><trkpt lat="45.5860288" lon="11.4224975"><ele>206.66666666666669</ele><time>2026-04-04T12:22:47.806Z</time></trkpt><trkpt lat="45.5861413" lon="11.4223363"><ele>212.0</ele><time>2026-04-04T12:22:48.806Z</time></trkpt><trkpt lat="45.5862806" lon="11.4221766"><ele>200.33333333333334</ele><time>2026-04-04T12:22:49.805Z</time></trkpt><trkpt lat="45.5864524" lon="11.4220247"><ele>188.66666666666669</ele><time>2026-04-04T12:22:50.806Z</time></trkpt><trkpt lat="45.5866211" lon="11.421888"><ele>177.0</ele><time>2026-04-04T12:22:51.805Z</time></trkpt><trkpt lat="45.5867715" lon="11.4217591"><ele>177.0</ele><time>2026-04-04T12:22:52.807Z</time></trkpt><trkpt lat="45.5869138" lon="11.4215999"><ele>177.0</ele><time>2026-04-04T12:22:53.805Z</time></trkpt><trkpt lat="45.5870333" lon="11.4214436"><ele>177.0</ele><time>2026-04-04T12:22:54.807Z</time></trkpt><trkpt lat="45.5871411" lon="11.421302"><ele>175.39999999999998</ele><time>2026-04-04T12:22:55.806Z</time></trkpt><trkpt lat="45.5872362" lon="11.4211793"><ele>173.79999999999998</ele><time>2026-04-04T12:22:56.806Z</time></trkpt><trkpt lat="45.5873238" lon="11.4210833"><ele>172.2</ele><time>2026-04-04T12:22:57.807Z</time></trkpt><trkpt lat="45.5873852" lon="11.4210082"><ele>170.6</ele><time>2026-04-04T12:22:58.807Z</time></trkpt><trkpt lat="45.5874101" lon="11.4209129"><ele>169.0</ele><time>2026-04-04T12:22:59.806Z</time></trkpt><trkpt lat="45.5873425" lon="11.4207936"><ele>169.0</ele><time>2026-04-04T12:23:01.806Z</time></trkpt><trkpt lat="45.5872497" lon="11.4208106"><ele>169.0</ele><time>2026-04-04T12:23:02.806Z</time></trkpt><trkpt lat="45.5871525" lon="11.4208619"><ele>169.0</ele><time>2026-04-04T12:23:03.806Z</time></trkpt><trkpt lat="45.5870364" lon="11.4209163"><ele>169.0</ele><time>2026-04-04T12:23:04.806Z</time></trkpt><trkpt lat="45.5869113" lon="11.4209802"><ele>164.33333333333334</ele><time>2026-04-04T12:23:05.806Z</time></trkpt><trkpt lat="45.5867723" lon="11.4210463"><ele>159.66666666666666</ele><time>2026-04-04T12:23:06.805Z</time></trkpt><trkpt lat="45.5866208" lon="11.4211162"><ele>155.0</ele><time>2026-04-04T12:23:07.806Z</time></trkpt><trkpt lat="45.5864789" lon="11.4211861"><ele>155.0</ele><time>2026-04-04T12:23:08.806Z</time></trkpt><trkpt lat="45.586342" lon="11.4212461"><ele>155.0</ele><time>2026-04-04T12:23:09.805Z</time></trkpt><trkpt lat="45.5862167" lon="11.4213171"><ele>155.0</ele><time>2026-04-04T12:23:10.805Z</time></trkpt><trkpt lat="45.5861087" lon="11.4214066"><ele>155.0</ele><time>2026-04-04T12:23:11.807Z</time></trkpt><trkpt lat="45.5860171" lon="11.421498"><ele>154.5</ele><time>2026-04-04T12:23:12.805Z</time></trkpt><trkpt lat="45.5859254" lon="11.4215455"><ele>154.0</ele><time>2026-04-04T12:23:13.806Z</time></trkpt><trkpt lat="45.5858379" lon="11.4215332"><ele>153.5</ele><time>2026-04-04T12:23:14.806Z</time></trkpt><trkpt lat="45.5857798" lon="11.4214581"><ele>153.0</ele><time>2026-04-04T12:23:15.805Z</time></trkpt><trkpt lat="45.5857665" lon="11.4213576"><ele>152.5</ele><time>2026-04-04T12:23:16.806Z</time></trkpt><trkpt lat="45.5857856" lon="11.4212325"><ele>152.0</ele><time>2026-04-04T12:23:17.806Z</time></trkpt><trkpt lat="45.5858347" lon="11.4210819"><ele>150.33333333333331</ele><time>2026-04-04T12:23:18.807Z</time></trkpt><trkpt lat="45.5858855" lon="11.4209272"><ele>148.66666666666666</ele><time>2026-04-04T12:23:19.806Z</time></trkpt><trkpt lat="45.5859163" lon="11.4207957"><ele>147.0</ele><time>2026-04-04T12:23:20.807Z</time></trkpt><trkpt lat="45.585915" lon="11.4206888"><ele>145.33333333333334</ele><time>2026-04-04T12:23:21.805Z</time></trkpt><trkpt lat="45.5858704" lon="11.4206089"><ele>143.66666666666669</ele><time>2026-04-04T12:23:22.805Z</time></trkpt><trkpt lat="45.5857965" lon="11.4205882"><ele>142.0</ele><time>2026-04-04T12:23:23.806Z</time></trkpt><trkpt lat="45.5857253" lon="11.4206152"><ele>142.0</ele><time>2026-04-04T12:23:24.806Z</time></trkpt><trkpt lat="45.5856568" lon="11.4206179"><ele>142.0</ele><time>2026-04-04T12:23:25.805Z</time></trkpt><trkpt lat="45.5856031" lon="11.420566"><ele>142.0</ele><time>2026-04-04T12:23:26.807Z</time></trkpt><trkpt lat="45.5855744" lon="11.4204742"><ele>142.0</ele><time>2026-04-04T12:23:27.805Z</time></trkpt><trkpt lat="45.5855871" lon="11.4203614"><ele>142.0</ele><time>2026-04-04T12:23:28.805Z</time></trkpt><trkpt lat="45.5856387" lon="11.4202404"><ele>142.0</ele><time>2026-04-04T12:23:29.806Z</time></trkpt><trkpt lat="45.5857289" lon="11.4201326"><ele>138.33333333333334</ele><time>2026-04-04T12:23:30.807Z</time></trkpt><trkpt lat="45.5858577" lon="11.4200368"><ele>134.66666666666666</ele><time>2026-04-04T12:23:31.806Z</time></trkpt><trkpt lat="45.5859893" lon="11.4199412"><ele>131.0</ele><time>2026-04-04T12:23:32.806Z</time></trkpt><trkpt lat="45.5861316" lon="11.4198415"><ele>127.66666666666666</ele><time>2026-04-04T12:23:33.806Z</time></trkpt><trkpt lat="45.5862704" lon="11.4197374"><ele>124.33333333333334</ele><time>2026-04-04T12:23:34.805Z</time></trkpt><trkpt lat="45.5864096" lon="11.4196345"><ele>121.0</ele><time>2026-04-04T12:23:35.805Z</time></trkpt><trkpt lat="45.5865534" lon="11.4195356"><ele>121.0</ele><time>2026-04-04T12:23:36.804Z</time></trkpt><trkpt lat="45.586684" lon="11.4194513"><ele>121.0</ele><time>2026-04-04T12:23:37.806Z</time></trkpt><trkpt lat="45.5868118" lon="11.4193726"><ele>121.0</ele><time>2026-04-04T12:23:38.804Z</time></trkpt><trkpt lat="45.586934" lon="11.4192976"><ele>121.0</ele><time>2026-04-04T12:23:39.805Z</time></trkpt><trkpt lat="45.5870501" lon="11.4192281"><ele>122.19999999999999</ele><time>2026-04-04T12:23:40.805Z</time></trkpt><trkpt lat="45.5871518" lon="11.4191622"><ele>123.39999999999999</ele><time>2026-04-04T12:23:41.804Z</time></trkpt><trkpt lat="45.5872397" lon="11.4190865"><ele>124.6</ele><time>2026-04-04T12:23:42.804Z</time></trkpt><trkpt lat="45.5873007" lon="11.418976"><ele>125.8</ele><time>2026-04-04T12:23:43.805Z</time></trkpt><trkpt lat="45.5873323" lon="11.4188251"><ele>127.0</ele><time>2026-04-04T12:23:44.804Z</time></trkpt><trkpt lat="45.5873206" lon="11.4186338"><ele>121.66666666666667</ele><time>2026-04-04T12:23:45.805Z</time></trkpt><trkpt lat="45.5872897" lon="11.4184336"><ele>116.33333333333334</ele><time>2026-04-04T12:23:46.805Z</time></trkpt><trkpt lat="45.5872448" lon="11.4182204"><ele>111.0</ele><time>2026-04-04T12:23:47.804Z</time></trkpt><trkpt lat="45.5872011" lon="11.4180115"><ele>109.8</ele><time>2026-04-04T12:23:48.806Z</time></trkpt><trkpt lat="45.5871632" lon="11.4178212"><ele>108.6</ele><time>2026-04-04T12:23:49.805Z</time></trkpt><trkpt lat="45.5871381" lon="11.4176531"><ele>107.4</ele><time>2026-04-04T12:23:50.806Z</time></trkpt><trkpt lat="45.5871426" lon="11.4175104"><ele>106.2</ele><time>2026-04-04T12:23:51.805Z</time></trkpt><trkpt lat="45.5871816" lon="11.4173956"><ele>105.0</ele><time>2026-04-04T12:23:52.805Z</time></trkpt><trkpt lat="45.5872404" lon="11.4173087"><ele>105.0</ele><time>2026-04-04T12:23:53.805Z</time></trkpt><trkpt lat="45.5872865" lon="11.4171929"><ele>105.0</ele><time>2026-04-04T12:23:54.804Z</time></trkpt><trkpt lat="45.5872996" lon="11.4170543"><ele>105.0</ele><time>2026-04-04T12:23:55.804Z</time></trkpt><trkpt lat="45.5872946" lon="11.41693"><ele>105.0</ele><time>2026-04-04T12:23:56.804Z</time></trkpt><trkpt lat="45.5872865" lon="11.4168083"><ele>105.0</ele><time>2026-04-04T12:23:57.804Z</time></trkpt><trkpt lat="45.5872763" lon="11.4166941"><ele>105.0</ele><time>2026-04-04T12:23:58.806Z</time></trkpt><trkpt lat="45.5872658" lon="11.416602"><ele>103.4</ele><time>2026-04-04T12:23:59.805Z</time></trkpt><trkpt lat="45.5872702" lon="11.4164928"><ele>101.8</ele><time>2026-04-04T12:24:01.805Z</time></trkpt><trkpt lat="45.5873895" lon="11.4164919"><ele>100.19999999999999</ele><time>2026-04-04T12:24:03.805Z</time></trkpt><trkpt lat="45.587491" lon="11.4165146"><ele>98.6</ele><time>2026-04-04T12:24:04.804Z</time></trkpt><trkpt lat="45.5876253" lon="11.4165135"><ele>97.0</ele><time>2026-04-04T12:24:05.806Z</time></trkpt><trkpt lat="45.5877585" lon="11.4164914"><ele>96.75</ele><time>2026-04-04T12:24:06.805Z</time></trkpt><trkpt lat="45.5878838" lon="11.4164651"><ele>96.5</ele><time>2026-04-04T12:24:07.805Z</time></trkpt><trkpt lat="45.5879946" lon="11.416458"><ele>96.25</ele><time>2026-04-04T12:24:08.804Z</time></trkpt><trkpt lat="45.5881078" lon="11.4164659"><ele>96.0</ele><time>2026-04-04T12:24:09.805Z</time></trkpt><trkpt lat="45.5882126" lon="11.4164981"><ele>96.0</ele><time>2026-04-04T12:24:10.805Z</time></trkpt><trkpt lat="45.5883147" lon="11.4165509"><ele>96.0</ele><time>2026-04-04T12:24:11.806Z</time></trkpt><trkpt lat="45.5883932" lon="11.4166189"><ele>96.0</ele><time>2026-04-04T12:24:12.805Z</time></trkpt><trkpt lat="45.5884648" lon="11.4167167"><ele>96.0</ele><time>2026-04-04T12:24:13.804Z</time></trkpt><trkpt lat="45.5885195" lon="11.4168328"><ele>96.0</ele><time>2026-04-04T12:24:14.805Z</time></trkpt><trkpt lat="45.5885781" lon="11.4169406"><ele>96.0</ele><time>2026-04-04T12:24:15.804Z</time></trkpt><trkpt lat="45.5886394" lon="11.4170288"><ele>96.0</ele><time>2026-04-04T12:24:16.805Z</time></trkpt><trkpt lat="45.588704" lon="11.4171016"><ele>96.0</ele><time>2026-04-04T12:24:17.804Z</time></trkpt><trkpt lat="45.5887865" lon="11.4171762"><ele>96.0</ele><time>2026-04-04T12:24:18.806Z</time></trkpt><trkpt lat="45.588876" lon="11.4172364"><ele>96.0</ele><time>2026-04-04T12:24:19.805Z</time></trkpt><trkpt lat="45.5889703" lon="11.4172845"><ele>97.19999999999999</ele><time>2026-04-04T12:24:20.804Z</time></trkpt><trkpt lat="45.5890713" lon="11.4173227"><ele>98.39999999999999</ele><time>2026-04-04T12:24:21.804Z</time></trkpt><trkpt lat="45.5891777" lon="11.4173478"><ele>99.6</ele><time>2026-04-04T12:24:22.804Z</time></trkpt><trkpt lat="45.589285" lon="11.4173605"><ele>100.8</ele><time>2026-04-04T12:24:23.805Z</time></trkpt><trkpt lat="45.5893855" lon="11.417359"><ele>102.0</ele><time>2026-04-04T12:24:24.805Z</time></trkpt><trkpt lat="45.5894676" lon="11.4173462"><ele>102.83333333333333</ele><time>2026-04-04T12:24:25.805Z</time></trkpt><trkpt lat="45.5895405" lon="11.4173344"><ele>103.66666666666666</ele><time>2026-04-04T12:24:26.806Z</time></trkpt><trkpt lat="45.5896166" lon="11.4173143"><ele>104.5</ele><time>2026-04-04T12:24:27.805Z</time></trkpt><trkpt lat="45.5896936" lon="11.4172861"><ele>105.33333333333333</ele><time>2026-04-04T12:24:28.804Z</time></trkpt><trkpt lat="45.5897544" lon="11.4172595"><ele>106.16666666666666</ele><time>2026-04-04T12:24:29.804Z</time></trkpt><trkpt lat="45.5898589" lon="11.4171879"><ele>107.0</ele><time>2026-04-04T12:24:31.804Z</time></trkpt><trkpt lat="45.5899192" lon="11.417136"><ele>103.99999999999999</ele><time>2026-04-04T12:24:32.805Z</time></trkpt><trkpt lat="45.5899851" lon="11.417076"><ele>101.0</ele><time>2026-04-04T12:24:33.804Z</time></trkpt><trkpt lat="45.5900438" lon="11.4170225"><ele>98.0</ele><time>2026-04-04T12:24:34.805Z</time></trkpt><trkpt lat="45.5901025" lon="11.4169753"><ele>95.0</ele><time>2026-04-04T12:24:35.804Z</time></trkpt><trkpt lat="45.5901692" lon="11.4169346"><ele>92.0</ele><time>2026-04-04T12:24:36.804Z</time></trkpt><trkpt lat="45.5902303" lon="11.4168989"><ele>89.0</ele><time>2026-04-04T12:24:37.804Z</time></trkpt><trkpt lat="45.5903079" lon="11.4167967"><ele>90.0</ele><time>2026-04-04T12:24:39.805Z</time></trkpt><trkpt lat="45.5903594" lon="11.4167445"><ele>91.0</ele><time>2026-04-04T12:24:40.806Z</time></trkpt><trkpt lat="45.5904898" lon="11.416686"><ele>92.0</ele><time>2026-04-04T12:24:42.805Z</time></trkpt><trkpt lat="45.5905663" lon="11.4166465"><ele>93.0</ele><time>2026-04-04T12:24:43.804Z</time></trkpt><trkpt lat="45.5906356" lon="11.4166258"><ele>94.0</ele><time>2026-04-04T12:24:44.804Z</time></trkpt><trkpt lat="45.590747" lon="11.4165994"><ele>94.0</ele><time>2026-04-04T12:24:46.806Z</time></trkpt><trkpt lat="45.5908399" lon="11.4164862"><ele>94.0</ele><time>2026-04-04T12:24:48.805Z</time></trkpt><trkpt lat="45.5908761" lon="11.4163911"><ele>94.0</ele><time>2026-04-04T12:24:49.804Z</time></trkpt><trkpt lat="45.5909195" lon="11.4162859"><ele>94.0</ele><time>2026-04-04T12:24:50.805Z</time></trkpt><trkpt lat="45.5909572" lon="11.4161757"><ele>94.0</ele><time>2026-04-04T12:24:51.804Z</time></trkpt><trkpt lat="45.5909919" lon="11.416072"><ele>92.16666666666666</ele><time>2026-04-04T12:24:52.806Z</time></trkpt><trkpt lat="45.5910225" lon="11.4159798"><ele>90.33333333333333</ele><time>2026-04-04T12:24:53.806Z</time></trkpt><trkpt lat="45.5910534" lon="11.4159008"><ele>88.5</ele><time>2026-04-04T12:24:54.805Z</time></trkpt><trkpt lat="45.5911471" lon="11.4157626"><ele>86.66666666666667</ele><time>2026-04-04T12:24:56.805Z</time></trkpt><trkpt lat="45.5912128" lon="11.4156718"><ele>84.83333333333334</ele><time>2026-04-04T12:24:57.805Z</time></trkpt><trkpt lat="45.5912735" lon="11.4155962"><ele>83.0</ele><time>2026-04-04T12:24:58.804Z</time></trkpt><trkpt lat="45.5913453" lon="11.4155346"><ele>81.0</ele><time>2026-04-04T12:24:59.806Z</time></trkpt><trkpt lat="45.5914145" lon="11.4154847"><ele>79.0</ele><time>2026-04-04T12:25:00.806Z</time></trkpt><trkpt lat="45.5915167" lon="11.4154265"><ele>77.0</ele><time>2026-04-04T12:25:02.806Z</time></trkpt><trkpt lat="45.5916224" lon="11.4154015"><ele>75.0</ele><time>2026-04-04T12:25:04.805Z</time></trkpt><trkpt lat="45.5917385" lon="11.4153563"><ele>73.0</ele><time>2026-04-04T12:25:06.806Z</time></trkpt><trkpt lat="45.5918104" lon="11.415276"><ele>73.0</ele><time>2026-04-04T12:25:07.804Z</time></trkpt><trkpt lat="45.5918825" lon="11.4151579"><ele>73.0</ele><time>2026-04-04T12:25:08.805Z</time></trkpt><trkpt lat="45.591936" lon="11.4150473"><ele>73.0</ele><time>2026-04-04T12:25:09.805Z</time></trkpt><trkpt lat="45.5919799" lon="11.4149495"><ele>73.0</ele><time>2026-04-04T12:25:10.805Z</time></trkpt><trkpt lat="45.5920227" lon="11.4148621"><ele>73.0</ele><time>2026-04-04T12:25:11.804Z</time></trkpt><trkpt lat="45.5920847" lon="11.4147948"><ele>73.0</ele><time>2026-04-04T12:25:12.805Z</time></trkpt><trkpt lat="45.5921832" lon="11.4147428"><ele>73.25</ele><time>2026-04-04T12:25:13.805Z</time></trkpt><trkpt lat="45.592311" lon="11.4147127"><ele>73.5</ele><time>2026-04-04T12:25:14.804Z</time></trkpt><trkpt lat="45.5924489" lon="11.4147033"><ele>73.75</ele><time>2026-04-04T12:25:15.805Z</time></trkpt><trkpt lat="45.5925904" lon="11.4146935"><ele>74.0</ele><time>2026-04-04T12:25:16.804Z</time></trkpt><trkpt lat="45.5927215" lon="11.414683"><ele>74.0</ele><time>2026-04-04T12:25:17.804Z</time></trkpt><trkpt lat="45.5928354" lon="11.4146742"><ele>74.0</ele><time>2026-04-04T12:25:18.806Z</time></trkpt><trkpt lat="45.5929323" lon="11.41466"><ele>74.0</ele><time>2026-04-04T12:25:19.805Z</time></trkpt><trkpt lat="45.5930195" lon="11.4146422"><ele>74.0</ele><time>2026-04-04T12:25:20.804Z</time></trkpt><trkpt lat="45.5931067" lon="11.4146297"><ele>74.0</ele><time>2026-04-04T12:25:21.805Z</time></trkpt><trkpt lat="45.5931882" lon="11.4146071"><ele>73.83333333333334</ele><time>2026-04-04T12:25:22.805Z</time></trkpt><trkpt lat="45.5932645" lon="11.4145789"><ele>73.66666666666667</ele><time>2026-04-04T12:25:23.806Z</time></trkpt><trkpt lat="45.5933282" lon="11.4145503"><ele>73.5</ele><time>2026-04-04T12:25:24.805Z</time></trkpt><trkpt lat="45.5934496" lon="11.4145637"><ele>73.33333333333333</ele><time>2026-04-04T12:25:26.804Z</time></trkpt><trkpt lat="45.5935239" lon="11.4145962"><ele>73.16666666666666</ele><time>2026-04-04T12:25:27.805Z</time></trkpt><trkpt lat="45.5936042" lon="11.4146315"><ele>73.0</ele><time>2026-04-04T12:25:28.804Z</time></trkpt><trkpt lat="45.5936857" lon="11.4146646"><ele>73.0</ele><time>2026-04-04T12:25:29.805Z</time></trkpt><trkpt lat="45.5937789" lon="11.4147095"><ele>73.0</ele><time>2026-04-04T12:25:30.805Z</time></trkpt><trkpt lat="45.5938705" lon="11.4147662"><ele>73.0</ele><time>2026-04-04T12:25:31.806Z</time></trkpt><trkpt lat="45.5939497" lon="11.4147822"><ele>73.0</ele><time>2026-04-04T12:25:32.805Z</time></trkpt><trkpt lat="45.594021" lon="11.4147535"><ele>73.0</ele><time>2026-04-04T12:25:33.804Z</time></trkpt><trkpt lat="45.594079" lon="11.4146869"><ele>73.0</ele><time>2026-04-04T12:25:34.804Z</time></trkpt><trkpt lat="45.5941229" lon="11.4145766"><ele>73.0</ele><time>2026-04-04T12:25:35.804Z</time></trkpt><trkpt lat="45.5941499" lon="11.414429"><ele>73.0</ele><time>2026-04-04T12:25:36.805Z</time></trkpt><trkpt lat="45.5941636" lon="11.4142488"><ele>73.0</ele><time>2026-04-04T12:25:37.805Z</time></trkpt><trkpt lat="45.5941746" lon="11.414052"><ele>73.0</ele><time>2026-04-04T12:25:38.804Z</time></trkpt><trkpt lat="45.5941846" lon="11.4138547"><ele>73.2</ele><time>2026-04-04T12:25:39.805Z</time></trkpt><trkpt lat="45.5941982" lon="11.4136566"><ele>73.4</ele><time>2026-04-04T12:25:40.804Z</time></trkpt><trkpt lat="45.5942183" lon="11.4134934"><ele>73.60000000000001</ele><time>2026-04-04T12:25:41.804Z</time></trkpt><trkpt lat="45.5942514" lon="11.4133586"><ele>73.8</ele><time>2026-04-04T12:25:42.805Z</time></trkpt><trkpt lat="45.5942961" lon="11.4132638"><ele>74.0</ele><time>2026-04-04T12:25:43.804Z</time></trkpt><trkpt lat="45.594331" lon="11.4131273"><ele>73.75</ele><time>2026-04-04T12:25:45.805Z</time></trkpt><trkpt lat="45.5942712" lon="11.4129447"><ele>73.5</ele><time>2026-04-04T12:25:47.804Z</time></trkpt><trkpt lat="45.5942066" lon="11.4128215"><ele>73.25</ele><time>2026-04-04T12:25:48.804Z</time></trkpt><trkpt lat="45.5941359" lon="11.4126813"><ele>73.0</ele><time>2026-04-04T12:25:49.805Z</time></trkpt><trkpt lat="45.5940571" lon="11.4125238"><ele>73.0</ele><time>2026-04-04T12:25:50.805Z</time></trkpt><trkpt lat="45.5939647" lon="11.4123656"><ele>73.0</ele><time>2026-04-04T12:25:51.805Z</time></trkpt><trkpt lat="45.5938712" lon="11.4122082"><ele>73.0</ele><time>2026-04-04T12:25:52.805Z</time></trkpt><trkpt lat="45.593772" lon="11.4120523"><ele>73.0</ele><time>2026-04-04T12:25:53.805Z</time></trkpt><trkpt lat="45.5936623" lon="11.4119102"><ele>72.5</ele><time>2026-04-04T12:25:54.806Z</time></trkpt><trkpt lat="45.5935455" lon="11.411797"><ele>72.0</ele><time>2026-04-04T12:25:55.805Z</time></trkpt><trkpt lat="45.5934401" lon="11.4117051"><ele>71.5</ele><time>2026-04-04T12:25:56.805Z</time></trkpt><trkpt lat="45.5933423" lon="11.4116326"><ele>71.0</ele><time>2026-04-04T12:25:57.804Z</time></trkpt><trkpt lat="45.5932398" lon="11.4115752"><ele>71.0</ele><time>2026-04-04T12:25:58.806Z</time></trkpt><trkpt lat="45.5931597" lon="11.4115316"><ele>71.0</ele><time>2026-04-04T12:25:59.805Z</time></trkpt><trkpt lat="45.5930989" lon="11.4114817"><ele>71.0</ele><time>2026-04-04T12:26:00.805Z</time></trkpt><trkpt lat="45.5930559" lon="11.4113765"><ele>71.0</ele><time>2026-04-04T12:26:02.805Z</time></trkpt><trkpt lat="45.5931256" lon="11.4112706"><ele>71.0</ele><time>2026-04-04T12:26:04.805Z</time></trkpt><trkpt lat="45.5932143" lon="11.4112315"><ele>71.0</ele><time>2026-04-04T12:26:05.804Z</time></trkpt><trkpt lat="45.5933252" lon="11.4112282"><ele>72.75</ele><time>2026-04-04T12:26:06.805Z</time></trkpt><trkpt lat="45.5934475" lon="11.4112237"><ele>74.5</ele><time>2026-04-04T12:26:07.806Z</time></trkpt><trkpt lat="45.5935836" lon="11.4112038"><ele>76.25</ele><time>2026-04-04T12:26:08.804Z</time></trkpt><trkpt lat="45.5937242" lon="11.4111795"><ele>78.0</ele><time>2026-04-04T12:26:09.804Z</time></trkpt><trkpt lat="45.5938736" lon="11.4111342"><ele>78.0</ele><time>2026-04-04T12:26:10.804Z</time></trkpt><trkpt lat="45.5940256" lon="11.4110511"><ele>78.0</ele><time>2026-04-04T12:26:11.804Z</time></trkpt><trkpt lat="45.5941761" lon="11.410949"><ele>78.0</ele><time>2026-04-04T12:26:12.806Z</time></trkpt><trkpt lat="45.5943405" lon="11.4108799"><ele>76.33333333333333</ele><time>2026-04-04T12:26:13.805Z</time></trkpt><trkpt lat="45.5945097" lon="11.410833"><ele>74.66666666666666</ele><time>2026-04-04T12:26:14.805Z</time></trkpt><trkpt lat="45.5946783" lon="11.4107845"><ele>73.0</ele><time>2026-04-04T12:26:15.805Z</time></trkpt><trkpt lat="45.5948335" lon="11.4107331"><ele>73.0</ele><time>2026-04-04T12:26:16.805Z</time></trkpt><trkpt lat="45.5949739" lon="11.4106725"><ele>73.0</ele><time>2026-04-04T12:26:17.804Z</time></trkpt><trkpt lat="45.5951159" lon="11.4105711"><ele>73.0</ele><time>2026-04-04T12:26:18.805Z</time></trkpt><trkpt lat="45.5952497" lon="11.4104343"><ele>74.0</ele><time>2026-04-04T12:26:19.805Z</time></trkpt><trkpt lat="45.5953798" lon="11.4102847"><ele>75.0</ele><time>2026-04-04T12:26:20.806Z</time></trkpt><trkpt lat="45.5955087" lon="11.4101455"><ele>76.0</ele><time>2026-04-04T12:26:21.805Z</time></trkpt><trkpt lat="45.595629" lon="11.4100039"><ele>76.0</ele><time>2026-04-04T12:26:22.806Z</time></trkpt><trkpt lat="45.5957497" lon="11.4098698"><ele>76.0</ele><time>2026-04-04T12:26:23.804Z</time></trkpt><trkpt lat="45.5958613" lon="11.4097337"><ele>76.0</ele><time>2026-04-04T12:26:24.805Z</time></trkpt><trkpt lat="45.5959634" lon="11.4095927"><ele>76.0</ele><time>2026-04-04T12:26:25.805Z</time></trkpt><trkpt lat="45.596048" lon="11.4094434"><ele>76.8</ele><time>2026-04-04T12:26:26.805Z</time></trkpt><trkpt lat="45.5961001" lon="11.4092767"><ele>77.6</ele><time>2026-04-04T12:26:27.805Z</time></trkpt><trkpt lat="45.5961372" lon="11.4091428"><ele>78.4</ele><time>2026-04-04T12:26:28.804Z</time></trkpt><trkpt lat="45.5961849" lon="11.4090555"><ele>79.2</ele><time>2026-04-04T12:26:29.804Z</time></trkpt><trkpt lat="45.5962526" lon="11.4089892"><ele>80.0</ele><time>2026-04-04T12:26:30.805Z</time></trkpt><trkpt lat="45.5963543" lon="11.4089399"><ele>80.0</ele><time>2026-04-04T12:26:31.805Z</time></trkpt><trkpt lat="45.5964669" lon="11.4089162"><ele>80.0</ele><time>2026-04-04T12:26:32.804Z</time></trkpt><trkpt lat="45.59659" lon="11.4089028"><ele>80.0</ele><time>2026-04-04T12:26:33.806Z</time></trkpt><trkpt lat="45.5967276" lon="11.4088976"><ele>80.0</ele><time>2026-04-04T12:26:34.805Z</time></trkpt><trkpt lat="45.5968657" lon="11.4089246"><ele>80.0</ele><time>2026-04-04T12:26:35.805Z</time></trkpt><trkpt lat="45.5969988" lon="11.4089732"><ele>80.0</ele><time>2026-04-04T12:26:36.804Z</time></trkpt><trkpt lat="45.5971073" lon="11.4090252"><ele>80.0</ele><time>2026-04-04T12:26:37.805Z</time></trkpt><trkpt lat="45.5972002" lon="11.4090793"><ele>80.0</ele><time>2026-04-04T12:26:38.805Z</time></trkpt><trkpt lat="45.5972648" lon="11.4091429"><ele>80.0</ele><time>2026-04-04T12:26:39.805Z</time></trkpt><trkpt lat="45.5973" lon="11.4092218"><ele>82.8</ele><time>2026-04-04T12:26:40.805Z</time></trkpt><trkpt lat="45.5973128" lon="11.4093291"><ele>85.6</ele><time>2026-04-04T12:26:41.805Z</time></trkpt><trkpt lat="45.5973043" lon="11.4094554"><ele>88.4</ele><time>2026-04-04T12:26:42.804Z</time></trkpt><trkpt lat="45.5972886" lon="11.4095964"><ele>91.2</ele><time>2026-04-04T12:26:43.805Z</time></trkpt><trkpt lat="45.5972714" lon="11.4097675"><ele>94.0</ele><time>2026-04-04T12:26:44.805Z</time></trkpt><trkpt lat="45.597254" lon="11.4099656"><ele>95.5</ele><time>2026-04-04T12:26:45.804Z</time></trkpt><trkpt lat="45.5972288" lon="11.4101787"><ele>97.0</ele><time>2026-04-04T12:26:46.806Z</time></trkpt><trkpt lat="45.5972026" lon="11.4103788"><ele>98.5</ele><time>2026-04-04T12:26:47.804Z</time></trkpt><trkpt lat="45.5971793" lon="11.4105495"><ele>100.0</ele><time>2026-04-04T12:26:48.804Z</time></trkpt><trkpt lat="45.5971599" lon="11.4107197"><ele>100.0</ele><time>2026-04-04T12:26:49.804Z</time></trkpt><trkpt lat="45.5971519" lon="11.4108584"><ele>100.0</ele><time>2026-04-04T12:26:50.806Z</time></trkpt><trkpt lat="45.5971595" lon="11.4109688"><ele>100.0</ele><time>2026-04-04T12:26:51.805Z</time></trkpt><trkpt lat="45.5972398" lon="11.4110969"><ele>100.0</ele><time>2026-04-04T12:26:53.806Z</time></trkpt><trkpt lat="45.597315" lon="11.4111113"><ele>100.0</ele><time>2026-04-04T12:26:54.806Z</time></trkpt><trkpt lat="45.5974177" lon="11.4110969"><ele>100.00000000000001</ele><time>2026-04-04T12:26:55.805Z</time></trkpt><trkpt lat="45.5975184" lon="11.4111048"><ele>100.0</ele><time>2026-04-04T12:26:56.806Z</time></trkpt><trkpt lat="45.5975972" lon="11.4111436"><ele>100.0</ele><time>2026-04-04T12:26:57.804Z</time></trkpt><trkpt lat="45.5976629" lon="11.4111922"><ele>100.0</ele><time>2026-04-04T12:26:58.805Z</time></trkpt><trkpt lat="45.5976986" lon="11.4112855"><ele>100.00000000000001</ele><time>2026-04-04T12:26:59.805Z</time></trkpt><trkpt lat="45.5976952" lon="11.4113914"><ele>100.0</ele><time>2026-04-04T12:27:00.804Z</time></trkpt><trkpt lat="45.597675" lon="11.4115089"><ele>100.6</ele><time>2026-04-04T12:27:01.804Z</time></trkpt><trkpt lat="45.5976932" lon="11.4116438"><ele>101.2</ele><time>2026-04-04T12:27:03.805Z</time></trkpt><trkpt lat="45.5977741" lon="11.4116377"><ele>101.80000000000001</ele><time>2026-04-04T12:27:06.805Z</time></trkpt><trkpt lat="45.5978065" lon="11.4115019"><ele>102.4</ele><time>2026-04-04T12:27:08.804Z</time></trkpt><trkpt lat="45.5978714" lon="11.411369"><ele>103.0</ele><time>2026-04-04T12:27:10.805Z</time></trkpt><trkpt lat="45.5979553" lon="11.4113297"><ele>106.00000000000001</ele><time>2026-04-04T12:27:12.805Z</time></trkpt><trkpt lat="45.5980203" lon="11.4113867"><ele>109.0</ele><time>2026-04-04T12:27:14.806Z</time></trkpt><trkpt lat="45.5980141" lon="11.4114805"><ele>112.0</ele><time>2026-04-04T12:27:15.804Z</time></trkpt><trkpt lat="45.5980503" lon="11.411592"><ele>115.0</ele><time>2026-04-04T12:27:17.806Z</time></trkpt><trkpt lat="45.5980939" lon="11.4116837"><ele>118.00000000000001</ele><time>2026-04-04T12:27:19.806Z</time></trkpt><trkpt lat="45.5981483" lon="11.4117647"><ele>121.0</ele><time>2026-04-04T12:27:21.806Z</time></trkpt><trkpt lat="45.5982091" lon="11.4118436"><ele>121.00000000000001</ele><time>2026-04-04T12:27:23.804Z</time></trkpt><trkpt lat="45.5983145" lon="11.4118516"><ele>121.0</ele><time>2026-04-04T12:27:25.805Z</time></trkpt><trkpt lat="45.598386" lon="11.4118306"><ele>121.0</ele><time>2026-04-04T12:27:26.803Z</time></trkpt><trkpt lat="45.59845" lon="11.4118132"><ele>121.0</ele><time>2026-04-04T12:27:27.805Z</time></trkpt><trkpt lat="45.5985761" lon="11.4118468"><ele>121.00000000000001</ele><time>2026-04-04T12:27:29.805Z</time></trkpt><trkpt lat="45.5986408" lon="11.4118926"><ele>121.0</ele><time>2026-04-04T12:27:30.805Z</time></trkpt><trkpt lat="45.5987009" lon="11.4119694"><ele>122.16666666666667</ele><time>2026-04-04T12:27:31.804Z</time></trkpt><trkpt lat="45.5987652" lon="11.4120461"><ele>123.33333333333334</ele><time>2026-04-04T12:27:32.804Z</time></trkpt><trkpt lat="45.5988259" lon="11.4121187"><ele>124.5</ele><time>2026-04-04T12:27:33.804Z</time></trkpt><trkpt lat="45.5988809" lon="11.4121873"><ele>125.66666666666666</ele><time>2026-04-04T12:27:34.805Z</time></trkpt><trkpt lat="45.5989392" lon="11.4122387"><ele>126.83333333333333</ele><time>2026-04-04T12:27:35.804Z</time></trkpt><trkpt lat="45.5990011" lon="11.4122626"><ele>128.0</ele><time>2026-04-04T12:27:36.804Z</time></trkpt><trkpt lat="45.599082" lon="11.4122868"><ele>128.0</ele><time>2026-04-04T12:27:37.803Z</time></trkpt><trkpt lat="45.5991722" lon="11.4123064"><ele>128.0</ele><time>2026-04-04T12:27:38.803Z</time></trkpt><trkpt lat="45.5992646" lon="11.412319"><ele>128.0</ele><time>2026-04-04T12:27:39.804Z</time></trkpt><trkpt lat="45.5993593" lon="11.4123256"><ele>128.0</ele><time>2026-04-04T12:27:40.804Z</time></trkpt><trkpt lat="45.599447" lon="11.4123417"><ele>128.0</ele><time>2026-04-04T12:27:41.803Z</time></trkpt><trkpt lat="45.5995374" lon="11.4123516"><ele>129.8</ele><time>2026-04-04T12:27:42.803Z</time></trkpt><trkpt lat="45.5996301" lon="11.4123412"><ele>131.60000000000002</ele><time>2026-04-04T12:27:43.803Z</time></trkpt><trkpt lat="45.5997282" lon="11.4123178"><ele>133.39999999999998</ele><time>2026-04-04T12:27:44.804Z</time></trkpt><trkpt lat="45.5998183" lon="11.4122819"><ele>135.2</ele><time>2026-04-04T12:27:45.804Z</time></trkpt><trkpt lat="45.5999132" lon="11.4122341"><ele>137.0</ele><time>2026-04-04T12:27:46.803Z</time></trkpt><trkpt lat="45.600008" lon="11.4121801"><ele>140.79999999999998</ele><time>2026-04-04T12:27:47.805Z</time></trkpt><trkpt lat="45.6001048" lon="11.4121449"><ele>144.6</ele><time>2026-04-04T12:27:48.805Z</time></trkpt><trkpt lat="45.6002044" lon="11.4121147"><ele>148.39999999999998</ele><time>2026-04-04T12:27:49.804Z</time></trkpt><trkpt lat="45.6002968" lon="11.4120989"><ele>152.2</ele><time>2026-04-04T12:27:50.805Z</time></trkpt><trkpt lat="45.6003789" lon="11.412092"><ele>156.0</ele><time>2026-04-04T12:27:51.805Z</time></trkpt><trkpt lat="45.6004674" lon="11.4120825"><ele>157.33333333333334</ele><time>2026-04-04T12:27:52.803Z</time></trkpt><trkpt lat="45.6005594" lon="11.4120649"><ele>158.66666666666666</ele><time>2026-04-04T12:27:53.803Z</time></trkpt><trkpt lat="45.6006547" lon="11.4120363"><ele>160.0</ele><time>2026-04-04T12:27:54.804Z</time></trkpt><trkpt lat="45.6007445" lon="11.4120293"><ele>161.33333333333331</ele><time>2026-04-04T12:27:55.805Z</time></trkpt><trkpt lat="45.600829" lon="11.4120243"><ele>162.66666666666666</ele><time>2026-04-04T12:27:56.804Z</time></trkpt><trkpt lat="45.6009131" lon="11.4120187"><ele>164.0</ele><time>2026-04-04T12:27:57.804Z</time></trkpt><trkpt lat="45.6010172" lon="11.4120082"><ele>164.0</ele><time>2026-04-04T12:27:58.805Z</time></trkpt><trkpt lat="45.6011122" lon="11.4119882"><ele>164.0</ele><time>2026-04-04T12:27:59.803Z</time></trkpt><trkpt lat="45.6012002" lon="11.4119664"><ele>164.0</ele><time>2026-04-04T12:28:00.803Z</time></trkpt><trkpt lat="45.6012837" lon="11.4119305"><ele>164.0</ele><time>2026-04-04T12:28:01.805Z</time></trkpt><trkpt lat="45.6013709" lon="11.4119167"><ele>164.0</ele><time>2026-04-04T12:28:02.804Z</time></trkpt><trkpt lat="45.6014683" lon="11.4119119"><ele>165.0</ele><time>2026-04-04T12:28:03.804Z</time></trkpt><trkpt lat="45.6015649" lon="11.4118954"><ele>166.0</ele><time>2026-04-04T12:28:04.804Z</time></trkpt><trkpt lat="45.6016409" lon="11.4118765"><ele>167.0</ele><time>2026-04-04T12:28:05.804Z</time></trkpt><trkpt lat="45.6017268" lon="11.4118497"><ele>168.0</ele><time>2026-04-04T12:28:06.803Z</time></trkpt><trkpt lat="45.6018295" lon="11.4118131"><ele>169.0</ele><time>2026-04-04T12:28:07.803Z</time></trkpt><trkpt lat="45.6019222" lon="11.4117807"><ele>169.0</ele><time>2026-04-04T12:28:08.803Z</time></trkpt><trkpt lat="45.6019867" lon="11.4117534"><ele>169.0</ele><time>2026-04-04T12:28:09.804Z</time></trkpt><trkpt lat="45.6020766" lon="11.4117267"><ele>169.0</ele><time>2026-04-04T12:28:11.803Z</time></trkpt><trkpt lat="45.6021428" lon="11.4117052"><ele>169.0</ele><time>2026-04-04T12:28:12.803Z</time></trkpt><trkpt lat="45.6022886" lon="11.4116591"><ele>169.0</ele><time>2026-04-04T12:28:14.804Z</time></trkpt><trkpt lat="45.6023547" lon="11.4116418"><ele>169.0</ele><time>2026-04-04T12:28:15.803Z</time></trkpt><trkpt lat="45.6024687" lon="11.411612"><ele>168.5</ele><time>2026-04-04T12:28:17.804Z</time></trkpt><trkpt lat="45.6025413" lon="11.4116112"><ele>168.0</ele><time>2026-04-04T12:28:18.803Z</time></trkpt><trkpt lat="45.6026254" lon="11.4115961"><ele>167.5</ele><time>2026-04-04T12:28:19.803Z</time></trkpt><trkpt lat="45.6027195" lon="11.4115672"><ele>167.0</ele><time>2026-04-04T12:28:20.804Z</time></trkpt><trkpt lat="45.6027993" lon="11.4115268"><ele>166.5</ele><time>2026-04-04T12:28:21.804Z</time></trkpt><trkpt lat="45.6028622" lon="11.4114798"><ele>166.0</ele><time>2026-04-04T12:28:22.805Z</time></trkpt><trkpt lat="45.6029258" lon="11.4114174"><ele>166.66666666666669</ele><time>2026-04-04T12:28:23.805Z</time></trkpt><trkpt lat="45.6029783" lon="11.4113527"><ele>167.33333333333334</ele><time>2026-04-04T12:28:24.804Z</time></trkpt><trkpt lat="45.6030791" lon="11.4112806"><ele>168.0</ele><time>2026-04-04T12:28:26.803Z</time></trkpt><trkpt lat="45.6031912" lon="11.4113504"><ele>168.66666666666666</ele><time>2026-04-04T12:28:28.804Z</time></trkpt><trkpt lat="45.6032482" lon="11.4114012"><ele>169.33333333333331</ele><time>2026-04-04T12:28:29.804Z</time></trkpt><trkpt lat="45.6033188" lon="11.4114405"><ele>170.0</ele><time>2026-04-04T12:28:30.804Z</time></trkpt><trkpt lat="45.6034121" lon="11.4114585"><ele>169.4</ele><time>2026-04-04T12:28:31.804Z</time></trkpt><trkpt lat="45.6035216" lon="11.4114644"><ele>168.8</ele><time>2026-04-04T12:28:32.803Z</time></trkpt><trkpt lat="45.6036269" lon="11.4114551"><ele>168.2</ele><time>2026-04-04T12:28:33.805Z</time></trkpt><trkpt lat="45.6037358" lon="11.4114177"><ele>167.6</ele><time>2026-04-04T12:28:34.803Z</time></trkpt><trkpt lat="45.6038446" lon="11.4113694"><ele>167.0</ele><time>2026-04-04T12:28:35.804Z</time></trkpt><trkpt lat="45.6039332" lon="11.4113107"><ele>167.0</ele><time>2026-04-04T12:28:36.804Z</time></trkpt><trkpt lat="45.6040197" lon="11.4112372"><ele>167.0</ele><time>2026-04-04T12:28:37.803Z</time></trkpt><trkpt lat="45.604109" lon="11.4111662"><ele>167.0</ele><time>2026-04-04T12:28:38.805Z</time></trkpt><trkpt lat="45.6042001" lon="11.4111102"><ele>167.0</ele><time>2026-04-04T12:28:39.803Z</time></trkpt><trkpt lat="45.6042863" lon="11.4110808"><ele>167.0</ele><time>2026-04-04T12:28:40.804Z</time></trkpt><trkpt lat="45.6043565" lon="11.4110668"><ele>167.0</ele><time>2026-04-04T12:28:41.804Z</time></trkpt><trkpt lat="45.6044537" lon="11.411055"><ele>167.0</ele><time>2026-04-04T12:28:43.804Z</time></trkpt><trkpt lat="45.6045034" lon="11.4109187"><ele>167.0</ele><time>2026-04-04T12:28:55.804Z</time></trkpt><trkpt lat="45.6046005" lon="11.410841"><ele>167.0</ele><time>2026-04-04T12:28:57.804Z</time></trkpt><trkpt lat="45.6046717" lon="11.4108098"><ele>167.0</ele><time>2026-04-04T12:28:58.805Z</time></trkpt><trkpt lat="45.6047557" lon="11.4107991"><ele>165.0</ele><time>2026-04-04T12:28:59.803Z</time></trkpt><trkpt lat="45.6048493" lon="11.4108053"><ele>163.0</ele><time>2026-04-04T12:29:00.804Z</time></trkpt><trkpt lat="45.6049364" lon="11.4108024"><ele>161.0</ele><time>2026-04-04T12:29:01.804Z</time></trkpt><trkpt lat="45.6050163" lon="11.4107832"><ele>159.0</ele><time>2026-04-04T12:29:02.804Z</time></trkpt><trkpt lat="45.605109" lon="11.4107498"><ele>157.0</ele><time>2026-04-04T12:29:03.804Z</time></trkpt><trkpt lat="45.6052061" lon="11.4107046"><ele>157.0</ele><time>2026-04-04T12:29:04.803Z</time></trkpt><trkpt lat="45.6053154" lon="11.4106552"><ele>157.0</ele><time>2026-04-04T12:29:05.804Z</time></trkpt><trkpt lat="45.6054423" lon="11.4105979"><ele>157.0</ele><time>2026-04-04T12:29:06.804Z</time></trkpt><trkpt lat="45.605579" lon="11.4105426"><ele>157.0</ele><time>2026-04-04T12:29:07.804Z</time></trkpt><trkpt lat="45.6057271" lon="11.410498"><ele>161.33333333333334</ele><time>2026-04-04T12:29:08.804Z</time></trkpt><trkpt lat="45.6058861" lon="11.4104372"><ele>165.66666666666666</ele><time>2026-04-04T12:29:09.804Z</time></trkpt><trkpt lat="45.6060407" lon="11.4103562"><ele>170.0</ele><time>2026-04-04T12:29:10.805Z</time></trkpt><trkpt lat="45.6061777" lon="11.4102793"><ele>170.0</ele><time>2026-04-04T12:29:11.805Z</time></trkpt><trkpt lat="45.6062933" lon="11.4102126"><ele>170.0</ele><time>2026-04-04T12:29:12.804Z</time></trkpt><trkpt lat="45.6063949" lon="11.410147"><ele>170.0</ele><time>2026-04-04T12:29:13.803Z</time></trkpt><trkpt lat="45.6064904" lon="11.4100687"><ele>170.0</ele><time>2026-04-04T12:29:14.805Z</time></trkpt><trkpt lat="45.606592" lon="11.4099602"><ele>170.0</ele><time>2026-04-04T12:29:15.805Z</time></trkpt><trkpt lat="45.6067009" lon="11.409836"><ele>170.0</ele><time>2026-04-04T12:29:16.805Z</time></trkpt><trkpt lat="45.6068202" lon="11.4097083"><ele>170.0</ele><time>2026-04-04T12:29:17.805Z</time></trkpt><trkpt lat="45.6069372" lon="11.4095923"><ele>170.0</ele><time>2026-04-04T12:29:18.804Z</time></trkpt><trkpt lat="45.6070396" lon="11.4095006"><ele>170.33333333333331</ele><time>2026-04-04T12:29:19.804Z</time></trkpt><trkpt lat="45.607132" lon="11.40942"><ele>170.66666666666666</ele><time>2026-04-04T12:29:20.804Z</time></trkpt><trkpt lat="45.6072134" lon="11.409349"><ele>171.0</ele><time>2026-04-04T12:29:21.805Z</time></trkpt><trkpt lat="45.6072853" lon="11.4092918"><ele>171.33333333333334</ele><time>2026-04-04T12:29:22.804Z</time></trkpt><trkpt lat="45.6073469" lon="11.4092374"><ele>171.66666666666669</ele><time>2026-04-04T12:29:23.805Z</time></trkpt><trkpt lat="45.6073982" lon="11.4091843"><ele>172.0</ele><time>2026-04-04T12:29:24.804Z</time></trkpt><trkpt lat="45.6074848" lon="11.4090944"><ele>172.0</ele><time>2026-04-04T12:29:26.803Z</time></trkpt><trkpt lat="45.6075651" lon="11.4090011"><ele>172.0</ele><time>2026-04-04T12:29:28.804Z</time></trkpt><trkpt lat="45.6076492" lon="11.4089026"><ele>172.0</ele><time>2026-04-04T12:29:30.804Z</time></trkpt><trkpt lat="45.6077306" lon="11.4088135"><ele>172.0</ele><time>2026-04-04T12:29:32.804Z</time></trkpt><trkpt lat="45.607815" lon="11.4087345"><ele>172.0</ele><time>2026-04-04T12:29:34.804Z</time></trkpt><trkpt lat="45.6079112" lon="11.4086751"><ele>174.6</ele><time>2026-04-04T12:29:36.804Z</time></trkpt><trkpt lat="45.6080109" lon="11.4086674"><ele>177.2</ele><time>2026-04-04T12:29:38.803Z</time></trkpt><trkpt lat="45.6081098" lon="11.4086753"><ele>179.8</ele><time>2026-04-04T12:29:40.804Z</time></trkpt><trkpt lat="45.6082046" lon="11.4086315"><ele>182.4</ele><time>2026-04-04T12:29:42.803Z</time></trkpt><trkpt lat="45.6083157" lon="11.4085981"><ele>185.0</ele><time>2026-04-04T12:29:44.803Z</time></trkpt><trkpt lat="45.6084275" lon="11.4085524"><ele>185.0</ele><time>2026-04-04T12:29:46.805Z</time></trkpt><trkpt lat="45.6084888" lon="11.408526"><ele>185.0</ele><time>2026-04-04T12:29:47.803Z</time></trkpt><trkpt lat="45.6085567" lon="11.4084948"><ele>185.0</ele><time>2026-04-04T12:29:48.804Z</time></trkpt><trkpt lat="45.608632" lon="11.4084533"><ele>185.0</ele><time>2026-04-04T12:29:49.803Z</time></trkpt><trkpt lat="45.608715" lon="11.4084086"><ele>185.0</ele><time>2026-04-04T12:29:50.803Z</time></trkpt><trkpt lat="45.6087987" lon="11.4083799"><ele>185.0</ele><time>2026-04-04T12:29:51.803Z</time></trkpt><trkpt lat="45.6088774" lon="11.408339"><ele>185.5</ele><time>2026-04-04T12:29:52.803Z</time></trkpt><trkpt lat="45.6089428" lon="11.4082824"><ele>186.0</ele><time>2026-04-04T12:29:53.804Z</time></trkpt><trkpt lat="45.6090078" lon="11.4082127"><ele>186.5</ele><time>2026-04-04T12:29:54.804Z</time></trkpt><trkpt lat="45.609077" lon="11.4081646"><ele>187.0</ele><time>2026-04-04T12:29:55.805Z</time></trkpt><trkpt lat="45.60915" lon="11.408119"><ele>187.5</ele><time>2026-04-04T12:29:56.804Z</time></trkpt><trkpt lat="45.6092198" lon="11.4080621"><ele>188.0</ele><time>2026-04-04T12:29:57.804Z</time></trkpt><trkpt lat="45.6093138" lon="11.4079869"><ele>188.0</ele><time>2026-04-04T12:29:58.803Z</time></trkpt><trkpt lat="45.609412" lon="11.4079121"><ele>188.0</ele><time>2026-04-04T12:29:59.804Z</time></trkpt><trkpt lat="45.6095077" lon="11.407827"><ele>188.0</ele><time>2026-04-04T12:30:00.803Z</time></trkpt><trkpt lat="45.6095865" lon="11.4077434"><ele>188.0</ele><time>2026-04-04T12:30:01.804Z</time></trkpt><trkpt lat="45.60966" lon="11.4076749"><ele>188.0</ele><time>2026-04-04T12:30:02.803Z</time></trkpt><trkpt lat="45.60974" lon="11.4076056"><ele>184.0</ele><time>2026-04-04T12:30:03.804Z</time></trkpt><trkpt lat="45.6098499" lon="11.4075793"><ele>180.0</ele><time>2026-04-04T12:30:04.803Z</time></trkpt><trkpt lat="45.6099544" lon="11.4075462"><ele>176.0</ele><time>2026-04-04T12:30:05.803Z</time></trkpt><trkpt lat="45.6100517" lon="11.4075247"><ele>172.0</ele><time>2026-04-04T12:30:06.803Z</time></trkpt><trkpt lat="45.6101456" lon="11.4074846"><ele>168.0</ele><time>2026-04-04T12:30:07.804Z</time></trkpt><trkpt lat="45.6102248" lon="11.4074302"><ele>168.0</ele><time>2026-04-04T12:30:08.804Z</time></trkpt><trkpt lat="45.610311" lon="11.4073786"><ele>168.0</ele><time>2026-04-04T12:30:09.803Z</time></trkpt><trkpt lat="45.6103813" lon="11.4073149"><ele>168.0</ele><time>2026-04-04T12:30:10.803Z</time></trkpt><trkpt lat="45.6104536" lon="11.4072697"><ele>168.0</ele><time>2026-04-04T12:30:11.803Z</time></trkpt><trkpt lat="45.6105246" lon="11.4072395"><ele>168.0</ele><time>2026-04-04T12:30:12.805Z</time></trkpt><trkpt lat="45.6106127" lon="11.4072672"><ele>168.0</ele><time>2026-04-04T12:30:13.804Z</time></trkpt><trkpt lat="45.610701" lon="11.407289"><ele>164.0</ele><time>2026-04-04T12:30:14.803Z</time></trkpt><trkpt lat="45.6108052" lon="11.4073626"><ele>160.0</ele><time>2026-04-04T12:30:16.805Z</time></trkpt><trkpt lat="45.6108574" lon="11.4075225"><ele>156.0</ele><time>2026-04-04T12:30:18.805Z</time></trkpt><trkpt lat="45.6108801" lon="11.4076499"><ele>152.0</ele><time>2026-04-04T12:30:19.804Z</time></trkpt><trkpt lat="45.610901" lon="11.407826"><ele>152.0</ele><time>2026-04-04T12:30:21.804Z</time></trkpt><trkpt lat="45.6108824" lon="11.4079277"><ele>152.0</ele><time>2026-04-04T12:30:22.805Z</time></trkpt><trkpt lat="45.6108518" lon="11.4080532"><ele>152.0</ele><time>2026-04-04T12:30:23.804Z</time></trkpt><trkpt lat="45.6108255" lon="11.4081701"><ele>152.0</ele><time>2026-04-04T12:30:24.805Z</time></trkpt><trkpt lat="45.6108031" lon="11.4082909"><ele>152.0</ele><time>2026-04-04T12:30:25.804Z</time></trkpt><trkpt lat="45.6107925" lon="11.4083883"><ele>152.0</ele><time>2026-04-04T12:30:26.804Z</time></trkpt><trkpt lat="45.610773" lon="11.4085102"><ele>151.2</ele><time>2026-04-04T12:30:27.804Z</time></trkpt><trkpt lat="45.6107603" lon="11.408625"><ele>150.39999999999998</ele><time>2026-04-04T12:30:28.805Z</time></trkpt><trkpt lat="45.6107822" lon="11.4087733"><ele>149.60000000000002</ele><time>2026-04-04T12:30:30.805Z</time></trkpt><trkpt lat="45.6108498" lon="11.4088856"><ele>148.8</ele><time>2026-04-04T12:30:32.805Z</time></trkpt><trkpt lat="45.6109685" lon="11.4089355"><ele>148.0</ele><time>2026-04-04T12:30:34.804Z</time></trkpt><trkpt lat="45.6110498" lon="11.4089991"><ele>148.0</ele><time>2026-04-04T12:30:35.805Z</time></trkpt><trkpt lat="45.6111134" lon="11.4090533"><ele>148.0</ele><time>2026-04-04T12:30:36.803Z</time></trkpt><trkpt lat="45.611163" lon="11.4091103"><ele>148.0</ele><time>2026-04-04T12:30:37.803Z</time></trkpt><trkpt lat="45.6111885" lon="11.4092009"><ele>148.0</ele><time>2026-04-04T12:30:38.804Z</time></trkpt><trkpt lat="45.6111919" lon="11.4093763"><ele>148.0</ele><time>2026-04-04T12:30:40.804Z</time></trkpt><trkpt lat="45.6111711" lon="11.4095247"><ele>148.0</ele><time>2026-04-04T12:30:41.803Z</time></trkpt><trkpt lat="45.6111491" lon="11.4096507"><ele>149.6</ele><time>2026-04-04T12:30:42.804Z</time></trkpt><trkpt lat="45.6111129" lon="11.4097618"><ele>151.20000000000002</ele><time>2026-04-04T12:30:43.805Z</time></trkpt><trkpt lat="45.6110275" lon="11.4098285"><ele>152.8</ele><time>2026-04-04T12:30:44.804Z</time></trkpt><trkpt lat="45.6109482" lon="11.4098883"><ele>154.4</ele><time>2026-04-04T12:30:45.804Z</time></trkpt><trkpt lat="45.6108691" lon="11.4099576"><ele>156.0</ele><time>2026-04-04T12:30:46.804Z</time></trkpt><trkpt lat="45.6107894" lon="11.4100368"><ele>156.0</ele><time>2026-04-04T12:30:47.804Z</time></trkpt><trkpt lat="45.610716" lon="11.410131"><ele>156.0</ele><time>2026-04-04T12:30:48.805Z</time></trkpt><trkpt lat="45.6106443" lon="11.4102203"><ele>156.0</ele><time>2026-04-04T12:30:49.804Z</time></trkpt><trkpt lat="45.6105857" lon="11.4102983"><ele>156.0</ele><time>2026-04-04T12:30:50.803Z</time></trkpt><trkpt lat="45.6105399" lon="11.4103746"><ele>156.0</ele><time>2026-04-04T12:30:51.804Z</time></trkpt><trkpt lat="45.610503" lon="11.4104591"><ele>156.0</ele><time>2026-04-04T12:30:52.803Z</time></trkpt><trkpt lat="45.6104519" lon="11.4106157"><ele>157.4</ele><time>2026-04-04T12:30:54.804Z</time></trkpt><trkpt lat="45.610414" lon="11.4107812"><ele>158.8</ele><time>2026-04-04T12:30:56.803Z</time></trkpt><trkpt lat="45.6104049" lon="11.4108754"><ele>160.20000000000002</ele><time>2026-04-04T12:30:57.804Z</time></trkpt><trkpt lat="45.6103981" lon="11.4109667"><ele>161.6</ele><time>2026-04-04T12:30:58.804Z</time></trkpt><trkpt lat="45.6103932" lon="11.4111389"><ele>163.0</ele><time>2026-04-04T12:31:00.805Z</time></trkpt><trkpt lat="45.610428" lon="11.4113122"><ele>163.42857142857144</ele><time>2026-04-04T12:31:02.804Z</time></trkpt><trkpt lat="45.6104552" lon="11.4113954"><ele>163.85714285714283</ele><time>2026-04-04T12:31:03.804Z</time></trkpt><trkpt lat="45.6104702" lon="11.4114855"><ele>164.28571428571428</ele><time>2026-04-04T12:31:04.804Z</time></trkpt><trkpt lat="45.6104719" lon="11.4115794"><ele>164.71428571428572</ele><time>2026-04-04T12:31:05.804Z</time></trkpt><trkpt lat="45.6104498" lon="11.4116754"><ele>165.14285714285717</ele><time>2026-04-04T12:31:06.804Z</time></trkpt><trkpt lat="45.6104104" lon="11.4117599"><ele>165.57142857142856</ele><time>2026-04-04T12:31:07.803Z</time></trkpt><trkpt lat="45.6103626" lon="11.4118287"><ele>166.0</ele><time>2026-04-04T12:31:08.805Z</time></trkpt><trkpt lat="45.6103076" lon="11.4118808"><ele>166.0</ele><time>2026-04-04T12:31:09.805Z</time></trkpt><trkpt lat="45.6102142" lon="11.4119593"><ele>166.0</ele><time>2026-04-04T12:31:11.803Z</time></trkpt><trkpt lat="45.6102305" lon="11.4120741"><ele>166.0</ele><time>2026-04-04T12:31:14.803Z</time></trkpt><trkpt lat="45.6103606" lon="11.4121291"><ele>166.0</ele><time>2026-04-04T12:31:16.803Z</time></trkpt><trkpt lat="45.6104221" lon="11.4122"><ele>166.0</ele><time>2026-04-04T12:31:17.804Z</time></trkpt><trkpt lat="45.6104545" lon="11.4122976"><ele>166.8</ele><time>2026-04-04T12:31:18.803Z</time></trkpt><trkpt lat="45.6104471" lon="11.4124215"><ele>167.60000000000002</ele><time>2026-04-04T12:31:19.803Z</time></trkpt><trkpt lat="45.6103994" lon="11.4125335"><ele>168.4</ele><time>2026-04-04T12:31:20.802Z</time></trkpt><trkpt lat="45.6103072" lon="11.4126185"><ele>169.2</ele><time>2026-04-04T12:31:21.803Z</time></trkpt><trkpt lat="45.6101953" lon="11.4126853"><ele>170.0</ele><time>2026-04-04T12:31:22.802Z</time></trkpt><trkpt lat="45.6100588" lon="11.4127337"><ele>168.0</ele><time>2026-04-04T12:31:23.803Z</time></trkpt><trkpt lat="45.6099223" lon="11.4127945"><ele>166.0</ele><time>2026-04-04T12:31:24.803Z</time></trkpt><trkpt lat="45.609779" lon="11.4128582"><ele>164.0</ele><time>2026-04-04T12:31:25.803Z</time></trkpt><trkpt lat="45.6096426" lon="11.4129132"><ele>162.0</ele><time>2026-04-04T12:31:26.804Z</time></trkpt><trkpt lat="45.6095343" lon="11.4129731"><ele>164.5</ele><time>2026-04-04T12:31:27.802Z</time></trkpt><trkpt lat="45.6094432" lon="11.4130575"><ele>167.0</ele><time>2026-04-04T12:31:28.803Z</time></trkpt><trkpt lat="45.6093584" lon="11.4131864"><ele>169.5</ele><time>2026-04-04T12:31:29.802Z</time></trkpt><trkpt lat="45.6092794" lon="11.4133303"><ele>172.0</ele><time>2026-04-04T12:31:30.802Z</time></trkpt><trkpt lat="45.6091897" lon="11.4134695"><ele>172.0</ele><time>2026-04-04T12:31:31.802Z</time></trkpt><trkpt lat="45.6091177" lon="11.4135669"><ele>172.0</ele><time>2026-04-04T12:31:32.803Z</time></trkpt><trkpt lat="45.609073" lon="11.4136549"><ele>172.0</ele><time>2026-04-04T12:31:33.803Z</time></trkpt><trkpt lat="45.6091071" lon="11.4137726"><ele>172.0</ele><time>2026-04-04T12:31:35.803Z</time></trkpt><trkpt lat="45.6092335" lon="11.4136674"><ele>172.0</ele><time>2026-04-04T12:31:37.802Z</time></trkpt><trkpt lat="45.6092998" lon="11.4135633"><ele>172.0</ele><time>2026-04-04T12:31:38.803Z</time></trkpt><trkpt lat="45.6093804" lon="11.4134875"><ele>172.0</ele><time>2026-04-04T12:31:39.802Z</time></trkpt><trkpt lat="45.6094673" lon="11.4134398"><ele>172.0</ele><time>2026-04-04T12:31:40.802Z</time></trkpt><trkpt lat="45.6095658" lon="11.4134356"><ele>172.0</ele><time>2026-04-04T12:31:41.803Z</time></trkpt><trkpt lat="45.6096746" lon="11.4134505"><ele>172.0</ele><time>2026-04-04T12:31:42.803Z</time></trkpt><trkpt lat="45.6097916" lon="11.4134706"><ele>174.25</ele><time>2026-04-04T12:31:43.803Z</time></trkpt><trkpt lat="45.6099147" lon="11.4135016"><ele>176.5</ele><time>2026-04-04T12:31:44.803Z</time></trkpt><trkpt lat="45.610043" lon="11.4135315"><ele>178.75</ele><time>2026-04-04T12:31:45.802Z</time></trkpt><trkpt lat="45.6101688" lon="11.4135634"><ele>181.0</ele><time>2026-04-04T12:31:46.803Z</time></trkpt><trkpt lat="45.6102744" lon="11.4135834"><ele>181.0</ele><time>2026-04-04T12:31:47.802Z</time></trkpt><trkpt lat="45.6103536" lon="11.413616"><ele>181.0</ele><time>2026-04-04T12:31:48.804Z</time></trkpt><trkpt lat="45.6103982" lon="11.4136844"><ele>181.0</ele><time>2026-04-04T12:31:49.803Z</time></trkpt><trkpt lat="45.610393" lon="11.4138306"><ele>181.0</ele><time>2026-04-04T12:31:51.803Z</time></trkpt><trkpt lat="45.6102619" lon="11.4138451"><ele>181.0</ele><time>2026-04-04T12:31:53.802Z</time></trkpt><trkpt lat="45.610152" lon="11.413784"><ele>181.0</ele><time>2026-04-04T12:31:54.802Z</time></trkpt><trkpt lat="45.610039" lon="11.4137383"><ele>181.0</ele><time>2026-04-04T12:31:55.802Z</time></trkpt><trkpt lat="45.6099407" lon="11.4137154"><ele>181.0</ele><time>2026-04-04T12:31:56.802Z</time></trkpt><trkpt lat="45.609854" lon="11.4137233"><ele>181.0</ele><time>2026-04-04T12:31:57.802Z</time></trkpt><trkpt lat="45.6097904" lon="11.4137816"><ele>181.0</ele><time>2026-04-04T12:31:58.802Z</time></trkpt><trkpt lat="45.6097649" lon="11.4138756"><ele>183.8</ele><time>2026-04-04T12:31:59.802Z</time></trkpt><trkpt lat="45.6097934" lon="11.4139676"><ele>186.60000000000002</ele><time>2026-04-04T12:32:00.803Z</time></trkpt><trkpt lat="45.6098604" lon="11.4140357"><ele>189.4</ele><time>2026-04-04T12:32:01.802Z</time></trkpt><trkpt lat="45.6099674" lon="11.4140585"><ele>192.2</ele><time>2026-04-04T12:32:02.802Z</time></trkpt><trkpt lat="45.6101023" lon="11.414061"><ele>195.0</ele><time>2026-04-04T12:32:03.804Z</time></trkpt><trkpt lat="45.6102523" lon="11.4140614"><ele>198.66666666666669</ele><time>2026-04-04T12:32:04.804Z</time></trkpt><trkpt lat="45.6104237" lon="11.4140836"><ele>202.33333333333334</ele><time>2026-04-04T12:32:05.803Z</time></trkpt><trkpt lat="45.6106022" lon="11.4140775"><ele>206.0</ele><time>2026-04-04T12:32:06.803Z</time></trkpt><trkpt lat="45.6107771" lon="11.4140165"><ele>206.0</ele><time>2026-04-04T12:32:07.803Z</time></trkpt><trkpt lat="45.6109121" lon="11.4139274"><ele>206.0</ele><time>2026-04-04T12:32:08.802Z</time></trkpt><trkpt lat="45.6110243" lon="11.4138441"><ele>206.0</ele><time>2026-04-04T12:32:09.803Z</time></trkpt><trkpt lat="45.6111155" lon="11.4137932"><ele>206.0</ele><time>2026-04-04T12:32:10.803Z</time></trkpt><trkpt lat="45.611194" lon="11.4137872"><ele>205.60000000000002</ele><time>2026-04-04T12:32:11.803Z</time></trkpt><trkpt lat="45.6112797" lon="11.4137928"><ele>205.2</ele><time>2026-04-04T12:32:12.803Z</time></trkpt><trkpt lat="45.611362" lon="11.4138577"><ele>204.8</ele><time>2026-04-04T12:32:13.803Z</time></trkpt><trkpt lat="45.6114602" lon="11.4140152"><ele>204.39999999999998</ele><time>2026-04-04T12:32:14.803Z</time></trkpt><trkpt lat="45.6115674" lon="11.4140746"><ele>204.0</ele><time>2026-04-04T12:32:15.803Z</time></trkpt><trkpt lat="45.6116697" lon="11.4140823"><ele>204.0</ele><time>2026-04-04T12:32:16.804Z</time></trkpt><trkpt lat="45.6117505" lon="11.4140323"><ele>204.0</ele><time>2026-04-04T12:32:17.803Z</time></trkpt><trkpt lat="45.6118216" lon="11.4139197"><ele>204.0</ele><time>2026-04-04T12:32:18.802Z</time></trkpt><trkpt lat="45.6118596" lon="11.4137461"><ele>204.0</ele><time>2026-04-04T12:32:19.802Z</time></trkpt><trkpt lat="45.6118979" lon="11.4135732"><ele>204.0</ele><time>2026-04-04T12:32:20.803Z</time></trkpt><trkpt lat="45.6119714" lon="11.4134142"><ele>210.25</ele><time>2026-04-04T12:32:21.803Z</time></trkpt><trkpt lat="45.612041" lon="11.4132864"><ele>216.5</ele><time>2026-04-04T12:32:22.802Z</time></trkpt><trkpt lat="45.6121266" lon="11.4131699"><ele>222.75</ele><time>2026-04-04T12:32:23.804Z</time></trkpt><trkpt lat="45.6122267" lon="11.4130782"><ele>229.0</ele><time>2026-04-04T12:32:24.803Z</time></trkpt><trkpt lat="45.6123288" lon="11.4129938"><ele>226.75</ele><time>2026-04-04T12:32:25.803Z</time></trkpt><trkpt lat="45.6124417" lon="11.4129223"><ele>224.5</ele><time>2026-04-04T12:32:26.803Z</time></trkpt><trkpt lat="45.6125601" lon="11.4128395"><ele>222.25</ele><time>2026-04-04T12:32:27.803Z</time></trkpt><trkpt lat="45.612686" lon="11.4127292"><ele>220.0</ele><time>2026-04-04T12:32:28.803Z</time></trkpt><trkpt lat="45.612804" lon="11.412596"><ele>224.66666666666666</ele><time>2026-04-04T12:32:29.803Z</time></trkpt><trkpt lat="45.6129169" lon="11.4124417"><ele>229.33333333333331</ele><time>2026-04-04T12:32:30.803Z</time></trkpt><trkpt lat="45.6129983" lon="11.4122368"><ele>234.0</ele><time>2026-04-04T12:32:31.803Z</time></trkpt><trkpt lat="45.613066" lon="11.4120317"><ele>234.0</ele><time>2026-04-04T12:32:32.802Z</time></trkpt><trkpt lat="45.613121" lon="11.4118492"><ele>233.99999999999997</ele><time>2026-04-04T12:32:33.802Z</time></trkpt><trkpt lat="45.6131674" lon="11.4117062"><ele>233.99999999999997</ele><time>2026-04-04T12:32:34.802Z</time></trkpt><trkpt lat="45.6132206" lon="11.4116168"><ele>234.0</ele><time>2026-04-04T12:32:35.803Z</time></trkpt><trkpt lat="45.6132961" lon="11.4115783"><ele>234.0</ele><time>2026-04-04T12:32:36.803Z</time></trkpt><trkpt lat="45.6133938" lon="11.4115657"><ele>234.0</ele><time>2026-04-04T12:32:37.804Z</time></trkpt><trkpt lat="45.6134914" lon="11.4115333"><ele>233.99999999999997</ele><time>2026-04-04T12:32:38.803Z</time></trkpt><trkpt lat="45.6135795" lon="11.4114929"><ele>233.99999999999997</ele><time>2026-04-04T12:32:39.803Z</time></trkpt><trkpt lat="45.6136835" lon="11.4114321"><ele>234.0</ele><time>2026-04-04T12:32:40.803Z</time></trkpt><trkpt lat="45.6137657" lon="11.4113487"><ele>234.0</ele><time>2026-04-04T12:32:41.803Z</time></trkpt><trkpt lat="45.6138685" lon="11.4112929"><ele>237.25</ele><time>2026-04-04T12:32:42.803Z</time></trkpt><trkpt lat="45.6139894" lon="11.4112277"><ele>240.5</ele><time>2026-04-04T12:32:43.804Z</time></trkpt><trkpt lat="45.6140992" lon="11.4111609"><ele>243.75</ele><time>2026-04-04T12:32:44.802Z</time></trkpt><trkpt lat="45.6142168" lon="11.4110873"><ele>247.0</ele><time>2026-04-04T12:32:45.803Z</time></trkpt><trkpt lat="45.6142813" lon="11.410958"><ele>247.0</ele><time>2026-04-04T12:32:46.803Z</time></trkpt><trkpt lat="45.6143732" lon="11.4108132"><ele>247.0</ele><time>2026-04-04T12:32:47.803Z</time></trkpt><trkpt lat="45.6144706" lon="11.4106243"><ele>247.0</ele><time>2026-04-04T12:32:48.804Z</time></trkpt><trkpt lat="45.6145762" lon="11.4104219"><ele>258.66666666666663</ele><time>2026-04-04T12:32:49.802Z</time></trkpt><trkpt lat="45.6146713" lon="11.4102342"><ele>270.3333333333333</ele><time>2026-04-04T12:32:50.802Z</time></trkpt><trkpt lat="45.6147505" lon="11.4100339"><ele>282.0</ele><time>2026-04-04T12:32:51.802Z</time></trkpt><trkpt lat="45.6148293" lon="11.4098327"><ele>278.3333333333333</ele><time>2026-04-04T12:32:52.803Z</time></trkpt><trkpt lat="45.6148931" lon="11.4096348"><ele>274.66666666666663</ele><time>2026-04-04T12:32:53.802Z</time></trkpt><trkpt lat="45.6149423" lon="11.4094197"><ele>271.0</ele><time>2026-04-04T12:32:54.803Z</time></trkpt><trkpt lat="45.6149821" lon="11.4092093"><ele>271.0</ele><time>2026-04-04T12:32:55.804Z</time></trkpt><trkpt lat="45.6150217" lon="11.4090002"><ele>271.0</ele><time>2026-04-04T12:32:56.802Z</time></trkpt><trkpt lat="45.6150773" lon="11.4087608"><ele>271.0</ele><time>2026-04-04T12:32:57.802Z</time></trkpt><trkpt lat="45.6151284" lon="11.4085443"><ele>270.0</ele><time>2026-04-04T12:32:58.803Z</time></trkpt><trkpt lat="45.6151793" lon="11.408327"><ele>269.0</ele><time>2026-04-04T12:32:59.803Z</time></trkpt><trkpt lat="45.6152204" lon="11.4081004"><ele>268.0</ele><time>2026-04-04T12:33:00.803Z</time></trkpt><trkpt lat="45.61526" lon="11.4078699"><ele>268.0</ele><time>2026-04-04T12:33:01.803Z</time></trkpt><trkpt lat="45.6152898" lon="11.4076665"><ele>268.0</ele><time>2026-04-04T12:33:02.803Z</time></trkpt><trkpt lat="45.6153243" lon="11.4074503"><ele>268.0</ele><time>2026-04-04T12:33:03.803Z</time></trkpt><trkpt lat="45.6153392" lon="11.4072037"><ele>279.25</ele><time>2026-04-04T12:33:04.802Z</time></trkpt><trkpt lat="45.6153558" lon="11.4069983"><ele>290.5</ele><time>2026-04-04T12:33:05.802Z</time></trkpt><trkpt lat="45.6153781" lon="11.4067978"><ele>301.75</ele><time>2026-04-04T12:33:06.803Z</time></trkpt><trkpt lat="45.615358" lon="11.4066546"><ele>313.0</ele><time>2026-04-04T12:33:07.803Z</time></trkpt><trkpt lat="45.6153597" lon="11.4064893"><ele>312.4</ele><time>2026-04-04T12:33:08.804Z</time></trkpt><trkpt lat="45.6152643" lon="11.4063918"><ele>311.8</ele><time>2026-04-04T12:33:09.803Z</time></trkpt><trkpt lat="45.6151982" lon="11.4062991"><ele>311.2</ele><time>2026-04-04T12:33:10.803Z</time></trkpt><trkpt lat="45.61511" lon="11.406221"><ele>310.6</ele><time>2026-04-04T12:33:11.803Z</time></trkpt><trkpt lat="45.6150106" lon="11.4061739"><ele>310.0</ele><time>2026-04-04T12:33:12.802Z</time></trkpt><trkpt lat="45.614891" lon="11.4061164"><ele>310.0</ele><time>2026-04-04T12:33:13.803Z</time></trkpt><trkpt lat="45.614752" lon="11.4061131"><ele>310.0</ele><time>2026-04-04T12:33:14.803Z</time></trkpt><trkpt lat="45.6146589" lon="11.4060875"><ele>310.0</ele><time>2026-04-04T12:33:15.803Z</time></trkpt><trkpt lat="45.6145748" lon="11.4060493"><ele>310.0</ele><time>2026-04-04T12:33:16.803Z</time></trkpt><trkpt lat="45.6144826" lon="11.4059675"><ele>310.0</ele><time>2026-04-04T12:33:17.803Z</time></trkpt><trkpt lat="45.6143984" lon="11.4058667"><ele>311.4</ele><time>2026-04-04T12:33:18.804Z</time></trkpt><trkpt lat="45.6143191" lon="11.405751"><ele>312.8</ele><time>2026-04-04T12:33:19.802Z</time></trkpt><trkpt lat="45.6142416" lon="11.4056505"><ele>314.2</ele><time>2026-04-04T12:33:20.803Z</time></trkpt><trkpt lat="45.6141717" lon="11.4055429"><ele>315.6</ele><time>2026-04-04T12:33:21.804Z</time></trkpt><trkpt lat="45.6141249" lon="11.4054025"><ele>317.0</ele><time>2026-04-04T12:33:22.803Z</time></trkpt><trkpt lat="45.6140793" lon="11.4052386"><ele>317.0</ele><time>2026-04-04T12:33:23.804Z</time></trkpt><trkpt lat="45.6140332" lon="11.4050714"><ele>317.0</ele><time>2026-04-04T12:33:24.802Z</time></trkpt><trkpt lat="45.6139968" lon="11.4048843"><ele>317.0</ele><time>2026-04-04T12:33:25.803Z</time></trkpt><trkpt lat="45.6139534" lon="11.4046955"><ele>317.0</ele><time>2026-04-04T12:33:26.804Z</time></trkpt><trkpt lat="45.6138886" lon="11.4045017"><ele>322.75</ele><time>2026-04-04T12:33:27.803Z</time></trkpt><trkpt lat="45.61382" lon="11.4043153"><ele>328.5</ele><time>2026-04-04T12:33:28.803Z</time></trkpt><trkpt lat="45.6137587" lon="11.4041368"><ele>334.25</ele><time>2026-04-04T12:33:29.803Z</time></trkpt><trkpt lat="45.6137089" lon="11.4039716"><ele>340.0</ele><time>2026-04-04T12:33:30.804Z</time></trkpt><trkpt lat="45.6136786" lon="11.4038034"><ele>338.2</ele><time>2026-04-04T12:33:31.803Z</time></trkpt><trkpt lat="45.6136622" lon="11.4036271"><ele>336.4</ele><time>2026-04-04T12:33:32.803Z</time></trkpt><trkpt lat="45.6136485" lon="11.4034594"><ele>334.6</ele><time>2026-04-04T12:33:33.803Z</time></trkpt><trkpt lat="45.6136286" lon="11.4033308"><ele>332.8</ele><time>2026-04-04T12:33:34.802Z</time></trkpt><trkpt lat="45.6135957" lon="11.4032408"><ele>331.0</ele><time>2026-04-04T12:33:35.802Z</time></trkpt><trkpt lat="45.6135385" lon="11.4031868"><ele>331.0</ele><time>2026-04-04T12:33:36.802Z</time></trkpt><trkpt lat="45.6134686" lon="11.4031412"><ele>331.0</ele><time>2026-04-04T12:33:37.804Z</time></trkpt><trkpt lat="45.6133689" lon="11.4031454"><ele>331.0</ele><time>2026-04-04T12:33:38.802Z</time></trkpt><trkpt lat="45.6132526" lon="11.4031712"><ele>331.0</ele><time>2026-04-04T12:33:39.803Z</time></trkpt><trkpt lat="45.6131379" lon="11.4032028"><ele>331.0</ele><time>2026-04-04T12:33:40.802Z</time></trkpt><trkpt lat="45.613041" lon="11.4032266"><ele>331.0</ele><time>2026-04-04T12:33:41.802Z</time></trkpt><trkpt lat="45.6129785" lon="11.4032157"><ele>331.0</ele><time>2026-04-04T12:33:42.802Z</time></trkpt><trkpt lat="45.6128727" lon="11.4030695"><ele>331.0</ele><time>2026-04-04T12:33:44.802Z</time></trkpt><trkpt lat="45.6127973" lon="11.4029559"><ele>331.0</ele><time>2026-04-04T12:33:45.803Z</time></trkpt><trkpt lat="45.6127082" lon="11.4028412"><ele>331.0</ele><time>2026-04-04T12:33:46.803Z</time></trkpt><trkpt lat="45.6126104" lon="11.402721"><ele>335.25</ele><time>2026-04-04T12:33:47.802Z</time></trkpt><trkpt lat="45.6125021" lon="11.4026039"><ele>339.5</ele><time>2026-04-04T12:33:48.803Z</time></trkpt><trkpt lat="45.612393" lon="11.4024948"><ele>343.75</ele><time>2026-04-04T12:33:49.804Z</time></trkpt><trkpt lat="45.612289" lon="11.4023893"><ele>348.0</ele><time>2026-04-04T12:33:50.802Z</time></trkpt><trkpt lat="45.61221" lon="11.4022993"><ele>348.0</ele><time>2026-04-04T12:33:51.803Z</time></trkpt><trkpt lat="45.6121535" lon="11.4022404"><ele>348.0</ele><time>2026-04-04T12:33:52.803Z</time></trkpt><trkpt lat="45.6120215" lon="11.4022467"><ele>348.0</ele><time>2026-04-04T12:33:54.803Z</time></trkpt><trkpt lat="45.6119421" lon="11.4023091"><ele>348.0</ele><time>2026-04-04T12:33:55.804Z</time></trkpt><trkpt lat="45.6118647" lon="11.4024031"><ele>348.0</ele><time>2026-04-04T12:33:56.802Z</time></trkpt><trkpt lat="45.6117832" lon="11.4025586"><ele>349.4</ele><time>2026-04-04T12:33:57.802Z</time></trkpt><trkpt lat="45.6117035" lon="11.4026875"><ele>350.79999999999995</ele><time>2026-04-04T12:33:58.803Z</time></trkpt><trkpt lat="45.6116305" lon="11.4027871"><ele>352.2</ele><time>2026-04-04T12:33:59.802Z</time></trkpt><trkpt lat="45.6115432" lon="11.4028689"><ele>353.6</ele><time>2026-04-04T12:34:00.802Z</time></trkpt><trkpt lat="45.6114454" lon="11.4029225"><ele>355.0</ele><time>2026-04-04T12:34:01.804Z</time></trkpt><trkpt lat="45.6113406" lon="11.4029734"><ele>352.8</ele><time>2026-04-04T12:34:02.803Z</time></trkpt><trkpt lat="45.6112316" lon="11.4030363"><ele>350.6</ele><time>2026-04-04T12:34:03.804Z</time></trkpt><trkpt lat="45.6111329" lon="11.4031346"><ele>348.4</ele><time>2026-04-04T12:34:04.803Z</time></trkpt><trkpt lat="45.6110429" lon="11.4031996"><ele>346.2</ele><time>2026-04-04T12:34:05.802Z</time></trkpt><trkpt lat="45.610977" lon="11.4032183"><ele>344.0</ele><time>2026-04-04T12:34:06.803Z</time></trkpt><trkpt lat="45.6109012" lon="11.4032166"><ele>344.0</ele><time>2026-04-04T12:34:07.802Z</time></trkpt><trkpt lat="45.6108392" lon="11.4031522"><ele>344.0</ele><time>2026-04-04T12:34:08.804Z</time></trkpt><trkpt lat="45.6107694" lon="11.4030724"><ele>344.0</ele><time>2026-04-04T12:34:09.803Z</time></trkpt><trkpt lat="45.6106905" lon="11.4029898"><ele>344.0</ele><time>2026-04-04T12:34:10.803Z</time></trkpt><trkpt lat="45.6106103" lon="11.4029505"><ele>344.0</ele><time>2026-04-04T12:34:11.804Z</time></trkpt><trkpt lat="45.6105252" lon="11.4029112"><ele>344.0</ele><time>2026-04-04T12:34:12.804Z</time></trkpt><trkpt lat="45.6104194" lon="11.4029243"><ele>345.75</ele><time>2026-04-04T12:34:13.803Z</time></trkpt><trkpt lat="45.6102813" lon="11.4029665"><ele>347.5</ele><time>2026-04-04T12:34:14.803Z</time></trkpt><trkpt lat="45.6101659" lon="11.403"><ele>349.25</ele><time>2026-04-04T12:34:15.804Z</time></trkpt><trkpt lat="45.6100039" lon="11.4030418"><ele>351.0</ele><time>2026-04-04T12:34:16.802Z</time></trkpt><trkpt lat="45.6098476" lon="11.4030677"><ele>351.0</ele><time>2026-04-04T12:34:17.802Z</time></trkpt><trkpt lat="45.6097172" lon="11.4030828"><ele>351.0</ele><time>2026-04-04T12:34:18.803Z</time></trkpt><trkpt lat="45.6095929" lon="11.4030719"><ele>351.0</ele><time>2026-04-04T12:34:19.803Z</time></trkpt><trkpt lat="45.6094692" lon="11.4030345"><ele>351.0</ele><time>2026-04-04T12:34:20.803Z</time></trkpt><trkpt lat="45.6093582" lon="11.4029892"><ele>355.6</ele><time>2026-04-04T12:34:21.802Z</time></trkpt><trkpt lat="45.6092929" lon="11.4029293"><ele>360.20000000000005</ele><time>2026-04-04T12:34:22.802Z</time></trkpt><trkpt lat="45.6092129" lon="11.4028648"><ele>364.79999999999995</ele><time>2026-04-04T12:34:23.802Z</time></trkpt><trkpt lat="45.609219" lon="11.4026868"><ele>369.4</ele><time>2026-04-04T12:34:25.803Z</time></trkpt><trkpt lat="45.6092195" lon="11.4025752"><ele>374.0</ele><time>2026-04-04T12:34:26.803Z</time></trkpt><trkpt lat="45.6092485" lon="11.4024164"><ele>374.0</ele><time>2026-04-04T12:34:27.803Z</time></trkpt><trkpt lat="45.6093266" lon="11.4023035"><ele>374.0</ele><time>2026-04-04T12:34:28.802Z</time></trkpt><trkpt lat="45.6093877" lon="11.4021906"><ele>374.0</ele><time>2026-04-04T12:34:29.803Z</time></trkpt><trkpt lat="45.6094704" lon="11.4020933"><ele>374.0</ele><time>2026-04-04T12:34:30.803Z</time></trkpt><trkpt lat="45.6095744" lon="11.4019811"><ele>374.0</ele><time>2026-04-04T12:34:31.803Z</time></trkpt><trkpt lat="45.6096741" lon="11.4018754"><ele>375.25</ele><time>2026-04-04T12:34:32.803Z</time></trkpt><trkpt lat="45.6097757" lon="11.4017624"><ele>376.5</ele><time>2026-04-04T12:34:33.803Z</time></trkpt><trkpt lat="45.609871" lon="11.4016503"><ele>377.75</ele><time>2026-04-04T12:34:34.803Z</time></trkpt><trkpt lat="45.609976" lon="11.4014998"><ele>379.0</ele><time>2026-04-04T12:34:35.803Z</time></trkpt><trkpt lat="45.6100727" lon="11.4013459"><ele>378.75</ele><time>2026-04-04T12:34:36.803Z</time></trkpt><trkpt lat="45.6101534" lon="11.4012107"><ele>378.5</ele><time>2026-04-04T12:34:37.803Z</time></trkpt><trkpt lat="45.6102423" lon="11.4010605"><ele>378.25</ele><time>2026-04-04T12:34:38.802Z</time></trkpt><trkpt lat="45.6103436" lon="11.4009031"><ele>378.0</ele><time>2026-04-04T12:34:39.803Z</time></trkpt><trkpt lat="45.6104216" lon="11.4007646"><ele>380.5</ele><time>2026-04-04T12:34:40.803Z</time></trkpt><trkpt lat="45.6104886" lon="11.400648"><ele>383.0</ele><time>2026-04-04T12:34:41.803Z</time></trkpt><trkpt lat="45.6105515" lon="11.4005495"><ele>385.5</ele><time>2026-04-04T12:34:42.803Z</time></trkpt><trkpt lat="45.6106167" lon="11.4004728"><ele>388.0</ele><time>2026-04-04T12:34:43.803Z</time></trkpt><trkpt lat="45.6106871" lon="11.4004145"><ele>390.5</ele><time>2026-04-04T12:34:44.802Z</time></trkpt><trkpt lat="45.6107659" lon="11.4003763"><ele>393.0</ele><time>2026-04-04T12:34:45.803Z</time></trkpt><trkpt lat="45.6108447" lon="11.4003448"><ele>393.1666666666667</ele><time>2026-04-04T12:34:46.802Z</time></trkpt><trkpt lat="45.6109255" lon="11.4003145"><ele>393.33333333333337</ele><time>2026-04-04T12:34:47.804Z</time></trkpt><trkpt lat="45.6110168" lon="11.4002401"><ele>393.5</ele><time>2026-04-04T12:34:49.802Z</time></trkpt><trkpt lat="45.611096" lon="11.400262"><ele>393.6666666666667</ele><time>2026-04-04T12:35:01.803Z</time></trkpt><trkpt lat="45.611161" lon="11.4002793"><ele>393.83333333333337</ele><time>2026-04-04T12:35:02.803Z</time></trkpt><trkpt lat="45.6112273" lon="11.4002878"><ele>394.0</ele><time>2026-04-04T12:35:03.803Z</time></trkpt><trkpt lat="45.6113306" lon="11.4002819"><ele>394.2</ele><time>2026-04-04T12:35:05.804Z</time></trkpt><trkpt lat="45.6114201" lon="11.4001797"><ele>394.4</ele><time>2026-04-04T12:35:07.803Z</time></trkpt><trkpt lat="45.611473" lon="11.4000997"><ele>394.6</ele><time>2026-04-04T12:35:08.802Z</time></trkpt><trkpt lat="45.6115388" lon="11.4000443"><ele>394.8</ele><time>2026-04-04T12:35:09.803Z</time></trkpt><trkpt lat="45.6116276" lon="11.4000099"><ele>395.0</ele><time>2026-04-04T12:35:10.803Z</time></trkpt><trkpt lat="45.6117277" lon="11.3999948"><ele>395.0</ele><time>2026-04-04T12:35:11.802Z</time></trkpt><trkpt lat="45.6118427" lon="11.399979"><ele>395.0</ele><time>2026-04-04T12:35:12.803Z</time></trkpt><trkpt lat="45.6119444" lon="11.3999615"><ele>395.0</ele><time>2026-04-04T12:35:13.804Z</time></trkpt><trkpt lat="45.6120547" lon="11.3999497"><ele>395.0</ele><time>2026-04-04T12:35:14.802Z</time></trkpt><trkpt lat="45.6121691" lon="11.3999492"><ele>395.0</ele><time>2026-04-04T12:35:15.802Z</time></trkpt><trkpt lat="45.6122787" lon="11.3999668"><ele>394.8</ele><time>2026-04-04T12:35:16.802Z</time></trkpt><trkpt lat="45.6123795" lon="11.4000027"><ele>394.6</ele><time>2026-04-04T12:35:17.802Z</time></trkpt><trkpt lat="45.6124735" lon="11.4000582"><ele>394.4</ele><time>2026-04-04T12:35:18.802Z</time></trkpt><trkpt lat="45.6125418" lon="11.4001333"><ele>394.2</ele><time>2026-04-04T12:35:19.802Z</time></trkpt><trkpt lat="45.6125938" lon="11.4002307"><ele>394.0</ele><time>2026-04-04T12:35:20.802Z</time></trkpt><trkpt lat="45.6126261" lon="11.4003543"><ele>394.0</ele><time>2026-04-04T12:35:21.803Z</time></trkpt><trkpt lat="45.6126621" lon="11.4004716"><ele>394.0</ele><time>2026-04-04T12:35:22.803Z</time></trkpt><trkpt lat="45.6127078" lon="11.4005822"><ele>394.0</ele><time>2026-04-04T12:35:23.803Z</time></trkpt><trkpt lat="45.612763" lon="11.4006611"><ele>394.0</ele><time>2026-04-04T12:35:24.804Z</time></trkpt><trkpt lat="45.6129162" lon="11.4006885"><ele>394.0</ele><time>2026-04-04T12:35:26.801Z</time></trkpt><trkpt lat="45.6130144" lon="11.4006734"><ele>393.50000000000006</ele><time>2026-04-04T12:35:27.801Z</time></trkpt><trkpt lat="45.6130931" lon="11.4006655"><ele>393.0</ele><time>2026-04-04T12:35:28.801Z</time></trkpt><trkpt lat="45.6131621" lon="11.4006518"><ele>392.5</ele><time>2026-04-04T12:35:29.802Z</time></trkpt><trkpt lat="45.6132659" lon="11.4006231"><ele>392.0</ele><time>2026-04-04T12:35:31.803Z</time></trkpt><trkpt lat="45.6133317" lon="11.4006095"><ele>391.50000000000006</ele><time>2026-04-04T12:35:33.801Z</time></trkpt><trkpt lat="45.613433" lon="11.400601"><ele>391.0</ele><time>2026-04-04T12:35:36.802Z</time></trkpt><trkpt lat="45.6135102" lon="11.4005998"><ele>391.0</ele><time>2026-04-04T12:35:38.803Z</time></trkpt><trkpt lat="45.6135839" lon="11.4006027"><ele>391.0</ele><time>2026-04-04T12:35:40.803Z</time></trkpt><trkpt lat="45.6136598" lon="11.4006112"><ele>391.0</ele><time>2026-04-04T12:35:42.802Z</time></trkpt><trkpt lat="45.6137632" lon="11.400612"><ele>391.0</ele><time>2026-04-04T12:35:44.801Z</time></trkpt><trkpt lat="45.613893" lon="11.4006115"><ele>391.0</ele><time>2026-04-04T12:35:46.801Z</time></trkpt><trkpt lat="45.6139692" lon="11.4006199"><ele>390.83333333333337</ele><time>2026-04-04T12:35:47.801Z</time></trkpt><trkpt lat="45.6140344" lon="11.4006274"><ele>390.6666666666667</ele><time>2026-04-04T12:35:48.802Z</time></trkpt><trkpt lat="45.6140926" lon="11.4006645"><ele>390.5</ele><time>2026-04-04T12:35:49.802Z</time></trkpt><trkpt lat="45.6141612" lon="11.4007156"><ele>390.33333333333337</ele><time>2026-04-04T12:35:50.803Z</time></trkpt><trkpt lat="45.6142405" lon="11.4007692"><ele>390.1666666666667</ele><time>2026-04-04T12:35:51.802Z</time></trkpt><trkpt lat="45.6143198" lon="11.4008271"><ele>390.0</ele><time>2026-04-04T12:35:52.801Z</time></trkpt><trkpt lat="45.6143998" lon="11.4008882"><ele>390.0</ele><time>2026-04-04T12:35:53.802Z</time></trkpt><trkpt lat="45.6144601" lon="11.4009324"><ele>390.0</ele><time>2026-04-04T12:35:54.803Z</time></trkpt><trkpt lat="45.6145496" lon="11.4009437"><ele>390.0</ele><time>2026-04-04T12:35:56.801Z</time></trkpt><trkpt lat="45.6145282" lon="11.4007793"><ele>390.0</ele><time>2026-04-04T12:35:59.802Z</time></trkpt><trkpt lat="45.6144908" lon="11.400656"><ele>390.0</ele><time>2026-04-04T12:36:00.803Z</time></trkpt><trkpt lat="45.6144416" lon="11.4005224"><ele>391.6666666666667</ele><time>2026-04-04T12:36:01.802Z</time></trkpt><trkpt lat="45.6143805" lon="11.4004097"><ele>393.33333333333337</ele><time>2026-04-04T12:36:02.803Z</time></trkpt><trkpt lat="45.6143204" lon="11.4003162"><ele>395.0</ele><time>2026-04-04T12:36:03.802Z</time></trkpt><trkpt lat="45.6142579" lon="11.400248"><ele>396.6666666666667</ele><time>2026-04-04T12:36:04.803Z</time></trkpt><trkpt lat="45.6141949" lon="11.4001686"><ele>398.33333333333337</ele><time>2026-04-04T12:36:05.802Z</time></trkpt><trkpt lat="45.6141298" lon="11.4000945"><ele>400.0</ele><time>2026-04-04T12:36:06.802Z</time></trkpt><trkpt lat="45.6140597" lon="11.4000474"><ele>400.00000000000006</ele><time>2026-04-04T12:36:07.801Z</time></trkpt><trkpt lat="45.6139716" lon="11.4000032"><ele>400.0</ele><time>2026-04-04T12:36:08.803Z</time></trkpt><trkpt lat="45.6138866" lon="11.399946"><ele>400.0</ele><time>2026-04-04T12:36:09.802Z</time></trkpt><trkpt lat="45.6138233" lon="11.3999062"><ele>400.0</ele><time>2026-04-04T12:36:10.803Z</time></trkpt><trkpt lat="45.613771" lon="11.3998526"><ele>400.00000000000006</ele><time>2026-04-04T12:36:11.801Z</time></trkpt><trkpt lat="45.6137114" lon="11.3997632"><ele>400.0</ele><time>2026-04-04T12:36:13.802Z</time></trkpt><trkpt lat="45.6137642" lon="11.3999007"><ele>400.0</ele><time>2026-04-04T12:36:18.803Z</time></trkpt><trkpt lat="45.6138718" lon="11.3999503"><ele>400.0</ele><time>2026-04-04T12:36:19.802Z</time></trkpt><trkpt lat="45.6139659" lon="11.4000076"><ele>400.0</ele><time>2026-04-04T12:36:20.802Z</time></trkpt><trkpt lat="45.6140472" lon="11.4000624"><ele>400.0</ele><time>2026-04-04T12:36:21.801Z</time></trkpt><trkpt lat="45.6141312" lon="11.4001397"><ele>400.0</ele><time>2026-04-04T12:36:22.803Z</time></trkpt><trkpt lat="45.6142251" lon="11.4002036"><ele>400.0</ele><time>2026-04-04T12:36:23.803Z</time></trkpt><trkpt lat="45.6143056" lon="11.4003326"><ele>400.0</ele><time>2026-04-04T12:36:24.803Z</time></trkpt><trkpt lat="45.6143753" lon="11.4004295"><ele>400.0</ele><time>2026-04-04T12:36:25.801Z</time></trkpt><trkpt lat="45.6144355" lon="11.4005356"><ele>400.0</ele><time>2026-04-04T12:36:26.803Z</time></trkpt><trkpt lat="45.6144885" lon="11.4006573"><ele>400.0</ele><time>2026-04-04T12:36:27.803Z</time></trkpt><trkpt lat="45.6145356" lon="11.4007845"><ele>399.5</ele><time>2026-04-04T12:36:28.801Z</time></trkpt><trkpt lat="45.6145788" lon="11.4009325"><ele>399.0</ele><time>2026-04-04T12:36:29.801Z</time></trkpt><trkpt lat="45.6146127" lon="11.401083"><ele>398.5</ele><time>2026-04-04T12:36:30.802Z</time></trkpt><trkpt lat="45.6146455" lon="11.4012374"><ele>398.0</ele><time>2026-04-04T12:36:31.802Z</time></trkpt><trkpt lat="45.6146746" lon="11.4014037"><ele>397.0</ele><time>2026-04-04T12:36:32.802Z</time></trkpt><trkpt lat="45.6147099" lon="11.4015593"><ele>396.0</ele><time>2026-04-04T12:36:33.802Z</time></trkpt><trkpt lat="45.614731" lon="11.4017049"><ele>395.0</ele><time>2026-04-04T12:36:34.801Z</time></trkpt><trkpt lat="45.6147475" lon="11.4018536"><ele>394.0</ele><time>2026-04-04T12:36:35.801Z</time></trkpt><trkpt lat="45.6147606" lon="11.4019783"><ele>393.0</ele><time>2026-04-04T12:36:36.803Z</time></trkpt><trkpt lat="45.6147814" lon="11.4021018"><ele>390.2</ele><time>2026-04-04T12:36:37.801Z</time></trkpt><trkpt lat="45.6148096" lon="11.4022481"><ele>387.4</ele><time>2026-04-04T12:36:39.803Z</time></trkpt><trkpt lat="45.6147791" lon="11.4023616"><ele>384.59999999999997</ele><time>2026-04-04T12:36:41.801Z</time></trkpt><trkpt lat="45.6147663" lon="11.4024907"><ele>381.79999999999995</ele><time>2026-04-04T12:36:43.802Z</time></trkpt><trkpt lat="45.6147694" lon="11.4026656"><ele>379.0</ele><time>2026-04-04T12:36:45.802Z</time></trkpt><trkpt lat="45.6147864" lon="11.4027548"><ele>379.0</ele><time>2026-04-04T12:36:46.801Z</time></trkpt><trkpt lat="45.614852" lon="11.4028775"><ele>379.0</ele><time>2026-04-04T12:36:48.802Z</time></trkpt><trkpt lat="45.6149025" lon="11.4029468"><ele>379.0</ele><time>2026-04-04T12:36:49.801Z</time></trkpt><trkpt lat="45.6150008" lon="11.4030372"><ele>379.0</ele><time>2026-04-04T12:36:51.803Z</time></trkpt><trkpt lat="45.6151373" lon="11.4031134"><ele>379.0</ele><time>2026-04-04T12:36:53.802Z</time></trkpt><trkpt lat="45.6152073" lon="11.4031393"><ele>378.2</ele><time>2026-04-04T12:36:54.802Z</time></trkpt><trkpt lat="45.6152842" lon="11.4031883"><ele>377.4</ele><time>2026-04-04T12:36:55.802Z</time></trkpt><trkpt lat="45.6153656" lon="11.4032543"><ele>376.6</ele><time>2026-04-04T12:36:56.802Z</time></trkpt><trkpt lat="45.6154562" lon="11.4033046"><ele>375.8</ele><time>2026-04-04T12:36:57.802Z</time></trkpt><trkpt lat="45.6155559" lon="11.4033573"><ele>375.0</ele><time>2026-04-04T12:36:58.802Z</time></trkpt><trkpt lat="45.6156462" lon="11.4034267"><ele>375.0</ele><time>2026-04-04T12:36:59.803Z</time></trkpt><trkpt lat="45.6157392" lon="11.4034845"><ele>375.0</ele><time>2026-04-04T12:37:00.802Z</time></trkpt><trkpt lat="45.6158385" lon="11.4035572"><ele>375.0</ele><time>2026-04-04T12:37:01.802Z</time></trkpt><trkpt lat="45.6159433" lon="11.4036681"><ele>375.0</ele><time>2026-04-04T12:37:02.802Z</time></trkpt><trkpt lat="45.6160446" lon="11.4037646"><ele>372.6666666666667</ele><time>2026-04-04T12:37:03.801Z</time></trkpt><trkpt lat="45.6161339" lon="11.4038463"><ele>370.3333333333333</ele><time>2026-04-04T12:37:04.802Z</time></trkpt><trkpt lat="45.6162104" lon="11.4039167"><ele>368.0</ele><time>2026-04-04T12:37:05.801Z</time></trkpt><trkpt lat="45.6162647" lon="11.4039754"><ele>365.66666666666663</ele><time>2026-04-04T12:37:06.801Z</time></trkpt><trkpt lat="45.6163214" lon="11.4040408"><ele>363.3333333333333</ele><time>2026-04-04T12:37:07.802Z</time></trkpt><trkpt lat="45.6163858" lon="11.4040369"><ele>361.0</ele><time>2026-04-04T12:37:10.802Z</time></trkpt><trkpt lat="45.6163985" lon="11.403854"><ele>362.4</ele><time>2026-04-04T12:37:12.802Z</time></trkpt><trkpt lat="45.6163536" lon="11.4037107"><ele>363.8</ele><time>2026-04-04T12:37:13.802Z</time></trkpt><trkpt lat="45.6163337" lon="11.4035684"><ele>365.2</ele><time>2026-04-04T12:37:14.801Z</time></trkpt><trkpt lat="45.616322" lon="11.4034462"><ele>366.59999999999997</ele><time>2026-04-04T12:37:15.801Z</time></trkpt><trkpt lat="45.6163289" lon="11.4033175"><ele>368.0</ele><time>2026-04-04T12:37:16.802Z</time></trkpt><trkpt lat="45.6163506" lon="11.403213"><ele>368.0</ele><time>2026-04-04T12:37:17.802Z</time></trkpt><trkpt lat="45.6163809" lon="11.4030984"><ele>368.0</ele><time>2026-04-04T12:37:18.801Z</time></trkpt><trkpt lat="45.6164345" lon="11.4029927"><ele>368.0</ele><time>2026-04-04T12:37:19.801Z</time></trkpt><trkpt lat="45.6164782" lon="11.4028733"><ele>368.0</ele><time>2026-04-04T12:37:20.802Z</time></trkpt><trkpt lat="45.6165162" lon="11.4027624"><ele>368.0</ele><time>2026-04-04T12:37:21.802Z</time></trkpt><trkpt lat="45.6165312" lon="11.4026504"><ele>368.0</ele><time>2026-04-04T12:37:22.802Z</time></trkpt><trkpt lat="45.6165346" lon="11.4025422"><ele>369.83333333333337</ele><time>2026-04-04T12:37:23.801Z</time></trkpt><trkpt lat="45.6164626" lon="11.4024672"><ele>371.6666666666667</ele><time>2026-04-04T12:37:24.802Z</time></trkpt><trkpt lat="45.6163936" lon="11.4024119"><ele>373.5</ele><time>2026-04-04T12:37:25.802Z</time></trkpt><trkpt lat="45.6163022" lon="11.4023786"><ele>375.3333333333333</ele><time>2026-04-04T12:37:26.803Z</time></trkpt><trkpt lat="45.6162067" lon="11.4023499"><ele>377.16666666666663</ele><time>2026-04-04T12:37:27.802Z</time></trkpt><trkpt lat="45.6161283" lon="11.402324"><ele>379.0</ele><time>2026-04-04T12:37:28.802Z</time></trkpt><trkpt lat="45.6160503" lon="11.4022616"><ele>380.66666666666663</ele><time>2026-04-04T12:37:29.803Z</time></trkpt><trkpt lat="45.6159919" lon="11.4021878"><ele>382.3333333333333</ele><time>2026-04-04T12:37:30.803Z</time></trkpt><trkpt lat="45.6159443" lon="11.4021036"><ele>384.0</ele><time>2026-04-04T12:37:31.802Z</time></trkpt><trkpt lat="45.6159952" lon="11.4020373"><ele>385.66666666666663</ele><time>2026-04-04T12:37:32.801Z</time></trkpt><trkpt lat="45.6160372" lon="11.4019354"><ele>387.3333333333333</ele><time>2026-04-04T12:37:33.802Z</time></trkpt><trkpt lat="45.6160986" lon="11.4018315"><ele>389.0</ele><time>2026-04-04T12:37:34.801Z</time></trkpt><trkpt lat="45.6161473" lon="11.4017023"><ele>389.6</ele><time>2026-04-04T12:37:35.802Z</time></trkpt><trkpt lat="45.6161895" lon="11.4015797"><ele>390.2</ele><time>2026-04-04T12:37:36.803Z</time></trkpt><trkpt lat="45.6162214" lon="11.4014583"><ele>390.8</ele><time>2026-04-04T12:37:37.801Z</time></trkpt><trkpt lat="45.6162328" lon="11.4013241"><ele>391.40000000000003</ele><time>2026-04-04T12:37:38.802Z</time></trkpt><trkpt lat="45.6162251" lon="11.4011781"><ele>392.0</ele><time>2026-04-04T12:37:39.802Z</time></trkpt><trkpt lat="45.6162085" lon="11.4010356"><ele>391.99999999999994</ele><time>2026-04-04T12:37:40.801Z</time></trkpt><trkpt lat="45.616197" lon="11.4009175"><ele>392.0</ele><time>2026-04-04T12:37:41.802Z</time></trkpt><trkpt lat="45.6162021" lon="11.4008203"><ele>392.0</ele><time>2026-04-04T12:37:42.801Z</time></trkpt><trkpt lat="45.6162313" lon="11.4007009"><ele>392.0</ele><time>2026-04-04T12:37:43.802Z</time></trkpt><trkpt lat="45.6162781" lon="11.40056"><ele>391.99999999999994</ele><time>2026-04-04T12:37:44.803Z</time></trkpt><trkpt lat="45.6163282" lon="11.4004453"><ele>392.0</ele><time>2026-04-04T12:37:45.802Z</time></trkpt><trkpt lat="45.6163803" lon="11.4003114"><ele>394.6</ele><time>2026-04-04T12:37:47.802Z</time></trkpt><trkpt lat="45.6164054" lon="11.4002271"><ele>397.20000000000005</ele><time>2026-04-04T12:37:49.802Z</time></trkpt><trkpt lat="45.6164405" lon="11.4000748"><ele>399.8</ele><time>2026-04-04T12:37:51.802Z</time></trkpt><trkpt lat="45.6164634" lon="11.3999588"><ele>402.4</ele><time>2026-04-04T12:37:52.802Z</time></trkpt><trkpt lat="45.616484" lon="11.3998299"><ele>405.0</ele><time>2026-04-04T12:37:53.801Z</time></trkpt><trkpt lat="45.616495" lon="11.3996852"><ele>407.0</ele><time>2026-04-04T12:37:54.803Z</time></trkpt><trkpt lat="45.6164937" lon="11.3995443"><ele>409.0</ele><time>2026-04-04T12:37:55.801Z</time></trkpt><trkpt lat="45.6164932" lon="11.3994024"><ele>411.0</ele><time>2026-04-04T12:37:56.801Z</time></trkpt><trkpt lat="45.6164927" lon="11.3992653"><ele>413.0</ele><time>2026-04-04T12:37:57.802Z</time></trkpt><trkpt lat="45.616495" lon="11.3991289"><ele>415.0</ele><time>2026-04-04T12:37:58.801Z</time></trkpt><trkpt lat="45.6165052" lon="11.3990033"><ele>415.0</ele><time>2026-04-04T12:37:59.802Z</time></trkpt><trkpt lat="45.6165218" lon="11.3988708"><ele>415.0</ele><time>2026-04-04T12:38:00.802Z</time></trkpt><trkpt lat="45.6165448" lon="11.3987257"><ele>415.0</ele><time>2026-04-04T12:38:01.802Z</time></trkpt><trkpt lat="45.616571" lon="11.3985667"><ele>415.0</ele><time>2026-04-04T12:38:02.803Z</time></trkpt><trkpt lat="45.6166016" lon="11.3983958"><ele>415.0</ele><time>2026-04-04T12:38:03.803Z</time></trkpt><trkpt lat="45.6166279" lon="11.3982028"><ele>417.5</ele><time>2026-04-04T12:38:04.801Z</time></trkpt><trkpt lat="45.6166432" lon="11.3979975"><ele>420.0</ele><time>2026-04-04T12:38:05.802Z</time></trkpt><trkpt lat="45.6166586" lon="11.3977942"><ele>422.5</ele><time>2026-04-04T12:38:06.801Z</time></trkpt><trkpt lat="45.6166592" lon="11.3976064"><ele>425.0</ele><time>2026-04-04T12:38:07.801Z</time></trkpt><trkpt lat="45.616638" lon="11.3974616"><ele>425.0</ele><time>2026-04-04T12:38:08.802Z</time></trkpt><trkpt lat="45.6166194" lon="11.3973428"><ele>425.0</ele><time>2026-04-04T12:38:09.802Z</time></trkpt><trkpt lat="45.6166027" lon="11.397251"><ele>425.0</ele><time>2026-04-04T12:38:10.802Z</time></trkpt><trkpt lat="45.616573" lon="11.3971473"><ele>425.0</ele><time>2026-04-04T12:38:13.801Z</time></trkpt><trkpt lat="45.6165407" lon="11.3970116"><ele>425.0</ele><time>2026-04-04T12:38:16.802Z</time></trkpt><trkpt lat="45.6165678" lon="11.3968249"><ele>425.16666666666663</ele><time>2026-04-04T12:38:18.801Z</time></trkpt><trkpt lat="45.6166013" lon="11.3967168"><ele>425.3333333333333</ele><time>2026-04-04T12:38:19.803Z</time></trkpt><trkpt lat="45.616629" lon="11.3966017"><ele>425.5</ele><time>2026-04-04T12:38:20.801Z</time></trkpt><trkpt lat="45.6166569" lon="11.3964814"><ele>425.66666666666663</ele><time>2026-04-04T12:38:21.803Z</time></trkpt><trkpt lat="45.6166893" lon="11.3963731"><ele>425.8333333333333</ele><time>2026-04-04T12:38:22.801Z</time></trkpt><trkpt lat="45.6167328" lon="11.3962655"><ele>426.0</ele><time>2026-04-04T12:38:23.803Z</time></trkpt><trkpt lat="45.6167863" lon="11.3961644"><ele>425.20000000000005</ele><time>2026-04-04T12:38:24.801Z</time></trkpt><trkpt lat="45.6168597" lon="11.3960857"><ele>424.40000000000003</ele><time>2026-04-04T12:38:25.801Z</time></trkpt><trkpt lat="45.6169428" lon="11.3960128"><ele>423.6</ele><time>2026-04-04T12:38:26.802Z</time></trkpt><trkpt lat="45.6170356" lon="11.3959608"><ele>422.8</ele><time>2026-04-04T12:38:27.801Z</time></trkpt><trkpt lat="45.6171368" lon="11.3959259"><ele>422.0</ele><time>2026-04-04T12:38:28.802Z</time></trkpt><trkpt lat="45.6172419" lon="11.3958998"><ele>421.99999999999994</ele><time>2026-04-04T12:38:29.802Z</time></trkpt><trkpt lat="45.6173333" lon="11.3958776"><ele>422.0</ele><time>2026-04-04T12:38:30.801Z</time></trkpt><trkpt lat="45.6174184" lon="11.3958537"><ele>422.0</ele><time>2026-04-04T12:38:31.802Z</time></trkpt><trkpt lat="45.6174995" lon="11.3958081"><ele>422.0</ele><time>2026-04-04T12:38:32.802Z</time></trkpt><trkpt lat="45.6175729" lon="11.3957457"><ele>421.99999999999994</ele><time>2026-04-04T12:38:33.802Z</time></trkpt><trkpt lat="45.6176462" lon="11.3956634"><ele>422.0</ele><time>2026-04-04T12:38:34.802Z</time></trkpt><trkpt lat="45.6177164" lon="11.3955714"><ele>419.20000000000005</ele><time>2026-04-04T12:38:35.801Z</time></trkpt><trkpt lat="45.6177911" lon="11.3954766"><ele>416.4</ele><time>2026-04-04T12:38:36.801Z</time></trkpt><trkpt lat="45.6178693" lon="11.395377"><ele>413.6</ele><time>2026-04-04T12:38:37.803Z</time></trkpt><trkpt lat="45.6179488" lon="11.3952622"><ele>410.79999999999995</ele><time>2026-04-04T12:38:38.802Z</time></trkpt><trkpt lat="45.6180278" lon="11.3951517"><ele>408.0</ele><time>2026-04-04T12:38:39.802Z</time></trkpt><trkpt lat="45.618103" lon="11.395052"><ele>407.8333333333333</ele><time>2026-04-04T12:38:40.803Z</time></trkpt><trkpt lat="45.6181708" lon="11.3949633"><ele>407.66666666666663</ele><time>2026-04-04T12:38:41.802Z</time></trkpt><trkpt lat="45.618235" lon="11.394884"><ele>407.5</ele><time>2026-04-04T12:38:42.802Z</time></trkpt><trkpt lat="45.618295" lon="11.3948095"><ele>407.3333333333333</ele><time>2026-04-04T12:38:43.802Z</time></trkpt><trkpt lat="45.618357" lon="11.3947305"><ele>407.16666666666663</ele><time>2026-04-04T12:38:44.802Z</time></trkpt><trkpt lat="45.6184328" lon="11.39466"><ele>407.0</ele><time>2026-04-04T12:38:45.803Z</time></trkpt><trkpt lat="45.6185231" lon="11.3946097"><ele>406.75</ele><time>2026-04-04T12:38:46.802Z</time></trkpt><trkpt lat="45.6186261" lon="11.3945618"><ele>406.5</ele><time>2026-04-04T12:38:47.801Z</time></trkpt><trkpt lat="45.6187319" lon="11.3945083"><ele>406.25</ele><time>2026-04-04T12:38:48.802Z</time></trkpt><trkpt lat="45.6188416" lon="11.3944442"><ele>406.0</ele><time>2026-04-04T12:38:49.801Z</time></trkpt><trkpt lat="45.6189558" lon="11.394363"><ele>406.0</ele><time>2026-04-04T12:38:50.802Z</time></trkpt><trkpt lat="45.6190764" lon="11.3942645"><ele>406.0</ele><time>2026-04-04T12:38:51.801Z</time></trkpt><trkpt lat="45.6191996" lon="11.3941444"><ele>406.0</ele><time>2026-04-04T12:38:52.801Z</time></trkpt><trkpt lat="45.6193275" lon="11.3940138"><ele>406.0</ele><time>2026-04-04T12:38:53.802Z</time></trkpt><trkpt lat="45.6194621" lon="11.393875"><ele>405.6666666666667</ele><time>2026-04-04T12:38:54.801Z</time></trkpt><trkpt lat="45.6196009" lon="11.393718"><ele>405.33333333333337</ele><time>2026-04-04T12:38:55.803Z</time></trkpt><trkpt lat="45.6197389" lon="11.3935626"><ele>405.0</ele><time>2026-04-04T12:38:56.802Z</time></trkpt><trkpt lat="45.619872" lon="11.3934174"><ele>405.0</ele><time>2026-04-04T12:38:57.802Z</time></trkpt><trkpt lat="45.6200055" lon="11.3932895"><ele>405.0</ele><time>2026-04-04T12:38:58.802Z</time></trkpt><trkpt lat="45.6201548" lon="11.3931846"><ele>405.0</ele><time>2026-04-04T12:38:59.802Z</time></trkpt><trkpt lat="45.6202955" lon="11.3930965"><ele>400.66666666666663</ele><time>2026-04-04T12:39:00.802Z</time></trkpt><trkpt lat="45.620475" lon="11.3930718"><ele>396.3333333333333</ele><time>2026-04-04T12:39:01.801Z</time></trkpt><trkpt lat="45.6206438" lon="11.3930469"><ele>392.0</ele><time>2026-04-04T12:39:02.802Z</time></trkpt><trkpt lat="45.6208147" lon="11.3930227"><ele>398.3333333333333</ele><time>2026-04-04T12:39:03.801Z</time></trkpt><trkpt lat="45.6209876" lon="11.3929981"><ele>404.66666666666663</ele><time>2026-04-04T12:39:04.802Z</time></trkpt><trkpt lat="45.6211528" lon="11.3929728"><ele>411.0</ele><time>2026-04-04T12:39:05.802Z</time></trkpt><trkpt lat="45.6213043" lon="11.3929596"><ele>411.0</ele><time>2026-04-04T12:39:06.803Z</time></trkpt><trkpt lat="45.6214501" lon="11.3929554"><ele>411.0</ele><time>2026-04-04T12:39:07.803Z</time></trkpt><trkpt lat="45.6215861" lon="11.3929515"><ele>411.0</ele><time>2026-04-04T12:39:08.803Z</time></trkpt><trkpt lat="45.6217105" lon="11.3929364"><ele>411.0</ele><time>2026-04-04T12:39:09.801Z</time></trkpt><trkpt lat="45.6218322" lon="11.3929056"><ele>411.0</ele><time>2026-04-04T12:39:10.802Z</time></trkpt><trkpt lat="45.6219599" lon="11.392814"><ele>411.0</ele><time>2026-04-04T12:39:11.802Z</time></trkpt><trkpt lat="45.6220931" lon="11.3927225"><ele>411.0</ele><time>2026-04-04T12:39:12.803Z</time></trkpt><trkpt lat="45.622239" lon="11.3926344"><ele>411.0</ele><time>2026-04-04T12:39:13.803Z</time></trkpt><trkpt lat="45.622389" lon="11.3925482"><ele>402.0</ele><time>2026-04-04T12:39:14.801Z</time></trkpt><trkpt lat="45.6225336" lon="11.3924505"><ele>393.0</ele><time>2026-04-04T12:39:15.801Z</time></trkpt><trkpt lat="45.6226765" lon="11.3923402"><ele>384.0</ele><time>2026-04-04T12:39:16.801Z</time></trkpt><trkpt lat="45.6228129" lon="11.3922179"><ele>381.5</ele><time>2026-04-04T12:39:17.802Z</time></trkpt><trkpt lat="45.6229388" lon="11.3921114"><ele>379.0</ele><time>2026-04-04T12:39:18.803Z</time></trkpt><trkpt lat="45.6230488" lon="11.3919983"><ele>376.5</ele><time>2026-04-04T12:39:19.802Z</time></trkpt><trkpt lat="45.6231493" lon="11.3918774"><ele>374.0</ele><time>2026-04-04T12:39:20.801Z</time></trkpt><trkpt lat="45.6232347" lon="11.3917531"><ele>374.0</ele><time>2026-04-04T12:39:21.801Z</time></trkpt><trkpt lat="45.6232986" lon="11.3916"><ele>374.0</ele><time>2026-04-04T12:39:22.801Z</time></trkpt><trkpt lat="45.6233493" lon="11.391444"><ele>374.0</ele><time>2026-04-04T12:39:23.802Z</time></trkpt><trkpt lat="45.6233783" lon="11.3912491"><ele>374.0</ele><time>2026-04-04T12:39:24.802Z</time></trkpt><trkpt lat="45.6233888" lon="11.3910498"><ele>378.25</ele><time>2026-04-04T12:39:25.802Z</time></trkpt><trkpt lat="45.6234111" lon="11.3908457"><ele>382.5</ele><time>2026-04-04T12:39:26.801Z</time></trkpt><trkpt lat="45.6234469" lon="11.3906459"><ele>386.75</ele><time>2026-04-04T12:39:27.802Z</time></trkpt><trkpt lat="45.6235034" lon="11.3904576"><ele>391.0</ele><time>2026-04-04T12:39:28.801Z</time></trkpt><trkpt lat="45.6235862" lon="11.3902677"><ele>378.33333333333337</ele><time>2026-04-04T12:39:29.802Z</time></trkpt><trkpt lat="45.6236917" lon="11.3900939"><ele>365.6666666666667</ele><time>2026-04-04T12:39:30.801Z</time></trkpt><trkpt lat="45.6238136" lon="11.3899233"><ele>353.0</ele><time>2026-04-04T12:39:31.802Z</time></trkpt><trkpt lat="45.6239416" lon="11.38975"><ele>362.0</ele><time>2026-04-04T12:39:32.802Z</time></trkpt><trkpt lat="45.6240683" lon="11.3895648"><ele>371.0</ele><time>2026-04-04T12:39:33.801Z</time></trkpt><trkpt lat="45.6241966" lon="11.3893884"><ele>380.0</ele><time>2026-04-04T12:39:34.8Z</time></trkpt><trkpt lat="45.624326" lon="11.3892253"><ele>380.0</ele><time>2026-04-04T12:39:35.802Z</time></trkpt><trkpt lat="45.6244665" lon="11.3890741"><ele>380.0</ele><time>2026-04-04T12:39:36.801Z</time></trkpt><trkpt lat="45.6246157" lon="11.3889488"><ele>380.0</ele><time>2026-04-04T12:39:37.801Z</time></trkpt><trkpt lat="45.6247731" lon="11.388832"><ele>380.6666666666667</ele><time>2026-04-04T12:39:38.801Z</time></trkpt><trkpt lat="45.6249255" lon="11.388725"><ele>381.3333333333333</ele><time>2026-04-04T12:39:39.8Z</time></trkpt><trkpt lat="45.6250716" lon="11.3886528"><ele>382.0</ele><time>2026-04-04T12:39:40.801Z</time></trkpt><trkpt lat="45.6252154" lon="11.3886346"><ele>381.66666666666663</ele><time>2026-04-04T12:39:41.801Z</time></trkpt><trkpt lat="45.6253737" lon="11.3886601"><ele>381.3333333333333</ele><time>2026-04-04T12:39:42.8Z</time></trkpt><trkpt lat="45.6255336" lon="11.3887137"><ele>381.0</ele><time>2026-04-04T12:39:43.801Z</time></trkpt><trkpt lat="45.6256967" lon="11.3887844"><ele>381.0</ele><time>2026-04-04T12:39:44.801Z</time></trkpt><trkpt lat="45.6258523" lon="11.3888384"><ele>381.0</ele><time>2026-04-04T12:39:45.8Z</time></trkpt><trkpt lat="45.6260034" lon="11.3888612"><ele>381.0</ele><time>2026-04-04T12:39:46.801Z</time></trkpt><trkpt lat="45.6261617" lon="11.3888822"><ele>371.0</ele><time>2026-04-04T12:39:47.8Z</time></trkpt><trkpt lat="45.6263181" lon="11.3889067"><ele>361.0</ele><time>2026-04-04T12:39:48.802Z</time></trkpt><trkpt lat="45.6264604" lon="11.3889298"><ele>351.0</ele><time>2026-04-04T12:39:49.8Z</time></trkpt><trkpt lat="45.6265927" lon="11.3889525"><ele>341.0</ele><time>2026-04-04T12:39:50.801Z</time></trkpt><trkpt lat="45.6267131" lon="11.3889652"><ele>341.0</ele><time>2026-04-04T12:39:51.801Z</time></trkpt><trkpt lat="45.6268219" lon="11.3889517"><ele>341.0</ele><time>2026-04-04T12:39:52.801Z</time></trkpt><trkpt lat="45.6269296" lon="11.3888927"><ele>341.0</ele><time>2026-04-04T12:39:53.801Z</time></trkpt><trkpt lat="45.6270344" lon="11.3887866"><ele>341.0</ele><time>2026-04-04T12:39:54.801Z</time></trkpt><trkpt lat="45.6271405" lon="11.3886482"><ele>343.5</ele><time>2026-04-04T12:39:55.8Z</time></trkpt><trkpt lat="45.6272508" lon="11.3885056"><ele>346.0</ele><time>2026-04-04T12:39:56.801Z</time></trkpt><trkpt lat="45.6273627" lon="11.3883669"><ele>348.5</ele><time>2026-04-04T12:39:57.8Z</time></trkpt><trkpt lat="45.6274717" lon="11.3882351"><ele>351.0</ele><time>2026-04-04T12:39:58.801Z</time></trkpt><trkpt lat="45.6275875" lon="11.3881261"><ele>351.0</ele><time>2026-04-04T12:39:59.8Z</time></trkpt><trkpt lat="45.6277264" lon="11.3880559"><ele>351.0</ele><time>2026-04-04T12:40:00.801Z</time></trkpt><trkpt lat="45.6278769" lon="11.3880099"><ele>351.0</ele><time>2026-04-04T12:40:01.8Z</time></trkpt><trkpt lat="45.6280288" lon="11.3879688"><ele>353.3333333333333</ele><time>2026-04-04T12:40:02.801Z</time></trkpt><trkpt lat="45.6281825" lon="11.3879305"><ele>355.66666666666663</ele><time>2026-04-04T12:40:03.8Z</time></trkpt><trkpt lat="45.6283323" lon="11.3878845"><ele>358.0</ele><time>2026-04-04T12:40:04.801Z</time></trkpt><trkpt lat="45.6284796" lon="11.3878247"><ele>358.0</ele><time>2026-04-04T12:40:05.8Z</time></trkpt><trkpt lat="45.6286171" lon="11.3877413"><ele>358.0</ele><time>2026-04-04T12:40:06.8Z</time></trkpt><trkpt lat="45.6287466" lon="11.387634"><ele>358.0</ele><time>2026-04-04T12:40:07.802Z</time></trkpt><trkpt lat="45.6288828" lon="11.3875294"><ele>348.3333333333333</ele><time>2026-04-04T12:40:08.802Z</time></trkpt><trkpt lat="45.6290186" lon="11.3874244"><ele>338.6666666666667</ele><time>2026-04-04T12:40:09.8Z</time></trkpt><trkpt lat="45.6291522" lon="11.3873163"><ele>329.0</ele><time>2026-04-04T12:40:10.801Z</time></trkpt><trkpt lat="45.6292835" lon="11.3871965"><ele>323.6666666666667</ele><time>2026-04-04T12:40:11.801Z</time></trkpt><trkpt lat="45.6294124" lon="11.3870528"><ele>318.3333333333333</ele><time>2026-04-04T12:40:12.801Z</time></trkpt><trkpt lat="45.6295408" lon="11.3869163"><ele>313.0</ele><time>2026-04-04T12:40:13.802Z</time></trkpt><trkpt lat="45.6296507" lon="11.3867456"><ele>313.0</ele><time>2026-04-04T12:40:14.8Z</time></trkpt><trkpt lat="45.6297623" lon="11.386568"><ele>313.0</ele><time>2026-04-04T12:40:15.801Z</time></trkpt><trkpt lat="45.6298706" lon="11.3863728"><ele>313.0</ele><time>2026-04-04T12:40:16.8Z</time></trkpt><trkpt lat="45.6299424" lon="11.3861686"><ele>320.66666666666663</ele><time>2026-04-04T12:40:17.8Z</time></trkpt><trkpt lat="45.6300284" lon="11.3859724"><ele>328.3333333333333</ele><time>2026-04-04T12:40:18.801Z</time></trkpt><trkpt lat="45.6301038" lon="11.3857749"><ele>336.0</ele><time>2026-04-04T12:40:19.8Z</time></trkpt><trkpt lat="45.6301728" lon="11.3855808"><ele>344.6666666666667</ele><time>2026-04-04T12:40:20.801Z</time></trkpt><trkpt lat="45.6302499" lon="11.3853888"><ele>353.33333333333337</ele><time>2026-04-04T12:40:21.802Z</time></trkpt><trkpt lat="45.6303593" lon="11.385211"><ele>362.0</ele><time>2026-04-04T12:40:22.801Z</time></trkpt><trkpt lat="45.6304817" lon="11.3850484"><ele>348.6666666666667</ele><time>2026-04-04T12:40:23.8Z</time></trkpt><trkpt lat="45.6305959" lon="11.3848936"><ele>335.3333333333333</ele><time>2026-04-04T12:40:24.8Z</time></trkpt><trkpt lat="45.6307008" lon="11.3847392"><ele>322.0</ele><time>2026-04-04T12:40:25.801Z</time></trkpt><trkpt lat="45.6308027" lon="11.3845925"><ele>322.0</ele><time>2026-04-04T12:40:26.801Z</time></trkpt><trkpt lat="45.6309019" lon="11.3844448"><ele>322.0</ele><time>2026-04-04T12:40:27.801Z</time></trkpt><trkpt lat="45.6310051" lon="11.3843223"><ele>322.0</ele><time>2026-04-04T12:40:28.801Z</time></trkpt><trkpt lat="45.6311237" lon="11.3842207"><ele>322.0</ele><time>2026-04-04T12:40:29.802Z</time></trkpt><trkpt lat="45.6312475" lon="11.3841394"><ele>317.8</ele><time>2026-04-04T12:40:30.801Z</time></trkpt><trkpt lat="45.6313652" lon="11.3840958"><ele>313.6</ele><time>2026-04-04T12:40:31.8Z</time></trkpt><trkpt lat="45.6314748" lon="11.3840558"><ele>309.40000000000003</ele><time>2026-04-04T12:40:32.8Z</time></trkpt><trkpt lat="45.6315688" lon="11.384"><ele>305.20000000000005</ele><time>2026-04-04T12:40:33.801Z</time></trkpt><trkpt lat="45.6316477" lon="11.383921"><ele>301.0</ele><time>2026-04-04T12:40:34.801Z</time></trkpt><trkpt lat="45.6317129" lon="11.3838305"><ele>299.8333333333333</ele><time>2026-04-04T12:40:35.8Z</time></trkpt><trkpt lat="45.631762" lon="11.3837442"><ele>298.66666666666663</ele><time>2026-04-04T12:40:36.8Z</time></trkpt><trkpt lat="45.6318124" lon="11.3836282"><ele>297.5</ele><time>2026-04-04T12:40:38.8Z</time></trkpt><trkpt lat="45.6317679" lon="11.3835556"><ele>296.3333333333333</ele><time>2026-04-04T12:40:42.801Z</time></trkpt><trkpt lat="45.6317087" lon="11.3836342"><ele>295.1666666666667</ele><time>2026-04-04T12:40:44.802Z</time></trkpt><trkpt lat="45.6316625" lon="11.3837193"><ele>294.0</ele><time>2026-04-04T12:40:45.8Z</time></trkpt><trkpt lat="45.6315982" lon="11.3838028"><ele>294.0</ele><time>2026-04-04T12:40:46.801Z</time></trkpt><trkpt lat="45.6315295" lon="11.3838592"><ele>294.0</ele><time>2026-04-04T12:40:47.801Z</time></trkpt><trkpt lat="45.6314604" lon="11.3838711"><ele>294.0</ele><time>2026-04-04T12:40:48.801Z</time></trkpt><trkpt lat="45.6313718" lon="11.3838086"><ele>294.0</ele><time>2026-04-04T12:40:50.801Z</time></trkpt><trkpt lat="45.6313335" lon="11.3836864"><ele>294.0</ele><time>2026-04-04T12:40:52.801Z</time></trkpt><trkpt lat="45.6313028" lon="11.3835526"><ele>294.0</ele><time>2026-04-04T12:40:54.8Z</time></trkpt><trkpt lat="45.6313353" lon="11.383465"><ele>294.0</ele><time>2026-04-04T12:40:57.8Z</time></trkpt><trkpt lat="45.6313711" lon="11.3833329"><ele>294.0</ele><time>2026-04-04T12:41:00.8Z</time></trkpt><trkpt lat="45.6314134" lon="11.3832649"><ele>294.0</ele><time>2026-04-04T12:41:01.8Z</time></trkpt><trkpt lat="45.6314688" lon="11.3831615"><ele>294.0</ele><time>2026-04-04T12:41:03.801Z</time></trkpt><trkpt lat="45.6314927" lon="11.3830744"><ele>294.0</ele><time>2026-04-04T12:41:04.8Z</time></trkpt><trkpt lat="45.6315128" lon="11.3828912"><ele>294.0</ele><time>2026-04-04T12:41:06.802Z</time></trkpt><trkpt lat="45.6314979" lon="11.3827749"><ele>292.1666666666667</ele><time>2026-04-04T12:41:07.801Z</time></trkpt><trkpt lat="45.6315005" lon="11.3826764"><ele>290.3333333333333</ele><time>2026-04-04T12:41:08.801Z</time></trkpt><trkpt lat="45.6315003" lon="11.3825851"><ele>288.5</ele><time>2026-04-04T12:41:09.8Z</time></trkpt><trkpt lat="45.6315184" lon="11.3824602"><ele>286.66666666666663</ele><time>2026-04-04T12:41:11.8Z</time></trkpt><trkpt lat="45.6315577" lon="11.3823684"><ele>284.8333333333333</ele><time>2026-04-04T12:41:12.8Z</time></trkpt><trkpt lat="45.6315901" lon="11.3822813"><ele>283.0</ele><time>2026-04-04T12:41:13.802Z</time></trkpt><trkpt lat="45.6316292" lon="11.3821555"><ele>281.3333333333333</ele><time>2026-04-04T12:41:15.801Z</time></trkpt><trkpt lat="45.6316114" lon="11.3819767"><ele>279.66666666666663</ele><time>2026-04-04T12:41:17.802Z</time></trkpt><trkpt lat="45.6316069" lon="11.3818706"><ele>278.0</ele><time>2026-04-04T12:41:18.8Z</time></trkpt><trkpt lat="45.631601" lon="11.3817621"><ele>276.3333333333333</ele><time>2026-04-04T12:41:19.8Z</time></trkpt><trkpt lat="45.6315898" lon="11.3816627"><ele>274.6666666666667</ele><time>2026-04-04T12:41:20.8Z</time></trkpt><trkpt lat="45.6315775" lon="11.3815659"><ele>273.0</ele><time>2026-04-04T12:41:21.8Z</time></trkpt><trkpt lat="45.6315461" lon="11.3814175"><ele>272.3333333333333</ele><time>2026-04-04T12:41:23.8Z</time></trkpt><trkpt lat="45.6315053" lon="11.3812834"><ele>271.6666666666667</ele><time>2026-04-04T12:41:25.802Z</time></trkpt><trkpt lat="45.6314681" lon="11.3811922"><ele>271.0</ele><time>2026-04-04T12:41:26.801Z</time></trkpt><trkpt lat="45.6314342" lon="11.3810963"><ele>270.33333333333337</ele><time>2026-04-04T12:41:27.801Z</time></trkpt><trkpt lat="45.6314041" lon="11.3809937"><ele>269.6666666666667</ele><time>2026-04-04T12:41:28.801Z</time></trkpt><trkpt lat="45.6313876" lon="11.380834"><ele>269.0</ele><time>2026-04-04T12:41:30.801Z</time></trkpt><trkpt lat="45.631393" lon="11.3806848"><ele>267.4</ele><time>2026-04-04T12:41:32.801Z</time></trkpt><trkpt lat="45.63139" lon="11.3805123"><ele>265.79999999999995</ele><time>2026-04-04T12:41:34.8Z</time></trkpt><trkpt lat="45.631381" lon="11.3803807"><ele>264.20000000000005</ele><time>2026-04-04T12:41:35.8Z</time></trkpt><trkpt lat="45.6313859" lon="11.3802573"><ele>262.6</ele><time>2026-04-04T12:41:36.801Z</time></trkpt><trkpt lat="45.631385" lon="11.3801049"><ele>261.0</ele><time>2026-04-04T12:41:37.801Z</time></trkpt><trkpt lat="45.6314035" lon="11.379967"><ele>261.0</ele><time>2026-04-04T12:41:38.8Z</time></trkpt><trkpt lat="45.6314213" lon="11.3798288"><ele>261.0</ele><time>2026-04-04T12:41:39.801Z</time></trkpt><trkpt lat="45.6314483" lon="11.3796944"><ele>261.0</ele><time>2026-04-04T12:41:40.801Z</time></trkpt><trkpt lat="45.6314766" lon="11.3795696"><ele>261.0</ele><time>2026-04-04T12:41:41.8Z</time></trkpt><trkpt lat="45.6315028" lon="11.3794451"><ele>261.0</ele><time>2026-04-04T12:41:42.801Z</time></trkpt><trkpt lat="45.6315297" lon="11.3793302"><ele>261.0</ele><time>2026-04-04T12:41:43.8Z</time></trkpt><trkpt lat="45.6315413" lon="11.3792269"><ele>261.0</ele><time>2026-04-04T12:41:44.802Z</time></trkpt><trkpt lat="45.6315652" lon="11.3791329"><ele>261.0</ele><time>2026-04-04T12:41:45.802Z</time></trkpt><trkpt lat="45.6315816" lon="11.3790296"><ele>261.0</ele><time>2026-04-04T12:41:46.801Z</time></trkpt><trkpt lat="45.6315918" lon="11.3789275"><ele>261.0</ele><time>2026-04-04T12:41:47.801Z</time></trkpt><trkpt lat="45.6316056" lon="11.3788298"><ele>261.0</ele><time>2026-04-04T12:41:48.802Z</time></trkpt><trkpt lat="45.631612" lon="11.3787194"><ele>261.0</ele><time>2026-04-04T12:41:49.801Z</time></trkpt><trkpt lat="45.6316221" lon="11.3785939"><ele>262.0</ele><time>2026-04-04T12:41:50.8Z</time></trkpt><trkpt lat="45.6316211" lon="11.3784725"><ele>263.0</ele><time>2026-04-04T12:41:51.801Z</time></trkpt><trkpt lat="45.6316261" lon="11.37836"><ele>264.0</ele><time>2026-04-04T12:41:52.8Z</time></trkpt><trkpt lat="45.6316536" lon="11.378257"><ele>265.0</ele><time>2026-04-04T12:41:53.802Z</time></trkpt><trkpt lat="45.6316822" lon="11.3781567"><ele>266.0</ele><time>2026-04-04T12:41:54.802Z</time></trkpt><trkpt lat="45.6317063" lon="11.3780189"><ele>267.0</ele><time>2026-04-04T12:41:56.8Z</time></trkpt><trkpt lat="45.6317385" lon="11.3779274"><ele>265.0</ele><time>2026-04-04T12:41:57.801Z</time></trkpt><trkpt lat="45.6317914" lon="11.3778163"><ele>263.0</ele><time>2026-04-04T12:41:58.8Z</time></trkpt><trkpt lat="45.6318343" lon="11.3776268"><ele>261.0</ele><time>2026-04-04T12:42:00.802Z</time></trkpt><trkpt lat="45.6318705" lon="11.3775406"><ele>259.0</ele><time>2026-04-04T12:42:01.801Z</time></trkpt><trkpt lat="45.6319251" lon="11.3774702"><ele>257.0</ele><time>2026-04-04T12:42:02.8Z</time></trkpt><trkpt lat="45.6319775" lon="11.3774089"><ele>255.0</ele><time>2026-04-04T12:42:03.801Z</time></trkpt><trkpt lat="45.6320374" lon="11.3773475"><ele>255.0</ele><time>2026-04-04T12:42:04.8Z</time></trkpt><trkpt lat="45.6321011" lon="11.3772797"><ele>255.0</ele><time>2026-04-04T12:42:05.802Z</time></trkpt><trkpt lat="45.6321668" lon="11.3772104"><ele>255.0</ele><time>2026-04-04T12:42:06.802Z</time></trkpt><trkpt lat="45.632215" lon="11.3771443"><ele>255.0</ele><time>2026-04-04T12:42:07.802Z</time></trkpt><trkpt lat="45.6322783" lon="11.377026"><ele>255.0</ele><time>2026-04-04T12:42:09.801Z</time></trkpt><trkpt lat="45.632358" lon="11.3769159"><ele>255.0</ele><time>2026-04-04T12:42:11.8Z</time></trkpt><trkpt lat="45.6324171" lon="11.3768102"><ele>255.0</ele><time>2026-04-04T12:42:12.801Z</time></trkpt><trkpt lat="45.6324621" lon="11.3767036"><ele>255.0</ele><time>2026-04-04T12:42:13.8Z</time></trkpt><trkpt lat="45.6324927" lon="11.3766085"><ele>255.0</ele><time>2026-04-04T12:42:14.801Z</time></trkpt><trkpt lat="45.6325134" lon="11.3765044"><ele>255.0</ele><time>2026-04-04T12:42:15.801Z</time></trkpt><trkpt lat="45.6325206" lon="11.3764001"><ele>255.0</ele><time>2026-04-04T12:42:16.801Z</time></trkpt><trkpt lat="45.6325163" lon="11.3762719"><ele>255.0</ele><time>2026-04-04T12:42:18.801Z</time></trkpt><trkpt lat="45.6324933" lon="11.3761562"><ele>255.0</ele><time>2026-04-04T12:42:21.801Z</time></trkpt><trkpt lat="45.6324461" lon="11.3760169"><ele>255.0</ele><time>2026-04-04T12:42:23.8Z</time></trkpt><trkpt lat="45.6324223" lon="11.3759239"><ele>255.0</ele><time>2026-04-04T12:42:24.801Z</time></trkpt><trkpt lat="45.6323924" lon="11.375807"><ele>255.0</ele><time>2026-04-04T12:42:25.801Z</time></trkpt><trkpt lat="45.6323526" lon="11.375697"><ele>255.0</ele><time>2026-04-04T12:42:26.802Z</time></trkpt><trkpt lat="45.6323346" lon="11.3756031"><ele>255.0</ele><time>2026-04-04T12:42:27.801Z</time></trkpt><trkpt lat="45.6323234" lon="11.3754887"><ele>254.33333333333334</ele><time>2026-04-04T12:42:28.801Z</time></trkpt><trkpt lat="45.6323388" lon="11.3753673"><ele>253.66666666666669</ele><time>2026-04-04T12:42:29.801Z</time></trkpt><trkpt lat="45.6323567" lon="11.375204"><ele>253.0</ele><time>2026-04-04T12:42:31.802Z</time></trkpt><trkpt lat="45.6323471" lon="11.375096"><ele>252.33333333333334</ele><time>2026-04-04T12:42:32.802Z</time></trkpt><trkpt lat="45.6323533" lon="11.3749947"><ele>251.66666666666669</ele><time>2026-04-04T12:42:33.802Z</time></trkpt><trkpt lat="45.6323673" lon="11.3749011"><ele>251.0</ele><time>2026-04-04T12:42:34.802Z</time></trkpt><trkpt lat="45.6323916" lon="11.3747684"><ele>250.00000000000003</ele><time>2026-04-04T12:42:36.801Z</time></trkpt><trkpt lat="45.6323835" lon="11.3746608"><ele>249.0</ele><time>2026-04-04T12:42:39.802Z</time></trkpt><trkpt lat="45.6323552" lon="11.374496"><ele>248.0</ele><time>2026-04-04T12:42:41.8Z</time></trkpt><trkpt lat="45.6323259" lon="11.3743952"><ele>247.0</ele><time>2026-04-04T12:42:43.802Z</time></trkpt><trkpt lat="45.632267" lon="11.374317"><ele>246.00000000000003</ele><time>2026-04-04T12:42:56.801Z</time></trkpt><trkpt lat="45.6322034" lon="11.3742251"><ele>245.0</ele><time>2026-04-04T12:42:57.8Z</time></trkpt><trkpt lat="45.6321202" lon="11.3741212"><ele>245.0</ele><time>2026-04-04T12:42:58.801Z</time></trkpt><trkpt lat="45.6320119" lon="11.3740166"><ele>245.0</ele><time>2026-04-04T12:42:59.802Z</time></trkpt><trkpt lat="45.6318855" lon="11.373907"><ele>245.0</ele><time>2026-04-04T12:43:00.8Z</time></trkpt><trkpt lat="45.6317602" lon="11.3737941"><ele>245.0</ele><time>2026-04-04T12:43:01.801Z</time></trkpt><trkpt lat="45.63162" lon="11.3736803"><ele>245.2</ele><time>2026-04-04T12:43:02.8Z</time></trkpt><trkpt lat="45.6314965" lon="11.3735873"><ele>245.4</ele><time>2026-04-04T12:43:03.802Z</time></trkpt><trkpt lat="45.6313982" lon="11.3735136"><ele>245.60000000000002</ele><time>2026-04-04T12:43:04.801Z</time></trkpt><trkpt lat="45.6313295" lon="11.373449"><ele>245.8</ele><time>2026-04-04T12:43:05.801Z</time></trkpt><trkpt lat="45.6312542" lon="11.3733693"><ele>246.0</ele><time>2026-04-04T12:43:07.801Z</time></trkpt><trkpt lat="45.6311441" lon="11.3733266"><ele>247.16666666666666</ele><time>2026-04-04T12:43:10.8Z</time></trkpt><trkpt lat="45.6310692" lon="11.3733331"><ele>248.33333333333331</ele><time>2026-04-04T12:43:11.801Z</time></trkpt><trkpt lat="45.6309795" lon="11.3733338"><ele>249.5</ele><time>2026-04-04T12:43:12.801Z</time></trkpt><trkpt lat="45.6308899" lon="11.3733624"><ele>250.66666666666666</ele><time>2026-04-04T12:43:13.801Z</time></trkpt><trkpt lat="45.630806" lon="11.3734211"><ele>251.83333333333331</ele><time>2026-04-04T12:43:14.8Z</time></trkpt><trkpt lat="45.6307392" lon="11.3734873"><ele>253.0</ele><time>2026-04-04T12:43:15.8Z</time></trkpt><trkpt lat="45.6306489" lon="11.3735223"><ele>252.99999999999997</ele><time>2026-04-04T12:43:17.801Z</time></trkpt><trkpt lat="45.630592" lon="11.3734284"><ele>253.0</ele><time>2026-04-04T12:43:19.801Z</time></trkpt><trkpt lat="45.6305983" lon="11.3733375"><ele>253.0</ele><time>2026-04-04T12:43:20.8Z</time></trkpt><trkpt lat="45.6306467" lon="11.3732396"><ele>253.0</ele><time>2026-04-04T12:43:21.801Z</time></trkpt><trkpt lat="45.6307035" lon="11.3731613"><ele>252.99999999999997</ele><time>2026-04-04T12:43:22.8Z</time></trkpt><trkpt lat="45.6307599" lon="11.3730876"><ele>253.0</ele><time>2026-04-04T12:43:23.801Z</time></trkpt><trkpt lat="45.6307677" lon="11.3729758"><ele>253.0</ele><time>2026-04-04T12:43:25.8Z</time></trkpt><trkpt lat="45.6306852" lon="11.3729971"><ele>253.0</ele><time>2026-04-04T12:43:27.8Z</time></trkpt><trkpt lat="45.630629" lon="11.373079"><ele>253.0</ele><time>2026-04-04T12:43:28.8Z</time></trkpt><trkpt lat="45.6305517" lon="11.3731533"><ele>253.0</ele><time>2026-04-04T12:43:29.8Z</time></trkpt><trkpt lat="45.6304557" lon="11.3732191"><ele>253.0</ele><time>2026-04-04T12:43:30.801Z</time></trkpt><trkpt lat="45.6303618" lon="11.3732798"><ele>257.5</ele><time>2026-04-04T12:43:31.802Z</time></trkpt><trkpt lat="45.6302565" lon="11.3733402"><ele>262.0</ele><time>2026-04-04T12:43:32.802Z</time></trkpt><trkpt lat="45.6301494" lon="11.3733905"><ele>266.5</ele><time>2026-04-04T12:43:33.8Z</time></trkpt><trkpt lat="45.6300365" lon="11.3734191"><ele>271.0</ele><time>2026-04-04T12:43:34.8Z</time></trkpt><trkpt lat="45.6299111" lon="11.3734097"><ele>271.0</ele><time>2026-04-04T12:43:35.802Z</time></trkpt><trkpt lat="45.6297867" lon="11.3733677"><ele>271.0</ele><time>2026-04-04T12:43:36.801Z</time></trkpt><trkpt lat="45.6296615" lon="11.3733215"><ele>271.0</ele><time>2026-04-04T12:43:37.801Z</time></trkpt><trkpt lat="45.6295409" lon="11.3732863"><ele>271.0</ele><time>2026-04-04T12:43:38.8Z</time></trkpt><trkpt lat="45.6294115" lon="11.3732538"><ele>275.5</ele><time>2026-04-04T12:43:39.801Z</time></trkpt><trkpt lat="45.6292773" lon="11.373228"><ele>280.0</ele><time>2026-04-04T12:43:40.802Z</time></trkpt><trkpt lat="45.6291497" lon="11.3732056"><ele>284.5</ele><time>2026-04-04T12:43:41.801Z</time></trkpt><trkpt lat="45.6290274" lon="11.3732153"><ele>289.0</ele><time>2026-04-04T12:43:42.8Z</time></trkpt><trkpt lat="45.6289073" lon="11.3732696"><ele>289.0</ele><time>2026-04-04T12:43:43.802Z</time></trkpt><trkpt lat="45.6287876" lon="11.3732867"><ele>289.0</ele><time>2026-04-04T12:43:44.801Z</time></trkpt><trkpt lat="45.6286548" lon="11.373289"><ele>289.0</ele><time>2026-04-04T12:43:45.802Z</time></trkpt><trkpt lat="45.6285275" lon="11.3732839"><ele>289.0</ele><time>2026-04-04T12:43:46.8Z</time></trkpt><trkpt lat="45.6283966" lon="11.3732892"><ele>293.25</ele><time>2026-04-04T12:43:47.801Z</time></trkpt><trkpt lat="45.6282675" lon="11.3732987"><ele>297.5</ele><time>2026-04-04T12:43:48.801Z</time></trkpt><trkpt lat="45.6281313" lon="11.3733561"><ele>301.75</ele><time>2026-04-04T12:43:49.801Z</time></trkpt><trkpt lat="45.6280082" lon="11.3733902"><ele>306.0</ele><time>2026-04-04T12:43:50.802Z</time></trkpt><trkpt lat="45.6278875" lon="11.3734158"><ele>306.0</ele><time>2026-04-04T12:43:51.801Z</time></trkpt><trkpt lat="45.6278" lon="11.3734305"><ele>306.0</ele><time>2026-04-04T12:43:52.801Z</time></trkpt><trkpt lat="45.6277343" lon="11.373425"><ele>306.0</ele><time>2026-04-04T12:43:53.8Z</time></trkpt><trkpt lat="45.6276744" lon="11.3733694"><ele>306.0</ele><time>2026-04-04T12:43:55.8Z</time></trkpt><trkpt lat="45.6277848" lon="11.3733116"><ele>306.0</ele><time>2026-04-04T12:43:57.802Z</time></trkpt><trkpt lat="45.6278796" lon="11.3732894"><ele>306.0</ele><time>2026-04-04T12:43:58.802Z</time></trkpt><trkpt lat="45.6279396" lon="11.3731815"><ele>306.0</ele><time>2026-04-04T12:44:00.802Z</time></trkpt><trkpt lat="45.6279019" lon="11.3730828"><ele>306.0</ele><time>2026-04-04T12:44:02.801Z</time></trkpt><trkpt lat="45.627796" lon="11.3730743"><ele>306.0</ele><time>2026-04-04T12:44:03.801Z</time></trkpt><trkpt lat="45.6276123" lon="11.3731394"><ele>306.0</ele><time>2026-04-04T12:44:04.802Z</time></trkpt><trkpt lat="45.6274783" lon="11.3731612"><ele>310.6666666666667</ele><time>2026-04-04T12:44:05.8Z</time></trkpt><trkpt lat="45.6273459" lon="11.3731956"><ele>315.33333333333337</ele><time>2026-04-04T12:44:06.801Z</time></trkpt><trkpt lat="45.6271538" lon="11.3732469"><ele>320.0</ele><time>2026-04-04T12:44:07.801Z</time></trkpt><trkpt lat="45.6269584" lon="11.3733155"><ele>328.0</ele><time>2026-04-04T12:44:08.8Z</time></trkpt><trkpt lat="45.6267593" lon="11.3733747"><ele>336.0</ele><time>2026-04-04T12:44:09.801Z</time></trkpt><trkpt lat="45.6265304" lon="11.3734082"><ele>344.0</ele><time>2026-04-04T12:44:10.8Z</time></trkpt><trkpt lat="45.6263345" lon="11.3734209"><ele>344.0</ele><time>2026-04-04T12:44:11.8Z</time></trkpt><trkpt lat="45.6261751" lon="11.3734773"><ele>344.0</ele><time>2026-04-04T12:44:12.802Z</time></trkpt><trkpt lat="45.6260079" lon="11.3735068"><ele>344.0</ele><time>2026-04-04T12:44:13.802Z</time></trkpt><trkpt lat="45.6258762" lon="11.3735181"><ele>345.79999999999995</ele><time>2026-04-04T12:44:14.802Z</time></trkpt><trkpt lat="45.625788" lon="11.3736148"><ele>347.59999999999997</ele><time>2026-04-04T12:44:15.8Z</time></trkpt><trkpt lat="45.6257014" lon="11.3735176"><ele>349.4</ele><time>2026-04-04T12:44:17.8Z</time></trkpt><trkpt lat="45.6256353" lon="11.3734206"><ele>351.2</ele><time>2026-04-04T12:44:18.8Z</time></trkpt><trkpt lat="45.6255679" lon="11.3732941"><ele>353.0</ele><time>2026-04-04T12:44:19.801Z</time></trkpt><trkpt lat="45.6254965" lon="11.3731591"><ele>353.0</ele><time>2026-04-04T12:44:20.8Z</time></trkpt><trkpt lat="45.6254285" lon="11.373028"><ele>353.0</ele><time>2026-04-04T12:44:21.802Z</time></trkpt><trkpt lat="45.6253699" lon="11.3728751"><ele>353.0</ele><time>2026-04-04T12:44:22.801Z</time></trkpt><trkpt lat="45.6253168" lon="11.3727206"><ele>353.0</ele><time>2026-04-04T12:44:23.8Z</time></trkpt><trkpt lat="45.6252781" lon="11.3725933"><ele>352.0</ele><time>2026-04-04T12:44:24.8Z</time></trkpt><trkpt lat="45.6252572" lon="11.3724682"><ele>351.0</ele><time>2026-04-04T12:44:25.801Z</time></trkpt><trkpt lat="45.6252734" lon="11.3723208"><ele>350.0</ele><time>2026-04-04T12:44:26.8Z</time></trkpt><trkpt lat="45.6253077" lon="11.3721954"><ele>349.0</ele><time>2026-04-04T12:44:27.802Z</time></trkpt><trkpt lat="45.6253115" lon="11.3720866"><ele>348.0</ele><time>2026-04-04T12:44:28.802Z</time></trkpt><trkpt lat="45.6252752" lon="11.3719895"><ele>347.0</ele><time>2026-04-04T12:44:29.801Z</time></trkpt><trkpt lat="45.6251948" lon="11.3719058"><ele>347.0</ele><time>2026-04-04T12:44:30.801Z</time></trkpt><trkpt lat="45.6250919" lon="11.3718316"><ele>347.0</ele><time>2026-04-04T12:44:31.8Z</time></trkpt><trkpt lat="45.6249703" lon="11.3717687"><ele>347.0</ele><time>2026-04-04T12:44:32.801Z</time></trkpt><trkpt lat="45.6248465" lon="11.3717124"><ele>347.0</ele><time>2026-04-04T12:44:33.801Z</time></trkpt><trkpt lat="45.6247431" lon="11.3716784"><ele>347.0</ele><time>2026-04-04T12:44:34.8Z</time></trkpt><trkpt lat="45.6246432" lon="11.3716569"><ele>347.0</ele><time>2026-04-04T12:44:35.801Z</time></trkpt><trkpt lat="45.6245624" lon="11.3716108"><ele>347.0</ele><time>2026-04-04T12:44:36.801Z</time></trkpt><trkpt lat="45.6244918" lon="11.3715296"><ele>347.0</ele><time>2026-04-04T12:44:37.801Z</time></trkpt><trkpt lat="45.6244592" lon="11.3714465"><ele>347.0</ele><time>2026-04-04T12:44:38.802Z</time></trkpt><trkpt lat="45.6244492" lon="11.3713287"><ele>347.0</ele><time>2026-04-04T12:44:40.801Z</time></trkpt><trkpt lat="45.6245456" lon="11.371241"><ele>347.0</ele><time>2026-04-04T12:44:42.801Z</time></trkpt><trkpt lat="45.6246073" lon="11.3712151"><ele>347.0</ele><time>2026-04-04T12:44:43.8Z</time></trkpt><trkpt lat="45.6246742" lon="11.3711801"><ele>347.0</ele><time>2026-04-04T12:44:44.801Z</time></trkpt><trkpt lat="45.6247418" lon="11.3711285"><ele>347.0</ele><time>2026-04-04T12:44:45.801Z</time></trkpt><trkpt lat="45.6248178" lon="11.3710722"><ele>347.0</ele><time>2026-04-04T12:44:46.8Z</time></trkpt><trkpt lat="45.6248923" lon="11.3710108"><ele>347.0</ele><time>2026-04-04T12:44:47.802Z</time></trkpt><trkpt lat="45.6249667" lon="11.3709465"><ele>347.0</ele><time>2026-04-04T12:44:48.799Z</time></trkpt><trkpt lat="45.6250402" lon="11.3708824"><ele>347.0</ele><time>2026-04-04T12:44:49.799Z</time></trkpt><trkpt lat="45.6251103" lon="11.3708109"><ele>347.0</ele><time>2026-04-04T12:44:50.799Z</time></trkpt><trkpt lat="45.6251754" lon="11.3707264"><ele>347.0</ele><time>2026-04-04T12:44:51.8Z</time></trkpt><trkpt lat="45.6252373" lon="11.370634"><ele>347.0</ele><time>2026-04-04T12:44:52.801Z</time></trkpt><trkpt lat="45.6252897" lon="11.3705288"><ele>347.0</ele><time>2026-04-04T12:44:53.801Z</time></trkpt><trkpt lat="45.6253395" lon="11.3704187"><ele>350.8</ele><time>2026-04-04T12:44:54.8Z</time></trkpt><trkpt lat="45.6253843" lon="11.3703066"><ele>354.6</ele><time>2026-04-04T12:44:55.799Z</time></trkpt><trkpt lat="45.6254184" lon="11.3701842"><ele>358.40000000000003</ele><time>2026-04-04T12:44:56.8Z</time></trkpt><trkpt lat="45.6254508" lon="11.370055"><ele>362.20000000000005</ele><time>2026-04-04T12:44:57.799Z</time></trkpt><trkpt lat="45.6254797" lon="11.3699204"><ele>366.0</ele><time>2026-04-04T12:44:58.8Z</time></trkpt><trkpt lat="45.6255101" lon="11.3697957"><ele>366.0</ele><time>2026-04-04T12:44:59.8Z</time></trkpt><trkpt lat="45.6255481" lon="11.3696934"><ele>366.0</ele><time>2026-04-04T12:45:00.8Z</time></trkpt><trkpt lat="45.6255916" lon="11.3696124"><ele>366.0</ele><time>2026-04-04T12:45:01.801Z</time></trkpt><trkpt lat="45.625649" lon="11.3695529"><ele>366.0</ele><time>2026-04-04T12:45:02.799Z</time></trkpt><trkpt lat="45.6257225" lon="11.3695007"><ele>366.0</ele><time>2026-04-04T12:45:03.799Z</time></trkpt><trkpt lat="45.6258163" lon="11.3694598"><ele>366.0</ele><time>2026-04-04T12:45:04.8Z</time></trkpt><trkpt lat="45.6259251" lon="11.3694094"><ele>365.20000000000005</ele><time>2026-04-04T12:45:05.8Z</time></trkpt><trkpt lat="45.6260289" lon="11.3693548"><ele>364.40000000000003</ele><time>2026-04-04T12:45:06.799Z</time></trkpt><trkpt lat="45.6261159" lon="11.3693049"><ele>363.6</ele><time>2026-04-04T12:45:07.801Z</time></trkpt><trkpt lat="45.6262007" lon="11.3692742"><ele>362.8</ele><time>2026-04-04T12:45:08.8Z</time></trkpt><trkpt lat="45.6263018" lon="11.369271"><ele>362.0</ele><time>2026-04-04T12:45:09.799Z</time></trkpt><trkpt lat="45.6264137" lon="11.3692845"><ele>362.0</ele><time>2026-04-04T12:45:10.799Z</time></trkpt><trkpt lat="45.6265305" lon="11.3692991"><ele>362.0</ele><time>2026-04-04T12:45:11.8Z</time></trkpt><trkpt lat="45.6266556" lon="11.3693214"><ele>362.0</ele><time>2026-04-04T12:45:12.799Z</time></trkpt><trkpt lat="45.626779" lon="11.3693505"><ele>362.0</ele><time>2026-04-04T12:45:13.799Z</time></trkpt><trkpt lat="45.6269057" lon="11.3693792"><ele>362.75</ele><time>2026-04-04T12:45:14.8Z</time></trkpt><trkpt lat="45.6270354" lon="11.3694107"><ele>363.5</ele><time>2026-04-04T12:45:15.8Z</time></trkpt><trkpt lat="45.6271692" lon="11.3694309"><ele>364.25</ele><time>2026-04-04T12:45:16.801Z</time></trkpt><trkpt lat="45.6272947" lon="11.3694429"><ele>365.0</ele><time>2026-04-04T12:45:17.8Z</time></trkpt><trkpt lat="45.6274087" lon="11.3694519"><ele>365.0</ele><time>2026-04-04T12:45:18.801Z</time></trkpt><trkpt lat="45.6275168" lon="11.3694504"><ele>365.0</ele><time>2026-04-04T12:45:19.799Z</time></trkpt><trkpt lat="45.6276153" lon="11.3694336"><ele>365.0</ele><time>2026-04-04T12:45:20.8Z</time></trkpt><trkpt lat="45.627702" lon="11.3694052"><ele>365.0</ele><time>2026-04-04T12:45:21.799Z</time></trkpt><trkpt lat="45.6277918" lon="11.3693455"><ele>365.0</ele><time>2026-04-04T12:45:22.8Z</time></trkpt><trkpt lat="45.6278929" lon="11.3692438"><ele>365.25</ele><time>2026-04-04T12:45:23.8Z</time></trkpt><trkpt lat="45.6279993" lon="11.3691341"><ele>365.5</ele><time>2026-04-04T12:45:24.799Z</time></trkpt><trkpt lat="45.6281055" lon="11.3690054"><ele>365.75</ele><time>2026-04-04T12:45:25.801Z</time></trkpt><trkpt lat="45.6282096" lon="11.3688775"><ele>366.0</ele><time>2026-04-04T12:45:26.8Z</time></trkpt><trkpt lat="45.6282943" lon="11.368777"><ele>366.20000000000005</ele><time>2026-04-04T12:45:27.8Z</time></trkpt><trkpt lat="45.6283749" lon="11.368695"><ele>366.40000000000003</ele><time>2026-04-04T12:45:28.8Z</time></trkpt><trkpt lat="45.6284612" lon="11.3686464"><ele>366.6</ele><time>2026-04-04T12:45:29.799Z</time></trkpt><trkpt lat="45.6285416" lon="11.3686176"><ele>366.8</ele><time>2026-04-04T12:45:30.8Z</time></trkpt><trkpt lat="45.6286299" lon="11.3685948"><ele>367.0</ele><time>2026-04-04T12:45:31.801Z</time></trkpt><trkpt lat="45.628715" lon="11.3685375"><ele>367.0</ele><time>2026-04-04T12:45:32.799Z</time></trkpt><trkpt lat="45.6288074" lon="11.3684781"><ele>367.0</ele><time>2026-04-04T12:45:33.799Z</time></trkpt><trkpt lat="45.6288891" lon="11.3683193"><ele>367.0</ele><time>2026-04-04T12:45:34.8Z</time></trkpt><trkpt lat="45.6289677" lon="11.368175"><ele>367.0</ele><time>2026-04-04T12:45:35.799Z</time></trkpt><trkpt lat="45.6290264" lon="11.368041"><ele>372.0</ele><time>2026-04-04T12:45:36.801Z</time></trkpt><trkpt lat="45.6290689" lon="11.3679343"><ele>377.0</ele><time>2026-04-04T12:45:37.8Z</time></trkpt><trkpt lat="45.6290733" lon="11.3677509"><ele>382.0</ele><time>2026-04-04T12:45:39.8Z</time></trkpt><trkpt lat="45.629043" lon="11.3676474"><ele>387.0</ele><time>2026-04-04T12:45:40.8Z</time></trkpt><trkpt lat="45.629011" lon="11.3674991"><ele>392.0</ele><time>2026-04-04T12:45:42.799Z</time></trkpt><trkpt lat="45.6290415" lon="11.3673996"><ele>392.0</ele><time>2026-04-04T12:45:43.8Z</time></trkpt><trkpt lat="45.6290867" lon="11.3673236"><ele>392.0</ele><time>2026-04-04T12:45:44.8Z</time></trkpt><trkpt lat="45.6291644" lon="11.3672497"><ele>392.0</ele><time>2026-04-04T12:45:45.8Z</time></trkpt><trkpt lat="45.6292529" lon="11.3671502"><ele>392.0</ele><time>2026-04-04T12:45:46.8Z</time></trkpt><trkpt lat="45.6293554" lon="11.3670441"><ele>392.0</ele><time>2026-04-04T12:45:47.8Z</time></trkpt><trkpt lat="45.6294741" lon="11.3669655"><ele>391.0</ele><time>2026-04-04T12:45:48.8Z</time></trkpt><trkpt lat="45.6295998" lon="11.3668966"><ele>390.0</ele><time>2026-04-04T12:45:49.8Z</time></trkpt><trkpt lat="45.6297118" lon="11.3668278"><ele>389.0</ele><time>2026-04-04T12:45:50.8Z</time></trkpt><trkpt lat="45.629794" lon="11.3667652"><ele>388.0</ele><time>2026-04-04T12:45:51.799Z</time></trkpt><trkpt lat="45.6298492" lon="11.3666874"><ele>387.0</ele><time>2026-04-04T12:45:52.8Z</time></trkpt><trkpt lat="45.6298802" lon="11.3665983"><ele>387.0</ele><time>2026-04-04T12:45:53.799Z</time></trkpt><trkpt lat="45.6299" lon="11.3665079"><ele>387.0</ele><time>2026-04-04T12:45:54.801Z</time></trkpt><trkpt lat="45.6298735" lon="11.3663515"><ele>387.0</ele><time>2026-04-04T12:45:55.8Z</time></trkpt><trkpt lat="45.6298873" lon="11.3662277"><ele>387.0</ele><time>2026-04-04T12:45:56.8Z</time></trkpt><trkpt lat="45.6299203" lon="11.3661051"><ele>387.0</ele><time>2026-04-04T12:45:57.801Z</time></trkpt><trkpt lat="45.6299867" lon="11.3659843"><ele>390.0</ele><time>2026-04-04T12:45:58.799Z</time></trkpt><trkpt lat="45.6300736" lon="11.3658724"><ele>393.0</ele><time>2026-04-04T12:45:59.8Z</time></trkpt><trkpt lat="45.6301792" lon="11.3657629"><ele>396.0</ele><time>2026-04-04T12:46:00.799Z</time></trkpt><trkpt lat="45.6302839" lon="11.3656595"><ele>399.0</ele><time>2026-04-04T12:46:01.799Z</time></trkpt><trkpt lat="45.6303655" lon="11.3655665"><ele>402.0</ele><time>2026-04-04T12:46:02.801Z</time></trkpt><trkpt lat="45.6304297" lon="11.3654637"><ele>405.0</ele><time>2026-04-04T12:46:03.799Z</time></trkpt><trkpt lat="45.6304723" lon="11.3653484"><ele>408.0</ele><time>2026-04-04T12:46:04.8Z</time></trkpt><trkpt lat="45.6304925" lon="11.3652175"><ele>411.0</ele><time>2026-04-04T12:46:05.8Z</time></trkpt><trkpt lat="45.6304799" lon="11.3650726"><ele>414.0</ele><time>2026-04-04T12:46:06.799Z</time></trkpt><trkpt lat="45.6304784" lon="11.364919"><ele>414.0</ele><time>2026-04-04T12:46:07.799Z</time></trkpt><trkpt lat="45.6304528" lon="11.3647724"><ele>414.0</ele><time>2026-04-04T12:46:08.799Z</time></trkpt><trkpt lat="45.6304139" lon="11.3646176"><ele>414.0</ele><time>2026-04-04T12:46:09.799Z</time></trkpt><trkpt lat="45.6304038" lon="11.3644948"><ele>414.0</ele><time>2026-04-04T12:46:10.8Z</time></trkpt><trkpt lat="45.630397" lon="11.364357"><ele>414.0</ele><time>2026-04-04T12:46:11.799Z</time></trkpt><trkpt lat="45.6304482" lon="11.3642179"><ele>415.0</ele><time>2026-04-04T12:46:12.8Z</time></trkpt><trkpt lat="45.6304858" lon="11.3640804"><ele>416.0</ele><time>2026-04-04T12:46:13.8Z</time></trkpt><trkpt lat="45.6305078" lon="11.3639759"><ele>417.0</ele><time>2026-04-04T12:46:14.799Z</time></trkpt><trkpt lat="45.6304955" lon="11.3638656"><ele>418.0</ele><time>2026-04-04T12:46:15.799Z</time></trkpt><trkpt lat="45.6304538" lon="11.363754"><ele>419.0</ele><time>2026-04-04T12:46:16.8Z</time></trkpt><trkpt lat="45.6304177" lon="11.3636399"><ele>420.0</ele><time>2026-04-04T12:46:17.8Z</time></trkpt><trkpt lat="45.630407" lon="11.363505"><ele>421.4</ele><time>2026-04-04T12:46:18.8Z</time></trkpt><trkpt lat="45.6303933" lon="11.3633907"><ele>422.8</ele><time>2026-04-04T12:46:19.799Z</time></trkpt><trkpt lat="45.6305517" lon="11.3632743"><ele>424.20000000000005</ele><time>2026-04-04T12:46:21.8Z</time></trkpt><trkpt lat="45.6306261" lon="11.3632159"><ele>425.6</ele><time>2026-04-04T12:46:22.8Z</time></trkpt><trkpt lat="45.6306902" lon="11.363133"><ele>427.0</ele><time>2026-04-04T12:46:23.799Z</time></trkpt><trkpt lat="45.6307558" lon="11.3630281"><ele>430.20000000000005</ele><time>2026-04-04T12:46:24.801Z</time></trkpt><trkpt lat="45.6307152" lon="11.3629486"><ele>433.40000000000003</ele><time>2026-04-04T12:46:25.8Z</time></trkpt><trkpt lat="45.6306391" lon="11.3628872"><ele>436.59999999999997</ele><time>2026-04-04T12:46:27.799Z</time></trkpt><trkpt lat="45.6305094" lon="11.3629446"><ele>439.79999999999995</ele><time>2026-04-04T12:46:29.801Z</time></trkpt><trkpt lat="45.6304111" lon="11.3629916"><ele>443.0</ele><time>2026-04-04T12:46:30.8Z</time></trkpt><trkpt lat="45.630308" lon="11.3630638"><ele>444.79999999999995</ele><time>2026-04-04T12:46:31.799Z</time></trkpt><trkpt lat="45.6302378" lon="11.3631637"><ele>446.59999999999997</ele><time>2026-04-04T12:46:32.8Z</time></trkpt><trkpt lat="45.630185" lon="11.3632926"><ele>448.40000000000003</ele><time>2026-04-04T12:46:33.8Z</time></trkpt><trkpt lat="45.6301346" lon="11.3634406"><ele>450.20000000000005</ele><time>2026-04-04T12:46:34.8Z</time></trkpt><trkpt lat="45.6300917" lon="11.3635938"><ele>452.0</ele><time>2026-04-04T12:46:35.8Z</time></trkpt><trkpt lat="45.6300569" lon="11.3637163"><ele>452.0</ele><time>2026-04-04T12:46:36.799Z</time></trkpt><trkpt lat="45.6300255" lon="11.3637949"><ele>452.00000000000006</ele><time>2026-04-04T12:46:37.801Z</time></trkpt><trkpt lat="45.6299434" lon="11.363796"><ele>452.00000000000006</ele><time>2026-04-04T12:46:40.8Z</time></trkpt><trkpt lat="45.629994" lon="11.3636914"><ele>452.0</ele><time>2026-04-04T12:46:41.799Z</time></trkpt><trkpt lat="45.6300064" lon="11.3635009"><ele>452.0</ele><time>2026-04-04T12:46:43.8Z</time></trkpt><trkpt lat="45.6300189" lon="11.3633732"><ele>452.0</ele><time>2026-04-04T12:46:44.8Z</time></trkpt><trkpt lat="45.6300286" lon="11.3632187"><ele>452.0</ele><time>2026-04-04T12:46:45.8Z</time></trkpt><trkpt lat="45.6300332" lon="11.3630512"><ele>452.0</ele><time>2026-04-04T12:46:46.8Z</time></trkpt><trkpt lat="45.6300483" lon="11.3628677"><ele>452.0</ele><time>2026-04-04T12:46:47.8Z</time></trkpt><trkpt lat="45.6300703" lon="11.3627186"><ele>450.20000000000005</ele><time>2026-04-04T12:46:48.8Z</time></trkpt><trkpt lat="45.6301084" lon="11.3625952"><ele>448.40000000000003</ele><time>2026-04-04T12:46:49.799Z</time></trkpt><trkpt lat="45.6301833" lon="11.362492"><ele>446.59999999999997</ele><time>2026-04-04T12:46:50.799Z</time></trkpt><trkpt lat="45.6302532" lon="11.3623809"><ele>444.79999999999995</ele><time>2026-04-04T12:46:51.799Z</time></trkpt><trkpt lat="45.6303599" lon="11.3622667"><ele>443.0</ele><time>2026-04-04T12:46:52.8Z</time></trkpt><trkpt lat="45.6304937" lon="11.3621542"><ele>449.25</ele><time>2026-04-04T12:46:53.801Z</time></trkpt><trkpt lat="45.6306162" lon="11.3620226"><ele>455.5</ele><time>2026-04-04T12:46:54.799Z</time></trkpt><trkpt lat="45.6307342" lon="11.361899"><ele>461.75</ele><time>2026-04-04T12:46:55.799Z</time></trkpt><trkpt lat="45.63083" lon="11.3617763"><ele>468.0</ele><time>2026-04-04T12:46:56.8Z</time></trkpt><trkpt lat="45.6309082" lon="11.3616556"><ele>468.0</ele><time>2026-04-04T12:46:57.801Z</time></trkpt><trkpt lat="45.6309656" lon="11.3615162"><ele>467.99999999999994</ele><time>2026-04-04T12:46:58.799Z</time></trkpt><trkpt lat="45.631008" lon="11.3613836"><ele>467.99999999999994</ele><time>2026-04-04T12:46:59.799Z</time></trkpt><trkpt lat="45.631023" lon="11.3612527"><ele>468.0</ele><time>2026-04-04T12:47:00.8Z</time></trkpt><trkpt lat="45.6310449" lon="11.3611371"><ele>468.0</ele><time>2026-04-04T12:47:01.801Z</time></trkpt><trkpt lat="45.6310715" lon="11.3610299"><ele>469.6666666666667</ele><time>2026-04-04T12:47:02.8Z</time></trkpt><trkpt lat="45.6311085" lon="11.3609331"><ele>471.33333333333337</ele><time>2026-04-04T12:47:03.8Z</time></trkpt><trkpt lat="45.6311592" lon="11.3608478"><ele>473.0</ele><time>2026-04-04T12:47:04.799Z</time></trkpt><trkpt lat="45.631231" lon="11.360773"><ele>474.6666666666667</ele><time>2026-04-04T12:47:05.799Z</time></trkpt><trkpt lat="45.6313069" lon="11.3607134"><ele>476.33333333333337</ele><time>2026-04-04T12:47:06.8Z</time></trkpt><trkpt lat="45.6314007" lon="11.3606485"><ele>478.0</ele><time>2026-04-04T12:47:07.8Z</time></trkpt><trkpt lat="45.6314896" lon="11.3605658"><ele>480.0</ele><time>2026-04-04T12:47:08.8Z</time></trkpt><trkpt lat="45.6315374" lon="11.360483"><ele>481.99999999999994</ele><time>2026-04-04T12:47:09.799Z</time></trkpt><trkpt lat="45.6315337" lon="11.3603155"><ele>483.99999999999994</ele><time>2026-04-04T12:47:11.799Z</time></trkpt><trkpt lat="45.6315108" lon="11.3602005"><ele>486.0</ele><time>2026-04-04T12:47:12.8Z</time></trkpt><trkpt lat="45.6315136" lon="11.3600523"><ele>488.0</ele><time>2026-04-04T12:47:13.8Z</time></trkpt><trkpt lat="45.6315082" lon="11.3598999"><ele>487.99999999999994</ele><time>2026-04-04T12:47:14.799Z</time></trkpt><trkpt lat="45.631482" lon="11.3597823"><ele>488.0</ele><time>2026-04-04T12:47:15.8Z</time></trkpt><trkpt lat="45.6314405" lon="11.359675"><ele>488.0</ele><time>2026-04-04T12:47:16.799Z</time></trkpt><trkpt lat="45.6313968" lon="11.3595887"><ele>488.0</ele><time>2026-04-04T12:47:17.8Z</time></trkpt><trkpt lat="45.6314422" lon="11.3594828"><ele>487.99999999999994</ele><time>2026-04-04T12:47:19.8Z</time></trkpt><trkpt lat="45.6315195" lon="11.3595217"><ele>488.0</ele><time>2026-04-04T12:47:21.799Z</time></trkpt><trkpt lat="45.6315787" lon="11.3595645"><ele>490.59999999999997</ele><time>2026-04-04T12:47:22.8Z</time></trkpt><trkpt lat="45.6317027" lon="11.3594962"><ele>493.19999999999993</ele><time>2026-04-04T12:47:24.801Z</time></trkpt><trkpt lat="45.631761" lon="11.3594153"><ele>495.8</ele><time>2026-04-04T12:47:25.8Z</time></trkpt><trkpt lat="45.6318172" lon="11.3593"><ele>498.4</ele><time>2026-04-04T12:47:26.8Z</time></trkpt><trkpt lat="45.6318859" lon="11.3592043"><ele>501.0</ele><time>2026-04-04T12:47:27.801Z</time></trkpt><trkpt lat="45.6319644" lon="11.3590961"><ele>501.75</ele><time>2026-04-04T12:47:28.8Z</time></trkpt><trkpt lat="45.6320544" lon="11.3589923"><ele>502.5</ele><time>2026-04-04T12:47:29.8Z</time></trkpt><trkpt lat="45.6321469" lon="11.3588941"><ele>503.25</ele><time>2026-04-04T12:47:30.8Z</time></trkpt><trkpt lat="45.63225" lon="11.358817"><ele>504.0</ele><time>2026-04-04T12:47:31.799Z</time></trkpt><trkpt lat="45.6323635" lon="11.3587589"><ele>506.25</ele><time>2026-04-04T12:47:32.8Z</time></trkpt><trkpt lat="45.6324773" lon="11.3586871"><ele>508.5</ele><time>2026-04-04T12:47:33.799Z</time></trkpt><trkpt lat="45.6325919" lon="11.358624"><ele>510.75</ele><time>2026-04-04T12:47:34.8Z</time></trkpt><trkpt lat="45.6327179" lon="11.3585824"><ele>513.0</ele><time>2026-04-04T12:47:35.799Z</time></trkpt><trkpt lat="45.6328485" lon="11.3585321"><ele>518.6666666666666</ele><time>2026-04-04T12:47:36.799Z</time></trkpt><trkpt lat="45.632987" lon="11.3584741"><ele>524.3333333333333</ele><time>2026-04-04T12:47:37.799Z</time></trkpt><trkpt lat="45.6331384" lon="11.358396"><ele>530.0</ele><time>2026-04-04T12:47:38.8Z</time></trkpt><trkpt lat="45.6332907" lon="11.3583198"><ele>530.0</ele><time>2026-04-04T12:47:39.799Z</time></trkpt><trkpt lat="45.6334679" lon="11.358234"><ele>530.0</ele><time>2026-04-04T12:47:40.799Z</time></trkpt><trkpt lat="45.6336145" lon="11.358177"><ele>530.0</ele><time>2026-04-04T12:47:41.799Z</time></trkpt><trkpt lat="45.6337393" lon="11.3580947"><ele>533.0</ele><time>2026-04-04T12:47:42.799Z</time></trkpt><trkpt lat="45.6338578" lon="11.3580561"><ele>536.0</ele><time>2026-04-04T12:47:43.8Z</time></trkpt><trkpt lat="45.6339176" lon="11.3580043"><ele>539.0</ele><time>2026-04-04T12:47:44.8Z</time></trkpt><trkpt lat="45.6338729" lon="11.3579372"><ele>542.0</ele><time>2026-04-04T12:47:45.8Z</time></trkpt><trkpt lat="45.6338324" lon="11.3578593"><ele>545.0</ele><time>2026-04-04T12:47:46.8Z</time></trkpt><trkpt lat="45.6337628" lon="11.3578143"><ele>548.0</ele><time>2026-04-04T12:47:47.799Z</time></trkpt><trkpt lat="45.6336698" lon="11.3578026"><ele>546.8</ele><time>2026-04-04T12:47:48.8Z</time></trkpt><trkpt lat="45.6335641" lon="11.357793"><ele>545.5999999999999</ele><time>2026-04-04T12:47:49.8Z</time></trkpt><trkpt lat="45.6334665" lon="11.3577821"><ele>544.4000000000001</ele><time>2026-04-04T12:47:50.799Z</time></trkpt><trkpt lat="45.6333911" lon="11.3577448"><ele>543.2</ele><time>2026-04-04T12:47:51.799Z</time></trkpt><trkpt lat="45.6333298" lon="11.3577027"><ele>542.0</ele><time>2026-04-04T12:47:52.8Z</time></trkpt><trkpt lat="45.6334208" lon="11.3576507"><ele>542.0</ele><time>2026-04-04T12:47:55.799Z</time></trkpt><trkpt lat="45.6334981" lon="11.357673"><ele>542.0</ele><time>2026-04-04T12:47:56.799Z</time></trkpt><trkpt lat="45.6335827" lon="11.3576614"><ele>542.0</ele><time>2026-04-04T12:47:57.799Z</time></trkpt><trkpt lat="45.6336621" lon="11.3576633"><ele>542.0</ele><time>2026-04-04T12:47:58.8Z</time></trkpt><trkpt lat="45.6337753" lon="11.3576237"><ele>542.0</ele><time>2026-04-04T12:47:59.8Z</time></trkpt><trkpt lat="45.6339114" lon="11.3575668"><ele>543.5</ele><time>2026-04-04T12:48:00.8Z</time></trkpt><trkpt lat="45.6340219" lon="11.3575436"><ele>545.0</ele><time>2026-04-04T12:48:01.8Z</time></trkpt><trkpt lat="45.6341366" lon="11.3576131"><ele>546.5</ele><time>2026-04-04T12:48:02.799Z</time></trkpt><trkpt lat="45.6342649" lon="11.3576818"><ele>548.0</ele><time>2026-04-04T12:48:03.799Z</time></trkpt><trkpt lat="45.6343729" lon="11.3577453"><ele>551.0</ele><time>2026-04-04T12:48:04.8Z</time></trkpt><trkpt lat="45.6344763" lon="11.3577682"><ele>554.0</ele><time>2026-04-04T12:48:05.799Z</time></trkpt><trkpt lat="45.6345987" lon="11.357756"><ele>557.0</ele><time>2026-04-04T12:48:06.8Z</time></trkpt><trkpt lat="45.6347394" lon="11.3577331"><ele>560.0</ele><time>2026-04-04T12:48:07.801Z</time></trkpt><trkpt lat="45.6348877" lon="11.3577035"><ele>560.0</ele><time>2026-04-04T12:48:08.799Z</time></trkpt><trkpt lat="45.6350724" lon="11.3576795"><ele>560.0</ele><time>2026-04-04T12:48:09.799Z</time></trkpt><trkpt lat="45.6352144" lon="11.3576614"><ele>560.0</ele><time>2026-04-04T12:48:10.8Z</time></trkpt><trkpt lat="45.6353546" lon="11.3576556"><ele>561.0</ele><time>2026-04-04T12:48:11.799Z</time></trkpt><trkpt lat="45.6354923" lon="11.3576651"><ele>562.0</ele><time>2026-04-04T12:48:12.799Z</time></trkpt><trkpt lat="45.6356152" lon="11.3577581"><ele>563.0</ele><time>2026-04-04T12:48:13.8Z</time></trkpt><trkpt lat="45.6357309" lon="11.3578134"><ele>564.0</ele><time>2026-04-04T12:48:14.799Z</time></trkpt><trkpt lat="45.6358485" lon="11.3578429"><ele>564.0</ele><time>2026-04-04T12:48:15.8Z</time></trkpt><trkpt lat="45.6359488" lon="11.3578316"><ele>564.0</ele><time>2026-04-04T12:48:16.801Z</time></trkpt><trkpt lat="45.6360469" lon="11.3577809"><ele>564.0</ele><time>2026-04-04T12:48:17.799Z</time></trkpt><trkpt lat="45.6361582" lon="11.3577341"><ele>564.0</ele><time>2026-04-04T12:48:18.801Z</time></trkpt><trkpt lat="45.6362734" lon="11.357568"><ele>565.5</ele><time>2026-04-04T12:48:19.8Z</time></trkpt><trkpt lat="45.6363941" lon="11.3574598"><ele>567.0</ele><time>2026-04-04T12:48:20.801Z</time></trkpt><trkpt lat="45.6365254" lon="11.3573579"><ele>568.5</ele><time>2026-04-04T12:48:21.8Z</time></trkpt><trkpt lat="45.6366605" lon="11.3572611"><ele>570.0</ele><time>2026-04-04T12:48:22.799Z</time></trkpt><trkpt lat="45.6368049" lon="11.357119"><ele>572.0</ele><time>2026-04-04T12:48:23.8Z</time></trkpt><trkpt lat="45.6369442" lon="11.3569839"><ele>574.0</ele><time>2026-04-04T12:48:24.8Z</time></trkpt><trkpt lat="45.6370669" lon="11.3568733"><ele>576.0</ele><time>2026-04-04T12:48:25.8Z</time></trkpt><trkpt lat="45.6371671" lon="11.3567882"><ele>578.0</ele><time>2026-04-04T12:48:26.8Z</time></trkpt><trkpt lat="45.6372402" lon="11.3566971"><ele>578.0</ele><time>2026-04-04T12:48:27.799Z</time></trkpt><trkpt lat="45.6373039" lon="11.3565927"><ele>578.0</ele><time>2026-04-04T12:48:28.799Z</time></trkpt><trkpt lat="45.6373622" lon="11.3564949"><ele>578.0</ele><time>2026-04-04T12:48:29.8Z</time></trkpt><trkpt lat="45.6374088" lon="11.3564234"><ele>578.0</ele><time>2026-04-04T12:48:30.799Z</time></trkpt><trkpt lat="45.6374714" lon="11.3564058"><ele>578.0</ele><time>2026-04-04T12:48:31.801Z</time></trkpt><trkpt lat="45.6375543" lon="11.3563988"><ele>578.0</ele><time>2026-04-04T12:48:32.799Z</time></trkpt><trkpt lat="45.6376344" lon="11.3564226"><ele>578.0</ele><time>2026-04-04T12:48:33.799Z</time></trkpt><trkpt lat="45.6377232" lon="11.3564319"><ele>578.0</ele><time>2026-04-04T12:48:34.799Z</time></trkpt><trkpt lat="45.6378024" lon="11.3563968"><ele>578.0</ele><time>2026-04-04T12:48:35.799Z</time></trkpt><trkpt lat="45.6378592" lon="11.3563146"><ele>578.0</ele><time>2026-04-04T12:48:36.799Z</time></trkpt><trkpt lat="45.6379003" lon="11.3562029"><ele>578.0</ele><time>2026-04-04T12:48:37.8Z</time></trkpt><trkpt lat="45.6379517" lon="11.3561001"><ele>578.0</ele><time>2026-04-04T12:48:38.799Z</time></trkpt><trkpt lat="45.6380054" lon="11.3559883"><ele>578.8</ele><time>2026-04-04T12:48:39.801Z</time></trkpt><trkpt lat="45.638059" lon="11.3558749"><ele>579.5999999999999</ele><time>2026-04-04T12:48:40.799Z</time></trkpt><trkpt lat="45.638115" lon="11.3557602"><ele>580.4000000000001</ele><time>2026-04-04T12:48:41.8Z</time></trkpt><trkpt lat="45.6381651" lon="11.3556399"><ele>581.2</ele><time>2026-04-04T12:48:42.799Z</time></trkpt><trkpt lat="45.6382138" lon="11.3555124"><ele>582.0</ele><time>2026-04-04T12:48:43.799Z</time></trkpt><trkpt lat="45.6382413" lon="11.3553719"><ele>584.1666666666666</ele><time>2026-04-04T12:48:44.799Z</time></trkpt><trkpt lat="45.6382574" lon="11.355231"><ele>586.3333333333334</ele><time>2026-04-04T12:48:45.8Z</time></trkpt><trkpt lat="45.6382637" lon="11.355138"><ele>588.5</ele><time>2026-04-04T12:48:46.799Z</time></trkpt><trkpt lat="45.6382069" lon="11.3550446"><ele>590.6666666666667</ele><time>2026-04-04T12:48:48.8Z</time></trkpt><trkpt lat="45.638122" lon="11.3550785"><ele>592.8333333333334</ele><time>2026-04-04T12:48:50.8Z</time></trkpt><trkpt lat="45.6380551" lon="11.3550217"><ele>595.0</ele><time>2026-04-04T12:48:52.799Z</time></trkpt><trkpt lat="45.6381097" lon="11.3548612"><ele>595.0</ele><time>2026-04-04T12:48:54.8Z</time></trkpt><trkpt lat="45.6381735" lon="11.3547768"><ele>595.0</ele><time>2026-04-04T12:48:55.8Z</time></trkpt><trkpt lat="45.6382365" lon="11.3546775"><ele>595.0</ele><time>2026-04-04T12:48:56.8Z</time></trkpt><trkpt lat="45.638287" lon="11.354551"><ele>595.0</ele><time>2026-04-04T12:48:57.8Z</time></trkpt><trkpt lat="45.6383252" lon="11.354403"><ele>595.0</ele><time>2026-04-04T12:48:58.8Z</time></trkpt><trkpt lat="45.6383467" lon="11.3542422"><ele>596.4</ele><time>2026-04-04T12:48:59.8Z</time></trkpt><trkpt lat="45.6383595" lon="11.3540711"><ele>597.8</ele><time>2026-04-04T12:49:00.8Z</time></trkpt><trkpt lat="45.6383518" lon="11.3539115"><ele>599.2</ele><time>2026-04-04T12:49:01.8Z</time></trkpt><trkpt lat="45.6383235" lon="11.3537927"><ele>600.6</ele><time>2026-04-04T12:49:02.799Z</time></trkpt><trkpt lat="45.6382694" lon="11.3537065"><ele>602.0</ele><time>2026-04-04T12:49:03.801Z</time></trkpt><trkpt lat="45.6382011" lon="11.3536665"><ele>602.8571428571429</ele><time>2026-04-04T12:49:04.799Z</time></trkpt><trkpt lat="45.6381287" lon="11.3536663"><ele>603.7142857142858</ele><time>2026-04-04T12:49:05.799Z</time></trkpt><trkpt lat="45.6380595" lon="11.3536715"><ele>604.5714285714286</ele><time>2026-04-04T12:49:06.799Z</time></trkpt><trkpt lat="45.6379583" lon="11.3536946"><ele>605.4285714285714</ele><time>2026-04-04T12:49:08.8Z</time></trkpt><trkpt lat="45.6378914" lon="11.3536993"><ele>606.2857142857143</ele><time>2026-04-04T12:49:10.8Z</time></trkpt><trkpt lat="45.6378243" lon="11.3537241"><ele>607.1428571428571</ele><time>2026-04-04T12:49:19.8Z</time></trkpt><trkpt lat="45.6377612" lon="11.3537353"><ele>608.0</ele><time>2026-04-04T12:49:20.8Z</time></trkpt><trkpt lat="45.6376888" lon="11.3537327"><ele>608.8333333333333</ele><time>2026-04-04T12:49:21.799Z</time></trkpt><trkpt lat="45.6376163" lon="11.3537055"><ele>609.6666666666666</ele><time>2026-04-04T12:49:22.799Z</time></trkpt><trkpt lat="45.6375407" lon="11.3536741"><ele>610.5</ele><time>2026-04-04T12:49:23.799Z</time></trkpt><trkpt lat="45.63747" lon="11.3536454"><ele>611.3333333333334</ele><time>2026-04-04T12:49:24.8Z</time></trkpt><trkpt lat="45.6374066" lon="11.3536097"><ele>612.1666666666667</ele><time>2026-04-04T12:49:25.801Z</time></trkpt><trkpt lat="45.6373359" lon="11.3534695"><ele>613.0</ele><time>2026-04-04T12:49:27.801Z</time></trkpt><trkpt lat="45.6373189" lon="11.3532979"><ele>613.0</ele><time>2026-04-04T12:49:29.801Z</time></trkpt><trkpt lat="45.6373428" lon="11.3531947"><ele>613.0</ele><time>2026-04-04T12:49:30.801Z</time></trkpt><trkpt lat="45.6373754" lon="11.3530942"><ele>613.0</ele><time>2026-04-04T12:49:31.799Z</time></trkpt><trkpt lat="45.6373993" lon="11.3529949"><ele>613.0</ele><time>2026-04-04T12:49:32.799Z</time></trkpt><trkpt lat="45.6373635" lon="11.3528791"><ele>613.0</ele><time>2026-04-04T12:49:34.801Z</time></trkpt><trkpt lat="45.6372737" lon="11.3529181"><ele>613.0</ele><time>2026-04-04T12:49:36.8Z</time></trkpt><trkpt lat="45.6372153" lon="11.3529707"><ele>613.0</ele><time>2026-04-04T12:49:37.8Z</time></trkpt><trkpt lat="45.6371552" lon="11.3530196"><ele>613.0</ele><time>2026-04-04T12:49:38.801Z</time></trkpt><trkpt lat="45.6370751" lon="11.3530627"><ele>613.0</ele><time>2026-04-04T12:49:39.8Z</time></trkpt><trkpt lat="45.6369743" lon="11.3530937"><ele>613.0</ele><time>2026-04-04T12:49:40.8Z</time></trkpt><trkpt lat="45.6368759" lon="11.3531309"><ele>613.0</ele><time>2026-04-04T12:49:41.799Z</time></trkpt><trkpt lat="45.6367676" lon="11.3531501"><ele>615.6</ele><time>2026-04-04T12:49:42.799Z</time></trkpt><trkpt lat="45.6366677" lon="11.3531707"><ele>618.1999999999999</ele><time>2026-04-04T12:49:43.8Z</time></trkpt><trkpt lat="45.6365695" lon="11.3531804"><ele>620.8</ele><time>2026-04-04T12:49:44.8Z</time></trkpt><trkpt lat="45.6364751" lon="11.3531959"><ele>623.4</ele><time>2026-04-04T12:49:45.8Z</time></trkpt><trkpt lat="45.6363777" lon="11.3532126"><ele>626.0</ele><time>2026-04-04T12:49:46.8Z</time></trkpt><trkpt lat="45.6362843" lon="11.3532394"><ele>626.0</ele><time>2026-04-04T12:49:47.8Z</time></trkpt><trkpt lat="45.6361855" lon="11.3532776"><ele>626.0</ele><time>2026-04-04T12:49:48.801Z</time></trkpt><trkpt lat="45.6360856" lon="11.3533245"><ele>626.0</ele><time>2026-04-04T12:49:49.801Z</time></trkpt><trkpt lat="45.6359953" lon="11.3533903"><ele>626.0</ele><time>2026-04-04T12:49:50.8Z</time></trkpt><trkpt lat="45.6359178" lon="11.3534693"><ele>626.0</ele><time>2026-04-04T12:49:51.799Z</time></trkpt><trkpt lat="45.6358377" lon="11.3535517"><ele>630.4</ele><time>2026-04-04T12:49:52.799Z</time></trkpt><trkpt lat="45.635751" lon="11.3536266"><ele>634.8</ele><time>2026-04-04T12:49:53.8Z</time></trkpt><trkpt lat="45.6356576" lon="11.3536985"><ele>639.1999999999999</ele><time>2026-04-04T12:49:54.801Z</time></trkpt><trkpt lat="45.6355696" lon="11.3537499"><ele>643.6</ele><time>2026-04-04T12:49:55.8Z</time></trkpt><trkpt lat="45.6354788" lon="11.3537715"><ele>648.0</ele><time>2026-04-04T12:49:56.8Z</time></trkpt><trkpt lat="45.6353788" lon="11.3537708"><ele>649.0</ele><time>2026-04-04T12:49:57.799Z</time></trkpt><trkpt lat="45.6352848" lon="11.3537477"><ele>650.0</ele><time>2026-04-04T12:49:58.8Z</time></trkpt><trkpt lat="45.6351794" lon="11.3537283"><ele>651.0</ele><time>2026-04-04T12:49:59.8Z</time></trkpt><trkpt lat="45.6350752" lon="11.3537048"><ele>652.0</ele><time>2026-04-04T12:50:00.799Z</time></trkpt><trkpt lat="45.6349813" lon="11.3536831"><ele>653.0</ele><time>2026-04-04T12:50:01.799Z</time></trkpt><trkpt lat="45.6348845" lon="11.3536646"><ele>653.0</ele><time>2026-04-04T12:50:02.801Z</time></trkpt><trkpt lat="45.6347832" lon="11.3536427"><ele>653.0</ele><time>2026-04-04T12:50:03.8Z</time></trkpt><trkpt lat="45.6346922" lon="11.3536195"><ele>653.0</ele><time>2026-04-04T12:50:04.8Z</time></trkpt><trkpt lat="45.6345937" lon="11.3535965"><ele>653.0</ele><time>2026-04-04T12:50:05.8Z</time></trkpt><trkpt lat="45.6344934" lon="11.3535674"><ele>653.0</ele><time>2026-04-04T12:50:06.799Z</time></trkpt><trkpt lat="45.6343866" lon="11.3535524"><ele>651.5</ele><time>2026-04-04T12:50:07.8Z</time></trkpt><trkpt lat="45.6342771" lon="11.3535407"><ele>650.0</ele><time>2026-04-04T12:50:08.801Z</time></trkpt><trkpt lat="45.6341612" lon="11.3535357"><ele>648.5</ele><time>2026-04-04T12:50:09.801Z</time></trkpt><trkpt lat="45.6340351" lon="11.3535463"><ele>647.0</ele><time>2026-04-04T12:50:10.799Z</time></trkpt><trkpt lat="45.6339181" lon="11.3535795"><ele>647.0</ele><time>2026-04-04T12:50:11.799Z</time></trkpt><trkpt lat="45.6338219" lon="11.353613"><ele>647.0</ele><time>2026-04-04T12:50:12.799Z</time></trkpt><trkpt lat="45.6337219" lon="11.3536346"><ele>647.0</ele><time>2026-04-04T12:50:13.8Z</time></trkpt><trkpt lat="45.6336163" lon="11.3536429"><ele>647.0</ele><time>2026-04-04T12:50:14.801Z</time></trkpt><trkpt lat="45.6334954" lon="11.3536466"><ele>647.0</ele><time>2026-04-04T12:50:15.801Z</time></trkpt><trkpt lat="45.6333826" lon="11.3536494"><ele>647.2</ele><time>2026-04-04T12:50:16.801Z</time></trkpt><trkpt lat="45.6332719" lon="11.3536408"><ele>647.4000000000001</ele><time>2026-04-04T12:50:17.799Z</time></trkpt><trkpt lat="45.6331834" lon="11.3536172"><ele>647.5999999999999</ele><time>2026-04-04T12:50:18.799Z</time></trkpt><trkpt lat="45.6330898" lon="11.3535652"><ele>647.8</ele><time>2026-04-04T12:50:19.8Z</time></trkpt><trkpt lat="45.633" lon="11.3535107"><ele>648.0</ele><time>2026-04-04T12:50:20.799Z</time></trkpt><trkpt lat="45.632906" lon="11.3534686"><ele>648.0</ele><time>2026-04-04T12:50:21.8Z</time></trkpt><trkpt lat="45.632812" lon="11.353463"><ele>648.0</ele><time>2026-04-04T12:50:22.799Z</time></trkpt><trkpt lat="45.6327113" lon="11.3534921"><ele>648.0</ele><time>2026-04-04T12:50:23.8Z</time></trkpt><trkpt lat="45.6326113" lon="11.3535536"><ele>648.0</ele><time>2026-04-04T12:50:24.799Z</time></trkpt><trkpt lat="45.6325133" lon="11.3536214"><ele>648.0</ele><time>2026-04-04T12:50:25.8Z</time></trkpt><trkpt lat="45.6324269" lon="11.3536735"><ele>647.0</ele><time>2026-04-04T12:50:26.8Z</time></trkpt><trkpt lat="45.6323517" lon="11.3536931"><ele>646.0</ele><time>2026-04-04T12:50:27.799Z</time></trkpt><trkpt lat="45.6322537" lon="11.3536823"><ele>645.0</ele><time>2026-04-04T12:50:29.801Z</time></trkpt><trkpt lat="45.6322002" lon="11.3536086"><ele>644.0</ele><time>2026-04-04T12:50:31.798Z</time></trkpt><trkpt lat="45.632168" lon="11.3535083"><ele>643.0</ele><time>2026-04-04T12:50:33.799Z</time></trkpt><trkpt lat="45.6321463" lon="11.3534007"><ele>642.0</ele><time>2026-04-04T12:50:35.799Z</time></trkpt><trkpt lat="45.6321266" lon="11.3533082"><ele>642.0</ele><time>2026-04-04T12:50:37.8Z</time></trkpt><trkpt lat="45.6320992" lon="11.3531941"><ele>642.0</ele><time>2026-04-04T12:50:40.799Z</time></trkpt><trkpt lat="45.6320716" lon="11.3530846"><ele>642.0</ele><time>2026-04-04T12:50:42.799Z</time></trkpt><trkpt lat="45.6320514" lon="11.3529634"><ele>642.0</ele><time>2026-04-04T12:50:44.798Z</time></trkpt><trkpt lat="45.632013" lon="11.3528492"><ele>642.0</ele><time>2026-04-04T12:50:46.8Z</time></trkpt><trkpt lat="45.6319569" lon="11.3527578"><ele>642.0</ele><time>2026-04-04T12:50:48.799Z</time></trkpt><trkpt lat="45.631919" lon="11.3526807"><ele>645.1666666666666</ele><time>2026-04-04T12:50:50.8Z</time></trkpt><trkpt lat="45.6319868" lon="11.352622"><ele>648.3333333333334</ele><time>2026-04-04T12:50:54.798Z</time></trkpt><trkpt lat="45.6320616" lon="11.3526222"><ele>651.5</ele><time>2026-04-04T12:50:56.799Z</time></trkpt><trkpt lat="45.6321303" lon="11.3525811"><ele>654.6666666666667</ele><time>2026-04-04T12:50:58.798Z</time></trkpt><trkpt lat="45.6322009" lon="11.3525295"><ele>657.8333333333334</ele><time>2026-04-04T12:51:00.8Z</time></trkpt><trkpt lat="45.6322592" lon="11.3524949"><ele>661.0</ele><time>2026-04-04T12:51:02.799Z</time></trkpt><trkpt lat="45.6322889" lon="11.3523662"><ele>661.0</ele><time>2026-04-04T12:51:58.799Z</time></trkpt><trkpt lat="45.6322838" lon="11.3522193"><ele>661.0</ele><time>2026-04-04T12:52:00.799Z</time></trkpt><trkpt lat="45.6322264" lon="11.3520784"><ele>661.0</ele><time>2026-04-04T12:52:02.8Z</time></trkpt><trkpt lat="45.6321534" lon="11.3519834"><ele>661.0</ele><time>2026-04-04T12:52:04.798Z</time></trkpt><trkpt lat="45.6321019" lon="11.3519264"><ele>661.0</ele><time>2026-04-04T12:52:05.799Z</time></trkpt><trkpt lat="45.6320429" lon="11.3518597"><ele>663.5999999999999</ele><time>2026-04-04T12:52:06.798Z</time></trkpt><trkpt lat="45.6319584" lon="11.3517931"><ele>666.2</ele><time>2026-04-04T12:52:07.799Z</time></trkpt><trkpt lat="45.6318779" lon="11.3517286"><ele>668.8</ele><time>2026-04-04T12:52:08.798Z</time></trkpt><trkpt lat="45.6318072" lon="11.351674"><ele>671.4000000000001</ele><time>2026-04-04T12:52:09.798Z</time></trkpt><trkpt lat="45.6317453" lon="11.3516195"><ele>674.0</ele><time>2026-04-04T12:52:10.798Z</time></trkpt><trkpt lat="45.6316599" lon="11.3515239"><ele>674.0000000000001</ele><time>2026-04-04T12:52:12.8Z</time></trkpt><trkpt lat="45.6315972" lon="11.3514931"><ele>674.0</ele><time>2026-04-04T12:52:13.799Z</time></trkpt><trkpt lat="45.6315385" lon="11.3514397"><ele>674.0</ele><time>2026-04-04T12:52:14.8Z</time></trkpt><trkpt lat="45.6314906" lon="11.3513468"><ele>674.0</ele><time>2026-04-04T12:52:15.799Z</time></trkpt><trkpt lat="45.6314395" lon="11.3512816"><ele>674.0</ele><time>2026-04-04T12:52:16.8Z</time></trkpt><trkpt lat="45.6313776" lon="11.3512215"><ele>674.0000000000001</ele><time>2026-04-04T12:52:17.798Z</time></trkpt><trkpt lat="45.6313332" lon="11.3511555"><ele>674.0</ele><time>2026-04-04T12:52:18.798Z</time></trkpt><trkpt lat="45.6312986" lon="11.3509669"><ele>676.3333333333333</ele><time>2026-04-04T12:52:20.799Z</time></trkpt><trkpt lat="45.6313099" lon="11.3508662"><ele>678.6666666666666</ele><time>2026-04-04T12:52:21.798Z</time></trkpt><trkpt lat="45.6313397" lon="11.3507795"><ele>681.0</ele><time>2026-04-04T12:52:22.8Z</time></trkpt><trkpt lat="45.6313854" lon="11.3507145"><ele>683.3333333333334</ele><time>2026-04-04T12:52:23.799Z</time></trkpt><trkpt lat="45.6314366" lon="11.3506275"><ele>685.6666666666667</ele><time>2026-04-04T12:52:24.798Z</time></trkpt><trkpt lat="45.6314916" lon="11.3505587"><ele>688.0</ele><time>2026-04-04T12:52:25.799Z</time></trkpt><trkpt lat="45.6315899" lon="11.3504361"><ele>688.3333333333334</ele><time>2026-04-04T12:52:27.8Z</time></trkpt><trkpt lat="45.6316369" lon="11.3503618"><ele>688.6666666666667</ele><time>2026-04-04T12:52:28.798Z</time></trkpt><trkpt lat="45.6317237" lon="11.3502913"><ele>689.0</ele><time>2026-04-04T12:52:30.8Z</time></trkpt><trkpt lat="45.6317791" lon="11.3502379"><ele>689.3333333333334</ele><time>2026-04-04T12:52:31.799Z</time></trkpt><trkpt lat="45.6318316" lon="11.3501849"><ele>689.6666666666666</ele><time>2026-04-04T12:52:32.8Z</time></trkpt><trkpt lat="45.6319231" lon="11.3500679"><ele>690.0</ele><time>2026-04-04T12:52:34.798Z</time></trkpt><trkpt lat="45.6319626" lon="11.3499834"><ele>694.6666666666666</ele><time>2026-04-04T12:52:35.799Z</time></trkpt><trkpt lat="45.6320318" lon="11.3498355"><ele>699.3333333333334</ele><time>2026-04-04T12:52:37.799Z</time></trkpt><trkpt lat="45.6320517" lon="11.3497471"><ele>704.0</ele><time>2026-04-04T12:52:38.799Z</time></trkpt><trkpt lat="45.6320607" lon="11.349633"><ele>708.6666666666667</ele><time>2026-04-04T12:52:39.799Z</time></trkpt><trkpt lat="45.6320689" lon="11.3495367"><ele>713.3333333333334</ele><time>2026-04-04T12:52:40.8Z</time></trkpt><trkpt lat="45.6320806" lon="11.3494381"><ele>718.0</ele><time>2026-04-04T12:52:41.8Z</time></trkpt><trkpt lat="45.6321253" lon="11.3492591"><ele>718.3333333333334</ele><time>2026-04-04T12:52:43.799Z</time></trkpt><trkpt lat="45.6321605" lon="11.3491581"><ele>718.6666666666667</ele><time>2026-04-04T12:52:44.798Z</time></trkpt><trkpt lat="45.6322162" lon="11.3490688"><ele>719.0</ele><time>2026-04-04T12:52:45.798Z</time></trkpt><trkpt lat="45.6322883" lon="11.3490282"><ele>719.3333333333334</ele><time>2026-04-04T12:52:46.798Z</time></trkpt><trkpt lat="45.6323412" lon="11.3489763"><ele>719.6666666666666</ele><time>2026-04-04T12:52:47.799Z</time></trkpt><trkpt lat="45.6323911" lon="11.3489172"><ele>720.0</ele><time>2026-04-04T12:52:48.798Z</time></trkpt><trkpt lat="45.6324532" lon="11.3487898"><ele>720.2</ele><time>2026-04-04T12:52:50.798Z</time></trkpt><trkpt lat="45.632488" lon="11.3486326"><ele>720.4</ele><time>2026-04-04T12:52:52.799Z</time></trkpt><trkpt lat="45.6324963" lon="11.3484595"><ele>720.5999999999999</ele><time>2026-04-04T12:52:54.799Z</time></trkpt><trkpt lat="45.6325527" lon="11.3482988"><ele>720.8</ele><time>2026-04-04T12:52:56.799Z</time></trkpt><trkpt lat="45.6325996" lon="11.3482277"><ele>721.0</ele><time>2026-04-04T12:52:57.799Z</time></trkpt><trkpt lat="45.6326592" lon="11.3480894"><ele>722.4</ele><time>2026-04-04T12:52:59.799Z</time></trkpt><trkpt lat="45.6327126" lon="11.3479815"><ele>723.8</ele><time>2026-04-04T12:53:01.799Z</time></trkpt><trkpt lat="45.6327865" lon="11.3478864"><ele>725.1999999999999</ele><time>2026-04-04T12:53:03.798Z</time></trkpt><trkpt lat="45.6328975" lon="11.3478094"><ele>726.5999999999999</ele><time>2026-04-04T12:53:05.798Z</time></trkpt><trkpt lat="45.632957" lon="11.3477513"><ele>728.0</ele><time>2026-04-04T12:53:06.798Z</time></trkpt><trkpt lat="45.6330346" lon="11.3476483"><ele>728.0</ele><time>2026-04-04T12:53:07.798Z</time></trkpt><trkpt lat="45.6331015" lon="11.3475756"><ele>728.0</ele><time>2026-04-04T12:53:08.798Z</time></trkpt><trkpt lat="45.6331656" lon="11.3475206"><ele>728.0</ele><time>2026-04-04T12:53:09.799Z</time></trkpt><trkpt lat="45.6332336" lon="11.3475078"><ele>728.0</ele><time>2026-04-04T12:53:10.799Z</time></trkpt><trkpt lat="45.6333029" lon="11.3475008"><ele>728.0</ele><time>2026-04-04T12:53:11.8Z</time></trkpt><trkpt lat="45.6333685" lon="11.3474949"><ele>728.0</ele><time>2026-04-04T12:53:12.8Z</time></trkpt><trkpt lat="45.6334376" lon="11.3474998"><ele>728.0</ele><time>2026-04-04T12:53:13.799Z</time></trkpt><trkpt lat="45.6335582" lon="11.3474604"><ele>728.0</ele><time>2026-04-04T12:53:15.799Z</time></trkpt><trkpt lat="45.6336198" lon="11.3473757"><ele>728.0</ele><time>2026-04-04T12:53:16.799Z</time></trkpt><trkpt lat="45.6337236" lon="11.3472689"><ele>728.0</ele><time>2026-04-04T12:53:17.8Z</time></trkpt><trkpt lat="45.6338117" lon="11.3471679"><ele>728.0</ele><time>2026-04-04T12:53:18.798Z</time></trkpt><trkpt lat="45.6338822" lon="11.3470776"><ele>728.0</ele><time>2026-04-04T12:53:19.799Z</time></trkpt><trkpt lat="45.6339636" lon="11.3469945"><ele>727.4</ele><time>2026-04-04T12:53:20.799Z</time></trkpt><trkpt lat="45.634029" lon="11.3469008"><ele>726.8</ele><time>2026-04-04T12:53:21.8Z</time></trkpt><trkpt lat="45.6341014" lon="11.3467991"><ele>726.2</ele><time>2026-04-04T12:53:22.798Z</time></trkpt><trkpt lat="45.634185" lon="11.3466909"><ele>725.6</ele><time>2026-04-04T12:53:23.798Z</time></trkpt><trkpt lat="45.634268" lon="11.3465926"><ele>725.0</ele><time>2026-04-04T12:53:24.799Z</time></trkpt><trkpt lat="45.6343536" lon="11.3465059"><ele>725.0</ele><time>2026-04-04T12:53:25.798Z</time></trkpt><trkpt lat="45.6344218" lon="11.346427"><ele>725.0</ele><time>2026-04-04T12:53:26.8Z</time></trkpt><trkpt lat="45.6344945" lon="11.3463299"><ele>725.0</ele><time>2026-04-04T12:53:27.799Z</time></trkpt><trkpt lat="45.6345673" lon="11.3462428"><ele>725.0</ele><time>2026-04-04T12:53:28.799Z</time></trkpt><trkpt lat="45.634642" lon="11.3461596"><ele>725.0</ele><time>2026-04-04T12:53:29.8Z</time></trkpt><trkpt lat="45.6346842" lon="11.346085"><ele>725.0</ele><time>2026-04-04T12:53:30.799Z</time></trkpt><trkpt lat="45.6347367" lon="11.3460188"><ele>724.6666666666666</ele><time>2026-04-04T12:53:31.798Z</time></trkpt><trkpt lat="45.6348393" lon="11.3459681"><ele>724.3333333333333</ele><time>2026-04-04T12:53:33.799Z</time></trkpt><trkpt lat="45.6349129" lon="11.3459841"><ele>724.0</ele><time>2026-04-04T12:53:35.798Z</time></trkpt><trkpt lat="45.6349812" lon="11.3460729"><ele>723.6666666666666</ele><time>2026-04-04T12:53:37.798Z</time></trkpt><trkpt lat="45.6350289" lon="11.3461333"><ele>723.3333333333334</ele><time>2026-04-04T12:53:38.798Z</time></trkpt><trkpt lat="45.6350729" lon="11.3462023"><ele>723.0</ele><time>2026-04-04T12:53:39.799Z</time></trkpt><trkpt lat="45.6351193" lon="11.3462632"><ele>723.2</ele><time>2026-04-04T12:53:40.799Z</time></trkpt><trkpt lat="45.63514" lon="11.3463954"><ele>723.4</ele><time>2026-04-04T12:53:42.799Z</time></trkpt><trkpt lat="45.6352042" lon="11.3464714"><ele>723.6</ele><time>2026-04-04T12:53:44.798Z</time></trkpt><trkpt lat="45.6352689" lon="11.3465602"><ele>723.8000000000001</ele><time>2026-04-04T12:53:46.8Z</time></trkpt><trkpt lat="45.6353077" lon="11.3466833"><ele>724.0</ele><time>2026-04-04T12:53:48.799Z</time></trkpt><trkpt lat="45.6353613" lon="11.3467854"><ele>721.0</ele><time>2026-04-04T12:53:50.798Z</time></trkpt><trkpt lat="45.6354364" lon="11.3468354"><ele>718.0</ele><time>2026-04-04T12:53:52.8Z</time></trkpt><trkpt lat="45.635522" lon="11.3468684"><ele>715.0</ele><time>2026-04-04T12:53:55.798Z</time></trkpt><trkpt lat="45.6355849" lon="11.3467244"><ele>712.0</ele><time>2026-04-04T12:53:58.798Z</time></trkpt><trkpt lat="45.6356334" lon="11.3465993"><ele>709.0</ele><time>2026-04-04T12:53:59.798Z</time></trkpt><trkpt lat="45.6356731" lon="11.3465036"><ele>709.0</ele><time>2026-04-04T12:54:00.798Z</time></trkpt><trkpt lat="45.6357219" lon="11.3464245"><ele>709.0</ele><time>2026-04-04T12:54:01.798Z</time></trkpt><trkpt lat="45.6358134" lon="11.3463548"><ele>709.0</ele><time>2026-04-04T12:54:02.8Z</time></trkpt><trkpt lat="45.635874" lon="11.3463067"><ele>709.0</ele><time>2026-04-04T12:54:03.8Z</time></trkpt><trkpt lat="45.6359351" lon="11.346202"><ele>709.0</ele><time>2026-04-04T12:54:05.798Z</time></trkpt><trkpt lat="45.6359919" lon="11.346042"><ele>709.1666666666667</ele><time>2026-04-04T12:54:07.798Z</time></trkpt><trkpt lat="45.6360697" lon="11.3459465"><ele>709.3333333333334</ele><time>2026-04-04T12:54:08.8Z</time></trkpt><trkpt lat="45.636139" lon="11.3458759"><ele>709.5</ele><time>2026-04-04T12:54:09.799Z</time></trkpt><trkpt lat="45.6362137" lon="11.3458056"><ele>709.6666666666666</ele><time>2026-04-04T12:54:10.799Z</time></trkpt><trkpt lat="45.6362702" lon="11.3457365"><ele>709.8333333333333</ele><time>2026-04-04T12:54:11.798Z</time></trkpt><trkpt lat="45.6363347" lon="11.3456734"><ele>710.0</ele><time>2026-04-04T12:54:12.799Z</time></trkpt><trkpt lat="45.636452" lon="11.3455903"><ele>708.5</ele><time>2026-04-04T12:54:14.798Z</time></trkpt><trkpt lat="45.6365165" lon="11.3455353"><ele>707.0</ele><time>2026-04-04T12:54:15.798Z</time></trkpt><trkpt lat="45.6365631" lon="11.3454607"><ele>705.5</ele><time>2026-04-04T12:54:16.799Z</time></trkpt><trkpt lat="45.6366088" lon="11.3452839"><ele>704.0</ele><time>2026-04-04T12:54:18.799Z</time></trkpt><trkpt lat="45.6366358" lon="11.345187"><ele>702.5</ele><time>2026-04-04T12:54:19.799Z</time></trkpt><trkpt lat="45.6366811" lon="11.3450948"><ele>701.0</ele><time>2026-04-04T12:54:20.8Z</time></trkpt><trkpt lat="45.6367144" lon="11.345009"><ele>701.0</ele><time>2026-04-04T12:54:21.799Z</time></trkpt><trkpt lat="45.6367559" lon="11.3449131"><ele>701.0</ele><time>2026-04-04T12:54:22.799Z</time></trkpt><trkpt lat="45.6368186" lon="11.3448412"><ele>701.0</ele><time>2026-04-04T12:54:23.798Z</time></trkpt><trkpt lat="45.6368792" lon="11.34477"><ele>701.0</ele><time>2026-04-04T12:54:24.798Z</time></trkpt><trkpt lat="45.6369606" lon="11.34471"><ele>701.0</ele><time>2026-04-04T12:54:25.8Z</time></trkpt><trkpt lat="45.6370405" lon="11.344646"><ele>701.0</ele><time>2026-04-04T12:54:26.8Z</time></trkpt><trkpt lat="45.6371325" lon="11.3445922"><ele>699.8</ele><time>2026-04-04T12:54:27.798Z</time></trkpt><trkpt lat="45.6372347" lon="11.344528"><ele>698.5999999999999</ele><time>2026-04-04T12:54:28.8Z</time></trkpt><trkpt lat="45.6373506" lon="11.3444767"><ele>697.4</ele><time>2026-04-04T12:54:29.799Z</time></trkpt><trkpt lat="45.6374578" lon="11.3444233"><ele>696.2</ele><time>2026-04-04T12:54:30.798Z</time></trkpt><trkpt lat="45.6375479" lon="11.3443566"><ele>695.0</ele><time>2026-04-04T12:54:31.798Z</time></trkpt><trkpt lat="45.6376699" lon="11.3443227"><ele>695.0</ele><time>2026-04-04T12:54:33.8Z</time></trkpt><trkpt lat="45.6377782" lon="11.3442886"><ele>695.0</ele><time>2026-04-04T12:54:35.8Z</time></trkpt><trkpt lat="45.6378383" lon="11.3442347"><ele>695.0</ele><time>2026-04-04T12:54:36.8Z</time></trkpt><trkpt lat="45.6379083" lon="11.3441633"><ele>695.0</ele><time>2026-04-04T12:54:37.799Z</time></trkpt><trkpt lat="45.6379758" lon="11.3440742"><ele>695.0</ele><time>2026-04-04T12:54:38.799Z</time></trkpt><trkpt lat="45.6380464" lon="11.3439847"><ele>694.6666666666666</ele><time>2026-04-04T12:54:39.799Z</time></trkpt><trkpt lat="45.6381144" lon="11.343914"><ele>694.3333333333333</ele><time>2026-04-04T12:54:40.798Z</time></trkpt><trkpt lat="45.6381655" lon="11.3438551"><ele>694.0</ele><time>2026-04-04T12:54:41.799Z</time></trkpt><trkpt lat="45.6382453" lon="11.3438918"><ele>693.6666666666666</ele><time>2026-04-04T12:54:42.799Z</time></trkpt><trkpt lat="45.6383499" lon="11.3439265"><ele>693.3333333333334</ele><time>2026-04-04T12:54:43.8Z</time></trkpt><trkpt lat="45.6384397" lon="11.3439929"><ele>693.0</ele><time>2026-04-04T12:54:44.798Z</time></trkpt><trkpt lat="45.6385108" lon="11.3440414"><ele>693.0</ele><time>2026-04-04T12:54:45.799Z</time></trkpt><trkpt lat="45.6386106" lon="11.3440446"><ele>693.0</ele><time>2026-04-04T12:54:47.8Z</time></trkpt><trkpt lat="45.6386737" lon="11.3439385"><ele>693.0</ele><time>2026-04-04T12:54:49.799Z</time></trkpt><trkpt lat="45.6387331" lon="11.3438393"><ele>693.0</ele><time>2026-04-04T12:54:51.798Z</time></trkpt><trkpt lat="45.6388108" lon="11.3437642"><ele>693.0</ele><time>2026-04-04T12:54:53.799Z</time></trkpt><trkpt lat="45.6389294" lon="11.3436872"><ele>693.1666666666666</ele><time>2026-04-04T12:54:55.799Z</time></trkpt><trkpt lat="45.6390186" lon="11.3437151"><ele>693.3333333333334</ele><time>2026-04-04T12:54:57.799Z</time></trkpt><trkpt lat="45.6390612" lon="11.3438191"><ele>693.5</ele><time>2026-04-04T12:54:59.798Z</time></trkpt><trkpt lat="45.6391359" lon="11.3438973"><ele>693.6666666666667</ele><time>2026-04-04T12:55:01.798Z</time></trkpt><trkpt lat="45.6391971" lon="11.3439482"><ele>693.8333333333334</ele><time>2026-04-04T12:55:02.8Z</time></trkpt><trkpt lat="45.6392906" lon="11.3440304"><ele>694.0</ele><time>2026-04-04T12:55:04.8Z</time></trkpt><trkpt lat="45.6393377" lon="11.3440949"><ele>694.0</ele><time>2026-04-04T12:55:06.799Z</time></trkpt><trkpt lat="45.6394192" lon="11.344066"><ele>694.0</ele><time>2026-04-04T12:55:08.798Z</time></trkpt><trkpt lat="45.6394873" lon="11.3440861"><ele>694.0</ele><time>2026-04-04T12:55:10.799Z</time></trkpt><trkpt lat="45.6395673" lon="11.3441534"><ele>694.0</ele><time>2026-04-04T12:55:12.799Z</time></trkpt><trkpt lat="45.6396596" lon="11.3442024"><ele>694.0</ele><time>2026-04-04T12:55:14.799Z</time></trkpt><trkpt lat="45.6397456" lon="11.3442492"><ele>694.0</ele><time>2026-04-04T12:55:16.799Z</time></trkpt><trkpt lat="45.6396899" lon="11.3440778"><ele>694.6666666666667</ele><time>2026-04-04T12:55:20.799Z</time></trkpt><trkpt lat="45.6396821" lon="11.3439584"><ele>695.3333333333334</ele><time>2026-04-04T12:55:22.798Z</time></trkpt><trkpt lat="45.6397203" lon="11.3437966"><ele>696.0</ele><time>2026-04-04T12:55:24.799Z</time></trkpt><trkpt lat="45.6397401" lon="11.3436934"><ele>696.6666666666666</ele><time>2026-04-04T12:55:25.799Z</time></trkpt><trkpt lat="45.6397293" lon="11.3435895"><ele>697.3333333333333</ele><time>2026-04-04T12:55:26.798Z</time></trkpt><trkpt lat="45.6396966" lon="11.3434869"><ele>698.0</ele><time>2026-04-04T12:55:27.799Z</time></trkpt><trkpt lat="45.6396881" lon="11.3433771"><ele>696.8333333333333</ele><time>2026-04-04T12:55:28.799Z</time></trkpt><trkpt lat="45.6397097" lon="11.3432508"><ele>695.6666666666666</ele><time>2026-04-04T12:55:30.798Z</time></trkpt><trkpt lat="45.639818" lon="11.3431557"><ele>694.5</ele><time>2026-04-04T12:55:32.8Z</time></trkpt><trkpt lat="45.6398942" lon="11.343089"><ele>693.3333333333334</ele><time>2026-04-04T12:55:34.799Z</time></trkpt><trkpt lat="45.6399556" lon="11.3430287"><ele>692.1666666666667</ele><time>2026-04-04T12:55:36.798Z</time></trkpt><trkpt lat="45.6399988" lon="11.3429574"><ele>691.0</ele><time>2026-04-04T12:55:39.799Z</time></trkpt><trkpt lat="45.6400583" lon="11.3429168"><ele>690.9999999999999</ele><time>2026-04-04T13:00:31.799Z</time></trkpt><trkpt lat="45.6401249" lon="11.3429013"><ele>691.0</ele><time>2026-04-04T13:00:35.799Z</time></trkpt><trkpt lat="45.6401956" lon="11.3428857"><ele>691.0</ele><time>2026-04-04T13:00:38.797Z</time></trkpt><trkpt lat="45.6402576" lon="11.3428683"><ele>691.0</ele><time>2026-04-04T13:00:42.799Z</time></trkpt><trkpt lat="45.6403038" lon="11.3427871"><ele>691.0</ele><time>2026-04-04T13:00:45.798Z</time></trkpt><trkpt lat="45.6403904" lon="11.3427372"><ele>690.9999999999999</ele><time>2026-04-04T13:00:48.798Z</time></trkpt><trkpt lat="45.640465" lon="11.3427074"><ele>691.0</ele><time>2026-04-04T13:00:51.797Z</time></trkpt><trkpt lat="45.6405479" lon="11.3426359"><ele>691.1666666666667</ele><time>2026-04-04T13:00:55.797Z</time></trkpt><trkpt lat="45.6406453" lon="11.3425491"><ele>691.3333333333334</ele><time>2026-04-04T13:00:57.798Z</time></trkpt><trkpt lat="45.6407176" lon="11.3425315"><ele>691.5</ele><time>2026-04-04T13:01:00.798Z</time></trkpt><trkpt lat="45.6407709" lon="11.3425827"><ele>691.6666666666666</ele><time>2026-04-04T13:01:16.797Z</time></trkpt><trkpt lat="45.6408537" lon="11.3425435"><ele>691.8333333333333</ele><time>2026-04-04T13:01:19.798Z</time></trkpt><trkpt lat="45.6409371" lon="11.3424903"><ele>692.0</ele><time>2026-04-04T13:01:22.798Z</time></trkpt><trkpt lat="45.640995" lon="11.3424397"><ele>692.0</ele><time>2026-04-04T13:01:24.798Z</time></trkpt><trkpt lat="45.6410781" lon="11.3423646"><ele>692.0</ele><time>2026-04-04T13:01:27.797Z</time></trkpt><trkpt lat="45.6411476" lon="11.3423198"><ele>692.0</ele><time>2026-04-04T13:01:29.799Z</time></trkpt><trkpt lat="45.6412209" lon="11.34227"><ele>692.0</ele><time>2026-04-04T13:01:31.799Z</time></trkpt><trkpt lat="45.6412637" lon="11.3421877"><ele>692.0</ele><time>2026-04-04T13:01:34.797Z</time></trkpt><trkpt lat="45.6411908" lon="11.3422067"><ele>692.0</ele><time>2026-04-04T13:01:37.798Z</time></trkpt><trkpt lat="45.6436271" lon="11.3411066"><ele>695.4000000000001</ele><time>2026-04-04T13:04:34.796Z</time></trkpt><trkpt lat="45.6435415" lon="11.3411464"><ele>698.8000000000001</ele><time>2026-04-04T13:05:05.796Z</time></trkpt><trkpt lat="45.6434441" lon="11.3412262"><ele>702.2</ele><time>2026-04-04T13:05:07.797Z</time></trkpt><trkpt lat="45.6433351" lon="11.3412623"><ele>705.6</ele><time>2026-04-04T13:05:09.797Z</time></trkpt><trkpt lat="45.6432586" lon="11.3413039"><ele>709.0</ele><time>2026-04-04T13:05:11.797Z</time></trkpt><trkpt lat="45.6432208" lon="11.341395"><ele>731.0</ele><time>2026-04-04T13:05:14.797Z</time></trkpt><trkpt lat="45.6509466" lon="11.3314038"><ele>732.1666666666666</ele><time>2026-04-04T13:18:19.154Z</time></trkpt><trkpt lat="45.6510226" lon="11.3312911"><ele>733.3333333333333</ele><time>2026-04-04T13:18:23.795Z</time></trkpt><trkpt lat="45.6509625" lon="11.3313245"><ele>734.5</ele><time>2026-04-04T13:33:03.789Z</time></trkpt><trkpt lat="45.6509767" lon="11.3312129"><ele>735.6666666666666</ele><time>2026-04-04T13:40:00.792Z</time></trkpt><trkpt lat="45.6510152" lon="11.3311278"><ele>736.8333333333334</ele><time>2026-04-04T13:40:02.793Z</time></trkpt><trkpt lat="45.6510656" lon="11.3310718"><ele>738.0</ele><time>2026-04-04T13:40:04.793Z</time></trkpt><trkpt lat="45.6511457" lon="11.3309836"><ele>738.0</ele><time>2026-04-04T13:40:06.792Z</time></trkpt><trkpt lat="45.6512252" lon="11.3308772"><ele>738.0</ele><time>2026-04-04T13:40:08.792Z</time></trkpt><trkpt lat="45.6512812" lon="11.3308065"><ele>738.0</ele><time>2026-04-04T13:40:09.793Z</time></trkpt><trkpt lat="45.6513355" lon="11.3307339"><ele>738.0</ele><time>2026-04-04T13:40:10.792Z</time></trkpt><trkpt lat="45.6514064" lon="11.3306518"><ele>738.0</ele><time>2026-04-04T13:40:11.792Z</time></trkpt><trkpt lat="45.6514645" lon="11.3305846"><ele>738.0</ele><time>2026-04-04T13:40:12.792Z</time></trkpt><trkpt lat="45.6515246" lon="11.3305277"><ele>740.0</ele><time>2026-04-04T13:40:13.793Z</time></trkpt><trkpt lat="45.6516283" lon="11.3304505"><ele>742.0</ele><time>2026-04-04T13:40:15.792Z</time></trkpt><trkpt lat="45.651708" lon="11.3304353"><ele>744.0</ele><time>2026-04-04T13:40:16.792Z</time></trkpt><trkpt lat="45.6517815" lon="11.3304117"><ele>746.0</ele><time>2026-04-04T13:40:17.792Z</time></trkpt><trkpt lat="45.6518548" lon="11.3303903"><ele>748.0</ele><time>2026-04-04T13:40:18.793Z</time></trkpt><trkpt lat="45.6519684" lon="11.3303981"><ele>748.1666666666667</ele><time>2026-04-04T13:40:20.793Z</time></trkpt><trkpt lat="45.6520539" lon="11.3304105"><ele>748.3333333333334</ele><time>2026-04-04T13:40:22.792Z</time></trkpt><trkpt lat="45.6521276" lon="11.3304127"><ele>748.5</ele><time>2026-04-04T13:40:35.793Z</time></trkpt><trkpt lat="45.6522185" lon="11.330398"><ele>748.6666666666666</ele><time>2026-04-04T13:40:37.793Z</time></trkpt><trkpt lat="45.6523244" lon="11.3303524"><ele>748.8333333333333</ele><time>2026-04-04T13:40:39.793Z</time></trkpt><trkpt lat="45.6523894" lon="11.3303234"><ele>749.0</ele><time>2026-04-04T13:40:41.792Z</time></trkpt><trkpt lat="45.6524689" lon="11.3303115"><ele>749.0</ele><time>2026-04-04T13:40:59.792Z</time></trkpt><trkpt lat="45.6525839" lon="11.3302965"><ele>749.0</ele><time>2026-04-04T13:41:01.792Z</time></trkpt><trkpt lat="45.6526852" lon="11.3303125"><ele>749.0</ele><time>2026-04-04T13:41:03.793Z</time></trkpt><trkpt lat="45.6527828" lon="11.3303393"><ele>749.0</ele><time>2026-04-04T13:41:05.792Z</time></trkpt><trkpt lat="45.6528672" lon="11.330288"><ele>749.0</ele><time>2026-04-04T13:41:07.792Z</time></trkpt><trkpt lat="45.6529577" lon="11.3302631"><ele>749.6</ele><time>2026-04-04T13:41:09.792Z</time></trkpt><trkpt lat="45.653023" lon="11.3302764"><ele>750.2</ele><time>2026-04-04T13:41:11.792Z</time></trkpt><trkpt lat="45.6531147" lon="11.3303071"><ele>750.8000000000001</ele><time>2026-04-04T13:41:21.794Z</time></trkpt><trkpt lat="45.6532303" lon="11.3303553"><ele>751.4000000000001</ele><time>2026-04-04T13:41:23.793Z</time></trkpt><trkpt lat="45.6533064" lon="11.3304189"><ele>752.0</ele><time>2026-04-04T13:41:25.794Z</time></trkpt><trkpt lat="45.6533675" lon="11.3305094"><ele>750.3333333333333</ele><time>2026-04-04T13:41:27.793Z</time></trkpt><trkpt lat="45.6534259" lon="11.330579"><ele>748.6666666666666</ele><time>2026-04-04T13:41:29.794Z</time></trkpt><trkpt lat="45.6534861" lon="11.3306943"><ele>747.0</ele><time>2026-04-04T13:41:32.793Z</time></trkpt><trkpt lat="45.6535067" lon="11.3307816"><ele>745.3333333333334</ele><time>2026-04-04T13:41:33.793Z</time></trkpt><trkpt lat="45.6534929" lon="11.3309163"><ele>743.6666666666667</ele><time>2026-04-04T13:41:35.793Z</time></trkpt><trkpt lat="45.6534887" lon="11.3310568"><ele>742.0</ele><time>2026-04-04T13:41:37.794Z</time></trkpt><trkpt lat="45.6534706" lon="11.331185"><ele>742.0</ele><time>2026-04-04T13:41:39.793Z</time></trkpt><trkpt lat="45.6535033" lon="11.3312849"><ele>742.0</ele><time>2026-04-04T13:41:42.793Z</time></trkpt><trkpt lat="45.6535741" lon="11.3312816"><ele>742.0</ele><time>2026-04-04T13:41:45.794Z</time></trkpt><trkpt lat="45.6536275" lon="11.33123"><ele>742.0</ele><time>2026-04-04T13:41:47.793Z</time></trkpt><trkpt lat="45.6537212" lon="11.3312471"><ele>742.0</ele><time>2026-04-04T13:41:49.794Z</time></trkpt><trkpt lat="45.6538165" lon="11.3312269"><ele>742.0</ele><time>2026-04-04T13:41:51.793Z</time></trkpt><trkpt lat="45.653908" lon="11.331221"><ele>743.6666666666667</ele><time>2026-04-04T13:41:53.793Z</time></trkpt><trkpt lat="45.6539988" lon="11.3312729"><ele>745.3333333333334</ele><time>2026-04-04T13:41:55.793Z</time></trkpt><trkpt lat="45.65407" lon="11.3312911"><ele>747.0</ele><time>2026-04-04T13:41:57.794Z</time></trkpt><trkpt lat="45.6541544" lon="11.3313337"><ele>748.6666666666666</ele><time>2026-04-04T13:41:59.794Z</time></trkpt><trkpt lat="45.6542395" lon="11.3313671"><ele>750.3333333333333</ele><time>2026-04-04T13:42:01.793Z</time></trkpt><trkpt lat="45.6543108" lon="11.3314058"><ele>752.0</ele><time>2026-04-04T13:42:03.793Z</time></trkpt><trkpt lat="45.65438" lon="11.3314312"><ele>753.0</ele><time>2026-04-04T13:42:05.793Z</time></trkpt><trkpt lat="45.6544504" lon="11.331517"><ele>754.0</ele><time>2026-04-04T13:42:07.794Z</time></trkpt><trkpt lat="45.6545235" lon="11.331574"><ele>755.0</ele><time>2026-04-04T13:42:09.793Z</time></trkpt><trkpt lat="45.654612" lon="11.3315738"><ele>756.0</ele><time>2026-04-04T13:42:11.794Z</time></trkpt><trkpt lat="45.6547131" lon="11.3315285"><ele>757.0</ele><time>2026-04-04T13:42:13.794Z</time></trkpt><trkpt lat="45.6548131" lon="11.3314713"><ele>757.3333333333334</ele><time>2026-04-04T13:42:15.793Z</time></trkpt><trkpt lat="45.654909" lon="11.3314209"><ele>757.6666666666667</ele><time>2026-04-04T13:42:17.793Z</time></trkpt><trkpt lat="45.6549998" lon="11.3314165"><ele>758.0</ele><time>2026-04-04T13:42:19.794Z</time></trkpt><trkpt lat="45.6550745" lon="11.3313893"><ele>758.3333333333334</ele><time>2026-04-04T13:42:21.794Z</time></trkpt><trkpt lat="45.6551517" lon="11.3313663"><ele>758.6666666666666</ele><time>2026-04-04T13:42:23.793Z</time></trkpt><trkpt lat="45.6552214" lon="11.331385"><ele>759.0</ele><time>2026-04-04T13:42:25.793Z</time></trkpt><trkpt lat="45.6552955" lon="11.331426"><ele>757.8333333333334</ele><time>2026-04-04T13:42:27.794Z</time></trkpt><trkpt lat="45.655378" lon="11.3314527"><ele>756.6666666666666</ele><time>2026-04-04T13:42:29.793Z</time></trkpt><trkpt lat="45.6554497" lon="11.3314219"><ele>755.5</ele><time>2026-04-04T13:42:31.794Z</time></trkpt><trkpt lat="45.6555269" lon="11.3313603"><ele>754.3333333333333</ele><time>2026-04-04T13:42:33.793Z</time></trkpt><trkpt lat="45.6555842" lon="11.3312841"><ele>753.1666666666666</ele><time>2026-04-04T13:42:36.793Z</time></trkpt><trkpt lat="45.6556504" lon="11.3312669"><ele>752.0</ele><time>2026-04-04T13:42:38.793Z</time></trkpt><trkpt lat="45.6557275" lon="11.3313224"><ele>752.0</ele><time>2026-04-04T13:44:40.793Z</time></trkpt><trkpt lat="45.6558103" lon="11.3313473"><ele>752.0</ele><time>2026-04-04T13:44:45.793Z</time></trkpt><trkpt lat="45.6558758" lon="11.3313494"><ele>752.0</ele><time>2026-04-04T13:44:47.793Z</time></trkpt><trkpt lat="45.6559452" lon="11.3313366"><ele>752.0</ele><time>2026-04-04T13:44:49.793Z</time></trkpt><trkpt lat="45.6560302" lon="11.3313654"><ele>752.0</ele><time>2026-04-04T13:44:51.793Z</time></trkpt><trkpt lat="45.6560971" lon="11.331418"><ele>752.0</ele><time>2026-04-04T13:44:53.793Z</time></trkpt><trkpt lat="45.6562006" lon="11.3313962"><ele>750.6666666666666</ele><time>2026-04-04T13:44:55.793Z</time></trkpt><trkpt lat="45.6562726" lon="11.3313606"><ele>749.3333333333333</ele><time>2026-04-04T13:44:57.793Z</time></trkpt><trkpt lat="45.6563696" lon="11.3313"><ele>748.0</ele><time>2026-04-04T13:44:59.793Z</time></trkpt><trkpt lat="45.6564671" lon="11.3312762"><ele>746.6666666666666</ele><time>2026-04-04T13:45:02.793Z</time></trkpt><trkpt lat="45.656535" lon="11.331253"><ele>745.3333333333334</ele><time>2026-04-04T13:45:04.793Z</time></trkpt><trkpt lat="45.6566118" lon="11.3312218"><ele>744.0</ele><time>2026-04-04T13:45:08.794Z</time></trkpt><trkpt lat="45.6566805" lon="11.3312276"><ele>744.0</ele><time>2026-04-04T13:48:32.794Z</time></trkpt><trkpt lat="45.6566138" lon="11.3312266"><ele>744.0</ele><time>2026-04-04T13:48:36.794Z</time></trkpt><trkpt lat="45.6565189" lon="11.331258"><ele>744.0</ele><time>2026-04-04T13:48:38.794Z</time></trkpt><trkpt lat="45.6564483" lon="11.331287"><ele>744.0</ele><time>2026-04-04T13:48:40.793Z</time></trkpt><trkpt lat="45.6563758" lon="11.3313086"><ele>744.0</ele><time>2026-04-04T13:48:42.794Z</time></trkpt><trkpt lat="45.65631" lon="11.3313577"><ele>744.0</ele><time>2026-04-04T13:48:44.793Z</time></trkpt><trkpt lat="45.6562432" lon="11.3313989"><ele>745.3333333333334</ele><time>2026-04-04T13:48:47.793Z</time></trkpt><trkpt lat="45.6561677" lon="11.3314292"><ele>746.6666666666666</ele><time>2026-04-04T13:48:54.794Z</time></trkpt><trkpt lat="45.6560856" lon="11.331422"><ele>748.0</ele><time>2026-04-04T13:49:02.793Z</time></trkpt><trkpt lat="45.6560131" lon="11.3314134"><ele>749.3333333333333</ele><time>2026-04-04T13:49:04.794Z</time></trkpt><trkpt lat="45.6559403" lon="11.3314061"><ele>750.6666666666666</ele><time>2026-04-04T13:49:06.793Z</time></trkpt><trkpt lat="45.6558255" lon="11.3313734"><ele>752.0</ele><time>2026-04-04T13:49:08.793Z</time></trkpt><trkpt lat="45.6557342" lon="11.3313215"><ele>752.0</ele><time>2026-04-04T13:49:35.793Z</time></trkpt><trkpt lat="45.6556476" lon="11.3313396"><ele>752.0</ele><time>2026-04-04T13:49:39.793Z</time></trkpt><trkpt lat="45.6555804" lon="11.3314052"><ele>752.0</ele><time>2026-04-04T13:49:41.794Z</time></trkpt><trkpt lat="45.6555241" lon="11.3314494"><ele>752.0</ele><time>2026-04-04T13:49:43.793Z</time></trkpt><trkpt lat="45.6554539" lon="11.3314797"><ele>752.0</ele><time>2026-04-04T13:49:45.793Z</time></trkpt><trkpt lat="45.6553644" lon="11.3314585"><ele>752.0</ele><time>2026-04-04T13:49:48.794Z</time></trkpt><trkpt lat="45.6552928" lon="11.331431"><ele>754.8333333333333</ele><time>2026-04-04T13:49:50.793Z</time></trkpt><trkpt lat="45.6552145" lon="11.3314095"><ele>757.6666666666666</ele><time>2026-04-04T13:49:52.793Z</time></trkpt><trkpt lat="45.6551256" lon="11.331398"><ele>760.5</ele><time>2026-04-04T13:49:54.794Z</time></trkpt><trkpt lat="45.6550501" lon="11.3314408"><ele>763.3333333333333</ele><time>2026-04-04T13:49:56.794Z</time></trkpt><trkpt lat="45.6549771" lon="11.3314515"><ele>766.1666666666666</ele><time>2026-04-04T13:49:58.793Z</time></trkpt><trkpt lat="45.6548967" lon="11.3314414"><ele>769.0</ele><time>2026-04-04T13:50:00.793Z</time></trkpt><trkpt lat="45.6547799" lon="11.3314991"><ele>768.9999999999999</ele><time>2026-04-04T13:50:02.793Z</time></trkpt><trkpt lat="45.6546776" lon="11.3315314"><ele>769.0</ele><time>2026-04-04T13:50:04.794Z</time></trkpt><trkpt lat="45.6545796" lon="11.3315629"><ele>769.0</ele><time>2026-04-04T13:50:06.794Z</time></trkpt><trkpt lat="45.6545145" lon="11.3315536"><ele>769.0</ele><time>2026-04-04T13:50:08.793Z</time></trkpt><trkpt lat="45.6544483" lon="11.3315232"><ele>768.9999999999999</ele><time>2026-04-04T13:50:53.794Z</time></trkpt><trkpt lat="45.6544165" lon="11.331441"><ele>769.0</ele><time>2026-04-04T13:51:06.793Z</time></trkpt><trkpt lat="45.6543457" lon="11.3314083"><ele>766.9999999999999</ele><time>2026-04-04T13:51:09.794Z</time></trkpt><trkpt lat="45.6542794" lon="11.3313998"><ele>765.0</ele><time>2026-04-04T13:51:11.794Z</time></trkpt><trkpt lat="45.6542094" lon="11.3313498"><ele>763.0</ele><time>2026-04-04T13:51:13.794Z</time></trkpt><trkpt lat="45.6541222" lon="11.3313121"><ele>761.0</ele><time>2026-04-04T13:51:15.794Z</time></trkpt><trkpt lat="45.6540414" lon="11.3312775"><ele>759.0</ele><time>2026-04-04T13:51:17.794Z</time></trkpt><trkpt lat="45.6539571" lon="11.3312402"><ele>757.0</ele><time>2026-04-04T13:51:19.793Z</time></trkpt><trkpt lat="45.653888" lon="11.3312155"><ele>756.1666666666667</ele><time>2026-04-04T13:51:21.793Z</time></trkpt><trkpt lat="45.6538093" lon="11.3312354"><ele>755.3333333333334</ele><time>2026-04-04T13:51:23.794Z</time></trkpt><trkpt lat="45.6537235" lon="11.3312392"><ele>754.5</ele><time>2026-04-04T13:51:25.794Z</time></trkpt><trkpt lat="45.6536419" lon="11.3312248"><ele>753.6666666666666</ele><time>2026-04-04T13:51:27.793Z</time></trkpt><trkpt lat="45.6535738" lon="11.3312416"><ele>752.8333333333333</ele><time>2026-04-04T13:51:29.793Z</time></trkpt><trkpt lat="45.6535009" lon="11.3312774"><ele>752.0</ele><time>2026-04-04T13:51:32.793Z</time></trkpt><trkpt lat="45.6534579" lon="11.331201"><ele>750.3333333333333</ele><time>2026-04-04T13:51:35.793Z</time></trkpt><trkpt lat="45.653476" lon="11.331102"><ele>748.6666666666666</ele><time>2026-04-04T13:51:40.793Z</time></trkpt><trkpt lat="45.6534946" lon="11.3310153"><ele>747.0</ele><time>2026-04-04T13:51:42.793Z</time></trkpt><trkpt lat="45.6534941" lon="11.3308998"><ele>745.3333333333334</ele><time>2026-04-04T13:51:44.794Z</time></trkpt><trkpt lat="45.653503" lon="11.3307947"><ele>743.6666666666667</ele><time>2026-04-04T13:51:46.793Z</time></trkpt><trkpt lat="45.6534966" lon="11.3306681"><ele>742.0</ele><time>2026-04-04T13:51:49.794Z</time></trkpt><trkpt lat="45.6534656" lon="11.3305675"><ele>744.0</ele><time>2026-04-04T13:51:50.794Z</time></trkpt><trkpt lat="45.6534039" lon="11.3305106"><ele>746.0</ele><time>2026-04-04T13:51:52.793Z</time></trkpt><trkpt lat="45.6533339" lon="11.3303938"><ele>748.0</ele><time>2026-04-04T13:51:54.793Z</time></trkpt><trkpt lat="45.653256" lon="11.3303396"><ele>750.0</ele><time>2026-04-04T13:51:56.793Z</time></trkpt><trkpt lat="45.6531462" lon="11.3302945"><ele>752.0</ele><time>2026-04-04T13:51:58.793Z</time></trkpt><trkpt lat="45.6530497" lon="11.3302699"><ele>752.0</ele><time>2026-04-04T13:52:00.794Z</time></trkpt><trkpt lat="45.6529765" lon="11.3302591"><ele>752.0</ele><time>2026-04-04T13:52:13.793Z</time></trkpt><trkpt lat="45.6529133" lon="11.3302699"><ele>752.0</ele><time>2026-04-04T13:52:15.793Z</time></trkpt><trkpt lat="45.6528428" lon="11.3302927"><ele>752.0</ele><time>2026-04-04T13:52:18.793Z</time></trkpt><trkpt lat="45.6527687" lon="11.3303203"><ele>752.0</ele><time>2026-04-04T13:52:21.793Z</time></trkpt><trkpt lat="45.6527033" lon="11.3302921"><ele>752.0</ele><time>2026-04-04T13:52:23.793Z</time></trkpt><trkpt lat="45.6526254" lon="11.3302788"><ele>752.0</ele><time>2026-04-04T13:52:53.794Z</time></trkpt><trkpt lat="45.6525392" lon="11.3302719"><ele>751.5714285714286</ele><time>2026-04-04T13:52:55.793Z</time></trkpt><trkpt lat="45.6524676" lon="11.3302745"><ele>751.1428571428571</ele><time>2026-04-04T13:52:57.793Z</time></trkpt><trkpt lat="45.6524021" lon="11.3303132"><ele>750.7142857142858</ele><time>2026-04-04T13:52:59.793Z</time></trkpt><trkpt lat="45.6523368" lon="11.3303495"><ele>750.2857142857142</ele><time>2026-04-04T13:53:01.793Z</time></trkpt><trkpt lat="45.6522539" lon="11.3303714"><ele>749.8571428571429</ele><time>2026-04-04T13:53:03.794Z</time></trkpt><trkpt lat="45.6521751" lon="11.3303984"><ele>749.4285714285714</ele><time>2026-04-04T13:53:05.794Z</time></trkpt><trkpt lat="45.6521067" lon="11.3304268"><ele>749.0</ele><time>2026-04-04T13:53:33.794Z</time></trkpt><trkpt lat="45.6520377" lon="11.3304203"><ele>748.8000000000001</ele><time>2026-04-04T13:53:35.793Z</time></trkpt><trkpt lat="45.651937" lon="11.330392"><ele>748.6</ele><time>2026-04-04T13:53:37.793Z</time></trkpt><trkpt lat="45.6518265" lon="11.3303977"><ele>748.4</ele><time>2026-04-04T13:53:39.794Z</time></trkpt><trkpt lat="45.651712" lon="11.3304359"><ele>748.2</ele><time>2026-04-04T13:53:41.793Z</time></trkpt><trkpt lat="45.6516181" lon="11.3304612"><ele>748.0</ele><time>2026-04-04T13:53:43.794Z</time></trkpt><trkpt lat="45.6515532" lon="11.3304936"><ele>748.0</ele><time>2026-04-04T13:53:44.794Z</time></trkpt><trkpt lat="45.6514983" lon="11.3305523"><ele>748.0</ele><time>2026-04-04T13:53:45.794Z</time></trkpt><trkpt lat="45.6513953" lon="11.3306731"><ele>748.0</ele><time>2026-04-04T13:53:47.793Z</time></trkpt><trkpt lat="45.6513304" lon="11.3307504"><ele>748.0</ele><time>2026-04-04T13:53:48.793Z</time></trkpt><trkpt lat="45.651264" lon="11.3308393"><ele>748.0</ele><time>2026-04-04T13:53:49.793Z</time></trkpt><trkpt lat="45.6511997" lon="11.3309242"><ele>746.3333333333334</ele><time>2026-04-04T13:53:50.793Z</time></trkpt><trkpt lat="45.651133" lon="11.3310142"><ele>744.6666666666667</ele><time>2026-04-04T13:53:51.794Z</time></trkpt><trkpt lat="45.651076" lon="11.3310951"><ele>743.0</ele><time>2026-04-04T13:53:52.794Z</time></trkpt><trkpt lat="45.6509979" lon="11.331183"><ele>741.3333333333334</ele><time>2026-04-04T13:53:54.793Z</time></trkpt><trkpt lat="45.6509511" lon="11.3312681"><ele>739.6666666666666</ele><time>2026-04-04T13:53:56.794Z</time></trkpt><trkpt lat="45.6508792" lon="11.3313174"><ele>738.0</ele><time>2026-04-04T13:54:20.793Z</time></trkpt><trkpt lat="45.650802" lon="11.3313589"><ele>736.8333333333334</ele><time>2026-04-04T13:54:22.793Z</time></trkpt><trkpt lat="45.6507247" lon="11.3314061"><ele>735.6666666666666</ele><time>2026-04-04T13:54:24.793Z</time></trkpt><trkpt lat="45.6506434" lon="11.3314271"><ele>734.5</ele><time>2026-04-04T13:54:26.794Z</time></trkpt><trkpt lat="45.6505785" lon="11.331426"><ele>733.3333333333333</ele><time>2026-04-04T13:54:29.794Z</time></trkpt><trkpt lat="45.6504876" lon="11.3315175"><ele>732.1666666666666</ele><time>2026-04-04T13:54:51.793Z</time></trkpt><trkpt lat="45.6504277" lon="11.3315639"><ele>731.0</ele><time>2026-04-04T13:54:52.793Z</time></trkpt><trkpt lat="45.650364" lon="11.3316132"><ele>731.0</ele><time>2026-04-04T13:54:53.794Z</time></trkpt><trkpt lat="45.650299" lon="11.3316732"><ele>731.0</ele><time>2026-04-04T13:54:54.793Z</time></trkpt><trkpt lat="45.6502379" lon="11.3317247"><ele>731.0</ele><time>2026-04-04T13:54:55.793Z</time></trkpt><trkpt lat="45.6501682" lon="11.3317596"><ele>731.0</ele><time>2026-04-04T13:54:56.794Z</time></trkpt><trkpt lat="45.6500623" lon="11.3318126"><ele>731.0</ele><time>2026-04-04T13:54:58.793Z</time></trkpt><trkpt lat="45.6499906" lon="11.3318677"><ele>731.0</ele><time>2026-04-04T13:54:59.793Z</time></trkpt><trkpt lat="45.6498976" lon="11.331962"><ele>731.5</ele><time>2026-04-04T13:55:01.794Z</time></trkpt><trkpt lat="45.6498342" lon="11.332023"><ele>732.0</ele><time>2026-04-04T13:55:02.794Z</time></trkpt><trkpt lat="45.6497767" lon="11.3320817"><ele>732.5</ele><time>2026-04-04T13:55:03.794Z</time></trkpt><trkpt lat="45.6497339" lon="11.3321504"><ele>733.0</ele><time>2026-04-04T13:55:04.793Z</time></trkpt><trkpt lat="45.649691" lon="11.3322323"><ele>733.5</ele><time>2026-04-04T13:55:05.793Z</time></trkpt><trkpt lat="45.6496656" lon="11.3323264"><ele>734.0</ele><time>2026-04-04T13:55:06.793Z</time></trkpt><trkpt lat="45.6495971" lon="11.3324606"><ele>735.8000000000001</ele><time>2026-04-04T13:55:08.794Z</time></trkpt><trkpt lat="45.6494838" lon="11.3324972"><ele>737.6</ele><time>2026-04-04T13:55:11.794Z</time></trkpt><trkpt lat="45.6494203" lon="11.3325689"><ele>739.4</ele><time>2026-04-04T13:55:14.793Z</time></trkpt><trkpt lat="45.6493329" lon="11.3326926"><ele>741.2</ele><time>2026-04-04T13:55:17.793Z</time></trkpt><trkpt lat="45.6492314" lon="11.3327979"><ele>743.0</ele><time>2026-04-04T13:55:19.793Z</time></trkpt><trkpt lat="45.6491635" lon="11.3328568"><ele>743.0</ele><time>2026-04-04T13:55:20.794Z</time></trkpt><trkpt lat="45.6491011" lon="11.3329069"><ele>743.0</ele><time>2026-04-04T13:55:21.794Z</time></trkpt><trkpt lat="45.6490426" lon="11.3329554"><ele>743.0</ele><time>2026-04-04T13:55:22.793Z</time></trkpt><trkpt lat="45.6489947" lon="11.3330214"><ele>743.0</ele><time>2026-04-04T13:55:23.794Z</time></trkpt><trkpt lat="45.648949" lon="11.3331012"><ele>743.0</ele><time>2026-04-04T13:55:24.793Z</time></trkpt><trkpt lat="45.6488999" lon="11.3331787"><ele>743.0</ele><time>2026-04-04T13:55:25.793Z</time></trkpt><trkpt lat="45.6488413" lon="11.3332513"><ele>743.0</ele><time>2026-04-04T13:55:26.793Z</time></trkpt><trkpt lat="45.6487839" lon="11.3333191"><ele>743.0</ele><time>2026-04-04T13:55:27.793Z</time></trkpt><trkpt lat="45.6487316" lon="11.3333862"><ele>743.0</ele><time>2026-04-04T13:55:28.794Z</time></trkpt><trkpt lat="45.648684" lon="11.3334454"><ele>743.0</ele><time>2026-04-04T13:55:29.794Z</time></trkpt><trkpt lat="45.648604" lon="11.3335136"><ele>743.0</ele><time>2026-04-04T13:55:31.793Z</time></trkpt><trkpt lat="45.6485199" lon="11.3336032"><ele>743.0</ele><time>2026-04-04T13:55:33.793Z</time></trkpt><trkpt lat="45.648494" lon="11.3337188"><ele>743.0</ele><time>2026-04-04T13:55:35.793Z</time></trkpt><trkpt lat="45.6484199" lon="11.3338411"><ele>742.5</ele><time>2026-04-04T13:55:37.793Z</time></trkpt><trkpt lat="45.6483702" lon="11.3339187"><ele>742.0</ele><time>2026-04-04T13:55:38.793Z</time></trkpt><trkpt lat="45.6483118" lon="11.3340136"><ele>741.5</ele><time>2026-04-04T13:55:39.793Z</time></trkpt><trkpt lat="45.6482612" lon="11.3341142"><ele>741.0</ele><time>2026-04-04T13:55:40.793Z</time></trkpt><trkpt lat="45.648206" lon="11.334237"><ele>740.5</ele><time>2026-04-04T13:55:41.793Z</time></trkpt><trkpt lat="45.6481596" lon="11.3343085"><ele>740.0</ele><time>2026-04-04T13:55:42.793Z</time></trkpt><trkpt lat="45.6481087" lon="11.3343722"><ele>740.0</ele><time>2026-04-04T13:55:43.794Z</time></trkpt><trkpt lat="45.6480251" lon="11.3344065"><ele>740.0</ele><time>2026-04-04T13:55:45.794Z</time></trkpt><trkpt lat="45.6479275" lon="11.3344478"><ele>740.0</ele><time>2026-04-04T13:55:47.794Z</time></trkpt><trkpt lat="45.6478269" lon="11.3345002"><ele>740.0</ele><time>2026-04-04T13:55:49.793Z</time></trkpt><trkpt lat="45.6477616" lon="11.3345202"><ele>740.0</ele><time>2026-04-04T13:55:50.793Z</time></trkpt><trkpt lat="45.6476656" lon="11.3346145"><ele>740.0</ele><time>2026-04-04T13:55:52.793Z</time></trkpt><trkpt lat="45.6476056" lon="11.3346528"><ele>740.0</ele><time>2026-04-04T13:55:53.793Z</time></trkpt><trkpt lat="45.647548" lon="11.3347038"><ele>740.0</ele><time>2026-04-04T13:55:54.793Z</time></trkpt><trkpt lat="45.6474492" lon="11.3348106"><ele>740.0</ele><time>2026-04-04T13:55:56.794Z</time></trkpt><trkpt lat="45.6473681" lon="11.3348724"><ele>740.0</ele><time>2026-04-04T13:55:58.793Z</time></trkpt><trkpt lat="45.647307" lon="11.3348997"><ele>740.0</ele><time>2026-04-04T13:56:00.793Z</time></trkpt><trkpt lat="45.6472532" lon="11.3349542"><ele>739.6666666666666</ele><time>2026-04-04T13:56:02.794Z</time></trkpt><trkpt lat="45.6471981" lon="11.3349983"><ele>739.3333333333333</ele><time>2026-04-04T13:56:04.793Z</time></trkpt><trkpt lat="45.6471208" lon="11.3350231"><ele>739.0</ele><time>2026-04-04T13:56:25.794Z</time></trkpt><trkpt lat="45.6470375" lon="11.3351048"><ele>738.6666666666666</ele><time>2026-04-04T13:56:27.794Z</time></trkpt><trkpt lat="45.64696" lon="11.3352438"><ele>738.3333333333334</ele><time>2026-04-04T13:56:29.794Z</time></trkpt><trkpt lat="45.646915" lon="11.3353156"><ele>738.0</ele><time>2026-04-04T13:56:30.793Z</time></trkpt><trkpt lat="45.6468225" lon="11.3353817"><ele>738.0</ele><time>2026-04-04T13:56:32.794Z</time></trkpt><trkpt lat="45.646747" lon="11.3354243"><ele>738.0</ele><time>2026-04-04T13:56:33.794Z</time></trkpt><trkpt lat="45.646675" lon="11.3354924"><ele>738.0</ele><time>2026-04-04T13:56:34.794Z</time></trkpt><trkpt lat="45.6466003" lon="11.3355471"><ele>738.0</ele><time>2026-04-04T13:56:35.793Z</time></trkpt><trkpt lat="45.6465072" lon="11.3356129"><ele>738.0</ele><time>2026-04-04T13:56:36.793Z</time></trkpt><trkpt lat="45.6464269" lon="11.3356842"><ele>736.8571428571429</ele><time>2026-04-04T13:56:37.794Z</time></trkpt><trkpt lat="45.6463626" lon="11.3357333"><ele>735.7142857142857</ele><time>2026-04-04T13:56:38.793Z</time></trkpt><trkpt lat="45.6462882" lon="11.3357677"><ele>734.5714285714287</ele><time>2026-04-04T13:56:39.793Z</time></trkpt><trkpt lat="45.6462168" lon="11.335797"><ele>733.4285714285714</ele><time>2026-04-04T13:56:40.794Z</time></trkpt><trkpt lat="45.6461494" lon="11.3358447"><ele>732.2857142857143</ele><time>2026-04-04T13:56:41.794Z</time></trkpt><trkpt lat="45.6460934" lon="11.3359005"><ele>731.1428571428572</ele><time>2026-04-04T13:56:42.793Z</time></trkpt><trkpt lat="45.6460557" lon="11.3359773"><ele>730.0</ele><time>2026-04-04T13:56:43.793Z</time></trkpt><trkpt lat="45.6459969" lon="11.3360834"><ele>731.1666666666667</ele><time>2026-04-04T13:56:45.793Z</time></trkpt><trkpt lat="45.6459892" lon="11.3361875"><ele>732.3333333333334</ele><time>2026-04-04T13:56:47.794Z</time></trkpt><trkpt lat="45.6459194" lon="11.3362092"><ele>733.5</ele><time>2026-04-04T13:56:50.793Z</time></trkpt><trkpt lat="45.6458114" lon="11.3362166"><ele>734.6666666666666</ele><time>2026-04-04T13:56:52.793Z</time></trkpt><trkpt lat="45.6457521" lon="11.3362883"><ele>735.8333333333333</ele><time>2026-04-04T13:56:55.793Z</time></trkpt><trkpt lat="45.6457" lon="11.3364053"><ele>737.0</ele><time>2026-04-04T13:56:58.793Z</time></trkpt><trkpt lat="45.6456092" lon="11.3364887"><ele>737.0</ele><time>2026-04-04T13:57:00.793Z</time></trkpt><trkpt lat="45.6455532" lon="11.3365592"><ele>737.0</ele><time>2026-04-04T13:57:02.793Z</time></trkpt><trkpt lat="45.6455146" lon="11.3366639"><ele>737.0</ele><time>2026-04-04T13:57:05.793Z</time></trkpt><trkpt lat="45.6455164" lon="11.3367756"><ele>737.0</ele><time>2026-04-04T13:57:07.794Z</time></trkpt><trkpt lat="45.6454675" lon="11.3368778"><ele>737.0</ele><time>2026-04-04T13:57:10.794Z</time></trkpt><trkpt lat="45.6454311" lon="11.3369869"><ele>737.0</ele><time>2026-04-04T13:57:13.794Z</time></trkpt><trkpt lat="45.6454062" lon="11.3370697"><ele>737.0</ele><time>2026-04-04T13:57:15.793Z</time></trkpt><trkpt lat="45.6453794" lon="11.3371868"><ele>737.0</ele><time>2026-04-04T13:57:24.794Z</time></trkpt><trkpt lat="45.6453317" lon="11.337283"><ele>737.0</ele><time>2026-04-04T13:57:26.794Z</time></trkpt><trkpt lat="45.6452942" lon="11.3373749"><ele>737.0</ele><time>2026-04-04T13:57:29.793Z</time></trkpt><trkpt lat="45.6452257" lon="11.33744"><ele>737.0</ele><time>2026-04-04T13:57:34.793Z</time></trkpt><trkpt lat="45.645176" lon="11.3375497"><ele>737.0</ele><time>2026-04-04T13:57:37.794Z</time></trkpt><trkpt lat="45.645135" lon="11.3376346"><ele>736.1666666666666</ele><time>2026-04-04T13:57:39.794Z</time></trkpt><trkpt lat="45.6450364" lon="11.3376959"><ele>735.3333333333333</ele><time>2026-04-04T13:57:41.794Z</time></trkpt><trkpt lat="45.6449714" lon="11.3377803"><ele>734.5</ele><time>2026-04-04T13:57:43.793Z</time></trkpt><trkpt lat="45.6448863" lon="11.3377971"><ele>733.6666666666666</ele><time>2026-04-04T13:57:46.794Z</time></trkpt><trkpt lat="45.6448103" lon="11.3377765"><ele>732.8333333333334</ele><time>2026-04-04T13:57:48.793Z</time></trkpt><trkpt lat="45.6447392" lon="11.3377766"><ele>732.0</ele><time>2026-04-04T13:57:50.794Z</time></trkpt><trkpt lat="45.6446548" lon="11.3377456"><ele>732.0</ele><time>2026-04-04T13:57:52.793Z</time></trkpt><trkpt lat="45.6445777" lon="11.337728"><ele>732.0</ele><time>2026-04-04T13:57:54.794Z</time></trkpt><trkpt lat="45.644507" lon="11.3377342"><ele>732.0</ele><time>2026-04-04T13:57:57.793Z</time></trkpt><trkpt lat="45.6445095" lon="11.3378605"><ele>732.0</ele><time>2026-04-04T13:58:00.794Z</time></trkpt><trkpt lat="45.6445437" lon="11.3380037"><ele>732.0</ele><time>2026-04-04T13:58:02.794Z</time></trkpt><trkpt lat="45.6445895" lon="11.3381237"><ele>732.0</ele><time>2026-04-04T13:58:04.793Z</time></trkpt><trkpt lat="45.6445987" lon="11.3382491"><ele>731.6</ele><time>2026-04-04T13:58:06.793Z</time></trkpt><trkpt lat="45.6445645" lon="11.3383827"><ele>731.2</ele><time>2026-04-04T13:58:08.793Z</time></trkpt><trkpt lat="45.6445379" lon="11.3384914"><ele>730.8</ele><time>2026-04-04T13:58:09.793Z</time></trkpt><trkpt lat="45.6445343" lon="11.3386302"><ele>730.4</ele><time>2026-04-04T13:58:10.794Z</time></trkpt><trkpt lat="45.6445163" lon="11.3387901"><ele>730.0</ele><time>2026-04-04T13:58:11.793Z</time></trkpt><trkpt lat="45.6444757" lon="11.3389706"><ele>731.4</ele><time>2026-04-04T13:58:12.793Z</time></trkpt><trkpt lat="45.6444412" lon="11.339111"><ele>732.8</ele><time>2026-04-04T13:58:13.794Z</time></trkpt><trkpt lat="45.6444001" lon="11.3392079"><ele>734.2</ele><time>2026-04-04T13:58:14.794Z</time></trkpt><trkpt lat="45.6443336" lon="11.3393264"><ele>735.6</ele><time>2026-04-04T13:58:15.793Z</time></trkpt><trkpt lat="45.6442847" lon="11.3394328"><ele>737.0</ele><time>2026-04-04T13:58:16.794Z</time></trkpt><trkpt lat="45.6442308" lon="11.3395144"><ele>737.0</ele><time>2026-04-04T13:58:17.794Z</time></trkpt><trkpt lat="45.6441688" lon="11.3396432"><ele>737.0</ele><time>2026-04-04T13:58:19.794Z</time></trkpt><trkpt lat="45.6441561" lon="11.3397515"><ele>737.0</ele><time>2026-04-04T13:58:21.793Z</time></trkpt><trkpt lat="45.6441274" lon="11.3398955"><ele>737.0</ele><time>2026-04-04T13:58:23.793Z</time></trkpt><trkpt lat="45.6441148" lon="11.3400464"><ele>737.0</ele><time>2026-04-04T13:58:25.794Z</time></trkpt><trkpt lat="45.6440827" lon="11.3401357"><ele>735.0</ele><time>2026-04-04T13:58:26.793Z</time></trkpt><trkpt lat="45.6440504" lon="11.3402335"><ele>733.0</ele><time>2026-04-04T13:58:27.793Z</time></trkpt><trkpt lat="45.6440207" lon="11.3403407"><ele>731.0</ele><time>2026-04-04T13:58:28.793Z</time></trkpt><trkpt lat="45.6439918" lon="11.3404418"><ele>729.0</ele><time>2026-04-04T13:58:29.793Z</time></trkpt><trkpt lat="45.643972" lon="11.34054"><ele>727.0</ele><time>2026-04-04T13:58:30.793Z</time></trkpt><trkpt lat="45.6439736" lon="11.3407082"><ele>725.0</ele><time>2026-04-04T13:58:32.793Z</time></trkpt><trkpt lat="45.6439685" lon="11.3408268"><ele>723.5</ele><time>2026-04-04T13:58:34.793Z</time></trkpt><trkpt lat="45.6439396" lon="11.3409286"><ele>722.0</ele><time>2026-04-04T13:58:37.794Z</time></trkpt><trkpt lat="45.6438777" lon="11.3409841"><ele>720.5</ele><time>2026-04-04T13:58:39.794Z</time></trkpt><trkpt lat="45.6437753" lon="11.3410405"><ele>719.0</ele><time>2026-04-04T13:58:41.793Z</time></trkpt><trkpt lat="45.6437154" lon="11.3410694"><ele>717.5</ele><time>2026-04-04T13:58:42.793Z</time></trkpt><trkpt lat="45.643621" lon="11.3411109"><ele>716.0</ele><time>2026-04-04T13:58:44.793Z</time></trkpt><trkpt lat="45.6435575" lon="11.3411496"><ele>716.8</ele><time>2026-04-04T13:58:45.793Z</time></trkpt><trkpt lat="45.6434972" lon="11.3411969"><ele>717.5999999999999</ele><time>2026-04-04T13:58:46.794Z</time></trkpt><trkpt lat="45.6433919" lon="11.3412581"><ele>718.4</ele><time>2026-04-04T13:58:48.794Z</time></trkpt><trkpt lat="45.6433019" lon="11.3412704"><ele>719.2</ele><time>2026-04-04T13:58:50.793Z</time></trkpt><trkpt lat="45.6432374" lon="11.3413838"><ele>720.0</ele><time>2026-04-04T13:58:52.793Z</time></trkpt><trkpt lat="45.6431454" lon="11.3414676"><ele>720.0</ele><time>2026-04-04T13:58:54.794Z</time></trkpt><trkpt lat="45.6430147" lon="11.3415217"><ele>720.0</ele><time>2026-04-04T13:58:56.793Z</time></trkpt><trkpt lat="45.6429389" lon="11.3415429"><ele>720.0</ele><time>2026-04-04T13:58:57.793Z</time></trkpt><trkpt lat="45.6428713" lon="11.3415552"><ele>720.0</ele><time>2026-04-04T13:58:58.794Z</time></trkpt><trkpt lat="45.6427782" lon="11.3415709"><ele>720.0</ele><time>2026-04-04T13:59:00.794Z</time></trkpt><trkpt lat="45.6427076" lon="11.3415734"><ele>720.0</ele><time>2026-04-04T13:59:03.794Z</time></trkpt><trkpt lat="45.6428197" lon="11.3415612"><ele>720.0</ele><time>2026-04-04T13:59:36.793Z</time></trkpt><trkpt lat="45.6429589" lon="11.3415341"><ele>720.0</ele><time>2026-04-04T13:59:38.793Z</time></trkpt><trkpt lat="45.6430322" lon="11.3415074"><ele>720.0</ele><time>2026-04-04T13:59:39.794Z</time></trkpt><trkpt lat="45.643097" lon="11.3414861"><ele>720.0</ele><time>2026-04-04T13:59:40.793Z</time></trkpt><trkpt lat="45.6431635" lon="11.3414605"><ele>720.0</ele><time>2026-04-04T13:59:41.794Z</time></trkpt><trkpt lat="45.6432142" lon="11.3413997"><ele>720.0</ele><time>2026-04-04T13:59:42.793Z</time></trkpt><trkpt lat="45.6432765" lon="11.3412755"><ele>719.3333333333334</ele><time>2026-04-04T13:59:44.793Z</time></trkpt><trkpt lat="45.6433431" lon="11.3412261"><ele>718.6666666666666</ele><time>2026-04-04T13:59:46.793Z</time></trkpt><trkpt lat="45.6434318" lon="11.3412272"><ele>718.0</ele><time>2026-04-04T13:59:48.794Z</time></trkpt><trkpt lat="45.6435356" lon="11.341166"><ele>717.3333333333333</ele><time>2026-04-04T13:59:50.794Z</time></trkpt><trkpt lat="45.6436032" lon="11.3411286"><ele>716.6666666666666</ele><time>2026-04-04T13:59:52.794Z</time></trkpt><trkpt lat="45.6436512" lon="11.3411937"><ele>716.0</ele><time>2026-04-04T13:59:56.793Z</time></trkpt><trkpt lat="45.6435748" lon="11.3412732"><ele>716.6666666666666</ele><time>2026-04-04T13:59:59.794Z</time></trkpt><trkpt lat="45.6435286" lon="11.3413588"><ele>717.3333333333333</ele><time>2026-04-04T14:00:01.794Z</time></trkpt><trkpt lat="45.6434957" lon="11.3414543"><ele>718.0</ele><time>2026-04-04T14:00:03.794Z</time></trkpt><trkpt lat="45.6434378" lon="11.3415178"><ele>718.6666666666666</ele><time>2026-04-04T14:00:06.793Z</time></trkpt><trkpt lat="45.6433565" lon="11.3415882"><ele>719.3333333333334</ele><time>2026-04-04T14:00:09.794Z</time></trkpt><trkpt lat="45.6432807" lon="11.3416552"><ele>720.0</ele><time>2026-04-04T14:00:11.794Z</time></trkpt><trkpt lat="45.6432264" lon="11.3417061"><ele>720.0</ele><time>2026-04-04T14:00:14.793Z</time></trkpt><trkpt lat="45.6431733" lon="11.3417997"><ele>720.0</ele><time>2026-04-04T14:00:18.794Z</time></trkpt><trkpt lat="45.6431046" lon="11.3419137"><ele>720.0</ele><time>2026-04-04T14:00:20.793Z</time></trkpt><trkpt lat="45.6430507" lon="11.3419892"><ele>720.0</ele><time>2026-04-04T14:00:22.794Z</time></trkpt><trkpt lat="45.6429777" lon="11.3420737"><ele>720.0</ele><time>2026-04-04T14:00:24.793Z</time></trkpt><trkpt lat="45.6429075" lon="11.3421401"><ele>720.0</ele><time>2026-04-04T14:00:27.793Z</time></trkpt><trkpt lat="45.6428116" lon="11.342186"><ele>716.6</ele><time>2026-04-04T14:00:29.793Z</time></trkpt><trkpt lat="45.6427073" lon="11.3422321"><ele>713.2</ele><time>2026-04-04T14:00:31.793Z</time></trkpt><trkpt lat="45.642618" lon="11.3422774"><ele>709.8</ele><time>2026-04-04T14:00:33.793Z</time></trkpt><trkpt lat="45.6425298" lon="11.342314"><ele>706.4</ele><time>2026-04-04T14:00:35.793Z</time></trkpt><trkpt lat="45.6424567" lon="11.3423452"><ele>703.0</ele><time>2026-04-04T14:00:37.793Z</time></trkpt><trkpt lat="45.6423659" lon="11.3423639"><ele>703.0</ele><time>2026-04-04T14:00:39.793Z</time></trkpt><trkpt lat="45.6422558" lon="11.3423496"><ele>703.0</ele><time>2026-04-04T14:00:41.794Z</time></trkpt><trkpt lat="45.6421486" lon="11.342297"><ele>703.0</ele><time>2026-04-04T14:00:43.794Z</time></trkpt><trkpt lat="45.6420453" lon="11.3422316"><ele>703.0</ele><time>2026-04-04T14:00:45.793Z</time></trkpt><trkpt lat="45.6419458" lon="11.342143"><ele>700.0</ele><time>2026-04-04T14:00:47.793Z</time></trkpt><trkpt lat="45.6418592" lon="11.3420378"><ele>697.0</ele><time>2026-04-04T14:00:49.793Z</time></trkpt><trkpt lat="45.6417825" lon="11.3419444"><ele>694.0</ele><time>2026-04-04T14:00:51.794Z</time></trkpt><trkpt lat="45.6417123" lon="11.3419167"><ele>691.0</ele><time>2026-04-04T14:00:53.793Z</time></trkpt><trkpt lat="45.6416305" lon="11.3419495"><ele>688.0</ele><time>2026-04-04T14:00:55.793Z</time></trkpt><trkpt lat="45.6415302" lon="11.3420189"><ele>688.0</ele><time>2026-04-04T14:00:57.794Z</time></trkpt><trkpt lat="45.6414396" lon="11.3420778"><ele>688.0</ele><time>2026-04-04T14:00:59.794Z</time></trkpt><trkpt lat="45.6413713" lon="11.3421245"><ele>688.0</ele><time>2026-04-04T14:01:02.794Z</time></trkpt><trkpt lat="45.6413516" lon="11.3422173"><ele>688.0</ele><time>2026-04-04T14:01:05.794Z</time></trkpt><trkpt lat="45.6414095" lon="11.3423111"><ele>688.0</ele><time>2026-04-04T14:01:08.793Z</time></trkpt><trkpt lat="45.6414903" lon="11.3424151"><ele>688.0</ele><time>2026-04-04T14:01:10.793Z</time></trkpt><trkpt lat="45.6415487" lon="11.3424721"><ele>688.8</ele><time>2026-04-04T14:01:11.793Z</time></trkpt><trkpt lat="45.6416116" lon="11.3425312"><ele>689.5999999999999</ele><time>2026-04-04T14:01:12.793Z</time></trkpt><trkpt lat="45.641684" lon="11.3426025"><ele>690.4000000000001</ele><time>2026-04-04T14:01:13.793Z</time></trkpt><trkpt lat="45.6417597" lon="11.3426931"><ele>691.2</ele><time>2026-04-04T14:01:14.793Z</time></trkpt><trkpt lat="45.641837" lon="11.3427903"><ele>692.0</ele><time>2026-04-04T14:01:15.793Z</time></trkpt><trkpt lat="45.6419166" lon="11.3428925"><ele>694.2</ele><time>2026-04-04T14:01:16.793Z</time></trkpt><trkpt lat="45.6420026" lon="11.3429933"><ele>696.4000000000001</ele><time>2026-04-04T14:01:17.793Z</time></trkpt><trkpt lat="45.6420865" lon="11.3430982"><ele>698.5999999999999</ele><time>2026-04-04T14:01:18.793Z</time></trkpt><trkpt lat="45.6421656" lon="11.3431956"><ele>700.8</ele><time>2026-04-04T14:01:19.793Z</time></trkpt><trkpt lat="45.6422367" lon="11.3432701"><ele>703.0</ele><time>2026-04-04T14:01:20.793Z</time></trkpt><trkpt lat="45.6423112" lon="11.34332"><ele>703.0</ele><time>2026-04-04T14:01:21.793Z</time></trkpt><trkpt lat="45.6423891" lon="11.3433214"><ele>703.0</ele><time>2026-04-04T14:01:22.794Z</time></trkpt><trkpt lat="45.642467" lon="11.3432701"><ele>703.0</ele><time>2026-04-04T14:01:23.794Z</time></trkpt><trkpt lat="45.6425308" lon="11.3431769"><ele>703.0</ele><time>2026-04-04T14:01:24.793Z</time></trkpt><trkpt lat="45.6425921" lon="11.343095"><ele>703.0</ele><time>2026-04-04T14:01:25.794Z</time></trkpt><trkpt lat="45.6426609" lon="11.343017"><ele>703.0</ele><time>2026-04-04T14:01:26.794Z</time></trkpt><trkpt lat="45.6427768" lon="11.3430889"><ele>696.5</ele><time>2026-04-04T14:01:27.793Z</time></trkpt><trkpt lat="45.6428844" lon="11.3431301"><ele>690.0</ele><time>2026-04-04T14:01:28.794Z</time></trkpt><trkpt lat="45.6429983" lon="11.3431725"><ele>683.5</ele><time>2026-04-04T14:01:29.793Z</time></trkpt><trkpt lat="45.6431131" lon="11.3432084"><ele>677.0</ele><time>2026-04-04T14:01:30.793Z</time></trkpt><trkpt lat="45.6432197" lon="11.3432305"><ele>677.0</ele><time>2026-04-04T14:01:31.793Z</time></trkpt><trkpt lat="45.6433222" lon="11.3432675"><ele>677.0</ele><time>2026-04-04T14:01:32.793Z</time></trkpt><trkpt lat="45.6434209" lon="11.3433346"><ele>677.0</ele><time>2026-04-04T14:01:33.793Z</time></trkpt><trkpt lat="45.6435047" lon="11.3434433"><ele>677.0</ele><time>2026-04-04T14:01:34.794Z</time></trkpt><trkpt lat="45.6435512" lon="11.3435636"><ele>677.0</ele><time>2026-04-04T14:01:35.793Z</time></trkpt><trkpt lat="45.6435558" lon="11.3436892"><ele>677.0</ele><time>2026-04-04T14:01:36.794Z</time></trkpt><trkpt lat="45.6435233" lon="11.3438183"><ele>677.0</ele><time>2026-04-04T14:01:37.794Z</time></trkpt><trkpt lat="45.6434639" lon="11.3439473"><ele>677.0</ele><time>2026-04-04T14:01:38.793Z</time></trkpt><trkpt lat="45.6433735" lon="11.3440703"><ele>677.0</ele><time>2026-04-04T14:01:39.793Z</time></trkpt><trkpt lat="45.6432822" lon="11.3441886"><ele>675.2</ele><time>2026-04-04T14:01:40.794Z</time></trkpt><trkpt lat="45.6431916" lon="11.344313"><ele>673.4000000000001</ele><time>2026-04-04T14:01:41.793Z</time></trkpt><trkpt lat="45.643105" lon="11.3444322"><ele>671.5999999999999</ele><time>2026-04-04T14:01:42.793Z</time></trkpt><trkpt lat="45.6430305" lon="11.3445315"><ele>669.8</ele><time>2026-04-04T14:01:43.793Z</time></trkpt><trkpt lat="45.6429755" lon="11.3446363"><ele>668.0</ele><time>2026-04-04T14:01:44.793Z</time></trkpt><trkpt lat="45.6429588" lon="11.3447485"><ele>667.2</ele><time>2026-04-04T14:01:45.793Z</time></trkpt><trkpt lat="45.6429759" lon="11.3448526"><ele>666.4</ele><time>2026-04-04T14:01:46.793Z</time></trkpt><trkpt lat="45.6430277" lon="11.3449602"><ele>665.6</ele><time>2026-04-04T14:01:47.793Z</time></trkpt><trkpt lat="45.6431013" lon="11.3450699"><ele>664.8000000000001</ele><time>2026-04-04T14:01:48.793Z</time></trkpt><trkpt lat="45.643164" lon="11.3452004"><ele>664.0</ele><time>2026-04-04T14:01:49.793Z</time></trkpt><trkpt lat="45.6432079" lon="11.3453474"><ele>664.0</ele><time>2026-04-04T14:01:50.794Z</time></trkpt><trkpt lat="45.6432377" lon="11.3455075"><ele>664.0</ele><time>2026-04-04T14:01:51.794Z</time></trkpt><trkpt lat="45.6432634" lon="11.345674"><ele>664.0</ele><time>2026-04-04T14:01:52.793Z</time></trkpt><trkpt lat="45.6432802" lon="11.345846"><ele>664.0</ele><time>2026-04-04T14:01:53.793Z</time></trkpt><trkpt lat="45.6432623" lon="11.3460095"><ele>662.2</ele><time>2026-04-04T14:01:54.793Z</time></trkpt><trkpt lat="45.6432304" lon="11.3461644"><ele>660.4000000000001</ele><time>2026-04-04T14:01:55.793Z</time></trkpt><trkpt lat="45.6431939" lon="11.3463055"><ele>658.6</ele><time>2026-04-04T14:01:56.793Z</time></trkpt><trkpt lat="45.6431681" lon="11.3464366"><ele>656.8</ele><time>2026-04-04T14:01:57.794Z</time></trkpt><trkpt lat="45.6431615" lon="11.346573"><ele>655.0</ele><time>2026-04-04T14:01:58.793Z</time></trkpt><trkpt lat="45.643181" lon="11.3467186"><ele>653.4</ele><time>2026-04-04T14:01:59.793Z</time></trkpt><trkpt lat="45.6432117" lon="11.3468706"><ele>651.8</ele><time>2026-04-04T14:02:00.793Z</time></trkpt><trkpt lat="45.6432474" lon="11.3470245"><ele>650.2</ele><time>2026-04-04T14:02:01.794Z</time></trkpt><trkpt lat="45.643288" lon="11.3471611"><ele>648.6</ele><time>2026-04-04T14:02:02.793Z</time></trkpt><trkpt lat="45.643347" lon="11.3472786"><ele>647.0</ele><time>2026-04-04T14:02:03.794Z</time></trkpt><trkpt lat="45.643425" lon="11.3473832"><ele>647.0</ele><time>2026-04-04T14:02:04.794Z</time></trkpt><trkpt lat="45.6435138" lon="11.3474852"><ele>647.0</ele><time>2026-04-04T14:02:05.793Z</time></trkpt><trkpt lat="45.6436007" lon="11.3475957"><ele>647.0</ele><time>2026-04-04T14:02:06.794Z</time></trkpt><trkpt lat="45.6436803" lon="11.3477148"><ele>647.0</ele><time>2026-04-04T14:02:07.793Z</time></trkpt><trkpt lat="45.6437436" lon="11.3478553"><ele>647.0</ele><time>2026-04-04T14:02:08.793Z</time></trkpt><trkpt lat="45.6437881" lon="11.3480219"><ele>647.0</ele><time>2026-04-04T14:02:09.793Z</time></trkpt><trkpt lat="45.6438269" lon="11.3481941"><ele>647.0</ele><time>2026-04-04T14:02:10.793Z</time></trkpt><trkpt lat="45.6438632" lon="11.3483621"><ele>647.0</ele><time>2026-04-04T14:02:11.793Z</time></trkpt><trkpt lat="45.6438913" lon="11.3485172"><ele>644.8000000000001</ele><time>2026-04-04T14:02:12.794Z</time></trkpt><trkpt lat="45.6438977" lon="11.3486682"><ele>642.6</ele><time>2026-04-04T14:02:13.794Z</time></trkpt><trkpt lat="45.6438692" lon="11.3488106"><ele>640.4000000000001</ele><time>2026-04-04T14:02:14.794Z</time></trkpt><trkpt lat="45.6438221" lon="11.3489483"><ele>638.2</ele><time>2026-04-04T14:02:15.793Z</time></trkpt><trkpt lat="45.6437671" lon="11.3490742"><ele>636.0</ele><time>2026-04-04T14:02:16.793Z</time></trkpt><trkpt lat="45.6437133" lon="11.3491845"><ele>634.3333333333334</ele><time>2026-04-04T14:02:17.794Z</time></trkpt><trkpt lat="45.6436638" lon="11.3492762"><ele>632.6666666666666</ele><time>2026-04-04T14:02:18.793Z</time></trkpt><trkpt lat="45.6436099" lon="11.3493562"><ele>631.0</ele><time>2026-04-04T14:02:19.794Z</time></trkpt><trkpt lat="45.6435573" lon="11.3494152"><ele>629.3333333333333</ele><time>2026-04-04T14:02:20.793Z</time></trkpt><trkpt lat="45.6434754" lon="11.3495034"><ele>627.6666666666666</ele><time>2026-04-04T14:02:22.794Z</time></trkpt><trkpt lat="45.643378" lon="11.349513"><ele>626.0</ele><time>2026-04-04T14:02:24.793Z</time></trkpt><trkpt lat="45.6432562" lon="11.349531"><ele>625.0</ele><time>2026-04-04T14:02:26.793Z</time></trkpt><trkpt lat="45.6431858" lon="11.3495451"><ele>624.0</ele><time>2026-04-04T14:02:27.794Z</time></trkpt><trkpt lat="45.6431166" lon="11.3495526"><ele>623.0</ele><time>2026-04-04T14:02:28.793Z</time></trkpt><trkpt lat="45.6430007" lon="11.349544"><ele>622.0</ele><time>2026-04-04T14:02:30.793Z</time></trkpt><trkpt lat="45.6429178" lon="11.3494987"><ele>621.0</ele><time>2026-04-04T14:02:32.794Z</time></trkpt><trkpt lat="45.6428845" lon="11.3493792"><ele>620.0</ele><time>2026-04-04T14:02:34.793Z</time></trkpt><trkpt lat="45.6428831" lon="11.3492202"><ele>620.0</ele><time>2026-04-04T14:02:36.793Z</time></trkpt><trkpt lat="45.6429029" lon="11.3490728"><ele>620.0</ele><time>2026-04-04T14:02:38.794Z</time></trkpt><trkpt lat="45.6428927" lon="11.3489038"><ele>620.0</ele><time>2026-04-04T14:02:40.793Z</time></trkpt><trkpt lat="45.6428106" lon="11.3487638"><ele>620.0</ele><time>2026-04-04T14:02:42.794Z</time></trkpt><trkpt lat="45.6427429" lon="11.3486987"><ele>620.0</ele><time>2026-04-04T14:02:43.793Z</time></trkpt><trkpt lat="45.6426636" lon="11.348644"><ele>618.8</ele><time>2026-04-04T14:02:44.793Z</time></trkpt><trkpt lat="45.6425675" lon="11.3485985"><ele>617.6</ele><time>2026-04-04T14:02:45.793Z</time></trkpt><trkpt lat="45.6424595" lon="11.3485626"><ele>616.4</ele><time>2026-04-04T14:02:46.793Z</time></trkpt><trkpt lat="45.6423522" lon="11.3485297"><ele>615.2</ele><time>2026-04-04T14:02:47.793Z</time></trkpt><trkpt lat="45.6422444" lon="11.3485023"><ele>614.0</ele><time>2026-04-04T14:02:48.793Z</time></trkpt><trkpt lat="45.6421475" lon="11.3484961"><ele>614.0</ele><time>2026-04-04T14:02:49.794Z</time></trkpt><trkpt lat="45.6420648" lon="11.3485234"><ele>614.0</ele><time>2026-04-04T14:02:50.793Z</time></trkpt><trkpt lat="45.6419745" lon="11.3485628"><ele>614.0</ele><time>2026-04-04T14:02:51.794Z</time></trkpt><trkpt lat="45.6419068" lon="11.3486074"><ele>614.0</ele><time>2026-04-04T14:02:52.793Z</time></trkpt><trkpt lat="45.641828" lon="11.3486223"><ele>614.0</ele><time>2026-04-04T14:02:53.793Z</time></trkpt><trkpt lat="45.6417494" lon="11.3486203"><ele>614.0</ele><time>2026-04-04T14:02:54.793Z</time></trkpt><trkpt lat="45.641644" lon="11.3485889"><ele>614.6</ele><time>2026-04-04T14:02:55.793Z</time></trkpt><trkpt lat="45.6415465" lon="11.3485412"><ele>615.2</ele><time>2026-04-04T14:02:56.793Z</time></trkpt><trkpt lat="45.6414552" lon="11.3484696"><ele>615.8000000000001</ele><time>2026-04-04T14:02:57.793Z</time></trkpt><trkpt lat="45.6413752" lon="11.3484107"><ele>616.4</ele><time>2026-04-04T14:02:58.793Z</time></trkpt><trkpt lat="45.6412982" lon="11.348372"><ele>617.0</ele><time>2026-04-04T14:02:59.794Z</time></trkpt><trkpt lat="45.6412093" lon="11.34835"><ele>618.0</ele><time>2026-04-04T14:03:00.793Z</time></trkpt><trkpt lat="45.6411107" lon="11.3483595"><ele>619.0</ele><time>2026-04-04T14:03:01.793Z</time></trkpt><trkpt lat="45.641006" lon="11.3483898"><ele>620.0</ele><time>2026-04-04T14:03:02.793Z</time></trkpt><trkpt lat="45.6409" lon="11.3484467"><ele>621.0</ele><time>2026-04-04T14:03:03.793Z</time></trkpt><trkpt lat="45.6408002" lon="11.3484923"><ele>622.0</ele><time>2026-04-04T14:03:04.794Z</time></trkpt><trkpt lat="45.6407096" lon="11.3485278"><ele>622.0</ele><time>2026-04-04T14:03:05.793Z</time></trkpt><trkpt lat="45.6406282" lon="11.3485375"><ele>622.0</ele><time>2026-04-04T14:03:06.794Z</time></trkpt><trkpt lat="45.6405475" lon="11.3485282"><ele>622.0</ele><time>2026-04-04T14:03:07.793Z</time></trkpt><trkpt lat="45.6404758" lon="11.3485163"><ele>622.0</ele><time>2026-04-04T14:03:08.794Z</time></trkpt><trkpt lat="45.6403951" lon="11.3485212"><ele>622.0</ele><time>2026-04-04T14:03:09.793Z</time></trkpt><trkpt lat="45.6403216" lon="11.3485523"><ele>622.0</ele><time>2026-04-04T14:03:10.793Z</time></trkpt><trkpt lat="45.6402513" lon="11.3486051"><ele>621.5</ele><time>2026-04-04T14:03:11.793Z</time></trkpt><trkpt lat="45.640092" lon="11.3487598"><ele>621.0</ele><time>2026-04-04T14:03:13.794Z</time></trkpt><trkpt lat="45.640013" lon="11.3488611"><ele>620.5</ele><time>2026-04-04T14:03:14.793Z</time></trkpt><trkpt lat="45.6399375" lon="11.348977"><ele>620.0</ele><time>2026-04-04T14:03:15.794Z</time></trkpt><trkpt lat="45.6398592" lon="11.3490925"><ele>620.0</ele><time>2026-04-04T14:03:16.794Z</time></trkpt><trkpt lat="45.6397751" lon="11.349195"><ele>620.0</ele><time>2026-04-04T14:03:17.793Z</time></trkpt><trkpt lat="45.6396992" lon="11.3492896"><ele>620.0</ele><time>2026-04-04T14:03:18.794Z</time></trkpt><trkpt lat="45.6396349" lon="11.3493949"><ele>620.0</ele><time>2026-04-04T14:03:19.794Z</time></trkpt><trkpt lat="45.6395566" lon="11.3495279"><ele>620.0</ele><time>2026-04-04T14:03:20.793Z</time></trkpt><trkpt lat="45.6394795" lon="11.3496549"><ele>620.4</ele><time>2026-04-04T14:03:21.793Z</time></trkpt><trkpt lat="45.639403" lon="11.3497676"><ele>620.8</ele><time>2026-04-04T14:03:22.794Z</time></trkpt><trkpt lat="45.6393396" lon="11.3498776"><ele>621.2</ele><time>2026-04-04T14:03:23.793Z</time></trkpt><trkpt lat="45.6392951" lon="11.3499952"><ele>621.6</ele><time>2026-04-04T14:03:24.794Z</time></trkpt><trkpt lat="45.6392516" lon="11.3501359"><ele>622.0</ele><time>2026-04-04T14:03:25.793Z</time></trkpt><trkpt lat="45.639205" lon="11.3502628"><ele>622.0</ele><time>2026-04-04T14:03:26.793Z</time></trkpt><trkpt lat="45.6391646" lon="11.3503701"><ele>622.0</ele><time>2026-04-04T14:03:27.793Z</time></trkpt><trkpt lat="45.6391438" lon="11.3504656"><ele>622.0</ele><time>2026-04-04T14:03:28.794Z</time></trkpt><trkpt lat="45.6391045" lon="11.3506469"><ele>622.0</ele><time>2026-04-04T14:03:30.793Z</time></trkpt><trkpt lat="45.6390628" lon="11.3507599"><ele>622.0</ele><time>2026-04-04T14:03:31.794Z</time></trkpt><trkpt lat="45.6390172" lon="11.3508747"><ele>620.0</ele><time>2026-04-04T14:03:32.793Z</time></trkpt><trkpt lat="45.63898" lon="11.3510067"><ele>618.0</ele><time>2026-04-04T14:03:33.794Z</time></trkpt><trkpt lat="45.6389503" lon="11.3511471"><ele>616.0</ele><time>2026-04-04T14:03:34.793Z</time></trkpt><trkpt lat="45.6389214" lon="11.351277"><ele>614.0</ele><time>2026-04-04T14:03:35.793Z</time></trkpt><trkpt lat="45.6388975" lon="11.3513902"><ele>612.0</ele><time>2026-04-04T14:03:36.793Z</time></trkpt><trkpt lat="45.638881" lon="11.3515044"><ele>611.5</ele><time>2026-04-04T14:03:37.794Z</time></trkpt><trkpt lat="45.6388538" lon="11.351611"><ele>611.0</ele><time>2026-04-04T14:03:38.793Z</time></trkpt><trkpt lat="45.6388179" lon="11.3517262"><ele>610.5</ele><time>2026-04-04T14:03:39.794Z</time></trkpt><trkpt lat="45.6387769" lon="11.3518437"><ele>610.0</ele><time>2026-04-04T14:03:40.793Z</time></trkpt><trkpt lat="45.6387358" lon="11.3519601"><ele>609.5</ele><time>2026-04-04T14:03:41.794Z</time></trkpt><trkpt lat="45.6387029" lon="11.3520707"><ele>609.0</ele><time>2026-04-04T14:03:42.794Z</time></trkpt><trkpt lat="45.6386805" lon="11.3521815"><ele>608.3333333333334</ele><time>2026-04-04T14:03:43.794Z</time></trkpt><trkpt lat="45.6386624" lon="11.3522832"><ele>607.6666666666666</ele><time>2026-04-04T14:03:44.793Z</time></trkpt><trkpt lat="45.6386477" lon="11.3523852"><ele>607.0</ele><time>2026-04-04T14:03:45.793Z</time></trkpt><trkpt lat="45.6386418" lon="11.3524922"><ele>606.3333333333333</ele><time>2026-04-04T14:03:46.794Z</time></trkpt><trkpt lat="45.6386456" lon="11.3525931"><ele>605.6666666666666</ele><time>2026-04-04T14:03:47.793Z</time></trkpt><trkpt lat="45.6386201" lon="11.3527571"><ele>605.0</ele><time>2026-04-04T14:03:49.794Z</time></trkpt><trkpt lat="45.6385769" lon="11.352834"><ele>605.0</ele><time>2026-04-04T14:03:50.793Z</time></trkpt><trkpt lat="45.6385367" lon="11.352909"><ele>605.0</ele><time>2026-04-04T14:03:51.793Z</time></trkpt><trkpt lat="45.6384972" lon="11.3529795"><ele>605.0</ele><time>2026-04-04T14:03:52.793Z</time></trkpt><trkpt lat="45.6384602" lon="11.3530574"><ele>605.0</ele><time>2026-04-04T14:03:53.793Z</time></trkpt><trkpt lat="45.6384345" lon="11.3531472"><ele>605.0</ele><time>2026-04-04T14:03:54.794Z</time></trkpt><trkpt lat="45.6383885" lon="11.3532875"><ele>605.0</ele><time>2026-04-04T14:03:56.793Z</time></trkpt><trkpt lat="45.6383337" lon="11.353382"><ele>605.5</ele><time>2026-04-04T14:03:58.793Z</time></trkpt><trkpt lat="45.6382965" lon="11.3534679"><ele>606.0</ele><time>2026-04-04T14:04:00.794Z</time></trkpt><trkpt lat="45.638275" lon="11.3535598"><ele>606.5</ele><time>2026-04-04T14:04:03.793Z</time></trkpt><trkpt lat="45.6382373" lon="11.3536341"><ele>607.0</ele><time>2026-04-04T14:04:06.793Z</time></trkpt><trkpt lat="45.6381676" lon="11.353597"><ele>607.5</ele><time>2026-04-04T14:04:08.793Z</time></trkpt><trkpt lat="45.6380653" lon="11.3535904"><ele>608.0</ele><time>2026-04-04T14:04:10.793Z</time></trkpt><trkpt lat="45.6379988" lon="11.3536849"><ele>608.0</ele><time>2026-04-04T14:04:12.793Z</time></trkpt><trkpt lat="45.6379341" lon="11.3537133"><ele>608.0</ele><time>2026-04-04T14:04:14.793Z</time></trkpt><trkpt lat="45.6379038" lon="11.3536322"><ele>608.0</ele><time>2026-04-04T14:05:45.793Z</time></trkpt><trkpt lat="45.6378991" lon="11.353532"><ele>608.0</ele><time>2026-04-04T14:05:56.793Z</time></trkpt><trkpt lat="45.6379233" lon="11.3536201"><ele>608.0</ele><time>2026-04-04T14:06:46.875Z</time></trkpt><trkpt lat="45.638043" lon="11.3535495"><ele>608.0</ele><time>2026-04-04T14:14:07.3Z</time></trkpt><trkpt lat="45.6378743" lon="11.3536206"><ele>608.0</ele><time>2026-04-04T14:14:15.781Z</time></trkpt><trkpt lat="45.6380316" lon="11.3535705"><ele>608.0</ele><time>2026-04-04T14:16:57.296Z</time></trkpt><trkpt lat="45.637966" lon="11.3535742"><ele>608.0</ele><time>2026-04-04T14:21:48.779Z</time></trkpt><trkpt lat="45.6379285" lon="11.353653"><ele>608.0</ele><time>2026-04-04T14:28:03.858Z</time></trkpt><trkpt lat="45.6315225" lon="11.3603019"><ele>548.0</ele><time>2026-04-04T14:30:31.031Z</time></trkpt><trkpt lat="45.6315157" lon="11.3602024"><ele>488.0</ele><time>2026-04-04T14:31:59.775Z</time></trkpt><trkpt lat="45.6307771" lon="11.3630831"><ele>465.5</ele><time>2026-04-04T14:33:58.771Z</time></trkpt><trkpt lat="45.6307702" lon="11.3629905"><ele>443.0</ele><time>2026-04-04T14:34:59.775Z</time></trkpt><trkpt lat="45.6225719" lon="11.3770754"><ele>292.0</ele><time>2026-04-04T14:40:07.61Z</time></trkpt><trkpt lat="45.6211528" lon="11.3766588"><ele>219.0</ele><time>2026-04-04T14:40:12.926Z</time></trkpt><trkpt lat="45.6185676" lon="11.3841449"><ele>252.0</ele><time>2026-04-04T14:40:34.512Z</time></trkpt><trkpt lat="45.6141411" lon="11.3723029"><ele>239.0</ele><time>2026-04-04T14:41:27.258Z</time></trkpt><trkpt lat="45.613465" lon="11.3736062"><ele>212.0</ele><time>2026-04-04T14:41:33.872Z</time></trkpt><trkpt lat="45.613391" lon="11.376426"><ele>174.0</ele><time>2026-04-04T14:41:53.073Z</time></trkpt><trkpt lat="45.6128305" lon="11.3804884"><ele>164.0</ele><time>2026-04-04T14:42:20.291Z</time></trkpt><trkpt lat="45.6057443" lon="11.3794279"><ele>150.0</ele><time>2026-04-04T14:43:02.273Z</time></trkpt><trkpt lat="45.6010131" lon="11.3844481"><ele>160.0</ele><time>2026-04-04T14:43:14.989Z</time></trkpt><trkpt lat="45.5997524" lon="11.3807238"><ele>152.0</ele><time>2026-04-04T14:43:35.278Z</time></trkpt><trkpt lat="45.5964494" lon="11.3837314"><ele>152.0</ele><time>2026-04-04T14:44:03.261Z</time></trkpt><trkpt lat="45.5957352" lon="11.3835155"><ele>151.0</ele><time>2026-04-04T14:44:10.265Z</time></trkpt><trkpt lat="45.5936478" lon="11.3834565"><ele>151.0</ele><time>2026-04-04T14:44:17.284Z</time></trkpt><trkpt lat="45.5913089" lon="11.3823032"><ele>149.0</ele><time>2026-04-04T14:44:24.248Z</time></trkpt><trkpt lat="45.5901664" lon="11.38343"><ele>151.0</ele><time>2026-04-04T14:44:31.312Z</time></trkpt><trkpt lat="45.589805" lon="11.3824172"><ele>151.0</ele><time>2026-04-04T14:44:38.264Z</time></trkpt><trkpt lat="45.5899027" lon="11.3820675"><ele>151.0</ele><time>2026-04-04T14:44:44.14Z</time></trkpt><trkpt lat="45.5901691" lon="11.3818657"><ele>151.0</ele><time>2026-04-04T14:44:49.977Z</time></trkpt><trkpt lat="45.5900769" lon="11.3816442"><ele>151.0</ele><time>2026-04-04T14:44:57.339Z</time></trkpt><trkpt lat="45.5912918" lon="11.3823744"><ele>145.0</ele><time>2026-04-04T14:45:04.348Z</time></trkpt><trkpt lat="45.5842693" lon="11.3858276"><ele>140.0</ele><time>2026-04-04T14:45:11.266Z</time></trkpt><trkpt lat="45.5832842" lon="11.3873051"><ele>145.0</ele><time>2026-04-04T14:45:32.26Z</time></trkpt><trkpt lat="45.5843095" lon="11.386312"><ele>145.0</ele><time>2026-04-04T14:45:46.271Z</time></trkpt><trkpt lat="45.5843195" lon="11.3857341"><ele>145.0</ele><time>2026-04-04T14:45:53.292Z</time></trkpt><trkpt lat="45.5834196" lon="11.3866603"><ele>142.0</ele><time>2026-04-04T14:46:20.349Z</time></trkpt><trkpt lat="45.5818565" lon="11.3869757"><ele>142.0</ele><time>2026-04-04T14:46:26.952Z</time></trkpt><trkpt lat="45.5817882" lon="11.3871495"><ele>142.0</ele><time>2026-04-04T14:46:33.956Z</time></trkpt><trkpt lat="45.5820736" lon="11.3886818"><ele>142.0</ele><time>2026-04-04T14:46:40.359Z</time></trkpt><trkpt lat="45.5822811" lon="11.3891184"><ele>142.0</ele><time>2026-04-04T14:46:46.95Z</time></trkpt><trkpt lat="45.5828146" lon="11.3904666"><ele>139.0</ele><time>2026-04-04T14:46:52.729Z</time></trkpt><trkpt lat="45.582576" lon="11.391736"><ele>141.0</ele><time>2026-04-04T14:46:59.276Z</time></trkpt><trkpt lat="45.5827456" lon="11.3930963"><ele>139.0</ele><time>2026-04-04T14:47:05.714Z</time></trkpt><trkpt lat="45.5831444" lon="11.394405"><ele>139.0</ele><time>2026-04-04T14:47:12.248Z</time></trkpt><trkpt lat="45.5833038" lon="11.3958608"><ele>142.0</ele><time>2026-04-04T14:47:18.722Z</time></trkpt><trkpt lat="45.5840236" lon="11.3970526"><ele>149.0</ele><time>2026-04-04T14:47:25.304Z</time></trkpt><trkpt lat="45.584916" lon="11.39841"><ele>162.0</ele><time>2026-04-04T14:47:31.587Z</time></trkpt><trkpt lat="45.5853855" lon="11.3998701"><ele>162.0</ele><time>2026-04-04T14:47:39.275Z</time></trkpt><trkpt lat="45.5855837" lon="11.4000204"><ele>162.0</ele><time>2026-04-04T14:47:46.282Z</time></trkpt><trkpt lat="45.5858495" lon="11.4009853"><ele>144.0</ele><time>2026-04-04T14:47:53.256Z</time></trkpt><trkpt lat="45.5864324" lon="11.4024894"><ele>166.0</ele><time>2026-04-04T14:48:00.267Z</time></trkpt><trkpt lat="45.5872663" lon="11.4028459"><ele>136.0</ele><time>2026-04-04T14:48:07.34Z</time></trkpt><trkpt lat="45.5834872" lon="11.4063125"><ele>118.0</ele><time>2026-04-04T14:48:27.315Z</time></trkpt><trkpt lat="45.5833493" lon="11.4072763"><ele>118.0</ele><time>2026-04-04T14:48:34.103Z</time></trkpt><trkpt lat="45.5832749" lon="11.4073227"><ele>118.0</ele><time>2026-04-04T14:48:40.593Z</time></trkpt><trkpt lat="45.5798302" lon="11.4100657"><ele>57.0</ele><time>2026-04-04T14:49:15.375Z</time></trkpt><trkpt lat="45.5751265" lon="11.4117883"><ele>55.0</ele><time>2026-04-04T14:49:50.299Z</time></trkpt><trkpt lat="45.5763477" lon="11.4194343"><ele>60.0</ele><time>2026-04-04T14:50:03.538Z</time></trkpt><trkpt lat="45.5730906" lon="11.4211469"><ele>60.0</ele><time>2026-04-04T14:50:22.462Z</time></trkpt><trkpt lat="45.5682751" lon="11.4237067"><ele>51.0</ele><time>2026-04-04T14:50:36.295Z</time></trkpt><trkpt lat="45.5637657" lon="11.4178679"><ele>61.0</ele><time>2026-04-04T14:51:17.896Z</time></trkpt><trkpt lat="45.5647703" lon="11.4244435"><ele>43.0</ele><time>2026-04-04T14:51:31.301Z</time></trkpt><trkpt lat="45.5603764" lon="11.4206204"><ele>44.0</ele><time>2026-04-04T14:51:50.299Z</time></trkpt><trkpt lat="45.5582725" lon="11.4205667"><ele>50.0</ele><time>2026-04-04T14:51:57.268Z</time></trkpt><trkpt lat="45.5564414" lon="11.4175999"><ele>51.0</ele><time>2026-04-04T14:52:24.268Z</time></trkpt><trkpt lat="45.555827" lon="11.4165445"><ele>45.0</ele><time>2026-04-04T14:52:31.288Z</time></trkpt><trkpt lat="45.5549113" lon="11.4134609"><ele>52.0</ele><time>2026-04-04T14:52:38.282Z</time></trkpt><trkpt lat="45.5547901" lon="11.4244098"><ele>62.0</ele><time>2026-04-04T14:52:59.508Z</time></trkpt><trkpt lat="45.5496949" lon="11.4204387"><ele>62.0</ele><time>2026-04-04T14:53:19.31Z</time></trkpt><trkpt lat="45.5496136" lon="11.4203091"><ele>62.0</ele><time>2026-04-04T14:53:26.268Z</time></trkpt><trkpt lat="45.5510527" lon="11.4284742"><ele>58.5</ele><time>2026-04-04T14:54:13.303Z</time></trkpt><trkpt lat="45.5510483" lon="11.4287953"><ele>55.0</ele><time>2026-04-04T14:54:20.527Z</time></trkpt><trkpt lat="45.5464674" lon="11.4313742"><ele>48.0</ele><time>2026-04-04T14:54:55.279Z</time></trkpt><trkpt lat="45.5352" lon="11.4302083"><ele>46.0</ele><time>2026-04-04T14:56:10.461Z</time></trkpt><trkpt lat="45.5324712" lon="11.4426995"><ele>56.0</ele><time>2026-04-04T14:56:31.244Z</time></trkpt><trkpt lat="45.5296043" lon="11.4337076"><ele>53.5</ele><time>2026-04-04T14:56:57.306Z</time></trkpt><trkpt lat="45.529322" lon="11.4338002"><ele>51.0</ele><time>2026-04-04T14:57:04.273Z</time></trkpt><trkpt lat="45.5275701" lon="11.4370258"><ele>44.0</ele><time>2026-04-04T14:57:11.487Z</time></trkpt><trkpt lat="45.5284156" lon="11.4370932"><ele>44.0</ele><time>2026-04-04T14:57:18.514Z</time></trkpt><trkpt lat="45.5285757" lon="11.437196"><ele>44.0</ele><time>2026-04-04T14:57:25.137Z</time></trkpt><trkpt lat="45.5289794" lon="11.4372449"><ele>43.0</ele><time>2026-04-04T14:57:31.512Z</time></trkpt><trkpt lat="45.5293512" lon="11.4381295"><ele>44.0</ele><time>2026-04-04T14:57:38.255Z</time></trkpt><trkpt lat="45.529303" lon="11.4395267"><ele>44.0</ele><time>2026-04-04T14:57:45.267Z</time></trkpt><trkpt lat="45.5295348" lon="11.4410552"><ele>44.0</ele><time>2026-04-04T14:57:52.255Z</time></trkpt><trkpt lat="45.530053" lon="11.4425005"><ele>41.0</ele><time>2026-04-04T14:57:59.244Z</time></trkpt><trkpt lat="45.5305193" lon="11.4439143"><ele>46.0</ele><time>2026-04-04T14:58:06.263Z</time></trkpt><trkpt lat="45.5302858" lon="11.4445745"><ele>46.5</ele><time>2026-04-04T14:58:12.915Z</time></trkpt><trkpt lat="45.5300899" lon="11.4447615"><ele>47.0</ele><time>2026-04-04T14:58:19.566Z</time></trkpt><trkpt lat="45.5290936" lon="11.4464693"><ele>47.0</ele><time>2026-04-04T14:58:26.312Z</time></trkpt><trkpt lat="45.5285838" lon="11.4467279"><ele>47.0</ele><time>2026-04-04T14:58:40.272Z</time></trkpt><trkpt lat="45.5285342" lon="11.4469122"><ele>47.0</ele><time>2026-04-04T14:59:28.334Z</time></trkpt><trkpt lat="45.527715" lon="11.4466999"><ele>43.0</ele><time>2026-04-04T14:59:34.975Z</time></trkpt><trkpt lat="45.5267473" lon="11.4471369"><ele>44.0</ele><time>2026-04-04T14:59:41.29Z</time></trkpt><trkpt lat="45.5261912" lon="11.4474262"><ele>44.0</ele><time>2026-04-04T14:59:47.395Z</time></trkpt><trkpt lat="45.5259398" lon="11.4475479"><ele>44.0</ele><time>2026-04-04T14:59:54.274Z</time></trkpt><trkpt lat="45.5256835" lon="11.4477812"><ele>45.0</ele><time>2026-04-04T15:00:01.256Z</time></trkpt><trkpt lat="45.5248576" lon="11.4480315"><ele>45.0</ele><time>2026-04-04T15:00:05.911Z</time></trkpt><trkpt lat="45.5247348" lon="11.4481019"><ele>45.0</ele><time>2026-04-04T15:00:09.151Z</time></trkpt><trkpt lat="45.524418" lon="11.4482296"><ele>45.0</ele><time>2026-04-04T15:00:10.774Z</time></trkpt><trkpt lat="45.524303" lon="11.4482289"><ele>45.0</ele><time>2026-04-04T15:00:11.773Z</time></trkpt><trkpt lat="45.5138608" lon="11.4566827"><ele>46.0</ele><time>2026-04-04T15:01:49.936Z</time></trkpt><trkpt lat="45.5140775" lon="11.4578918"><ele>45.0</ele><time>2026-04-04T15:01:57.263Z</time></trkpt><trkpt lat="45.5134521" lon="11.4579474"><ele>44.0</ele><time>2026-04-04T15:02:03.538Z</time></trkpt><trkpt lat="45.5132667" lon="11.4607057"><ele>44.0</ele><time>2026-04-04T15:02:24.718Z</time></trkpt><trkpt lat="45.5136138" lon="11.4619245"><ele>44.0</ele><time>2026-04-04T15:02:34.393Z</time></trkpt><trkpt lat="45.5127924" lon="11.4625056"><ele>43.0</ele><time>2026-04-04T15:02:40.069Z</time></trkpt><trkpt lat="45.5118611" lon="11.4663687"><ele>43.0</ele><time>2026-04-04T15:03:36.396Z</time></trkpt><trkpt lat="45.5116339" lon="11.466341"><ele>43.0</ele><time>2026-04-04T15:06:18.604Z</time></trkpt></trkseg></trk></gpx>